<?xml version='1.0' encoding='UTF-8'?><gpx version="1.1" creator="JPX - https://github.com/jenetics/jpx" xmlns="http://www.topografix.com/GPX/1/1"><trk><trkseg><trkpt lat="36.88917608875561" lon="15.06725558148868"><ele>103.75</ele><time>2026-04-11T13:22:04.815Z</time></trkpt><trkpt lat="36.889303251146615" lon="15.067002513557702"><ele>104.5</ele><time>2026-04-11T13:22:08.815Z</time></trkpt><trkpt lat="36.88930076448816" lon="15.067082697056415"><ele>105.25</ele><time>2026-04-11T13:25:58Z</time></trkpt><trkpt lat="36.88939758456455" lon="15.067151261578264"><ele>106.0</ele><time>2026-04-11T13:26:02Z</time></trkpt><trkpt lat="36.88946714437475" lon="15.067165280646213"><ele>106.00000000000001</ele><time>2026-04-11T13:26:03Z</time></trkpt><trkpt lat="36.88953128204752" lon="15.067178665501249"><ele>106.0</ele><time>2026-04-11T13:26:04Z</time></trkpt><trkpt lat="36.88961152576794" lon="15.067212452748748"><ele>106.0</ele><time>2026-04-11T13:26:07Z</time></trkpt><trkpt lat="36.889680927988756" lon="15.067242570869361"><ele>106.0</ele><time>2026-04-11T13:26:08Z</time></trkpt><trkpt lat="36.889771814585565" lon="15.067273724317898"><ele>106.00000000000001</ele><time>2026-04-11T13:26:09Z</time></trkpt><trkpt lat="36.88988022590352" lon="15.067318977102847"><ele>106.0</ele><time>2026-04-11T13:26:10Z</time></trkpt><trkpt lat="36.890017399831954" lon="15.067367159572871"><ele>107.25</ele><time>2026-04-11T13:26:11Z</time></trkpt><trkpt lat="36.89010108941727" lon="15.06740564672692"><ele>108.5</ele><time>2026-04-11T13:26:12Z</time></trkpt><trkpt lat="36.890179974273394" lon="15.067458452615046"><ele>109.75</ele><time>2026-04-11T13:26:14Z</time></trkpt><trkpt lat="36.890245673595906" lon="15.067311838171252"><ele>111.0</ele><time>2026-04-11T13:26:17Z</time></trkpt><trkpt lat="36.89029990447757" lon="15.06706883972839"><ele>111.0</ele><time>2026-04-11T13:26:19Z</time></trkpt><trkpt lat="36.890309206266316" lon="15.066958307931936"><ele>111.0</ele><time>2026-04-11T13:26:20Z</time></trkpt><trkpt lat="36.89034070024773" lon="15.066877195245727"><ele>111.0</ele><time>2026-04-11T13:26:21Z</time></trkpt><trkpt lat="36.890364006862484" lon="15.06676920047842"><ele>111.0</ele><time>2026-04-11T13:26:22Z</time></trkpt><trkpt lat="36.89039804033296" lon="15.066634760469599"><ele>111.0</ele><time>2026-04-11T13:26:23Z</time></trkpt><trkpt lat="36.89044292297795" lon="15.066476638584406"><ele>110.75</ele><time>2026-04-11T13:26:24Z</time></trkpt><trkpt lat="36.89048249190023" lon="15.066301899356477"><ele>110.5</ele><time>2026-04-11T13:26:25.001Z</time></trkpt><trkpt lat="36.89052369411875" lon="15.066143024959134"><ele>110.25</ele><time>2026-04-11T13:26:26.001Z</time></trkpt><trkpt lat="36.89057508656396" lon="15.065981866703131"><ele>110.0</ele><time>2026-04-11T13:26:27.001Z</time></trkpt><trkpt lat="36.89062270788222" lon="15.065792777140198"><ele>109.25</ele><time>2026-04-11T13:26:28.001Z</time></trkpt><trkpt lat="36.89066942964004" lon="15.065612035197562"><ele>108.5</ele><time>2026-04-11T13:26:29.001Z</time></trkpt><trkpt lat="36.890716519605334" lon="15.065437493131473"><ele>107.75</ele><time>2026-04-11T13:26:30.001Z</time></trkpt><trkpt lat="36.89076217272453" lon="15.065269664436304"><ele>107.0</ele><time>2026-04-11T13:26:31.001Z</time></trkpt><trkpt lat="36.89079863442338" lon="15.065109778500727"><ele>106.0</ele><time>2026-04-11T13:26:32.001Z</time></trkpt><trkpt lat="36.89083611671503" lon="15.064895759490472"><ele>105.0</ele><time>2026-04-11T13:26:33.001Z</time></trkpt><trkpt lat="36.89085986142541" lon="15.064655183616589"><ele>104.0</ele><time>2026-04-11T13:26:34.001Z</time></trkpt><trkpt lat="36.89089056808836" lon="15.064425505997916"><ele>104.0</ele><time>2026-04-11T13:26:35.001Z</time></trkpt><trkpt lat="36.89092353467403" lon="15.064205836233485"><ele>104.0</ele><time>2026-04-11T13:26:36.001Z</time></trkpt><trkpt lat="36.890947159953825" lon="15.064011094672292"><ele>104.0</ele><time>2026-04-11T13:26:37.001Z</time></trkpt><trkpt lat="36.890964589931365" lon="15.06385569060893"><ele>103.0</ele><time>2026-04-11T13:26:38.001Z</time></trkpt><trkpt lat="36.890985381341196" lon="15.063706633647618"><ele>102.0</ele><time>2026-04-11T13:26:39.001Z</time></trkpt><trkpt lat="36.890989292305896" lon="15.063616355055084"><ele>101.0</ele><time>2026-04-11T13:26:40.001Z</time></trkpt><trkpt lat="36.89094867100059" lon="15.063500911823342"><ele>100.0</ele><time>2026-04-11T13:26:42.001Z</time></trkpt><trkpt lat="36.89087738792236" lon="15.063346540472962"><ele>99.0</ele><time>2026-04-11T13:26:43.001Z</time></trkpt><trkpt lat="36.89078794334587" lon="15.063179949082567"><ele>97.5</ele><time>2026-04-11T13:26:44.001Z</time></trkpt><trkpt lat="36.89072676339696" lon="15.063021177431441"><ele>96.0</ele><time>2026-04-11T13:26:45.001Z</time></trkpt><trkpt lat="36.89067625559769" lon="15.062868409509866"><ele>94.5</ele><time>2026-04-11T13:26:46.001Z</time></trkpt><trkpt lat="36.890623238607915" lon="15.062744441700058"><ele>93.0</ele><time>2026-04-11T13:26:47.001Z</time></trkpt><trkpt lat="36.89054927655742" lon="15.06263454446431"><ele>93.0</ele><time>2026-04-11T13:26:48.001Z</time></trkpt><trkpt lat="36.890433208628856" lon="15.062529484912886"><ele>93.0</ele><time>2026-04-11T13:26:49.001Z</time></trkpt><trkpt lat="36.89029636542417" lon="15.062415910410644"><ele>93.0</ele><time>2026-04-11T13:26:50.001Z</time></trkpt><trkpt lat="36.89016078424016" lon="15.062308931996618"><ele>90.66666666666667</ele><time>2026-04-11T13:26:51.001Z</time></trkpt><trkpt lat="36.890008514265176" lon="15.062259707884609"><ele>88.33333333333334</ele><time>2026-04-11T13:26:52.001Z</time></trkpt><trkpt lat="36.88984743163704" lon="15.062281797269184"><ele>86.0</ele><time>2026-04-11T13:26:53.001Z</time></trkpt><trkpt lat="36.8896910213255" lon="15.06233282567568"><ele>86.0</ele><time>2026-04-11T13:26:54.001Z</time></trkpt><trkpt lat="36.88954256195435" lon="15.062414542772663"><ele>86.0</ele><time>2026-04-11T13:26:55.001Z</time></trkpt><trkpt lat="36.88940809778327" lon="15.06253349539999"><ele>86.0</ele><time>2026-04-11T13:26:56.001Z</time></trkpt><trkpt lat="36.88929846387184" lon="15.06266182306847"><ele>86.25</ele><time>2026-04-11T13:26:57.001Z</time></trkpt><trkpt lat="36.88919303894747" lon="15.06275733843299"><ele>86.5</ele><time>2026-04-11T13:26:58.001Z</time></trkpt><trkpt lat="36.88906741267608" lon="15.062794458030668"><ele>86.75</ele><time>2026-04-11T13:26:59.001Z</time></trkpt><trkpt lat="36.88891814622022" lon="15.06279483029543"><ele>87.0</ele><time>2026-04-11T13:27:00.001Z</time></trkpt><trkpt lat="36.88876263584258" lon="15.06276148698815"><ele>87.0</ele><time>2026-04-11T13:27:01.001Z</time></trkpt><trkpt lat="36.88859689221064" lon="15.0626985493978"><ele>87.0</ele><time>2026-04-11T13:27:02.001Z</time></trkpt><trkpt lat="36.88842815755619" lon="15.062612869289946"><ele>87.0</ele><time>2026-04-11T13:27:03.001Z</time></trkpt><trkpt lat="36.88826004193471" lon="15.062532731168792"><ele>85.33333333333333</ele><time>2026-04-11T13:27:04.001Z</time></trkpt><trkpt lat="36.888098886619225" lon="15.06246617812349"><ele>83.66666666666666</ele><time>2026-04-11T13:27:05.001Z</time></trkpt><trkpt lat="36.887942848694806" lon="15.062400099047705"><ele>82.0</ele><time>2026-04-11T13:27:06.001Z</time></trkpt><trkpt lat="36.887791442370116" lon="15.062329025916034"><ele>81.75</ele><time>2026-04-11T13:27:07.001Z</time></trkpt><trkpt lat="36.88765030439768" lon="15.062247248758876"><ele>81.5</ele><time>2026-04-11T13:27:08.001Z</time></trkpt><trkpt lat="36.887535891395146" lon="15.06214820734406"><ele>81.25</ele><time>2026-04-11T13:27:09.001Z</time></trkpt><trkpt lat="36.88743503264688" lon="15.062042186573695"><ele>81.0</ele><time>2026-04-11T13:27:10.001Z</time></trkpt><trkpt lat="36.88734407553465" lon="15.061944511247239"><ele>80.2</ele><time>2026-04-11T13:27:11.001Z</time></trkpt><trkpt lat="36.88724686221705" lon="15.061850665363977"><ele>79.39999999999999</ele><time>2026-04-11T13:27:12.001Z</time></trkpt><trkpt lat="36.887149986922175" lon="15.061763735845775"><ele>78.6</ele><time>2026-04-11T13:27:13.001Z</time></trkpt><trkpt lat="36.88708237568081" lon="15.061702784697404"><ele>77.8</ele><time>2026-04-11T13:27:14.001Z</time></trkpt><trkpt lat="36.88698199114633" lon="15.061626329910677"><ele>77.0</ele><time>2026-04-11T13:27:16.001Z</time></trkpt><trkpt lat="36.886891336384195" lon="15.061626911261222"><ele>77.0</ele><time>2026-04-11T13:27:17.001Z</time></trkpt><trkpt lat="36.88678446169545" lon="15.061685671976004"><ele>77.0</ele><time>2026-04-11T13:27:18.001Z</time></trkpt><trkpt lat="36.88663963383764" lon="15.061745560412756"><ele>77.0</ele><time>2026-04-11T13:27:19.001Z</time></trkpt><trkpt lat="36.88649545841616" lon="15.061826859413069"><ele>77.0</ele><time>2026-04-11T13:27:20.001Z</time></trkpt><trkpt lat="36.88634622413969" lon="15.061910007633166"><ele>80.33333333333334</ele><time>2026-04-11T13:27:21Z</time></trkpt><trkpt lat="36.886188604971295" lon="15.062002964070084"><ele>83.66666666666667</ele><time>2026-04-11T13:27:22Z</time></trkpt><trkpt lat="36.88601106761305" lon="15.062077052806497"><ele>87.0</ele><time>2026-04-11T13:27:23Z</time></trkpt><trkpt lat="36.88583381121962" lon="15.062164591808111"><ele>88.33333333333333</ele><time>2026-04-11T13:27:24Z</time></trkpt><trkpt lat="36.885657744719005" lon="15.062258728017104"><ele>89.66666666666666</ele><time>2026-04-11T13:27:25Z</time></trkpt><trkpt lat="36.885474387716776" lon="15.062352795526932"><ele>91.0</ele><time>2026-04-11T13:27:26Z</time></trkpt><trkpt lat="36.88528158765527" lon="15.062440733758914"><ele>89.33333333333333</ele><time>2026-04-11T13:27:27Z</time></trkpt><trkpt lat="36.885083523754254" lon="15.062522802570436"><ele>87.66666666666667</ele><time>2026-04-11T13:27:28Z</time></trkpt><trkpt lat="36.88488809326163" lon="15.062597779068149"><ele>86.0</ele><time>2026-04-11T13:27:29Z</time></trkpt><trkpt lat="36.884692631532" lon="15.062667657666601"><ele>86.0</ele><time>2026-04-11T13:27:30Z</time></trkpt><trkpt lat="36.8844992399638" lon="15.062738981879892"><ele>86.0</ele><time>2026-04-11T13:27:31Z</time></trkpt><trkpt lat="36.88430446621858" lon="15.062808029256388"><ele>86.0</ele><time>2026-04-11T13:27:32Z</time></trkpt><trkpt lat="36.88410750049684" lon="15.062876314100167"><ele>85.66666666666667</ele><time>2026-04-11T13:27:33Z</time></trkpt><trkpt lat="36.883919739921375" lon="15.062941158308114"><ele>85.33333333333333</ele><time>2026-04-11T13:27:34Z</time></trkpt><trkpt lat="36.883747392561844" lon="15.063000444195879"><ele>85.0</ele><time>2026-04-11T13:27:35Z</time></trkpt><trkpt lat="36.88357006192657" lon="15.063044958876372"><ele>82.66666666666666</ele><time>2026-04-11T13:27:36Z</time></trkpt><trkpt lat="36.883378947616926" lon="15.0630462949075"><ele>80.33333333333333</ele><time>2026-04-11T13:27:37Z</time></trkpt><trkpt lat="36.88318450389029" lon="15.063057371974212"><ele>78.0</ele><time>2026-04-11T13:27:38Z</time></trkpt><trkpt lat="36.882995567519664" lon="15.063081696601978"><ele>78.0</ele><time>2026-04-11T13:27:39Z</time></trkpt><trkpt lat="36.88280972326844" lon="15.063064675905993"><ele>78.0</ele><time>2026-04-11T13:27:40Z</time></trkpt><trkpt lat="36.882638611109286" lon="15.063030264593761"><ele>78.0</ele><time>2026-04-11T13:27:41Z</time></trkpt><trkpt lat="36.88247677167194" lon="15.062950651451803"><ele>78.33333333333333</ele><time>2026-04-11T13:27:42Z</time></trkpt><trkpt lat="36.88232291044811" lon="15.062821011456359"><ele>78.66666666666666</ele><time>2026-04-11T13:27:43Z</time></trkpt><trkpt lat="36.88217668312695" lon="15.062656724943556"><ele>79.0</ele><time>2026-04-11T13:27:44Z</time></trkpt><trkpt lat="36.88203534626891" lon="15.062486222130321"><ele>79.66666666666666</ele><time>2026-04-11T13:27:45Z</time></trkpt><trkpt lat="36.881901350613276" lon="15.062320236678062"><ele>80.33333333333333</ele><time>2026-04-11T13:27:46Z</time></trkpt><trkpt lat="36.881769299264626" lon="15.062160744751457"><ele>81.0</ele><time>2026-04-11T13:27:47Z</time></trkpt><trkpt lat="36.88163436205905" lon="15.062008938514412"><ele>82.0</ele><time>2026-04-11T13:27:48Z</time></trkpt><trkpt lat="36.881498985630266" lon="15.061866568366767"><ele>83.0</ele><time>2026-04-11T13:27:49Z</time></trkpt><trkpt lat="36.88136814702848" lon="15.061718436101943"><ele>84.0</ele><time>2026-04-11T13:27:50Z</time></trkpt><trkpt lat="36.88124796649258" lon="15.061559080539782"><ele>84.0</ele><time>2026-04-11T13:27:51Z</time></trkpt><trkpt lat="36.881118607885135" lon="15.061405974655958"><ele>84.0</ele><time>2026-04-11T13:27:52Z</time></trkpt><trkpt lat="36.88097041751638" lon="15.061252296489368"><ele>84.0</ele><time>2026-04-11T13:27:53Z</time></trkpt><trkpt lat="36.880803699876395" lon="15.061069981506282"><ele>85.5</ele><time>2026-04-11T13:27:54Z</time></trkpt><trkpt lat="36.880631480099005" lon="15.060869976823959"><ele>87.0</ele><time>2026-04-11T13:27:55Z</time></trkpt><trkpt lat="36.88046297444719" lon="15.060662604742495"><ele>88.5</ele><time>2026-04-11T13:27:56Z</time></trkpt><trkpt lat="36.88029875298544" lon="15.06045420406781"><ele>90.0</ele><time>2026-04-11T13:27:57Z</time></trkpt><trkpt lat="36.8801287419718" lon="15.060254190604667"><ele>92.5</ele><time>2026-04-11T13:27:58Z</time></trkpt><trkpt lat="36.879961222357885" lon="15.060058153583816"><ele>95.0</ele><time>2026-04-11T13:27:59Z</time></trkpt><trkpt lat="36.87979469884467" lon="15.05986463636501"><ele>95.5</ele><time>2026-04-11T13:28:00Z</time></trkpt><trkpt lat="36.879642054489885" lon="15.059656347526593"><ele>96.0</ele><time>2026-04-11T13:28:01Z</time></trkpt><trkpt lat="36.87950553526067" lon="15.059432094369336"><ele>96.0</ele><time>2026-04-11T13:28:02Z</time></trkpt><trkpt lat="36.879386657776514" lon="15.059192684788728"><ele>96.0</ele><time>2026-04-11T13:28:03Z</time></trkpt><trkpt lat="36.87927739086329" lon="15.058933182368524"><ele>99.0</ele><time>2026-04-11T13:28:04Z</time></trkpt><trkpt lat="36.879177401454236" lon="15.05863590888177"><ele>102.0</ele><time>2026-04-11T13:28:05Z</time></trkpt><trkpt lat="36.8790742348977" lon="15.058346568101209"><ele>103.5</ele><time>2026-04-11T13:28:06Z</time></trkpt><trkpt lat="36.878971468029526" lon="15.05806809460009"><ele>105.0</ele><time>2026-04-11T13:28:07Z</time></trkpt><trkpt lat="36.87886569259245" lon="15.057797447006832"><ele>105.0</ele><time>2026-04-11T13:28:08Z</time></trkpt><trkpt lat="36.87875582977506" lon="15.057516972447305"><ele>105.0</ele><time>2026-04-11T13:28:09Z</time></trkpt><trkpt lat="36.87863354323877" lon="15.057208853134917"><ele>107.0</ele><time>2026-04-11T13:28:10Z</time></trkpt><trkpt lat="36.878514338893936" lon="15.056904961891023"><ele>109.0</ele><time>2026-04-11T13:28:11Z</time></trkpt><trkpt lat="36.878398463890505" lon="15.05660836452528"><ele>109.5</ele><time>2026-04-11T13:28:12Z</time></trkpt><trkpt lat="36.87828582995608" lon="15.056324933258498"><ele>110.0</ele><time>2026-04-11T13:28:13Z</time></trkpt><trkpt lat="36.87817954407571" lon="15.05604752968279"><ele>111.5</ele><time>2026-04-11T13:28:14Z</time></trkpt><trkpt lat="36.8780745255409" lon="15.055778680539433"><ele>113.0</ele><time>2026-04-11T13:28:15Z</time></trkpt><trkpt lat="36.877972026687566" lon="15.055514860615842"><ele>113.0</ele><time>2026-04-11T13:28:16Z</time></trkpt><trkpt lat="36.87786897709885" lon="15.05525524120366"><ele>113.0</ele><time>2026-04-11T13:28:17Z</time></trkpt><trkpt lat="36.87776643580969" lon="15.055000727221156"><ele>113.66666666666666</ele><time>2026-04-11T13:28:18Z</time></trkpt><trkpt lat="36.877664887704505" lon="15.054747385542106"><ele>114.33333333333334</ele><time>2026-04-11T13:28:19Z</time></trkpt><trkpt lat="36.87757322776583" lon="15.054523604799249"><ele>115.0</ele><time>2026-04-11T13:28:20Z</time></trkpt><trkpt lat="36.87749926930121" lon="15.054327599287504"><ele>115.0</ele><time>2026-04-11T13:28:21Z</time></trkpt><trkpt lat="36.87744722531831" lon="15.054163588062577"><ele>115.0</ele><time>2026-04-11T13:28:22Z</time></trkpt><trkpt lat="36.877408882533494" lon="15.054044778563535"><ele>115.0</ele><time>2026-04-11T13:28:23Z</time></trkpt><trkpt lat="36.87739230462627" lon="15.053935500843656"><ele>115.0</ele><time>2026-04-11T13:28:24Z</time></trkpt><trkpt lat="36.87739683817207" lon="15.053842762933128"><ele>115.0</ele><time>2026-04-11T13:28:25Z</time></trkpt><trkpt lat="36.877401737567496" lon="15.05369719203082"><ele>115.4</ele><time>2026-04-11T13:28:27Z</time></trkpt><trkpt lat="36.87739956288117" lon="15.053789930705596"><ele>115.8</ele><time>2026-04-11T13:28:30Z</time></trkpt><trkpt lat="36.87740464723058" lon="15.053701907115551"><ele>116.19999999999999</ele><time>2026-04-11T13:29:25Z</time></trkpt><trkpt lat="36.87733491918289" lon="15.05353898521366"><ele>116.6</ele><time>2026-04-11T13:32:57Z</time></trkpt><trkpt lat="36.87732530987216" lon="15.053436591814837"><ele>117.0</ele><time>2026-04-11T13:32:58Z</time></trkpt><trkpt lat="36.87724255201195" lon="15.053479583702892"><ele>117.0</ele><time>2026-04-11T13:32:59Z</time></trkpt><trkpt lat="36.87730293567696" lon="15.053439510809035"><ele>116.99999999999999</ele><time>2026-04-11T13:33:09Z</time></trkpt><trkpt lat="36.877238188217504" lon="15.053465067996829"><ele>116.99999999999999</ele><time>2026-04-11T13:38:39.999Z</time></trkpt><trkpt lat="36.87714277977302" lon="15.053375606302483"><ele>117.0</ele><time>2026-04-11T13:38:46.999Z</time></trkpt><trkpt lat="36.87711147322175" lon="15.05327181334303"><ele>117.0</ele><time>2026-04-11T13:38:47.999Z</time></trkpt><trkpt lat="36.8770592621102" lon="15.05312840612038"><ele>118.25</ele><time>2026-04-11T13:38:48.999Z</time></trkpt><trkpt lat="36.87700221767587" lon="15.052967455172444"><ele>119.5</ele><time>2026-04-11T13:38:49.999Z</time></trkpt><trkpt lat="36.87694475826463" lon="15.052812757194156"><ele>120.75</ele><time>2026-04-11T13:38:50.999Z</time></trkpt><trkpt lat="36.87686307825812" lon="15.052627049688379"><ele>122.0</ele><time>2026-04-11T13:38:51.999Z</time></trkpt><trkpt lat="36.87676957981608" lon="15.05239661000076"><ele>122.5</ele><time>2026-04-11T13:38:52.999Z</time></trkpt><trkpt lat="36.87669894422265" lon="15.052185831534585"><ele>123.0</ele><time>2026-04-11T13:38:53.999Z</time></trkpt><trkpt lat="36.87666482493051" lon="15.052022485438894"><ele>123.5</ele><time>2026-04-11T13:38:54.999Z</time></trkpt><trkpt lat="36.87667594057385" lon="15.05191034150975"><ele>124.0</ele><time>2026-04-11T13:38:55.999Z</time></trkpt><trkpt lat="36.876617718310456" lon="15.051857278500421"><ele>124.0</ele><time>2026-04-11T13:38:57.999Z</time></trkpt><trkpt lat="36.8764252238435" lon="15.051860191184593"><ele>124.0</ele><time>2026-04-11T13:39:00Z</time></trkpt><trkpt lat="36.87629128703491" lon="15.051844174160083"><ele>124.0</ele><time>2026-04-11T13:39:01Z</time></trkpt><trkpt lat="36.87614265845912" lon="15.05180738997087"><ele>124.0</ele><time>2026-04-11T13:39:02Z</time></trkpt><trkpt lat="36.87599202944556" lon="15.051742804790402"><ele>124.0</ele><time>2026-04-11T13:39:03Z</time></trkpt><trkpt lat="36.87584534644236" lon="15.051682684853226"><ele>124.0</ele><time>2026-04-11T13:39:04Z</time></trkpt><trkpt lat="36.875724334528044" lon="15.051642970443147"><ele>124.0</ele><time>2026-04-11T13:39:05Z</time></trkpt><trkpt lat="36.875617411245244" lon="15.051607485674175"><ele>124.50000000000001</ele><time>2026-04-11T13:39:06Z</time></trkpt><trkpt lat="36.87553207739382" lon="15.051567701916918"><ele>125.0</ele><time>2026-04-11T13:39:07Z</time></trkpt><trkpt lat="36.87545288263454" lon="15.051528768187255"><ele>125.5</ele><time>2026-04-11T13:39:08Z</time></trkpt><trkpt lat="36.87537872110423" lon="15.051498441791825"><ele>126.0</ele><time>2026-04-11T13:39:09Z</time></trkpt><trkpt lat="36.87529563511355" lon="15.051466840076486"><ele>126.50000000000001</ele><time>2026-04-11T13:39:10Z</time></trkpt><trkpt lat="36.875196556895304" lon="15.051420130511609"><ele>127.0</ele><time>2026-04-11T13:39:11Z</time></trkpt><trkpt lat="36.87508953016038" lon="15.051372391573246"><ele>127.0</ele><time>2026-04-11T13:39:12Z</time></trkpt><trkpt lat="36.87497691547758" lon="15.051326983357866"><ele>127.0</ele><time>2026-04-11T13:39:13Z</time></trkpt><trkpt lat="36.87486074650059" lon="15.051282789303817"><ele>127.0</ele><time>2026-04-11T13:39:14Z</time></trkpt><trkpt lat="36.87473657976102" lon="15.051230722718522"><ele>127.0</ele><time>2026-04-11T13:39:15Z</time></trkpt><trkpt lat="36.87461232544621" lon="15.051166261136808"><ele>127.0</ele><time>2026-04-11T13:39:16Z</time></trkpt><trkpt lat="36.874481201806795" lon="15.051092326169051"><ele>127.0</ele><time>2026-04-11T13:39:17Z</time></trkpt><trkpt lat="36.8743536492816" lon="15.05101445593363"><ele>127.0</ele><time>2026-04-11T13:39:18Z</time></trkpt><trkpt lat="36.8742476965863" lon="15.050930224515978"><ele>127.0</ele><time>2026-04-11T13:39:19Z</time></trkpt><trkpt lat="36.87415342946709" lon="15.050847816024573"><ele>125.6</ele><time>2026-04-11T13:39:20Z</time></trkpt><trkpt lat="36.87406079635324" lon="15.050767203008279"><ele>124.19999999999999</ele><time>2026-04-11T13:39:21Z</time></trkpt><trkpt lat="36.87397407498498" lon="15.050688281260614"><ele>122.8</ele><time>2026-04-11T13:39:22Z</time></trkpt><trkpt lat="36.873892424821015" lon="15.050605262476603"><ele>121.4</ele><time>2026-04-11T13:39:23Z</time></trkpt><trkpt lat="36.87381408519729" lon="15.050524929356987"><ele>120.0</ele><time>2026-04-11T13:39:24Z</time></trkpt><trkpt lat="36.87373489415017" lon="15.050445489870848"><ele>120.0</ele><time>2026-04-11T13:39:25Z</time></trkpt><trkpt lat="36.8736559426911" lon="15.05037989134647"><ele>120.0</ele><time>2026-04-11T13:39:26Z</time></trkpt><trkpt lat="36.87357207166369" lon="15.05031644990207"><ele>120.0</ele><time>2026-04-11T13:39:27Z</time></trkpt><trkpt lat="36.873486839585006" lon="15.050251532254778"><ele>120.0</ele><time>2026-04-11T13:39:28Z</time></trkpt><trkpt lat="36.87337884961353" lon="15.050181062240922"><ele>120.0</ele><time>2026-04-11T13:39:29Z</time></trkpt><trkpt lat="36.87326879314086" lon="15.050109100001166"><ele>118.0</ele><time>2026-04-11T13:39:30Z</time></trkpt><trkpt lat="36.873165901047464" lon="15.050041373448357"><ele>116.0</ele><time>2026-04-11T13:39:31Z</time></trkpt><trkpt lat="36.873074230210115" lon="15.049985936647538"><ele>114.0</ele><time>2026-04-11T13:39:32Z</time></trkpt><trkpt lat="36.87298490939506" lon="15.049934793122029"><ele>112.0</ele><time>2026-04-11T13:39:33Z</time></trkpt><trkpt lat="36.87290628788088" lon="15.049880952816142"><ele>110.0</ele><time>2026-04-11T13:39:34Z</time></trkpt><trkpt lat="36.87281877856331" lon="15.049828973903123"><ele>109.5</ele><time>2026-04-11T13:39:35Z</time></trkpt><trkpt lat="36.872720154407375" lon="15.049779715367146"><ele>109.0</ele><time>2026-04-11T13:39:36Z</time></trkpt><trkpt lat="36.87261507352063" lon="15.049734685619205"><ele>108.5</ele><time>2026-04-11T13:39:37Z</time></trkpt><trkpt lat="36.87250205286579" lon="15.049726068120474"><ele>108.0</ele><time>2026-04-11T13:39:38Z</time></trkpt><trkpt lat="36.87238485588089" lon="15.049769609235218"><ele>108.0</ele><time>2026-04-11T13:39:39Z</time></trkpt><trkpt lat="36.87227273627003" lon="15.049840036458983"><ele>108.0</ele><time>2026-04-11T13:39:40Z</time></trkpt><trkpt lat="36.872158434416335" lon="15.049924128512368"><ele>108.0</ele><time>2026-04-11T13:39:41Z</time></trkpt><trkpt lat="36.87204134975837" lon="15.050000227569049"><ele>108.0</ele><time>2026-04-11T13:39:42Z</time></trkpt><trkpt lat="36.87192075978077" lon="15.050060103822368"><ele>108.0</ele><time>2026-04-11T13:39:43Z</time></trkpt><trkpt lat="36.87180025882938" lon="15.050102838664952"><ele>108.0</ele><time>2026-04-11T13:39:44Z</time></trkpt><trkpt lat="36.87167881636616" lon="15.050139009032563"><ele>108.0</ele><time>2026-04-11T13:39:45Z</time></trkpt><trkpt lat="36.87155690896073" lon="15.050174401669919"><ele>108.0</ele><time>2026-04-11T13:39:46Z</time></trkpt><trkpt lat="36.87143055286119" lon="15.050205147317044"><ele>110.25</ele><time>2026-04-11T13:39:47Z</time></trkpt><trkpt lat="36.871302542566895" lon="15.05023366739737"><ele>112.5</ele><time>2026-04-11T13:39:48Z</time></trkpt><trkpt lat="36.87119371468941" lon="15.05027071495947"><ele>114.75</ele><time>2026-04-11T13:39:49Z</time></trkpt><trkpt lat="36.871064347743754" lon="15.050308080107067"><ele>117.0</ele><time>2026-04-11T13:39:50Z</time></trkpt><trkpt lat="36.870932974228424" lon="15.050338270198962"><ele>118.0</ele><time>2026-04-11T13:39:51Z</time></trkpt><trkpt lat="36.87079748016608" lon="15.050379884301654"><ele>119.0</ele><time>2026-04-11T13:39:52Z</time></trkpt><trkpt lat="36.870654706577795" lon="15.050423781815313"><ele>120.0</ele><time>2026-04-11T13:39:53Z</time></trkpt><trkpt lat="36.87050717999833" lon="15.050466970060826"><ele>121.0</ele><time>2026-04-11T13:39:54Z</time></trkpt><trkpt lat="36.870363280258104" lon="15.050505624164678"><ele>121.0</ele><time>2026-04-11T13:39:55Z</time></trkpt><trkpt lat="36.87021720071093" lon="15.050542139177232"><ele>121.0</ele><time>2026-04-11T13:39:56Z</time></trkpt><trkpt lat="36.87006341195123" lon="15.050580428761393"><ele>121.0</ele><time>2026-04-11T13:39:57Z</time></trkpt><trkpt lat="36.86991972907603" lon="15.050613191897634"><ele>120.75</ele><time>2026-04-11T13:39:58Z</time></trkpt><trkpt lat="36.86980087159678" lon="15.050646976915063"><ele>120.5</ele><time>2026-04-11T13:39:59Z</time></trkpt><trkpt lat="36.86969085970338" lon="15.050676981984429"><ele>120.25</ele><time>2026-04-11T13:40:00Z</time></trkpt><trkpt lat="36.869575833151266" lon="15.050714305621755"><ele>120.0</ele><time>2026-04-11T13:40:01Z</time></trkpt><trkpt lat="36.86946611039588" lon="15.050743586224577"><ele>120.0</ele><time>2026-04-11T13:40:02Z</time></trkpt><trkpt lat="36.869343461839215" lon="15.050763843106127"><ele>120.0</ele><time>2026-04-11T13:40:03Z</time></trkpt><trkpt lat="36.86921331115229" lon="15.050789176945559"><ele>120.0</ele><time>2026-04-11T13:40:04Z</time></trkpt><trkpt lat="36.869077388333004" lon="15.050821160780465"><ele>120.0</ele><time>2026-04-11T13:40:05Z</time></trkpt><trkpt lat="36.86894304494576" lon="15.050849069198776"><ele>118.75</ele><time>2026-04-11T13:40:06Z</time></trkpt><trkpt lat="36.86880742827936" lon="15.050879059861316"><ele>117.5</ele><time>2026-04-11T13:40:07Z</time></trkpt><trkpt lat="36.86866791190778" lon="15.0509221540696"><ele>116.25</ele><time>2026-04-11T13:40:08Z</time></trkpt><trkpt lat="36.868532948243654" lon="15.050972932342532"><ele>115.0</ele><time>2026-04-11T13:40:08.999Z</time></trkpt><trkpt lat="36.86840213337585" lon="15.051049898461823"><ele>115.0</ele><time>2026-04-11T13:40:09.999Z</time></trkpt><trkpt lat="36.86823319695054" lon="15.051155231438965"><ele>115.0</ele><time>2026-04-11T13:40:10.999Z</time></trkpt><trkpt lat="36.86804417919609" lon="15.051257615993736"><ele>115.0</ele><time>2026-04-11T13:40:11.999Z</time></trkpt><trkpt lat="36.867853586767744" lon="15.051390116170964"><ele>115.0</ele><time>2026-04-11T13:40:12.999Z</time></trkpt><trkpt lat="36.86766773837485" lon="15.051583977699105"><ele>115.0</ele><time>2026-04-11T13:40:13.999Z</time></trkpt><trkpt lat="36.86750013106564" lon="15.051782061903301"><ele>115.0</ele><time>2026-04-11T13:40:14.999Z</time></trkpt><trkpt lat="36.86736272327426" lon="15.051948334692073"><ele>115.0</ele><time>2026-04-11T13:40:15.999Z</time></trkpt><trkpt lat="36.86725043708236" lon="15.052089708745243"><ele>115.0</ele><time>2026-04-11T13:40:16.999Z</time></trkpt><trkpt lat="36.86715498894437" lon="15.052228289118109"><ele>115.0</ele><time>2026-04-11T13:40:17.999Z</time></trkpt><trkpt lat="36.86706511744099" lon="15.052358803950032"><ele>115.0</ele><time>2026-04-11T13:40:18.999Z</time></trkpt><trkpt lat="36.86698139835401" lon="15.052477496119847"><ele>115.0</ele><time>2026-04-11T13:40:19.999Z</time></trkpt><trkpt lat="36.86690467620096" lon="15.052586835010572"><ele>115.0</ele><time>2026-04-11T13:40:20.999Z</time></trkpt><trkpt lat="36.86682267690034" lon="15.05269771341976"><ele>113.5</ele><time>2026-04-11T13:40:21.999Z</time></trkpt><trkpt lat="36.86673201361876" lon="15.052810509099327"><ele>112.0</ele><time>2026-04-11T13:40:22.999Z</time></trkpt><trkpt lat="36.86662418118195" lon="15.052913253116074"><ele>110.5</ele><time>2026-04-11T13:40:23.999Z</time></trkpt><trkpt lat="36.86649498199403" lon="15.052990274086907"><ele>109.0</ele><time>2026-04-11T13:40:24.999Z</time></trkpt><trkpt lat="36.86635313188269" lon="15.053034946079505"><ele>109.0</ele><time>2026-04-11T13:40:25.999Z</time></trkpt><trkpt lat="36.86620609224244" lon="15.0530480195562"><ele>109.0</ele><time>2026-04-11T13:40:26.999Z</time></trkpt><trkpt lat="36.86606378278925" lon="15.053041058670418"><ele>109.0</ele><time>2026-04-11T13:40:27.999Z</time></trkpt><trkpt lat="36.86592307587604" lon="15.053021959062653"><ele>109.0</ele><time>2026-04-11T13:40:28.999Z</time></trkpt><trkpt lat="36.865780218365764" lon="15.053004071202954"><ele>107.25</ele><time>2026-04-11T13:40:29.999Z</time></trkpt><trkpt lat="36.86564114870564" lon="15.053001248258957"><ele>105.5</ele><time>2026-04-11T13:40:30.999Z</time></trkpt><trkpt lat="36.865499607171444" lon="15.053022975203849"><ele>103.75</ele><time>2026-04-11T13:40:31.999Z</time></trkpt><trkpt lat="36.86536134209003" lon="15.05307221674418"><ele>102.0</ele><time>2026-04-11T13:40:32.999Z</time></trkpt><trkpt lat="36.86522645440664" lon="15.053161017056476"><ele>101.33333333333334</ele><time>2026-04-11T13:40:33.999Z</time></trkpt><trkpt lat="36.86510061393889" lon="15.053273046577415"><ele>100.66666666666667</ele><time>2026-04-11T13:40:34.999Z</time></trkpt><trkpt lat="36.864966321859285" lon="15.05338536118211"><ele>100.0</ele><time>2026-04-11T13:40:35.999Z</time></trkpt><trkpt lat="36.86482935092844" lon="15.053496696421252"><ele>100.0</ele><time>2026-04-11T13:40:36.999Z</time></trkpt><trkpt lat="36.86468739576502" lon="15.053605976506987"><ele>100.0</ele><time>2026-04-11T13:40:37.999Z</time></trkpt><trkpt lat="36.86454405730591" lon="15.053715066452249"><ele>100.0</ele><time>2026-04-11T13:40:38.999Z</time></trkpt><trkpt lat="36.864404524620234" lon="15.053824187963595"><ele>98.66666666666667</ele><time>2026-04-11T13:40:39.999Z</time></trkpt><trkpt lat="36.86426960866993" lon="15.053932995739158"><ele>97.33333333333334</ele><time>2026-04-11T13:40:40.999Z</time></trkpt><trkpt lat="36.86413953933054" lon="15.054037674285865"><ele>96.0</ele><time>2026-04-11T13:40:41.999Z</time></trkpt><trkpt lat="36.864016911401166" lon="15.054144336054536"><ele>96.0</ele><time>2026-04-11T13:40:42.999Z</time></trkpt><trkpt lat="36.86389153382747" lon="15.054251021613295"><ele>96.0</ele><time>2026-04-11T13:40:43.999Z</time></trkpt><trkpt lat="36.86377798932834" lon="15.054350344446824"><ele>96.0</ele><time>2026-04-11T13:40:44.999Z</time></trkpt><trkpt lat="36.863667465896675" lon="15.054438544084245"><ele>96.0</ele><time>2026-04-11T13:40:45.999Z</time></trkpt><trkpt lat="36.86356853358141" lon="15.054523553167469"><ele>96.0</ele><time>2026-04-11T13:40:46.999Z</time></trkpt><trkpt lat="36.86347698054255" lon="15.054602479814376"><ele>96.0</ele><time>2026-04-11T13:40:47.999Z</time></trkpt><trkpt lat="36.86338760188543" lon="15.05467762404491"><ele>96.0</ele><time>2026-04-11T13:40:48.999Z</time></trkpt><trkpt lat="36.86328719908538" lon="15.054758751991042"><ele>96.0</ele><time>2026-04-11T13:40:49.999Z</time></trkpt><trkpt lat="36.863168067234746" lon="15.054865513788968"><ele>94.66666666666667</ele><time>2026-04-11T13:40:50.999Z</time></trkpt><trkpt lat="36.863045201673195" lon="15.054981873781575"><ele>93.33333333333334</ele><time>2026-04-11T13:40:51.999Z</time></trkpt><trkpt lat="36.862922174471755" lon="15.055108470094073"><ele>92.0</ele><time>2026-04-11T13:40:52.999Z</time></trkpt><trkpt lat="36.86280318782656" lon="15.055250609658923"><ele>92.0</ele><time>2026-04-11T13:40:53.999Z</time></trkpt><trkpt lat="36.86268781574472" lon="15.055395725168873"><ele>92.0</ele><time>2026-04-11T13:40:54.999Z</time></trkpt><trkpt lat="36.86257647926032" lon="15.055535120143142"><ele>92.0</ele><time>2026-04-11T13:40:55.999Z</time></trkpt><trkpt lat="36.86247231099095" lon="15.055659132181297"><ele>90.0</ele><time>2026-04-11T13:40:56.999Z</time></trkpt><trkpt lat="36.862372293875026" lon="15.055779047359986"><ele>88.0</ele><time>2026-04-11T13:40:57.999Z</time></trkpt><trkpt lat="36.86227507096417" lon="15.055904536469733"><ele>86.0</ele><time>2026-04-11T13:40:58.999Z</time></trkpt><trkpt lat="36.86218335161506" lon="15.056035131956682"><ele>84.0</ele><time>2026-04-11T13:40:59.999Z</time></trkpt><trkpt lat="36.86210399301729" lon="15.056156049892644"><ele>84.0</ele><time>2026-04-11T13:41:00.999Z</time></trkpt><trkpt lat="36.86203221488046" lon="15.056271175663536"><ele>84.0</ele><time>2026-04-11T13:41:01.999Z</time></trkpt><trkpt lat="36.86195329845224" lon="15.056393317570903"><ele>84.0</ele><time>2026-04-11T13:41:02.999Z</time></trkpt><trkpt lat="36.86187312733436" lon="15.056512868161262"><ele>84.0</ele><time>2026-04-11T13:41:03.999Z</time></trkpt><trkpt lat="36.86179021710314" lon="15.056626331474543"><ele>82.25</ele><time>2026-04-11T13:41:04.999Z</time></trkpt><trkpt lat="36.861695237416974" lon="15.056758932125955"><ele>80.5</ele><time>2026-04-11T13:41:06Z</time></trkpt><trkpt lat="36.86158685839832" lon="15.056881710953052"><ele>78.75</ele><time>2026-04-11T13:41:07Z</time></trkpt><trkpt lat="36.861467269740324" lon="15.056960173159467"><ele>77.0</ele><time>2026-04-11T13:41:08Z</time></trkpt><trkpt lat="36.861352961405224" lon="15.05699703046057"><ele>77.0</ele><time>2026-04-11T13:41:09Z</time></trkpt><trkpt lat="36.86123776324848" lon="15.0570089280657"><ele>77.0</ele><time>2026-04-11T13:41:10Z</time></trkpt><trkpt lat="36.861135973255784" lon="15.05701701229824"><ele>77.0</ele><time>2026-04-11T13:41:11Z</time></trkpt><trkpt lat="36.86104102762736" lon="15.05703680991489"><ele>77.0</ele><time>2026-04-11T13:41:12Z</time></trkpt><trkpt lat="36.860956301543105" lon="15.057059105577025"><ele>77.0</ele><time>2026-04-11T13:41:13Z</time></trkpt><trkpt lat="36.86088366766809" lon="15.057082993819177"><ele>77.5</ele><time>2026-04-11T13:41:14Z</time></trkpt><trkpt lat="36.86082155068878" lon="15.05711432752277"><ele>78.0</ele><time>2026-04-11T13:41:15Z</time></trkpt><trkpt lat="36.86073667523836" lon="15.057119810914145"><ele>78.5</ele><time>2026-04-11T13:41:17Z</time></trkpt><trkpt lat="36.86069756147274" lon="15.056992390946565"><ele>79.0</ele><time>2026-04-11T13:41:19Z</time></trkpt><trkpt lat="36.86070551266115" lon="15.05690662144474"><ele>79.5</ele><time>2026-04-11T13:41:20Z</time></trkpt><trkpt lat="36.860736655409966" lon="15.056824618099144"><ele>80.0</ele><time>2026-04-11T13:41:21Z</time></trkpt><trkpt lat="36.860816467069895" lon="15.056764499515113"><ele>80.0</ele><time>2026-04-11T13:41:23Z</time></trkpt><trkpt lat="36.860875361681465" lon="15.056666571862802"><ele>80.0</ele><time>2026-04-11T13:41:25Z</time></trkpt><trkpt lat="36.860867812678514" lon="15.056537665642754"><ele>80.0</ele><time>2026-04-11T13:41:26Z</time></trkpt><trkpt lat="36.86085391179256" lon="15.056373809949962"><ele>80.0</ele><time>2026-04-11T13:41:27Z</time></trkpt><trkpt lat="36.8608528341222" lon="15.056169452893181"><ele>80.66666666666667</ele><time>2026-04-11T13:41:28Z</time></trkpt><trkpt lat="36.86085755599951" lon="15.055926483786532"><ele>81.33333333333333</ele><time>2026-04-11T13:41:29Z</time></trkpt><trkpt lat="36.860848941788156" lon="15.055691153823446"><ele>82.0</ele><time>2026-04-11T13:41:30Z</time></trkpt><trkpt lat="36.86087427841372" lon="15.055523276998981"><ele>82.33333333333333</ele><time>2026-04-11T13:41:31Z</time></trkpt><trkpt lat="36.86091973746232" lon="15.055408650955949"><ele>82.66666666666666</ele><time>2026-04-11T13:41:32Z</time></trkpt><trkpt lat="36.86097552657064" lon="15.05533360752916"><ele>83.0</ele><time>2026-04-11T13:41:33Z</time></trkpt><trkpt lat="36.861042708048046" lon="15.055273323776307"><ele>83.33333333333333</ele><time>2026-04-11T13:41:34Z</time></trkpt><trkpt lat="36.86109579612452" lon="15.05518993481038"><ele>83.66666666666667</ele><time>2026-04-11T13:41:36Z</time></trkpt><trkpt lat="36.861032945798634" lon="15.05513893795033"><ele>84.0</ele><time>2026-04-11T13:41:41Z</time></trkpt><trkpt lat="36.860951469464126" lon="15.055016353618402"><ele>86.0</ele><time>2026-04-11T13:41:43Z</time></trkpt><trkpt lat="36.86087975490616" lon="15.054946462473682"><ele>88.0</ele><time>2026-04-11T13:41:44Z</time></trkpt><trkpt lat="36.86085414464667" lon="15.054841968719563"><ele>90.0</ele><time>2026-04-11T13:41:45Z</time></trkpt><trkpt lat="36.86083444498931" lon="15.054721832619858"><ele>92.0</ele><time>2026-04-11T13:41:46Z</time></trkpt><trkpt lat="36.860816541324425" lon="15.054600695999055"><ele>94.0</ele><time>2026-04-11T13:41:47Z</time></trkpt><trkpt lat="36.86081604526432" lon="15.054501613056336"><ele>94.0</ele><time>2026-04-11T13:41:48Z</time></trkpt><trkpt lat="36.86083487995935" lon="15.05442109223632"><ele>94.0</ele><time>2026-04-11T13:41:49Z</time></trkpt><trkpt lat="36.860855554447596" lon="15.054341905279365"><ele>94.0</ele><time>2026-04-11T13:41:50Z</time></trkpt><trkpt lat="36.86088582224925" lon="15.0542569558705"><ele>94.0</ele><time>2026-04-11T13:41:51Z</time></trkpt><trkpt lat="36.86094039178145" lon="15.054153761836957"><ele>94.0</ele><time>2026-04-11T13:41:53Z</time></trkpt><trkpt lat="36.86104809723187" lon="15.054153394594348"><ele>94.0</ele><time>2026-04-11T13:41:55Z</time></trkpt><trkpt lat="36.86113076017105" lon="15.054214223061365"><ele>92.5</ele><time>2026-04-11T13:41:57Z</time></trkpt><trkpt lat="36.86119428065228" lon="15.054205338826018"><ele>91.0</ele><time>2026-04-11T13:42:00Z</time></trkpt><trkpt lat="36.86121766929378" lon="15.054076049759145"><ele>89.5</ele><time>2026-04-11T13:42:02Z</time></trkpt><trkpt lat="36.86124328712922" lon="15.054000277838542"><ele>88.0</ele><time>2026-04-11T13:42:03Z</time></trkpt><trkpt lat="36.86134293073279" lon="15.053933361551751"><ele>86.5</ele><time>2026-04-11T13:42:05Z</time></trkpt><trkpt lat="36.86141328227165" lon="15.053843542157361"><ele>85.0</ele><time>2026-04-11T13:42:07Z</time></trkpt><trkpt lat="36.86141416446803" lon="15.053710476154288"><ele>85.0</ele><time>2026-04-11T13:42:08.999Z</time></trkpt><trkpt lat="36.8614223137651" lon="15.053615537658471"><ele>85.0</ele><time>2026-04-11T13:42:09.999Z</time></trkpt><trkpt lat="36.86142059531715" lon="15.053532816470621"><ele>85.0</ele><time>2026-04-11T13:42:10.999Z</time></trkpt><trkpt lat="36.86140354013743" lon="15.053456991011126"><ele>85.0</ele><time>2026-04-11T13:42:11.999Z</time></trkpt><trkpt lat="36.86141612479056" lon="15.053324025308717"><ele>85.0</ele><time>2026-04-11T13:42:13.999Z</time></trkpt><trkpt lat="36.86145812383282" lon="15.053208454672676"><ele>85.0</ele><time>2026-04-11T13:42:14.999Z</time></trkpt><trkpt lat="36.861495701017965" lon="15.053118681263483"><ele>87.0</ele><time>2026-04-11T13:42:15.999Z</time></trkpt><trkpt lat="36.861532467401545" lon="15.053049009597842"><ele>89.0</ele><time>2026-04-11T13:42:16.999Z</time></trkpt><trkpt lat="36.86157090745669" lon="15.052960137961264"><ele>91.0</ele><time>2026-04-11T13:42:18.999Z</time></trkpt><trkpt lat="36.86156556075443" lon="15.052799255195069"><ele>93.0</ele><time>2026-04-11T13:42:22.999Z</time></trkpt><trkpt lat="36.861603922625" lon="15.052707119614892"><ele>95.00000000000001</ele><time>2026-04-11T13:42:23.999Z</time></trkpt><trkpt lat="36.86164932498548" lon="15.05263625156538"><ele>97.0</ele><time>2026-04-11T13:42:24.999Z</time></trkpt><trkpt lat="36.86172985287085" lon="15.05260608281502"><ele>96.16666666666667</ele><time>2026-04-11T13:42:26.999Z</time></trkpt><trkpt lat="36.86181994272039" lon="15.052625977199613"><ele>95.33333333333334</ele><time>2026-04-11T13:42:28.999Z</time></trkpt><trkpt lat="36.861860526609675" lon="15.052541023417866"><ele>94.5</ele><time>2026-04-11T13:42:30.999Z</time></trkpt><trkpt lat="36.86193188463826" lon="15.05240657194917"><ele>93.66666666666667</ele><time>2026-04-11T13:42:32.999Z</time></trkpt><trkpt lat="36.86197229379761" lon="15.052331664111877"><ele>92.83333333333334</ele><time>2026-04-11T13:42:33.999Z</time></trkpt><trkpt lat="36.86200993841069" lon="15.052258599330722"><ele>92.0</ele><time>2026-04-11T13:42:34.999Z</time></trkpt><trkpt lat="36.86207608090673" lon="15.052177370305248"><ele>93.66666666666667</ele><time>2026-04-11T13:42:36.999Z</time></trkpt><trkpt lat="36.862114932399066" lon="15.052039189253883"><ele>95.33333333333334</ele><time>2026-04-11T13:42:38.999Z</time></trkpt><trkpt lat="36.8621151354241" lon="15.051943185929279"><ele>97.0</ele><time>2026-04-11T13:42:39.999Z</time></trkpt><trkpt lat="36.862125325131196" lon="15.051860984714974"><ele>98.66666666666667</ele><time>2026-04-11T13:42:40.999Z</time></trkpt><trkpt lat="36.86217125656975" lon="15.05180185304426"><ele>100.33333333333333</ele><time>2026-04-11T13:42:41.999Z</time></trkpt><trkpt lat="36.86219683148133" lon="15.051728742131807"><ele>102.0</ele><time>2026-04-11T13:42:42.999Z</time></trkpt><trkpt lat="36.862199758826875" lon="15.051613633026488"><ele>102.83333333333333</ele><time>2026-04-11T13:42:43.999Z</time></trkpt><trkpt lat="36.86219693822545" lon="15.051509499146992"><ele>103.66666666666666</ele><time>2026-04-11T13:42:44.999Z</time></trkpt><trkpt lat="36.862202067656824" lon="15.05141615052814"><ele>104.5</ele><time>2026-04-11T13:42:45.999Z</time></trkpt><trkpt lat="36.86221235572936" lon="15.051323905513442"><ele>105.33333333333333</ele><time>2026-04-11T13:42:46.999Z</time></trkpt><trkpt lat="36.86221159297332" lon="15.051188914799258"><ele>106.16666666666666</ele><time>2026-04-11T13:42:48.999Z</time></trkpt><trkpt lat="36.86217526939838" lon="15.051104567122062"><ele>107.0</ele><time>2026-04-11T13:42:50.999Z</time></trkpt><trkpt lat="36.86216960651625" lon="15.05099582708208"><ele>106.99999999999999</ele><time>2026-04-11T13:42:52.999Z</time></trkpt><trkpt lat="36.86217478913339" lon="15.050915326267235"><ele>107.0</ele><time>2026-04-11T13:42:54.999Z</time></trkpt><trkpt lat="36.86216645778189" lon="15.050810054471647"><ele>107.0</ele><time>2026-04-11T13:42:56.999Z</time></trkpt><trkpt lat="36.862140913350075" lon="15.050717903034792"><ele>107.0</ele><time>2026-04-11T13:42:58.999Z</time></trkpt><trkpt lat="36.86209444927738" lon="15.050612894536258"><ele>106.99999999999999</ele><time>2026-04-11T13:42:59.999Z</time></trkpt><trkpt lat="36.86200750478285" lon="15.050581055253964"><ele>107.0</ele><time>2026-04-11T13:43:01.999Z</time></trkpt><trkpt lat="36.861945606748534" lon="15.05060234767662"><ele>108.19999999999999</ele><time>2026-04-11T13:43:03.999Z</time></trkpt><trkpt lat="36.86189936540529" lon="15.050671547871989"><ele>109.39999999999999</ele><time>2026-04-11T13:43:05.999Z</time></trkpt><trkpt lat="36.86183566136446" lon="15.050680655612755"><ele>110.60000000000001</ele><time>2026-04-11T13:43:08.999Z</time></trkpt><trkpt lat="36.8617381803033" lon="15.050825417598425"><ele>111.80000000000001</ele><time>2026-04-11T13:44:20.999Z</time></trkpt><trkpt lat="36.86166307673103" lon="15.050926036038035"><ele>113.0</ele><time>2026-04-11T13:44:21.999Z</time></trkpt><trkpt lat="36.86158613193238" lon="15.050997375003533"><ele>113.0</ele><time>2026-04-11T13:44:22.999Z</time></trkpt><trkpt lat="36.861496440715754" lon="15.05106727060698"><ele>113.0</ele><time>2026-04-11T13:44:23.999Z</time></trkpt><trkpt lat="36.8613892150608" lon="15.051150748316836"><ele>113.0</ele><time>2026-04-11T13:44:24.999Z</time></trkpt><trkpt lat="36.86128520772047" lon="15.051225420549189"><ele>113.0</ele><time>2026-04-11T13:44:25.999Z</time></trkpt><trkpt lat="36.86119741306797" lon="15.051304818566976"><ele>113.0</ele><time>2026-04-11T13:44:26.999Z</time></trkpt><trkpt lat="36.86111912801183" lon="15.05143529576289"><ele>113.0</ele><time>2026-04-11T13:44:27.999Z</time></trkpt><trkpt lat="36.861044186075496" lon="15.051610024281176"><ele>113.0</ele><time>2026-04-11T13:44:28.999Z</time></trkpt><trkpt lat="36.860952874033664" lon="15.051783194151364"><ele>118.0</ele><time>2026-04-11T13:44:29.999Z</time></trkpt><trkpt lat="36.860847080750254" lon="15.051961412466648"><ele>123.0</ele><time>2026-04-11T13:44:30.999Z</time></trkpt><trkpt lat="36.86072292815849" lon="15.052129848840382"><ele>128.0</ele><time>2026-04-11T13:44:31.999Z</time></trkpt><trkpt lat="36.860619483681795" lon="15.052279000673336"><ele>128.0</ele><time>2026-04-11T13:44:32.999Z</time></trkpt><trkpt lat="36.86055521788529" lon="15.052425449459271"><ele>128.0</ele><time>2026-04-11T13:44:33.999Z</time></trkpt><trkpt lat="36.86051165128096" lon="15.052577765811352"><ele>128.0</ele><time>2026-04-11T13:44:34.999Z</time></trkpt><trkpt lat="36.86046762311312" lon="15.052700561519211"><ele>128.0</ele><time>2026-04-11T13:44:35.999Z</time></trkpt><trkpt lat="36.86041471306637" lon="15.05280142588775"><ele>125.5</ele><time>2026-04-11T13:44:36.999Z</time></trkpt><trkpt lat="36.86036202255765" lon="15.052915115396019"><ele>123.0</ele><time>2026-04-11T13:44:37.999Z</time></trkpt><trkpt lat="36.860327514407274" lon="15.053081955736637"><ele>120.5</ele><time>2026-04-11T13:44:38.999Z</time></trkpt><trkpt lat="36.86029100672035" lon="15.053258207988405"><ele>118.0</ele><time>2026-04-11T13:44:39.999Z</time></trkpt><trkpt lat="36.86027652797966" lon="15.053360750280262"><ele>116.33333333333334</ele><time>2026-04-11T13:44:40.999Z</time></trkpt><trkpt lat="36.860267364212966" lon="15.053466018286649"><ele>114.66666666666667</ele><time>2026-04-11T13:44:41.999Z</time></trkpt><trkpt lat="36.86023684112754" lon="15.053580615038573"><ele>113.0</ele><time>2026-04-11T13:44:42.999Z</time></trkpt><trkpt lat="36.86020899704411" lon="15.053689518188438"><ele>111.33333333333334</ele><time>2026-04-11T13:44:43.999Z</time></trkpt><trkpt lat="36.860199234715466" lon="15.053794402680706"><ele>109.66666666666667</ele><time>2026-04-11T13:44:44.999Z</time></trkpt><trkpt lat="36.86017652671222" lon="15.053883816377196"><ele>108.0</ele><time>2026-04-11T13:44:45.999Z</time></trkpt><trkpt lat="36.8600899624336" lon="15.05399998733158"><ele>109.5</ele><time>2026-04-11T13:44:47.999Z</time></trkpt><trkpt lat="36.860015618932486" lon="15.054037956492198"><ele>111.0</ele><time>2026-04-11T13:44:48.999Z</time></trkpt><trkpt lat="36.85994180389716" lon="15.054087906393553"><ele>112.5</ele><time>2026-04-11T13:44:49.999Z</time></trkpt><trkpt lat="36.859897292146584" lon="15.05416758075043"><ele>114.0</ele><time>2026-04-11T13:44:50.999Z</time></trkpt><trkpt lat="36.85987004073552" lon="15.05426997181526"><ele>115.5</ele><time>2026-04-11T13:44:51.999Z</time></trkpt><trkpt lat="36.859835037712415" lon="15.054338571259702"><ele>117.0</ele><time>2026-04-11T13:44:52.999Z</time></trkpt><trkpt lat="36.85973688137757" lon="15.054415724852017"><ele>117.0</ele><time>2026-04-11T13:44:54.999Z</time></trkpt><trkpt lat="36.85959766535381" lon="15.054463388319611"><ele>117.0</ele><time>2026-04-11T13:44:56.999Z</time></trkpt><trkpt lat="36.859510341545636" lon="15.054577850955091"><ele>117.0</ele><time>2026-04-11T13:44:57.999Z</time></trkpt><trkpt lat="36.85944219258828" lon="15.054687837477465"><ele>117.0</ele><time>2026-04-11T13:44:58.999Z</time></trkpt><trkpt lat="36.85937476538024" lon="15.05477377422334"><ele>117.0</ele><time>2026-04-11T13:44:59.999Z</time></trkpt><trkpt lat="36.8593084102702" lon="15.054885884673615"><ele>116.99999999999999</ele><time>2026-04-11T13:45:00.999Z</time></trkpt><trkpt lat="36.85926230120767" lon="15.055023196283194"><ele>116.99999999999999</ele><time>2026-04-11T13:45:01.999Z</time></trkpt><trkpt lat="36.85924843836585" lon="15.055144065914485"><ele>117.0</ele><time>2026-04-11T13:45:02.999Z</time></trkpt><trkpt lat="36.85924223016716" lon="15.055274077816444"><ele>117.0</ele><time>2026-04-11T13:45:03.999Z</time></trkpt><trkpt lat="36.85923595417698" lon="15.055427653477276"><ele>114.25</ele><time>2026-04-11T13:45:04.999Z</time></trkpt><trkpt lat="36.85921460138839" lon="15.05557119478362"><ele>111.5</ele><time>2026-04-11T13:45:05.999Z</time></trkpt><trkpt lat="36.85916818448257" lon="15.055690644776092"><ele>108.75</ele><time>2026-04-11T13:45:06.999Z</time></trkpt><trkpt lat="36.85910632512924" lon="15.055810675303308"><ele>106.0</ele><time>2026-04-11T13:45:07.999Z</time></trkpt><trkpt lat="36.859032542481444" lon="15.05595167683641"><ele>104.4</ele><time>2026-04-11T13:45:08.999Z</time></trkpt><trkpt lat="36.85897421210553" lon="15.056076629201808"><ele>102.8</ele><time>2026-04-11T13:45:09.999Z</time></trkpt><trkpt lat="36.8589221828673" lon="15.056199665121941"><ele>101.2</ele><time>2026-04-11T13:45:10.999Z</time></trkpt><trkpt lat="36.85885769353871" lon="15.056309278315439"><ele>99.60000000000001</ele><time>2026-04-11T13:45:11.999Z</time></trkpt><trkpt lat="36.858781421907004" lon="15.056396838383126"><ele>98.0</ele><time>2026-04-11T13:45:12.999Z</time></trkpt><trkpt lat="36.858708201819425" lon="15.056465994951058"><ele>98.0</ele><time>2026-04-11T13:45:13.999Z</time></trkpt><trkpt lat="36.85864721557006" lon="15.0565412766863"><ele>98.0</ele><time>2026-04-11T13:45:14.999Z</time></trkpt><trkpt lat="36.85860010846045" lon="15.056610383147213"><ele>98.0</ele><time>2026-04-11T13:45:15.999Z</time></trkpt><trkpt lat="36.85858717300193" lon="15.056699331951057"><ele>98.0</ele><time>2026-04-11T13:45:26Z</time></trkpt><trkpt lat="36.85867478566588" lon="15.05684513627373"><ele>98.0</ele><time>2026-04-11T13:45:28Z</time></trkpt><trkpt lat="36.85876833046297" lon="15.05693404349489"><ele>96.5</ele><time>2026-04-11T13:45:29Z</time></trkpt><trkpt lat="36.85888044793845" lon="15.057040025637408"><ele>95.0</ele><time>2026-04-11T13:45:30Z</time></trkpt><trkpt lat="36.859001141533895" lon="15.057167979457882"><ele>93.5</ele><time>2026-04-11T13:45:31Z</time></trkpt><trkpt lat="36.85908823623517" lon="15.057248064490826"><ele>92.0</ele><time>2026-04-11T13:45:32Z</time></trkpt><trkpt lat="36.8591179928119" lon="15.057335545769371"><ele>92.0</ele><time>2026-04-11T13:45:36Z</time></trkpt><trkpt lat="36.85900454316636" lon="15.05741706239022"><ele>92.0</ele><time>2026-04-11T13:45:38Z</time></trkpt><trkpt lat="36.85891721671171" lon="15.057455476070551"><ele>92.0</ele><time>2026-04-11T13:45:39Z</time></trkpt><trkpt lat="36.85885457833508" lon="15.057536303084754"><ele>92.0</ele><time>2026-04-11T13:45:40Z</time></trkpt><trkpt lat="36.858811175956475" lon="15.057648446916568"><ele>92.0</ele><time>2026-04-11T13:45:41Z</time></trkpt><trkpt lat="36.85877118161142" lon="15.057810607502509"><ele>91.75</ele><time>2026-04-11T13:45:42Z</time></trkpt><trkpt lat="36.858717233953286" lon="15.057943347397043"><ele>91.5</ele><time>2026-04-11T13:45:43Z</time></trkpt><trkpt lat="36.85864124242969" lon="15.05805531749382"><ele>91.25</ele><time>2026-04-11T13:45:44Z</time></trkpt><trkpt lat="36.8585732968838" lon="15.058177911398495"><ele>91.0</ele><time>2026-04-11T13:45:45Z</time></trkpt><trkpt lat="36.85851524881201" lon="15.058299704776218"><ele>91.0</ele><time>2026-04-11T13:45:46Z</time></trkpt><trkpt lat="36.858475915608075" lon="15.058444141949886"><ele>91.0</ele><time>2026-04-11T13:45:47Z</time></trkpt><trkpt lat="36.85844772896618" lon="15.058577152205604"><ele>91.0</ele><time>2026-04-11T13:45:48Z</time></trkpt><trkpt lat="36.85846080801241" lon="15.058708514274342"><ele>91.0</ele><time>2026-04-11T13:45:49Z</time></trkpt><trkpt lat="36.85842723331314" lon="15.05884372773938"><ele>91.0</ele><time>2026-04-11T13:45:50Z</time></trkpt><trkpt lat="36.85849007388686" lon="15.05898502970586"><ele>91.0</ele><time>2026-04-11T13:45:51Z</time></trkpt><trkpt lat="36.858503509995664" lon="15.059147148623975"><ele>91.0</ele><time>2026-04-11T13:45:52Z</time></trkpt><trkpt lat="36.85851976285541" lon="15.059325577434175"><ele>91.0</ele><time>2026-04-11T13:45:53Z</time></trkpt><trkpt lat="36.85852642066908" lon="15.05949796265586"><ele>92.0</ele><time>2026-04-11T13:45:54Z</time></trkpt><trkpt lat="36.858533573394375" lon="15.059665238292071"><ele>93.0</ele><time>2026-04-11T13:45:55Z</time></trkpt><trkpt lat="36.85852922000255" lon="15.059828772926906"><ele>94.0</ele><time>2026-04-11T13:45:56Z</time></trkpt><trkpt lat="36.85851614197793" lon="15.059994650221258"><ele>95.0</ele><time>2026-04-11T13:45:57Z</time></trkpt><trkpt lat="36.85849116964379" lon="15.060174295643234"><ele>97.5</ele><time>2026-04-11T13:45:58Z</time></trkpt><trkpt lat="36.85846123493459" lon="15.060326953404994"><ele>100.0</ele><time>2026-04-11T13:45:59Z</time></trkpt><trkpt lat="36.858409113995094" lon="15.060481156921604"><ele>102.5</ele><time>2026-04-11T13:46:00Z</time></trkpt><trkpt lat="36.85835308532524" lon="15.060649828525829"><ele>105.0</ele><time>2026-04-11T13:46:01Z</time></trkpt><trkpt lat="36.85830121122105" lon="15.060821312981552"><ele>107.5</ele><time>2026-04-11T13:46:02Z</time></trkpt><trkpt lat="36.858259961386835" lon="15.060998713191527"><ele>110.0</ele><time>2026-04-11T13:46:03Z</time></trkpt><trkpt lat="36.8582247331626" lon="15.061174071166143"><ele>112.5</ele><time>2026-04-11T13:46:04Z</time></trkpt><trkpt lat="36.858178709705946" lon="15.061348308553152"><ele>115.0</ele><time>2026-04-11T13:46:05Z</time></trkpt><trkpt lat="36.85813898546041" lon="15.061512201132903"><ele>114.75</ele><time>2026-04-11T13:46:06Z</time></trkpt><trkpt lat="36.85809126280441" lon="15.06167400296849"><ele>114.5</ele><time>2026-04-11T13:46:07Z</time></trkpt><trkpt lat="36.85804762303537" lon="15.061845256758021"><ele>114.25</ele><time>2026-04-11T13:46:08Z</time></trkpt><trkpt lat="36.85800979290027" lon="15.062005405534793"><ele>114.0</ele><time>2026-04-11T13:46:09Z</time></trkpt><trkpt lat="36.85795806995071" lon="15.062144403997493"><ele>114.0</ele><time>2026-04-11T13:46:10Z</time></trkpt><trkpt lat="36.85788996878276" lon="15.062258551071318"><ele>114.0</ele><time>2026-04-11T13:46:11Z</time></trkpt><trkpt lat="36.857827072534796" lon="15.06236653048197"><ele>114.0</ele><time>2026-04-11T13:46:12Z</time></trkpt><trkpt lat="36.85777930547799" lon="15.062488450500522"><ele>114.0</ele><time>2026-04-11T13:46:13Z</time></trkpt><trkpt lat="36.85774323458675" lon="15.062647798826797"><ele>113.6</ele><time>2026-04-11T13:46:13.999Z</time></trkpt><trkpt lat="36.85770088299253" lon="15.062794304422745"><ele>113.2</ele><time>2026-04-11T13:46:14.999Z</time></trkpt><trkpt lat="36.8576625818004" lon="15.062920373892764"><ele>112.79999999999998</ele><time>2026-04-11T13:46:15.999Z</time></trkpt><trkpt lat="36.85763069274906" lon="15.063046110015174"><ele>112.39999999999999</ele><time>2026-04-11T13:46:16.999Z</time></trkpt><trkpt lat="36.85760044185573" lon="15.063158671202588"><ele>112.0</ele><time>2026-04-11T13:46:17.999Z</time></trkpt><trkpt lat="36.85757021037406" lon="15.063272633882146"><ele>110.5</ele><time>2026-04-11T13:46:18.999Z</time></trkpt><trkpt lat="36.857558794174786" lon="15.06341050152996"><ele>109.0</ele><time>2026-04-11T13:46:19.999Z</time></trkpt><trkpt lat="36.85753293275711" lon="15.063549611526755"><ele>107.5</ele><time>2026-04-11T13:46:20.999Z</time></trkpt><trkpt lat="36.85748617130156" lon="15.063692974633517"><ele>106.0</ele><time>2026-04-11T13:46:21.999Z</time></trkpt><trkpt lat="36.85745541055065" lon="15.063842644906765"><ele>106.0</ele><time>2026-04-11T13:46:22.999Z</time></trkpt><trkpt lat="36.857439951312685" lon="15.06398098288432"><ele>106.0</ele><time>2026-04-11T13:46:23.999Z</time></trkpt><trkpt lat="36.8574191060129" lon="15.064103451830404"><ele>106.0</ele><time>2026-04-11T13:46:24.999Z</time></trkpt><trkpt lat="36.85740227766005" lon="15.064224601946107"><ele>106.0</ele><time>2026-04-11T13:46:25.999Z</time></trkpt><trkpt lat="36.8573799238141" lon="15.064335217865336"><ele>106.0</ele><time>2026-04-11T13:46:26.999Z</time></trkpt><trkpt lat="36.85736443501732" lon="15.064448696451596"><ele>105.66666666666667</ele><time>2026-04-11T13:46:27.999Z</time></trkpt><trkpt lat="36.85735423899225" lon="15.064557888700856"><ele>105.33333333333334</ele><time>2026-04-11T13:46:28.999Z</time></trkpt><trkpt lat="36.857345485190024" lon="15.064656855044223"><ele>105.0</ele><time>2026-04-11T13:46:29.999Z</time></trkpt><trkpt lat="36.85733949841242" lon="15.064752845717251"><ele>104.66666666666666</ele><time>2026-04-11T13:46:30.999Z</time></trkpt><trkpt lat="36.85733127739981" lon="15.064837995065268"><ele>104.33333333333333</ele><time>2026-04-11T13:46:31.999Z</time></trkpt><trkpt lat="36.85732401374461" lon="15.064934451819164"><ele>104.0</ele><time>2026-04-11T13:46:32.999Z</time></trkpt><trkpt lat="36.857317351513174" lon="15.065046070307021"><ele>103.0</ele><time>2026-04-11T13:46:33.999Z</time></trkpt><trkpt lat="36.85732468612625" lon="15.065174715680074"><ele>102.0</ele><time>2026-04-11T13:46:34.999Z</time></trkpt><trkpt lat="36.85736280692305" lon="15.065310667078212"><ele>101.0</ele><time>2026-04-11T13:46:35.999Z</time></trkpt><trkpt lat="36.85742765181948" lon="15.06546736787158"><ele>100.0</ele><time>2026-04-11T13:46:36.999Z</time></trkpt><trkpt lat="36.85750084762026" lon="15.065645666545363"><ele>98.5</ele><time>2026-04-11T13:46:37.999Z</time></trkpt><trkpt lat="36.85758306190454" lon="15.065809906201942"><ele>97.0</ele><time>2026-04-11T13:46:38.999Z</time></trkpt><trkpt lat="36.85765975852975" lon="15.065962729164813"><ele>95.5</ele><time>2026-04-11T13:46:39.999Z</time></trkpt><trkpt lat="36.85772274771731" lon="15.066111405110789"><ele>94.0</ele><time>2026-04-11T13:46:40.999Z</time></trkpt><trkpt lat="36.85777821855134" lon="15.0662437388705"><ele>94.0</ele><time>2026-04-11T13:46:41.999Z</time></trkpt><trkpt lat="36.85780861862223" lon="15.066332809044598"><ele>94.0</ele><time>2026-04-11T13:46:42.999Z</time></trkpt><trkpt lat="36.85784085674966" lon="15.066404060053936"><ele>94.0</ele><time>2026-04-11T13:46:43.999Z</time></trkpt><trkpt lat="36.85787705687413" lon="15.06649330245828"><ele>94.0</ele><time>2026-04-11T13:46:45.999Z</time></trkpt><trkpt lat="36.8578154229955" lon="15.06653706119678"><ele>94.0</ele><time>2026-04-11T13:46:47.999Z</time></trkpt><trkpt lat="36.857694536772975" lon="15.066461153960104"><ele>94.0</ele><time>2026-04-11T13:46:49.999Z</time></trkpt><trkpt lat="36.85760936865363" lon="15.066409187523169"><ele>94.0</ele><time>2026-04-11T13:46:50.999Z</time></trkpt><trkpt lat="36.857490055732136" lon="15.066323338544708"><ele>94.0</ele><time>2026-04-11T13:46:51.999Z</time></trkpt><trkpt lat="36.85740127017832" lon="15.066236525253952"><ele>94.0</ele><time>2026-04-11T13:46:52.999Z</time></trkpt><trkpt lat="36.85731946530593" lon="15.066194278762728"><ele>94.0</ele><time>2026-04-11T13:46:53.999Z</time></trkpt><trkpt lat="36.857256146564325" lon="15.066252156622932"><ele>94.0</ele><time>2026-04-11T13:46:54.999Z</time></trkpt><trkpt lat="36.85719033383095" lon="15.066230250484649"><ele>94.0</ele><time>2026-04-11T13:46:55.999Z</time></trkpt><trkpt lat="36.85710793291485" lon="15.066198927894044"><ele>94.0</ele><time>2026-04-11T13:46:56.999Z</time></trkpt><trkpt lat="36.857025404794854" lon="15.066159290738163"><ele>94.0</ele><time>2026-04-11T13:46:57.999Z</time></trkpt><trkpt lat="36.85696520966928" lon="15.066130379864163"><ele>94.0</ele><time>2026-04-11T13:46:58.999Z</time></trkpt><trkpt lat="36.85686657369502" lon="15.06611159692758"><ele>94.0</ele><time>2026-04-11T13:47:00.999Z</time></trkpt><trkpt lat="36.856771558365715" lon="15.0660847360968"><ele>94.0</ele><time>2026-04-11T13:47:02.999Z</time></trkpt><trkpt lat="36.856756276798315" lon="15.065821852850688"><ele>92.33333333333333</ele><time>2026-04-11T13:47:03.999Z</time></trkpt><trkpt lat="36.85667832996037" lon="15.06574442323362"><ele>90.66666666666666</ele><time>2026-04-11T13:47:05.999Z</time></trkpt><trkpt lat="36.85659173916598" lon="15.065673343472627"><ele>89.0</ele><time>2026-04-11T13:47:07.999Z</time></trkpt><trkpt lat="36.85649805346716" lon="15.065605900174054"><ele>87.33333333333333</ele><time>2026-04-11T13:47:09.999Z</time></trkpt><trkpt lat="36.85645308863957" lon="15.065546521917154"><ele>85.66666666666667</ele><time>2026-04-11T13:47:10.999Z</time></trkpt><trkpt lat="36.856403695328446" lon="15.065491080659784"><ele>84.0</ele><time>2026-04-11T13:47:11.999Z</time></trkpt><trkpt lat="36.856357222853894" lon="15.06542170308455"><ele>84.0</ele><time>2026-04-11T13:47:12.999Z</time></trkpt><trkpt lat="36.856326432571954" lon="15.065350557976"><ele>84.0</ele><time>2026-04-11T13:47:13.999Z</time></trkpt><trkpt lat="36.85627303871111" lon="15.065299293582834"><ele>84.0</ele><time>2026-04-11T13:47:16.999Z</time></trkpt><trkpt lat="36.856213951887646" lon="15.065423927410112"><ele>84.0</ele><time>2026-04-11T13:47:18.999Z</time></trkpt><trkpt lat="36.85616651390403" lon="15.065540155528224"><ele>84.0</ele><time>2026-04-11T13:47:19.999Z</time></trkpt><trkpt lat="36.85608183005138" lon="15.065671030419539"><ele>84.25</ele><time>2026-04-11T13:47:20.999Z</time></trkpt><trkpt lat="36.85597514987619" lon="15.065812729392384"><ele>84.5</ele><time>2026-04-11T13:47:21.999Z</time></trkpt><trkpt lat="36.85587965178722" lon="15.06591706128726"><ele>84.75</ele><time>2026-04-11T13:47:23Z</time></trkpt><trkpt lat="36.85581533243011" lon="15.065985508341738"><ele>85.0</ele><time>2026-04-11T13:47:24Z</time></trkpt><trkpt lat="36.85575494913291" lon="15.06606135386018"><ele>81.0</ele><time>2026-04-11T13:47:25Z</time></trkpt><trkpt lat="36.85568766624422" lon="15.066187464186326"><ele>77.0</ele><time>2026-04-11T13:47:26Z</time></trkpt><trkpt lat="36.85560341369622" lon="15.066314639021996"><ele>73.0</ele><time>2026-04-11T13:47:27Z</time></trkpt><trkpt lat="36.85552366602714" lon="15.066439755762318"><ele>69.0</ele><time>2026-04-11T13:47:28Z</time></trkpt><trkpt lat="36.85545556552911" lon="15.066563254920556"><ele>70.0</ele><time>2026-04-11T13:47:29Z</time></trkpt><trkpt lat="36.85539221461422" lon="15.066678081983795"><ele>71.0</ele><time>2026-04-11T13:47:30Z</time></trkpt><trkpt lat="36.85532228851987" lon="15.066795480189226"><ele>72.0</ele><time>2026-04-11T13:47:31Z</time></trkpt><trkpt lat="36.85525901025861" lon="15.066909744733751"><ele>73.0</ele><time>2026-04-11T13:47:32Z</time></trkpt><trkpt lat="36.85520150165251" lon="15.067020398727882"><ele>74.0</ele><time>2026-04-11T13:47:33Z</time></trkpt><trkpt lat="36.85514722423149" lon="15.067153461124807"><ele>71.2</ele><time>2026-04-11T13:47:34Z</time></trkpt><trkpt lat="36.85508744029269" lon="15.067276370620915"><ele>68.4</ele><time>2026-04-11T13:47:35Z</time></trkpt><trkpt lat="36.85503659563262" lon="15.067360752280779"><ele>65.6</ele><time>2026-04-11T13:47:36Z</time></trkpt><trkpt lat="36.855004810233474" lon="15.067444151576975"><ele>62.8</ele><time>2026-04-11T13:47:37Z</time></trkpt><trkpt lat="36.85498934811559" lon="15.067570867580518"><ele>60.0</ele><time>2026-04-11T13:47:38Z</time></trkpt><trkpt lat="36.85499872733681" lon="15.067721193095352"><ele>60.0</ele><time>2026-04-11T13:47:39Z</time></trkpt><trkpt lat="36.85501445090229" lon="15.06784670870741"><ele>60.0</ele><time>2026-04-11T13:47:40Z</time></trkpt><trkpt lat="36.85498761634181" lon="15.067923607391585"><ele>60.0</ele><time>2026-04-11T13:47:41Z</time></trkpt><trkpt lat="36.8549360223284" lon="15.067981252998038"><ele>60.0</ele><time>2026-04-11T13:47:42Z</time></trkpt><trkpt lat="36.85486595461953" lon="15.0679981307476"><ele>60.0</ele><time>2026-04-11T13:47:43Z</time></trkpt><trkpt lat="36.85477979369332" lon="15.067958406745246"><ele>60.0</ele><time>2026-04-11T13:47:44Z</time></trkpt><trkpt lat="36.854675628132156" lon="15.067890758027282"><ele>60.0</ele><time>2026-04-11T13:47:45Z</time></trkpt><trkpt lat="36.854569531284426" lon="15.067883659513543"><ele>60.0</ele><time>2026-04-11T13:47:46Z</time></trkpt><trkpt lat="36.854454066428055" lon="15.06790509519111"><ele>60.0</ele><time>2026-04-11T13:47:47Z</time></trkpt><trkpt lat="36.85434488851393" lon="15.067907692974309"><ele>60.0</ele><time>2026-04-11T13:47:48Z</time></trkpt><trkpt lat="36.854258461314586" lon="15.067911196274702"><ele>60.0</ele><time>2026-04-11T13:47:49Z</time></trkpt><trkpt lat="36.85419170820545" lon="15.067936150441263"><ele>57.4</ele><time>2026-04-11T13:47:50Z</time></trkpt><trkpt lat="36.854110233770975" lon="15.068068659210429"><ele>54.8</ele><time>2026-04-11T13:47:52Z</time></trkpt><trkpt lat="36.854056896983444" lon="15.068178516734315"><ele>52.2</ele><time>2026-04-11T13:47:53Z</time></trkpt><trkpt lat="36.853989924759894" lon="15.068268302715802"><ele>49.6</ele><time>2026-04-11T13:47:54Z</time></trkpt><trkpt lat="36.853913838008566" lon="15.068273479440647"><ele>47.0</ele><time>2026-04-11T13:47:55Z</time></trkpt><trkpt lat="36.85382462376206" lon="15.068233112197884"><ele>47.0</ele><time>2026-04-11T13:47:56Z</time></trkpt><trkpt lat="36.85373677017981" lon="15.068195036879866"><ele>47.0</ele><time>2026-04-11T13:47:57Z</time></trkpt><trkpt lat="36.853659860167625" lon="15.068189154739741"><ele>47.0</ele><time>2026-04-11T13:47:58Z</time></trkpt><trkpt lat="36.85358662753971" lon="15.068201252948622"><ele>47.0</ele><time>2026-04-11T13:47:59Z</time></trkpt><trkpt lat="36.853519302032325" lon="15.068230673476616"><ele>47.0</ele><time>2026-04-11T13:48:00Z</time></trkpt><trkpt lat="36.8534603759156" lon="15.068275456869072"><ele>47.0</ele><time>2026-04-11T13:48:01Z</time></trkpt><trkpt lat="36.85338957584315" lon="15.068359587928034"><ele>46.0</ele><time>2026-04-11T13:48:02Z</time></trkpt><trkpt lat="36.853295781858115" lon="15.068452765671736"><ele>45.0</ele><time>2026-04-11T13:48:03Z</time></trkpt><trkpt lat="36.853204187250306" lon="15.068542296852353"><ele>44.0</ele><time>2026-04-11T13:48:04Z</time></trkpt><trkpt lat="36.85310306283112" lon="15.068574599181082"><ele>43.0</ele><time>2026-04-11T13:48:05Z</time></trkpt><trkpt lat="36.85302597283583" lon="15.068595305156368"><ele>42.0</ele><time>2026-04-11T13:48:06Z</time></trkpt><trkpt lat="36.852945928963166" lon="15.068581729681517"><ele>42.0</ele><time>2026-04-11T13:48:07Z</time></trkpt><trkpt lat="36.85288863926265" lon="15.06854844333129"><ele>42.0</ele><time>2026-04-11T13:48:08Z</time></trkpt><trkpt lat="36.852829608366434" lon="15.068603395752989"><ele>42.0</ele><time>2026-04-11T13:48:10Z</time></trkpt><trkpt lat="36.85283561806691" lon="15.068710680395254"><ele>42.0</ele><time>2026-04-11T13:48:11Z</time></trkpt><trkpt lat="36.85286064739872" lon="15.068863978243531"><ele>42.0</ele><time>2026-04-11T13:48:12Z</time></trkpt><trkpt lat="36.85287345695272" lon="15.069072041809507"><ele>42.0</ele><time>2026-04-11T13:48:12.999Z</time></trkpt><trkpt lat="36.85285448791618" lon="15.069299197321198"><ele>42.0</ele><time>2026-04-11T13:48:13.999Z</time></trkpt><trkpt lat="36.852861392047544" lon="15.06953457957892"><ele>42.0</ele><time>2026-04-11T13:48:14.999Z</time></trkpt><trkpt lat="36.85288277822888" lon="15.069760887831585"><ele>41.5</ele><time>2026-04-11T13:48:15.999Z</time></trkpt><trkpt lat="36.852912145126496" lon="15.069952817276379"><ele>41.0</ele><time>2026-04-11T13:48:16.999Z</time></trkpt><trkpt lat="36.85291292233082" lon="15.070115050115696"><ele>40.5</ele><time>2026-04-11T13:48:17.999Z</time></trkpt><trkpt lat="36.852925185133735" lon="15.070263098810976"><ele>40.0</ele><time>2026-04-11T13:48:18.999Z</time></trkpt><trkpt lat="36.852961818230206" lon="15.070419406318564"><ele>40.0</ele><time>2026-04-11T13:48:19.999Z</time></trkpt><trkpt lat="36.852993771501616" lon="15.070568261433655"><ele>40.0</ele><time>2026-04-11T13:48:20.999Z</time></trkpt><trkpt lat="36.853023993461576" lon="15.070695759234626"><ele>40.0</ele><time>2026-04-11T13:48:21.999Z</time></trkpt><trkpt lat="36.85304712297546" lon="15.070813571024475"><ele>40.0</ele><time>2026-04-11T13:48:22.999Z</time></trkpt><trkpt lat="36.853056417762936" lon="15.07092285452378"><ele>40.0</ele><time>2026-04-11T13:48:23.999Z</time></trkpt><trkpt lat="36.85305451970222" lon="15.071023423125133"><ele>39.0</ele><time>2026-04-11T13:48:24.999Z</time></trkpt><trkpt lat="36.85305597598936" lon="15.071114808797706"><ele>38.0</ele><time>2026-04-11T13:48:25.999Z</time></trkpt><trkpt lat="36.85311236163677" lon="15.07123948649264"><ele>37.0</ele><time>2026-04-11T13:48:27.999Z</time></trkpt><trkpt lat="36.85317530426294" lon="15.071271117593657"><ele>36.0</ele><time>2026-04-11T13:48:28.999Z</time></trkpt><trkpt lat="36.853249002501705" lon="15.07129196116409"><ele>35.0</ele><time>2026-04-11T13:48:29.999Z</time></trkpt><trkpt lat="36.85334758800433" lon="15.071299737655806"><ele>34.0</ele><time>2026-04-11T13:48:30.999Z</time></trkpt><trkpt lat="36.85347916238784" lon="15.07130363481307"><ele>34.0</ele><time>2026-04-11T13:48:31.999Z</time></trkpt><trkpt lat="36.85358947631624" lon="15.071312896567502"><ele>34.0</ele><time>2026-04-11T13:48:32.999Z</time></trkpt><trkpt lat="36.85366907796881" lon="15.071321027626032"><ele>34.0</ele><time>2026-04-11T13:48:33.999Z</time></trkpt><trkpt lat="36.8537085316585" lon="15.071392764366237"><ele>34.0</ele><time>2026-04-11T13:48:35.999Z</time></trkpt><trkpt lat="36.85363598149868" lon="15.071517202602447"><ele>34.0</ele><time>2026-04-11T13:48:37.999Z</time></trkpt><trkpt lat="36.85357206736704" lon="15.071554568475412"><ele>34.0</ele><time>2026-04-11T13:48:38.999Z</time></trkpt><trkpt lat="36.85350335880967" lon="15.071556199226448"><ele>34.0</ele><time>2026-04-11T13:48:39.999Z</time></trkpt><trkpt lat="36.85339501921288" lon="15.071521200282687"><ele>34.0</ele><time>2026-04-11T13:48:40.999Z</time></trkpt><trkpt lat="36.853249400686664" lon="15.071483329257392"><ele>34.0</ele><time>2026-04-11T13:48:41.999Z</time></trkpt><trkpt lat="36.853087925943335" lon="15.071459085602985"><ele>33.0</ele><time>2026-04-11T13:48:42.999Z</time></trkpt><trkpt lat="36.85293544164808" lon="15.071447828071495"><ele>32.0</ele><time>2026-04-11T13:48:43.999Z</time></trkpt><trkpt lat="36.852801131978495" lon="15.071458158228788"><ele>31.0</ele><time>2026-04-11T13:48:44.999Z</time></trkpt><trkpt lat="36.852674886658754" lon="15.07147964953594"><ele>30.0</ele><time>2026-04-11T13:48:45.999Z</time></trkpt><trkpt lat="36.85255016558665" lon="15.07149948062047"><ele>28.25</ele><time>2026-04-11T13:48:46.999Z</time></trkpt><trkpt lat="36.85242484356215" lon="15.071513422583454"><ele>26.5</ele><time>2026-04-11T13:48:47.999Z</time></trkpt><trkpt lat="36.852345654461644" lon="15.071461931285013"><ele>24.75</ele><time>2026-04-11T13:48:48.999Z</time></trkpt><trkpt lat="36.852246326274596" lon="15.071368752048913"><ele>23.0</ele><time>2026-04-11T13:48:49.999Z</time></trkpt><trkpt lat="36.852134196321586" lon="15.071277734438942"><ele>23.0</ele><time>2026-04-11T13:48:50.999Z</time></trkpt><trkpt lat="36.852035949204954" lon="15.071206524262525"><ele>23.0</ele><time>2026-04-11T13:48:51.999Z</time></trkpt><trkpt lat="36.85194058509431" lon="15.071160370081513"><ele>23.0</ele><time>2026-04-11T13:48:52.999Z</time></trkpt><trkpt lat="36.85185904850179" lon="15.071149420169832"><ele>23.0</ele><time>2026-04-11T13:48:53.999Z</time></trkpt><trkpt lat="36.85179308097355" lon="15.071137254535058"><ele>23.0</ele><time>2026-04-11T13:48:55.999Z</time></trkpt><trkpt lat="36.8518566647686" lon="15.071049488787127"><ele>23.0</ele><time>2026-04-11T13:50:45.999Z</time></trkpt><trkpt lat="36.85192177702683" lon="15.070990875169086"><ele>23.0</ele><time>2026-04-11T13:50:46.999Z</time></trkpt><trkpt lat="36.851997457661234" lon="15.070937200315624"><ele>23.0</ele><time>2026-04-11T13:50:47.999Z</time></trkpt><trkpt lat="36.8520463843661" lon="15.070853148287497"><ele>23.0</ele><time>2026-04-11T13:50:48.999Z</time></trkpt><trkpt lat="36.852085785266226" lon="15.07069749416479"><ele>23.0</ele><time>2026-04-11T13:50:50.999Z</time></trkpt><trkpt lat="36.85210615001173" lon="15.070595460521655"><ele>24.0</ele><time>2026-04-11T13:50:51.999Z</time></trkpt><trkpt lat="36.85213472449084" lon="15.070485413746496"><ele>25.0</ele><time>2026-04-11T13:50:52.999Z</time></trkpt><trkpt lat="36.8521036850379" lon="15.070381361736958"><ele>25.999999999999996</ele><time>2026-04-11T13:50:53.999Z</time></trkpt><trkpt lat="36.852066475649416" lon="15.070248936474616"><ele>27.0</ele><time>2026-04-11T13:50:54.999Z</time></trkpt><trkpt lat="36.85202733002634" lon="15.070098201320988"><ele>28.0</ele><time>2026-04-11T13:50:55.999Z</time></trkpt><trkpt lat="36.8520137333067" lon="15.069989588190428"><ele>28.799999999999997</ele><time>2026-04-11T13:50:56.999Z</time></trkpt><trkpt lat="36.851997124669815" lon="15.069877572349585"><ele>29.599999999999998</ele><time>2026-04-11T13:50:57.999Z</time></trkpt><trkpt lat="36.85197055367567" lon="15.069753234510777"><ele>30.400000000000002</ele><time>2026-04-11T13:50:58.999Z</time></trkpt><trkpt lat="36.85194416554838" lon="15.069625975377273"><ele>31.200000000000003</ele><time>2026-04-11T13:50:59.999Z</time></trkpt><trkpt lat="36.85191401432921" lon="15.069502028544212"><ele>32.0</ele><time>2026-04-11T13:51:00.999Z</time></trkpt><trkpt lat="36.85187568503555" lon="15.069381785470016"><ele>32.0</ele><time>2026-04-11T13:51:01.999Z</time></trkpt><trkpt lat="36.85183623431249" lon="15.069272540952557"><ele>32.0</ele><time>2026-04-11T13:51:02.999Z</time></trkpt><trkpt lat="36.85181301877509" lon="15.069172408268477"><ele>32.0</ele><time>2026-04-11T13:51:03.999Z</time></trkpt><trkpt lat="36.85180439162333" lon="15.069052651432415"><ele>32.0</ele><time>2026-04-11T13:51:04.999Z</time></trkpt><trkpt lat="36.85181254747445" lon="15.06891069938889"><ele>32.0</ele><time>2026-04-11T13:51:05.999Z</time></trkpt><trkpt lat="36.85183570345484" lon="15.068753870902997"><ele>32.2</ele><time>2026-04-11T13:51:06.999Z</time></trkpt><trkpt lat="36.851850971106906" lon="15.068629107772656"><ele>32.400000000000006</ele><time>2026-04-11T13:51:07.999Z</time></trkpt><trkpt lat="36.85187785077148" lon="15.068523522333717"><ele>32.599999999999994</ele><time>2026-04-11T13:51:08.999Z</time></trkpt><trkpt lat="36.851921064752815" lon="15.068411856731094"><ele>32.8</ele><time>2026-04-11T13:51:09.999Z</time></trkpt><trkpt lat="36.85196166625314" lon="15.068283172560307"><ele>33.0</ele><time>2026-04-11T13:51:10.999Z</time></trkpt><trkpt lat="36.85199938627252" lon="15.068150225109065"><ele>32.0</ele><time>2026-04-11T13:51:11.999Z</time></trkpt><trkpt lat="36.852039958372046" lon="15.068032566964494"><ele>31.0</ele><time>2026-04-11T13:51:12.999Z</time></trkpt><trkpt lat="36.85209501523883" lon="15.067949154517592"><ele>30.0</ele><time>2026-04-11T13:51:13.999Z</time></trkpt><trkpt lat="36.85212391205997" lon="15.06787373622278"><ele>29.0</ele><time>2026-04-11T13:51:14.999Z</time></trkpt><trkpt lat="36.852157115098855" lon="15.067805109832593"><ele>28.0</ele><time>2026-04-11T13:51:15.999Z</time></trkpt><trkpt lat="36.85215665616755" lon="15.067721795930193"><ele>27.0</ele><time>2026-04-11T13:51:16.999Z</time></trkpt><trkpt lat="36.852095721005156" lon="15.067636291515269"><ele>27.0</ele><time>2026-04-11T13:51:17.999Z</time></trkpt><trkpt lat="36.85205297008488" lon="15.067502411897205"><ele>27.000000000000004</ele><time>2026-04-11T13:51:18.999Z</time></trkpt><trkpt lat="36.85200543279424" lon="15.06738037939416"><ele>27.000000000000004</ele><time>2026-04-11T13:51:19.999Z</time></trkpt><trkpt lat="36.85198268768416" lon="15.067281190666966"><ele>27.0</ele><time>2026-04-11T13:51:20.999Z</time></trkpt><trkpt lat="36.85194800644566" lon="15.067191473598848"><ele>27.0</ele><time>2026-04-11T13:51:21.999Z</time></trkpt><trkpt lat="36.85190758968296" lon="15.067074417911625"><ele>27.0</ele><time>2026-04-11T13:51:22.999Z</time></trkpt><trkpt lat="36.85187800191659" lon="15.066946477929985"><ele>27.000000000000004</ele><time>2026-04-11T13:51:23.999Z</time></trkpt><trkpt lat="36.85186118666011" lon="15.06681977231612"><ele>27.000000000000004</ele><time>2026-04-11T13:51:24.999Z</time></trkpt><trkpt lat="36.851853007957764" lon="15.066690433975491"><ele>27.0</ele><time>2026-04-11T13:51:25.999Z</time></trkpt><trkpt lat="36.851850087841726" lon="15.066552127482266"><ele>27.0</ele><time>2026-04-11T13:51:26.999Z</time></trkpt><trkpt lat="36.851852237710126" lon="15.066391188323294"><ele>27.0</ele><time>2026-04-11T13:51:27.999Z</time></trkpt><trkpt lat="36.85183657219672" lon="15.06622295631477"><ele>27.0</ele><time>2026-04-11T13:51:28.999Z</time></trkpt><trkpt lat="36.851820621441625" lon="15.066049180628514"><ele>27.0</ele><time>2026-04-11T13:51:29.999Z</time></trkpt><trkpt lat="36.85181026957128" lon="15.06586282168602"><ele>27.0</ele><time>2026-04-11T13:51:30.999Z</time></trkpt><trkpt lat="36.85180504464957" lon="15.06567479238614"><ele>27.333333333333336</ele><time>2026-04-11T13:51:31.999Z</time></trkpt><trkpt lat="36.851792055599134" lon="15.06548812850169"><ele>27.666666666666668</ele><time>2026-04-11T13:51:32.999Z</time></trkpt><trkpt lat="36.85178250721381" lon="15.065304338595249"><ele>28.0</ele><time>2026-04-11T13:51:33.999Z</time></trkpt><trkpt lat="36.8517723962223" lon="15.065113587928087"><ele>27.0</ele><time>2026-04-11T13:51:35Z</time></trkpt><trkpt lat="36.85175994567088" lon="15.064923588055505"><ele>26.0</ele><time>2026-04-11T13:51:36Z</time></trkpt><trkpt lat="36.85174881019855" lon="15.06473940954446"><ele>25.0</ele><time>2026-04-11T13:51:37Z</time></trkpt><trkpt lat="36.851765117191846" lon="15.064578001532844"><ele>24.0</ele><time>2026-04-11T13:51:38Z</time></trkpt><trkpt lat="36.85178277248624" lon="15.064434613954045"><ele>24.0</ele><time>2026-04-11T13:51:39Z</time></trkpt><trkpt lat="36.85179792978283" lon="15.064311513592848"><ele>24.0</ele><time>2026-04-11T13:51:40Z</time></trkpt><trkpt lat="36.8517475183646" lon="15.064208399715135"><ele>24.0</ele><time>2026-04-11T13:51:41Z</time></trkpt><trkpt lat="36.851796076571915" lon="15.06407089190269"><ele>24.0</ele><time>2026-04-11T13:51:43Z</time></trkpt><trkpt lat="36.851875229046385" lon="15.06399920006735"><ele>24.0</ele><time>2026-04-11T13:51:44Z</time></trkpt><trkpt lat="36.851970689180156" lon="15.063911564208215"><ele>24.799999999999997</ele><time>2026-04-11T13:51:45Z</time></trkpt><trkpt lat="36.852042607742845" lon="15.063808556794982"><ele>25.599999999999998</ele><time>2026-04-11T13:51:46Z</time></trkpt><trkpt lat="36.852081396551995" lon="15.063704422422799"><ele>26.4</ele><time>2026-04-11T13:51:47Z</time></trkpt><trkpt lat="36.852114482140074" lon="15.063578877880312"><ele>27.2</ele><time>2026-04-11T13:51:48Z</time></trkpt><trkpt lat="36.85214803450983" lon="15.0634331785266"><ele>28.0</ele><time>2026-04-11T13:51:49Z</time></trkpt><trkpt lat="36.85217373699824" lon="15.063278481199745"><ele>28.0</ele><time>2026-04-11T13:51:50Z</time></trkpt><trkpt lat="36.852200862523894" lon="15.063117644334923"><ele>28.0</ele><time>2026-04-11T13:51:51Z</time></trkpt><trkpt lat="36.85222838949648" lon="15.062959982436583"><ele>28.0</ele><time>2026-04-11T13:51:52Z</time></trkpt><trkpt lat="36.852267467665754" lon="15.062806416167033"><ele>28.0</ele><time>2026-04-11T13:51:53Z</time></trkpt><trkpt lat="36.85230789333058" lon="15.062648455216944"><ele>28.0</ele><time>2026-04-11T13:51:54Z</time></trkpt><trkpt lat="36.85233517765056" lon="15.062488538947104"><ele>28.0</ele><time>2026-04-11T13:51:55Z</time></trkpt><trkpt lat="36.852350257323984" lon="15.062343651951391"><ele>28.0</ele><time>2026-04-11T13:51:56Z</time></trkpt><trkpt lat="36.85235338581843" lon="15.06219846333556"><ele>28.0</ele><time>2026-04-11T13:51:57Z</time></trkpt><trkpt lat="36.85237522339948" lon="15.062045001416033"><ele>28.4</ele><time>2026-04-11T13:51:58Z</time></trkpt><trkpt lat="36.852408445621" lon="15.061887028865888"><ele>28.799999999999997</ele><time>2026-04-11T13:51:59Z</time></trkpt><trkpt lat="36.85242872616625" lon="15.061743671297888"><ele>29.2</ele><time>2026-04-11T13:52:00Z</time></trkpt><trkpt lat="36.852439465543746" lon="15.06162443497568"><ele>29.6</ele><time>2026-04-11T13:52:01Z</time></trkpt><trkpt lat="36.852462012312515" lon="15.061525444383285"><ele>30.0</ele><time>2026-04-11T13:52:02Z</time></trkpt><trkpt lat="36.85251298315691" lon="15.061436319361162"><ele>30.0</ele><time>2026-04-11T13:52:03Z</time></trkpt><trkpt lat="36.85258368511029" lon="15.061347650370225"><ele>30.0</ele><time>2026-04-11T13:52:04Z</time></trkpt><trkpt lat="36.8526560232447" lon="15.06126626125364"><ele>30.0</ele><time>2026-04-11T13:52:05Z</time></trkpt><trkpt lat="36.852737385997855" lon="15.061196064521551"><ele>30.0</ele><time>2026-04-11T13:52:06Z</time></trkpt><trkpt lat="36.85281411590447" lon="15.061132983673854"><ele>30.0</ele><time>2026-04-11T13:52:07Z</time></trkpt><trkpt lat="36.8528678460571" lon="15.061070975203114"><ele>30.6</ele><time>2026-04-11T13:52:08Z</time></trkpt><trkpt lat="36.85288705269522" lon="15.060973846138614"><ele>31.2</ele><time>2026-04-11T13:52:09Z</time></trkpt><trkpt lat="36.852888932097805" lon="15.060857910305064"><ele>31.799999999999997</ele><time>2026-04-11T13:52:10Z</time></trkpt><trkpt lat="36.852896718514344" lon="15.06071555005624"><ele>32.4</ele><time>2026-04-11T13:52:11Z</time></trkpt><trkpt lat="36.85291890881237" lon="15.06056298303958"><ele>33.0</ele><time>2026-04-11T13:52:12Z</time></trkpt><trkpt lat="36.852950203647296" lon="15.060419857384131"><ele>33.5</ele><time>2026-04-11T13:52:13Z</time></trkpt><trkpt lat="36.85296265121907" lon="15.060281538574872"><ele>34.0</ele><time>2026-04-11T13:52:14Z</time></trkpt><trkpt lat="36.852977863428244" lon="15.060129464325609"><ele>34.5</ele><time>2026-04-11T13:52:15Z</time></trkpt><trkpt lat="36.85299271695175" lon="15.059970288840955"><ele>35.0</ele><time>2026-04-11T13:52:16Z</time></trkpt><trkpt lat="36.853002670283836" lon="15.059804973318219"><ele>35.0</ele><time>2026-04-11T13:52:16.999Z</time></trkpt><trkpt lat="36.85300485021388" lon="15.059633869068671"><ele>35.0</ele><time>2026-04-11T13:52:17.999Z</time></trkpt><trkpt lat="36.852999368989344" lon="15.059457567111838"><ele>35.0</ele><time>2026-04-11T13:52:18.999Z</time></trkpt><trkpt lat="36.852993834997804" lon="15.059275504568141"><ele>35.0</ele><time>2026-04-11T13:52:19.999Z</time></trkpt><trkpt lat="36.85299117095808" lon="15.05909260584783"><ele>36.33333333333333</ele><time>2026-04-11T13:52:20.999Z</time></trkpt><trkpt lat="36.8529933199904" lon="15.058906091462903"><ele>37.666666666666664</ele><time>2026-04-11T13:52:21.999Z</time></trkpt><trkpt lat="36.85299200723647" lon="15.058721339750285"><ele>39.0</ele><time>2026-04-11T13:52:22.999Z</time></trkpt><trkpt lat="36.8529810520096" lon="15.058531164060733"><ele>39.0</ele><time>2026-04-11T13:52:23.999Z</time></trkpt><trkpt lat="36.85296387508877" lon="15.05833446126307"><ele>39.0</ele><time>2026-04-11T13:52:24.999Z</time></trkpt><trkpt lat="36.85295331071103" lon="15.058142083209114"><ele>39.0</ele><time>2026-04-11T13:52:25.999Z</time></trkpt><trkpt lat="36.85294583104696" lon="15.057953856338594"><ele>39.25</ele><time>2026-04-11T13:52:26.999Z</time></trkpt><trkpt lat="36.85293020412203" lon="15.057765550263895"><ele>39.5</ele><time>2026-04-11T13:52:27.999Z</time></trkpt><trkpt lat="36.852913047705336" lon="15.057595529990081"><ele>39.75</ele><time>2026-04-11T13:52:28.999Z</time></trkpt><trkpt lat="36.852894226978954" lon="15.05742117656192"><ele>40.0</ele><time>2026-04-11T13:52:29.999Z</time></trkpt><trkpt lat="36.85285634349569" lon="15.057246734840435"><ele>39.2</ele><time>2026-04-11T13:52:30.999Z</time></trkpt><trkpt lat="36.852825242736735" lon="15.05708933951397"><ele>38.4</ele><time>2026-04-11T13:52:31.999Z</time></trkpt><trkpt lat="36.852799105403605" lon="15.056953042246143"><ele>37.6</ele><time>2026-04-11T13:52:32.999Z</time></trkpt><trkpt lat="36.85278065143735" lon="15.05683560646341"><ele>36.8</ele><time>2026-04-11T13:52:33.999Z</time></trkpt><trkpt lat="36.85277857507587" lon="15.056729344230511"><ele>36.0</ele><time>2026-04-11T13:52:34.999Z</time></trkpt><trkpt lat="36.852795672484504" lon="15.056600601170611"><ele>36.0</ele><time>2026-04-11T13:52:36.999Z</time></trkpt><trkpt lat="36.85286066998222" lon="15.056554918182313"><ele>36.0</ele><time>2026-04-11T13:52:38.999Z</time></trkpt><trkpt lat="36.85292719458602" lon="15.056547886830604"><ele>36.0</ele><time>2026-04-11T13:52:39.999Z</time></trkpt><trkpt lat="36.85299168624087" lon="15.056515474364684"><ele>36.0</ele><time>2026-04-11T13:52:40.999Z</time></trkpt><trkpt lat="36.853067689289276" lon="15.056470090062774"><ele>36.0</ele><time>2026-04-11T13:52:41.999Z</time></trkpt><trkpt lat="36.85313177622769" lon="15.056438408019881"><ele>36.0</ele><time>2026-04-11T13:52:42.999Z</time></trkpt><trkpt lat="36.853265605394824" lon="15.056431534579442"><ele>36.0</ele><time>2026-04-11T13:52:44.999Z</time></trkpt><trkpt lat="36.85334631959383" lon="15.056455834112832"><ele>36.0</ele><time>2026-04-11T13:52:45.999Z</time></trkpt><trkpt lat="36.85356940088835" lon="15.056609336628101"><ele>36.0</ele><time>2026-04-11T13:52:46.999Z</time></trkpt><trkpt lat="36.85372603556899" lon="15.056662003506908"><ele>37.0</ele><time>2026-04-11T13:52:47.999Z</time></trkpt><trkpt lat="36.85386231281433" lon="15.05671100768134"><ele>38.0</ele><time>2026-04-11T13:52:48.999Z</time></trkpt><trkpt lat="36.853980487480975" lon="15.056775220005278"><ele>39.0</ele><time>2026-04-11T13:52:49.999Z</time></trkpt><trkpt lat="36.85409133878348" lon="15.056805115758477"><ele>40.0</ele><time>2026-04-11T13:52:50.999Z</time></trkpt><trkpt lat="36.854202069485346" lon="15.056847376176014"><ele>42.0</ele><time>2026-04-11T13:52:51.999Z</time></trkpt><trkpt lat="36.8543146959364" lon="15.056897444168962"><ele>44.0</ele><time>2026-04-11T13:52:52.999Z</time></trkpt><trkpt lat="36.8544353852906" lon="15.056938974288839"><ele>46.0</ele><time>2026-04-11T13:52:53.999Z</time></trkpt><trkpt lat="36.854551430884506" lon="15.056984485221765"><ele>48.0</ele><time>2026-04-11T13:52:54.999Z</time></trkpt><trkpt lat="36.85466518929113" lon="15.057033978323688"><ele>48.0</ele><time>2026-04-11T13:52:55.999Z</time></trkpt><trkpt lat="36.854782870399795" lon="15.057079890303017"><ele>48.0</ele><time>2026-04-11T13:52:56.999Z</time></trkpt><trkpt lat="36.854902454808936" lon="15.057125006852763"><ele>48.0</ele><time>2026-04-11T13:52:57.999Z</time></trkpt><trkpt lat="36.85502056195851" lon="15.05716505486711"><ele>48.0</ele><time>2026-04-11T13:52:58.999Z</time></trkpt><trkpt lat="36.855145470124945" lon="15.057208234885415"><ele>49.75</ele><time>2026-04-11T13:52:59.999Z</time></trkpt><trkpt lat="36.85526013656738" lon="15.057245065410335"><ele>51.5</ele><time>2026-04-11T13:53:00.999Z</time></trkpt><trkpt lat="36.85536824926071" lon="15.057279343983982"><ele>53.25</ele><time>2026-04-11T13:53:01.999Z</time></trkpt><trkpt lat="36.85547127314014" lon="15.05732032014489"><ele>55.0</ele><time>2026-04-11T13:53:02.999Z</time></trkpt><trkpt lat="36.855578107458925" lon="15.057364918183985"><ele>55.0</ele><time>2026-04-11T13:53:03.999Z</time></trkpt><trkpt lat="36.8556871190998" lon="15.057410172678921"><ele>55.0</ele><time>2026-04-11T13:53:04.999Z</time></trkpt><trkpt lat="36.85578374358733" lon="15.057428502361905"><ele>55.0</ele><time>2026-04-11T13:53:05.999Z</time></trkpt><trkpt lat="36.8558619988689" lon="15.057447019784204"><ele>55.0</ele><time>2026-04-11T13:53:07.999Z</time></trkpt><trkpt lat="36.85583239651913" lon="15.057282592493841"><ele>55.0</ele><time>2026-04-11T13:53:09.999Z</time></trkpt><trkpt lat="36.85580160679102" lon="15.05718178287067"><ele>54.99999999999999</ele><time>2026-04-11T13:53:10.999Z</time></trkpt><trkpt lat="36.855736451382555" lon="15.05710822000531"><ele>55.0</ele><time>2026-04-11T13:53:11.999Z</time></trkpt><trkpt lat="36.855782444933524" lon="15.057024650157187"><ele>55.0</ele><time>2026-04-11T13:53:14.999Z</time></trkpt><trkpt lat="36.85584597410996" lon="15.056993990689866"><ele>55.0</ele><time>2026-04-11T13:53:15.999Z</time></trkpt><trkpt lat="36.85591610119024" lon="15.05696425954185"><ele>54.99999999999999</ele><time>2026-04-11T13:53:16.999Z</time></trkpt><trkpt lat="36.85596519229415" lon="15.05691046242111"><ele>55.0</ele><time>2026-04-11T13:53:17.999Z</time></trkpt><trkpt lat="36.85601433417817" lon="15.0570043034059"><ele>55.8</ele><time>2026-04-11T13:53:20.999Z</time></trkpt><trkpt lat="36.856049845768524" lon="15.057115655454638"><ele>56.6</ele><time>2026-04-11T13:53:21.999Z</time></trkpt><trkpt lat="36.85608929560135" lon="15.057219092839734"><ele>57.400000000000006</ele><time>2026-04-11T13:53:22.999Z</time></trkpt><trkpt lat="36.85612611602237" lon="15.05734933643027"><ele>58.2</ele><time>2026-04-11T13:53:23.999Z</time></trkpt><trkpt lat="36.85613093922794" lon="15.057438214693493"><ele>59.0</ele><time>2026-04-11T13:53:24.999Z</time></trkpt><trkpt lat="36.856208714617175" lon="15.057480010164177"><ele>59.2</ele><time>2026-04-11T13:53:27.999Z</time></trkpt><trkpt lat="36.85627813964969" lon="15.057525597722117"><ele>59.400000000000006</ele><time>2026-04-11T13:53:28.999Z</time></trkpt><trkpt lat="36.85637223658986" lon="15.057578654768072"><ele>59.6</ele><time>2026-04-11T13:53:30.999Z</time></trkpt><trkpt lat="36.85649761765616" lon="15.057623372508887"><ele>59.8</ele><time>2026-04-11T13:53:31.999Z</time></trkpt><trkpt lat="36.856612209914054" lon="15.057672182642568"><ele>60.0</ele><time>2026-04-11T13:53:32.999Z</time></trkpt><trkpt lat="36.85672013874787" lon="15.057731061609465"><ele>63.166666666666664</ele><time>2026-04-11T13:53:33.999Z</time></trkpt><trkpt lat="36.85680560624107" lon="15.057790183292504"><ele>66.33333333333333</ele><time>2026-04-11T13:53:34.999Z</time></trkpt><trkpt lat="36.856880593749224" lon="15.05782912622"><ele>69.5</ele><time>2026-04-11T13:53:35.999Z</time></trkpt><trkpt lat="36.856954649930344" lon="15.057857150448093"><ele>72.66666666666666</ele><time>2026-04-11T13:53:36.999Z</time></trkpt><trkpt lat="36.857027894805185" lon="15.05785838734699"><ele>75.83333333333333</ele><time>2026-04-11T13:53:37.999Z</time></trkpt><trkpt lat="36.85709426836764" lon="15.057812146518222"><ele>79.0</ele><time>2026-04-11T13:53:38.999Z</time></trkpt><trkpt lat="36.85714184216588" lon="15.057723372566253"><ele>79.0</ele><time>2026-04-11T13:53:39.999Z</time></trkpt><trkpt lat="36.85718905938174" lon="15.05759720474018"><ele>79.0</ele><time>2026-04-11T13:53:41Z</time></trkpt><trkpt lat="36.85724382387878" lon="15.057471906828548"><ele>79.0</ele><time>2026-04-11T13:53:42Z</time></trkpt><trkpt lat="36.85730289830087" lon="15.057374881843886"><ele>79.0</ele><time>2026-04-11T13:53:43Z</time></trkpt><trkpt lat="36.85733474056439" lon="15.057286494721351"><ele>79.0</ele><time>2026-04-11T13:53:44Z</time></trkpt><trkpt lat="36.85736994440904" lon="15.057187638996508"><ele>79.80000000000001</ele><time>2026-04-11T13:53:45Z</time></trkpt><trkpt lat="36.85742574797303" lon="15.05709110202623"><ele>80.60000000000001</ele><time>2026-04-11T13:53:46Z</time></trkpt><trkpt lat="36.85748038496975" lon="15.05698844762445"><ele>81.4</ele><time>2026-04-11T13:53:47Z</time></trkpt><trkpt lat="36.857541627247834" lon="15.056870849083884"><ele>82.2</ele><time>2026-04-11T13:53:48Z</time></trkpt><trkpt lat="36.85760319670673" lon="15.056757216841607"><ele>83.0</ele><time>2026-04-11T13:53:49Z</time></trkpt><trkpt lat="36.85766675150978" lon="15.05665538805699"><ele>84.66666666666667</ele><time>2026-04-11T13:53:50Z</time></trkpt><trkpt lat="36.85772449966253" lon="15.056575742329137"><ele>86.33333333333334</ele><time>2026-04-11T13:53:51Z</time></trkpt><trkpt lat="36.85777836624658" lon="15.05651030599204"><ele>88.0</ele><time>2026-04-11T13:53:52Z</time></trkpt><trkpt lat="36.85783989063022" lon="15.056450387652538"><ele>89.66666666666667</ele><time>2026-04-11T13:53:53Z</time></trkpt><trkpt lat="36.857902165389376" lon="15.056403072560245"><ele>91.33333333333333</ele><time>2026-04-11T13:53:54Z</time></trkpt><trkpt lat="36.85803480323248" lon="15.056403599268538"><ele>93.0</ele><time>2026-04-11T13:53:56Z</time></trkpt><trkpt lat="36.858117745797244" lon="15.056417614267692"><ele>93.0</ele><time>2026-04-11T13:53:57Z</time></trkpt><trkpt lat="36.858184365577415" lon="15.05642019439686"><ele>93.0</ele><time>2026-04-11T13:53:58Z</time></trkpt><trkpt lat="36.85826117669203" lon="15.056403822241725"><ele>93.0</ele><time>2026-04-11T13:54:00Z</time></trkpt><trkpt lat="36.858235347900305" lon="15.056311200127668"><ele>93.0</ele><time>2026-04-11T13:54:03Z</time></trkpt><trkpt lat="36.858172534991084" lon="15.056241664189836"><ele>93.0</ele><time>2026-04-11T13:54:06Z</time></trkpt><trkpt lat="36.85811938906609" lon="15.056181437749638"><ele>93.0</ele><time>2026-04-11T13:54:34.999Z</time></trkpt><trkpt lat="36.858060190494534" lon="15.05611873399202"><ele>93.0</ele><time>2026-04-11T13:54:35.999Z</time></trkpt><trkpt lat="36.857985550427344" lon="15.056029265546409"><ele>93.0</ele><time>2026-04-11T13:54:36.999Z</time></trkpt><trkpt lat="36.85790033871255" lon="15.055928596353587"><ele>93.0</ele><time>2026-04-11T13:54:37.999Z</time></trkpt><trkpt lat="36.85780279572791" lon="15.055809940969642"><ele>93.0</ele><time>2026-04-11T13:54:38.999Z</time></trkpt><trkpt lat="36.857706395899065" lon="15.055683308376206"><ele>91.0</ele><time>2026-04-11T13:54:39.999Z</time></trkpt><trkpt lat="36.85761273076006" lon="15.055547943457368"><ele>89.0</ele><time>2026-04-11T13:54:40.999Z</time></trkpt><trkpt lat="36.857520487108104" lon="15.055412193047236"><ele>87.0</ele><time>2026-04-11T13:54:41.999Z</time></trkpt><trkpt lat="36.85742425701639" lon="15.055266585260387"><ele>85.0</ele><time>2026-04-11T13:54:42.999Z</time></trkpt><trkpt lat="36.85732823656385" lon="15.055111788447768"><ele>83.66666666666666</ele><time>2026-04-11T13:54:43.999Z</time></trkpt><trkpt lat="36.85724329875673" lon="15.054934863004616"><ele>82.33333333333333</ele><time>2026-04-11T13:54:44.999Z</time></trkpt><trkpt lat="36.85718055296564" lon="15.054739181481029"><ele>81.0</ele><time>2026-04-11T13:54:45.999Z</time></trkpt><trkpt lat="36.8571288154243" lon="15.054528788169"><ele>81.0</ele><time>2026-04-11T13:54:46.999Z</time></trkpt><trkpt lat="36.857052226853384" lon="15.054331906411019"><ele>81.0</ele><time>2026-04-11T13:54:47.999Z</time></trkpt><trkpt lat="36.856967587203" lon="15.054147793406573"><ele>81.0</ele><time>2026-04-11T13:54:48.999Z</time></trkpt><trkpt lat="36.85688587092856" lon="15.05398490725387"><ele>77.33333333333333</ele><time>2026-04-11T13:54:49.999Z</time></trkpt><trkpt lat="36.85675818832515" lon="15.053871302354155"><ele>73.66666666666666</ele><time>2026-04-11T13:54:50.999Z</time></trkpt><trkpt lat="36.85659041544058" lon="15.053803034311183"><ele>70.0</ele><time>2026-04-11T13:54:51.999Z</time></trkpt><trkpt lat="36.85641642789105" lon="15.053736517311508"><ele>70.0</ele><time>2026-04-11T13:54:52.999Z</time></trkpt><trkpt lat="36.856251719729244" lon="15.053639191608962"><ele>70.0</ele><time>2026-04-11T13:54:53.999Z</time></trkpt><trkpt lat="36.85610134340134" lon="15.053514092557055"><ele>70.0</ele><time>2026-04-11T13:54:54.999Z</time></trkpt><trkpt lat="36.855961960112765" lon="15.053386344764272"><ele>65.33333333333333</ele><time>2026-04-11T13:54:55.999Z</time></trkpt><trkpt lat="36.85582989824394" lon="15.053268886741096"><ele>60.66666666666667</ele><time>2026-04-11T13:54:56.999Z</time></trkpt><trkpt lat="36.85569020218229" lon="15.05317337503294"><ele>56.0</ele><time>2026-04-11T13:54:57.999Z</time></trkpt><trkpt lat="36.85556964848696" lon="15.053053093838688"><ele>56.0</ele><time>2026-04-11T13:54:58.999Z</time></trkpt><trkpt lat="36.85543974785533" lon="15.052971581930475"><ele>56.0</ele><time>2026-04-11T13:54:59.999Z</time></trkpt><trkpt lat="36.85531825379875" lon="15.052889324879521"><ele>56.0</ele><time>2026-04-11T13:55:00.999Z</time></trkpt><trkpt lat="36.855203154192736" lon="15.05278397774479"><ele>56.0</ele><time>2026-04-11T13:55:01.999Z</time></trkpt><trkpt lat="36.855087860903026" lon="15.052652034726812"><ele>56.0</ele><time>2026-04-11T13:55:02.999Z</time></trkpt><trkpt lat="36.85498857523951" lon="15.052517901683194"><ele>56.0</ele><time>2026-04-11T13:55:03.999Z</time></trkpt><trkpt lat="36.85490174355807" lon="15.052403190833616"><ele>56.0</ele><time>2026-04-11T13:55:04.999Z</time></trkpt><trkpt lat="36.85481100314476" lon="15.052306980753773"><ele>56.0</ele><time>2026-04-11T13:55:05.999Z</time></trkpt><trkpt lat="36.85471340771914" lon="15.052219843717783"><ele>54.25</ele><time>2026-04-11T13:55:06.999Z</time></trkpt><trkpt lat="36.85460026393017" lon="15.052148131507005"><ele>52.5</ele><time>2026-04-11T13:55:07.999Z</time></trkpt><trkpt lat="36.85449452764897" lon="15.052089261276912"><ele>50.75</ele><time>2026-04-11T13:55:08.999Z</time></trkpt><trkpt lat="36.85438461332615" lon="15.052025754119839"><ele>49.0</ele><time>2026-04-11T13:55:09.999Z</time></trkpt><trkpt lat="36.854270464707064" lon="15.051957885343665"><ele>48.5</ele><time>2026-04-11T13:55:10.999Z</time></trkpt><trkpt lat="36.8541472302642" lon="15.051904736236539"><ele>48.0</ele><time>2026-04-11T13:55:11.999Z</time></trkpt><trkpt lat="36.85401622726205" lon="15.051837484864716"><ele>47.5</ele><time>2026-04-11T13:55:12.999Z</time></trkpt><trkpt lat="36.853893748346934" lon="15.051764632342076"><ele>47.0</ele><time>2026-04-11T13:55:13.999Z</time></trkpt><trkpt lat="36.85377751837789" lon="15.051701633989481"><ele>47.0</ele><time>2026-04-11T13:55:14.999Z</time></trkpt><trkpt lat="36.85365868159286" lon="15.051659308126753"><ele>47.0</ele><time>2026-04-11T13:55:15.999Z</time></trkpt><trkpt lat="36.85355542267473" lon="15.05160009853518"><ele>47.0</ele><time>2026-04-11T13:55:16.999Z</time></trkpt><trkpt lat="36.853472232456795" lon="15.051535363928226"><ele>47.0</ele><time>2026-04-11T13:55:17.999Z</time></trkpt><trkpt lat="36.85340795514728" lon="15.051465396898864"><ele>47.0</ele><time>2026-04-11T13:55:18.999Z</time></trkpt><trkpt lat="36.85335742396562" lon="15.051364306486027"><ele>45.25</ele><time>2026-04-11T13:55:20.999Z</time></trkpt><trkpt lat="36.85325593613376" lon="15.051465745357152"><ele>43.5</ele><time>2026-04-11T13:55:23.999Z</time></trkpt><trkpt lat="36.85321020278656" lon="15.051543980389445"><ele>41.75</ele><time>2026-04-11T13:55:24.999Z</time></trkpt><trkpt lat="36.85314250565059" lon="15.051533768718832"><ele>40.0</ele><time>2026-04-11T13:55:27.999Z</time></trkpt><trkpt lat="36.8529457133536" lon="15.051448982730456"><ele>40.0</ele><time>2026-04-11T13:55:29.999Z</time></trkpt><trkpt lat="36.852867673443086" lon="15.051307962927641"><ele>40.0</ele><time>2026-04-11T13:55:30.999Z</time></trkpt><trkpt lat="36.85275445158488" lon="15.051118026092375"><ele>40.0</ele><time>2026-04-11T13:55:31.999Z</time></trkpt><trkpt lat="36.852657536936775" lon="15.050950170471257"><ele>42.25</ele><time>2026-04-11T13:55:32.999Z</time></trkpt><trkpt lat="36.85256037415717" lon="15.050785122206417"><ele>44.5</ele><time>2026-04-11T13:55:33.999Z</time></trkpt><trkpt lat="36.85245660715491" lon="15.05065251742928"><ele>46.75</ele><time>2026-04-11T13:55:34.999Z</time></trkpt><trkpt lat="36.85234710647828" lon="15.050565111424296"><ele>49.0</ele><time>2026-04-11T13:55:35.999Z</time></trkpt><trkpt lat="36.852220137349555" lon="15.050452898242348"><ele>49.0</ele><time>2026-04-11T13:55:36.999Z</time></trkpt><trkpt lat="36.8520961451997" lon="15.050331869431622"><ele>49.0</ele><time>2026-04-11T13:55:37.999Z</time></trkpt><trkpt lat="36.851976762719104" lon="15.050205869114068"><ele>49.0</ele><time>2026-04-11T13:55:38.999Z</time></trkpt><trkpt lat="36.85185267702225" lon="15.050080852208206"><ele>51.0</ele><time>2026-04-11T13:55:39.999Z</time></trkpt><trkpt lat="36.85173851553335" lon="15.049964498513214"><ele>53.0</ele><time>2026-04-11T13:55:40.999Z</time></trkpt><trkpt lat="36.85163483081801" lon="15.049867007272434"><ele>55.0</ele><time>2026-04-11T13:55:41.999Z</time></trkpt><trkpt lat="36.85152857744234" lon="15.0497792756482"><ele>57.0</ele><time>2026-04-11T13:55:42.999Z</time></trkpt><trkpt lat="36.851418316873634" lon="15.049700002789253"><ele>58.8</ele><time>2026-04-11T13:55:43.999Z</time></trkpt><trkpt lat="36.85131375073738" lon="15.049617522009706"><ele>60.6</ele><time>2026-04-11T13:55:44.999Z</time></trkpt><trkpt lat="36.85122197917321" lon="15.049530602222356"><ele>62.39999999999999</ele><time>2026-04-11T13:55:45.999Z</time></trkpt><trkpt lat="36.851155519635206" lon="15.049429589985136"><ele>64.2</ele><time>2026-04-11T13:55:47Z</time></trkpt><trkpt lat="36.85112734954125" lon="15.049323132453738"><ele>66.0</ele><time>2026-04-11T13:55:48Z</time></trkpt><trkpt lat="36.85124070344955" lon="15.049236761472248"><ele>66.0</ele><time>2026-04-11T13:55:49Z</time></trkpt><trkpt lat="36.85120579433577" lon="15.049167088446136"><ele>66.0</ele><time>2026-04-11T13:55:50Z</time></trkpt><trkpt lat="36.85124567945601" lon="15.049032339940954"><ele>66.0</ele><time>2026-04-11T13:55:52Z</time></trkpt><trkpt lat="36.85129370746352" lon="15.048961685384615"><ele>66.0</ele><time>2026-04-11T13:55:53Z</time></trkpt><trkpt lat="36.851331015059266" lon="15.048887795040951"><ele>66.0</ele><time>2026-04-11T13:55:54Z</time></trkpt><trkpt lat="36.851357355999376" lon="15.0488110391343"><ele>66.0</ele><time>2026-04-11T13:55:55Z</time></trkpt><trkpt lat="36.85139520503941" lon="15.048722083374376"><ele>67.16666666666667</ele><time>2026-04-11T13:55:56Z</time></trkpt><trkpt lat="36.85143033042063" lon="15.048638674586295"><ele>68.33333333333333</ele><time>2026-04-11T13:55:57Z</time></trkpt><trkpt lat="36.85145237922144" lon="15.048529553955195"><ele>69.5</ele><time>2026-04-11T13:55:59Z</time></trkpt><trkpt lat="36.851499701944334" lon="15.048473384312889"><ele>70.66666666666666</ele><time>2026-04-11T13:56:00Z</time></trkpt><trkpt lat="36.85155944011091" lon="15.048383746886124"><ele>71.83333333333333</ele><time>2026-04-11T13:56:01Z</time></trkpt><trkpt lat="36.85160974511019" lon="15.0482914676853"><ele>73.0</ele><time>2026-04-11T13:56:02Z</time></trkpt><trkpt lat="36.851658263753585" lon="15.048209811197426"><ele>73.16666666666666</ele><time>2026-04-11T13:56:03Z</time></trkpt><trkpt lat="36.85169769066507" lon="15.048123156728458"><ele>73.33333333333333</ele><time>2026-04-11T13:56:04Z</time></trkpt><trkpt lat="36.85173780985252" lon="15.04803319405414"><ele>73.5</ele><time>2026-04-11T13:56:05Z</time></trkpt><trkpt lat="36.851773122923895" lon="15.047937621600655"><ele>73.66666666666667</ele><time>2026-04-11T13:56:06Z</time></trkpt><trkpt lat="36.85180773604558" lon="15.047840845395497"><ele>73.83333333333334</ele><time>2026-04-11T13:56:07Z</time></trkpt><trkpt lat="36.85183281935262" lon="15.04773204477734"><ele>74.0</ele><time>2026-04-11T13:56:08Z</time></trkpt><trkpt lat="36.85185195075106" lon="15.04763430484845"><ele>74.16666666666667</ele><time>2026-04-11T13:56:09Z</time></trkpt><trkpt lat="36.85186941096656" lon="15.047530618239774"><ele>74.33333333333334</ele><time>2026-04-11T13:56:10Z</time></trkpt><trkpt lat="36.851878288221776" lon="15.047431372629147"><ele>74.5</ele><time>2026-04-11T13:56:11Z</time></trkpt><trkpt lat="36.85189680466004" lon="15.047337485338549"><ele>74.66666666666667</ele><time>2026-04-11T13:56:12Z</time></trkpt><trkpt lat="36.85193018626724" lon="15.04723883189324"><ele>74.83333333333333</ele><time>2026-04-11T13:56:13Z</time></trkpt><trkpt lat="36.85199406317759" lon="15.047115971759025"><ele>75.0</ele><time>2026-04-11T13:56:14Z</time></trkpt><trkpt lat="36.852077679771824" lon="15.046994020624783"><ele>76.5</ele><time>2026-04-11T13:56:15Z</time></trkpt><trkpt lat="36.852171030078665" lon="15.046873876394995"><ele>78.0</ele><time>2026-04-11T13:56:16Z</time></trkpt><trkpt lat="36.85224918593493" lon="15.046744454037466"><ele>79.5</ele><time>2026-04-11T13:56:17Z</time></trkpt><trkpt lat="36.85231633129471" lon="15.046607129706855"><ele>81.0</ele><time>2026-04-11T13:56:18Z</time></trkpt><trkpt lat="36.85236970007547" lon="15.046488226156217"><ele>82.6</ele><time>2026-04-11T13:56:19Z</time></trkpt><trkpt lat="36.852424369903495" lon="15.046387556911585"><ele>84.19999999999999</ele><time>2026-04-11T13:56:20Z</time></trkpt><trkpt lat="36.852484769266454" lon="15.046297253702551"><ele>85.80000000000001</ele><time>2026-04-11T13:56:21Z</time></trkpt><trkpt lat="36.85253930852483" lon="15.046196934568526"><ele>87.4</ele><time>2026-04-11T13:56:22Z</time></trkpt><trkpt lat="36.85256714735838" lon="15.04610058124015"><ele>89.0</ele><time>2026-04-11T13:56:23Z</time></trkpt><trkpt lat="36.852581025112755" lon="15.045980534090015"><ele>88.99999999999999</ele><time>2026-04-11T13:56:24Z</time></trkpt><trkpt lat="36.85258492711088" lon="15.04586377324"><ele>89.0</ele><time>2026-04-11T13:56:24.999Z</time></trkpt><trkpt lat="36.85259295530969" lon="15.045770818324295"><ele>89.0</ele><time>2026-04-11T13:56:25.999Z</time></trkpt><trkpt lat="36.85257749661494" lon="15.045684736065981"><ele>89.0</ele><time>2026-04-11T13:56:26.999Z</time></trkpt><trkpt lat="36.852573347871434" lon="15.045604724817155"><ele>89.0</ele><time>2026-04-11T13:56:27.999Z</time></trkpt><trkpt lat="36.85260244730185" lon="15.045530637408683"><ele>88.99999999999999</ele><time>2026-04-11T13:56:28.999Z</time></trkpt><trkpt lat="36.852647530368905" lon="15.045449682840825"><ele>89.0</ele><time>2026-04-11T13:56:29.999Z</time></trkpt><trkpt lat="36.85269015108476" lon="15.045374020676219"><ele>90.0</ele><time>2026-04-11T13:56:30.999Z</time></trkpt><trkpt lat="36.852721960214474" lon="15.04526167686689"><ele>91.0</ele><time>2026-04-11T13:56:31.999Z</time></trkpt><trkpt lat="36.85275227134601" lon="15.045138416750454"><ele>92.0</ele><time>2026-04-11T13:56:32.999Z</time></trkpt><trkpt lat="36.85279612286926" lon="15.045022727408702"><ele>93.0</ele><time>2026-04-11T13:56:33.999Z</time></trkpt><trkpt lat="36.852861014295904" lon="15.044892143831119"><ele>94.0</ele><time>2026-04-11T13:56:34.999Z</time></trkpt><trkpt lat="36.852934044147794" lon="15.044761788306737"><ele>94.0</ele><time>2026-04-11T13:56:35.999Z</time></trkpt><trkpt lat="36.853010458851486" lon="15.044634783686307"><ele>94.0</ele><time>2026-04-11T13:56:36.999Z</time></trkpt><trkpt lat="36.85309852668704" lon="15.044514653610449"><ele>94.0</ele><time>2026-04-11T13:56:37.999Z</time></trkpt><trkpt lat="36.853201560528696" lon="15.044400752803108"><ele>94.0</ele><time>2026-04-11T13:56:38.999Z</time></trkpt><trkpt lat="36.85331208723133" lon="15.044292485628086"><ele>94.0</ele><time>2026-04-11T13:56:39.999Z</time></trkpt><trkpt lat="36.853426436439115" lon="15.044189343391603"><ele>94.0</ele><time>2026-04-11T13:56:40.999Z</time></trkpt><trkpt lat="36.85352115752744" lon="15.044071619806335"><ele>94.0</ele><time>2026-04-11T13:56:41.999Z</time></trkpt><trkpt lat="36.853587775712256" lon="15.043956547247834"><ele>94.0</ele><time>2026-04-11T13:56:42.999Z</time></trkpt><trkpt lat="36.853636506431485" lon="15.043839160172974"><ele>94.80000000000001</ele><time>2026-04-11T13:56:43.999Z</time></trkpt><trkpt lat="36.8536614511008" lon="15.043719810466735"><ele>95.60000000000001</ele><time>2026-04-11T13:56:44.999Z</time></trkpt><trkpt lat="36.853666751837835" lon="15.043578099336782"><ele>96.4</ele><time>2026-04-11T13:56:45.999Z</time></trkpt><trkpt lat="36.85366365373061" lon="15.043440269483895"><ele>97.2</ele><time>2026-04-11T13:56:46.999Z</time></trkpt><trkpt lat="36.853674104580904" lon="15.043317380175697"><ele>98.0</ele><time>2026-04-11T13:56:47.999Z</time></trkpt><trkpt lat="36.85368551647944" lon="15.043207569860341"><ele>99.0</ele><time>2026-04-11T13:56:48.999Z</time></trkpt><trkpt lat="36.853690340864034" lon="15.043105282964175"><ele>100.0</ele><time>2026-04-11T13:56:49.999Z</time></trkpt><trkpt lat="36.853696595666406" lon="15.043017488197906"><ele>101.0</ele><time>2026-04-11T13:56:50.999Z</time></trkpt><trkpt lat="36.85376062084578" lon="15.04283299341498"><ele>102.0</ele><time>2026-04-11T13:56:52.999Z</time></trkpt><trkpt lat="36.8538317552094" lon="15.042687662167046"><ele>102.0</ele><time>2026-04-11T13:56:53.999Z</time></trkpt><trkpt lat="36.85392901150514" lon="15.042521792312314"><ele>102.0</ele><time>2026-04-11T13:56:54.999Z</time></trkpt><trkpt lat="36.85401090360792" lon="15.042362133542644"><ele>102.0</ele><time>2026-04-11T13:56:55.999Z</time></trkpt><trkpt lat="36.85405847666484" lon="15.042231944607169"><ele>102.0</ele><time>2026-04-11T13:56:56.999Z</time></trkpt><trkpt lat="36.85410870850296" lon="15.042129735704371"><ele>102.5</ele><time>2026-04-11T13:56:57.999Z</time></trkpt><trkpt lat="36.854164709393515" lon="15.042032173839651"><ele>103.0</ele><time>2026-04-11T13:56:58.999Z</time></trkpt><trkpt lat="36.85420078872807" lon="15.041944400115995"><ele>103.5</ele><time>2026-04-11T13:56:59.999Z</time></trkpt><trkpt lat="36.85423333823465" lon="15.041863133553495"><ele>104.0</ele><time>2026-04-11T13:57:00.999Z</time></trkpt><trkpt lat="36.85428420339964" lon="15.041776446717625"><ele>104.5</ele><time>2026-04-11T13:57:01.999Z</time></trkpt><trkpt lat="36.85434724479845" lon="15.041678055907612"><ele>105.0</ele><time>2026-04-11T13:57:02.999Z</time></trkpt><trkpt lat="36.854437710462044" lon="15.041579821440346"><ele>105.25</ele><time>2026-04-11T13:57:03.999Z</time></trkpt><trkpt lat="36.85453170379377" lon="15.041467732616178"><ele>105.5</ele><time>2026-04-11T13:57:04.999Z</time></trkpt><trkpt lat="36.85461508002971" lon="15.041343675783446"><ele>105.75</ele><time>2026-04-11T13:57:05.999Z</time></trkpt><trkpt lat="36.85468460653959" lon="15.041230547377388"><ele>106.0</ele><time>2026-04-11T13:57:06.999Z</time></trkpt><trkpt lat="36.85475506570935" lon="15.041128429299029"><ele>106.0</ele><time>2026-04-11T13:57:07.999Z</time></trkpt><trkpt lat="36.85484348087263" lon="15.041020292337404"><ele>106.0</ele><time>2026-04-11T13:57:08.999Z</time></trkpt><trkpt lat="36.85493783841112" lon="15.040900449336783"><ele>106.0</ele><time>2026-04-11T13:57:09.999Z</time></trkpt><trkpt lat="36.85502042820497" lon="15.040756917157612"><ele>106.0</ele><time>2026-04-11T13:57:10.999Z</time></trkpt><trkpt lat="36.85508467348686" lon="15.040627722362284"><ele>104.8</ele><time>2026-04-11T13:57:11.999Z</time></trkpt><trkpt lat="36.85514135573266" lon="15.04051795102557"><ele>103.6</ele><time>2026-04-11T13:57:12.999Z</time></trkpt><trkpt lat="36.855206967474444" lon="15.040407397645836"><ele>102.4</ele><time>2026-04-11T13:57:13.999Z</time></trkpt><trkpt lat="36.85527627355243" lon="15.040289850522964"><ele>101.2</ele><time>2026-04-11T13:57:14.999Z</time></trkpt><trkpt lat="36.85533240626042" lon="15.040184483106344"><ele>100.0</ele><time>2026-04-11T13:57:15.999Z</time></trkpt><trkpt lat="36.855381633670795" lon="15.040073793369222"><ele>99.6</ele><time>2026-04-11T13:57:16.999Z</time></trkpt><trkpt lat="36.8554400821945" lon="15.039934727515393"><ele>99.2</ele><time>2026-04-11T13:57:17.999Z</time></trkpt><trkpt lat="36.85549986855334" lon="15.039781378024472"><ele>98.80000000000001</ele><time>2026-04-11T13:57:18.999Z</time></trkpt><trkpt lat="36.855546190176575" lon="15.03965907217197"><ele>98.4</ele><time>2026-04-11T13:57:19.999Z</time></trkpt><trkpt lat="36.85557881732567" lon="15.039573437914079"><ele>98.0</ele><time>2026-04-11T13:57:20.999Z</time></trkpt><trkpt lat="36.855629567106455" lon="15.039504183095186"><ele>97.99999999999999</ele><time>2026-04-11T13:57:22.999Z</time></trkpt><trkpt lat="36.85561387412475" lon="15.039400949872752"><ele>98.0</ele><time>2026-04-11T13:58:01Z</time></trkpt><trkpt lat="36.85558290592366" lon="15.039331574476034"><ele>98.0</ele><time>2026-04-11T13:58:02Z</time></trkpt><trkpt lat="36.855503220611716" lon="15.039217982797553"><ele>98.0</ele><time>2026-04-11T13:58:04Z</time></trkpt><trkpt lat="36.85547357714057" lon="15.039138967195612"><ele>97.99999999999999</ele><time>2026-04-11T13:58:05Z</time></trkpt><trkpt lat="36.8554451889022" lon="15.039051582363935"><ele>98.0</ele><time>2026-04-11T13:58:06Z</time></trkpt><trkpt lat="36.85541507325765" lon="15.038960367755585"><ele>96.83333333333333</ele><time>2026-04-11T13:58:07Z</time></trkpt><trkpt lat="36.855391541398525" lon="15.038868795674519"><ele>95.66666666666666</ele><time>2026-04-11T13:58:08Z</time></trkpt><trkpt lat="36.855377300254304" lon="15.038765212472189"><ele>94.5</ele><time>2026-04-11T13:58:09Z</time></trkpt><trkpt lat="36.8553857481194" lon="15.038652203843238"><ele>93.33333333333333</ele><time>2026-04-11T13:58:10Z</time></trkpt><trkpt lat="36.855414293831494" lon="15.03855950371845"><ele>92.16666666666666</ele><time>2026-04-11T13:58:11Z</time></trkpt><trkpt lat="36.85545670857921" lon="15.038447487040346"><ele>91.0</ele><time>2026-04-11T13:58:13Z</time></trkpt><trkpt lat="36.85549331488037" lon="15.038333065719835"><ele>90.6</ele><time>2026-04-11T13:58:15Z</time></trkpt><trkpt lat="36.85551100882015" lon="15.038251629776958"><ele>90.19999999999999</ele><time>2026-04-11T13:58:16Z</time></trkpt><trkpt lat="36.85552296104695" lon="15.038073700957158"><ele>89.80000000000001</ele><time>2026-04-11T13:58:18Z</time></trkpt><trkpt lat="36.85553765354296" lon="15.037944764355375"><ele>89.4</ele><time>2026-04-11T13:58:19Z</time></trkpt><trkpt lat="36.855531863413546" lon="15.03784851933804"><ele>89.0</ele><time>2026-04-11T13:58:20Z</time></trkpt><trkpt lat="36.85551169668255" lon="15.037762606981918"><ele>89.0</ele><time>2026-04-11T13:58:21Z</time></trkpt><trkpt lat="36.85548507543568" lon="15.037670466230377"><ele>89.0</ele><time>2026-04-11T13:58:22Z</time></trkpt><trkpt lat="36.855447160178564" lon="15.03756339981006"><ele>89.0</ele><time>2026-04-11T13:58:23Z</time></trkpt><trkpt lat="36.85539341316551" lon="15.037478581252088"><ele>89.0</ele><time>2026-04-11T13:58:23.999Z</time></trkpt><trkpt lat="36.85532576875589" lon="15.037395279180691"><ele>89.0</ele><time>2026-04-11T13:58:24.999Z</time></trkpt><trkpt lat="36.855280442182384" lon="15.037295938342934"><ele>89.0</ele><time>2026-04-11T13:58:25.999Z</time></trkpt><trkpt lat="36.85525851070984" lon="15.037188470233856"><ele>89.83333333333334</ele><time>2026-04-11T13:58:26.999Z</time></trkpt><trkpt lat="36.855266015658394" lon="15.037096500867468"><ele>90.66666666666667</ele><time>2026-04-11T13:58:27.999Z</time></trkpt><trkpt lat="36.85528861565001" lon="15.037019362002935"><ele>91.5</ele><time>2026-04-11T13:58:28.999Z</time></trkpt><trkpt lat="36.855318543296754" lon="15.036936062347811"><ele>92.33333333333333</ele><time>2026-04-11T13:58:29.999Z</time></trkpt><trkpt lat="36.85535579277416" lon="15.03679224711881"><ele>93.16666666666666</ele><time>2026-04-11T13:58:31.999Z</time></trkpt><trkpt lat="36.85537144266943" lon="15.036712101597082"><ele>94.0</ele><time>2026-04-11T13:58:32.999Z</time></trkpt><trkpt lat="36.85538205918571" lon="15.036626210379627"><ele>96.66666666666666</ele><time>2026-04-11T13:58:33.999Z</time></trkpt><trkpt lat="36.85541067374726" lon="15.036490951816784"><ele>99.33333333333333</ele><time>2026-04-11T13:58:35.999Z</time></trkpt><trkpt lat="36.855468637529675" lon="15.036394124420427"><ele>102.0</ele><time>2026-04-11T13:58:37.999Z</time></trkpt><trkpt lat="36.855528821255916" lon="15.036337464774297"><ele>104.66666666666666</ele><time>2026-04-11T13:58:39.999Z</time></trkpt><trkpt lat="36.855561662904336" lon="15.036261665329352"><ele>107.33333333333333</ele><time>2026-04-11T13:58:41.999Z</time></trkpt><trkpt lat="36.855608690473346" lon="15.036176440314033"><ele>110.0</ele><time>2026-04-11T13:58:46.999Z</time></trkpt><trkpt lat="36.85564440662752" lon="15.036043028731704"><ele>109.99999999999999</ele><time>2026-04-11T13:58:49.999Z</time></trkpt><trkpt lat="36.855672327853" lon="15.035920540557111"><ele>110.0</ele><time>2026-04-11T13:58:52.999Z</time></trkpt><trkpt lat="36.8557082497415" lon="15.035805507745488"><ele>110.0</ele><time>2026-04-11T13:58:53.999Z</time></trkpt><trkpt lat="36.85572704197798" lon="15.035729958344058"><ele>110.0</ele><time>2026-04-11T13:58:54.999Z</time></trkpt><trkpt lat="36.85573953108621" lon="15.035652454877109"><ele>109.99999999999999</ele><time>2026-04-11T13:58:55.999Z</time></trkpt><trkpt lat="36.85577318754268" lon="15.035518192938603"><ele>110.0</ele><time>2026-04-11T13:58:57.999Z</time></trkpt><trkpt lat="36.855791426806825" lon="15.035408106457947"><ele>110.83333333333333</ele><time>2026-04-11T13:58:59.999Z</time></trkpt><trkpt lat="36.855874448765526" lon="15.035294496522882"><ele>111.66666666666666</ele><time>2026-04-11T13:59:13.999Z</time></trkpt><trkpt lat="36.855913774278015" lon="15.03520212247972"><ele>112.5</ele><time>2026-04-11T13:59:14.999Z</time></trkpt><trkpt lat="36.85595830268897" lon="15.035127482035035"><ele>113.33333333333334</ele><time>2026-04-11T13:59:15.999Z</time></trkpt><trkpt lat="36.85600066815236" lon="15.035062480546493"><ele>114.16666666666667</ele><time>2026-04-11T13:59:16.999Z</time></trkpt><trkpt lat="36.85603719879042" lon="15.034982773320577"><ele>115.0</ele><time>2026-04-11T13:59:17.999Z</time></trkpt><trkpt lat="36.85606708223796" lon="15.034900481252413"><ele>115.28571428571428</ele><time>2026-04-11T13:59:18.999Z</time></trkpt><trkpt lat="36.85610570650414" lon="15.034823794427739"><ele>115.57142857142857</ele><time>2026-04-11T13:59:19.999Z</time></trkpt><trkpt lat="36.856142233123805" lon="15.034754929357506"><ele>115.85714285714286</ele><time>2026-04-11T13:59:20.999Z</time></trkpt><trkpt lat="36.85616195057034" lon="15.03467551903917"><ele>116.14285714285714</ele><time>2026-04-11T13:59:21.999Z</time></trkpt><trkpt lat="36.85618472854091" lon="15.03458964758281"><ele>116.42857142857144</ele><time>2026-04-11T13:59:22.999Z</time></trkpt><trkpt lat="36.85622375639071" lon="15.034497088118583"><ele>116.71428571428572</ele><time>2026-04-11T13:59:23.999Z</time></trkpt><trkpt lat="36.856269174133125" lon="15.034426864864152"><ele>117.0</ele><time>2026-04-11T13:59:24.999Z</time></trkpt><trkpt lat="36.85630842928181" lon="15.034361691859983"><ele>117.0</ele><time>2026-04-11T13:59:25.999Z</time></trkpt><trkpt lat="36.856345017663" lon="15.034292703771053"><ele>117.0</ele><time>2026-04-11T13:59:26.999Z</time></trkpt><trkpt lat="36.856386358130614" lon="15.034214185602455"><ele>117.0</ele><time>2026-04-11T13:59:27.999Z</time></trkpt><trkpt lat="36.856434111552794" lon="15.03413072276736"><ele>117.0</ele><time>2026-04-11T13:59:28.999Z</time></trkpt><trkpt lat="36.85648884181233" lon="15.034055236783699"><ele>117.0</ele><time>2026-04-11T13:59:29.999Z</time></trkpt><trkpt lat="36.856552744446766" lon="15.033982347406054"><ele>117.0</ele><time>2026-04-11T13:59:30.999Z</time></trkpt><trkpt lat="36.856618991722485" lon="15.033905979602558"><ele>116.83333333333333</ele><time>2026-04-11T13:59:31.999Z</time></trkpt><trkpt lat="36.85667069997715" lon="15.033828130586384"><ele>116.66666666666666</ele><time>2026-04-11T13:59:32.999Z</time></trkpt><trkpt lat="36.85672572772727" lon="15.033747439606636"><ele>116.5</ele><time>2026-04-11T13:59:33.999Z</time></trkpt><trkpt lat="36.856789120317046" lon="15.03365536817463"><ele>116.33333333333333</ele><time>2026-04-11T13:59:34.999Z</time></trkpt><trkpt lat="36.856831877979296" lon="15.033557922234158"><ele>116.16666666666666</ele><time>2026-04-11T13:59:35.999Z</time></trkpt><trkpt lat="36.856867917694046" lon="15.033480408021886"><ele>116.0</ele><time>2026-04-11T13:59:36.999Z</time></trkpt><trkpt lat="36.85690207774173" lon="15.033394916642921"><ele>117.19999999999999</ele><time>2026-04-11T13:59:37.999Z</time></trkpt><trkpt lat="36.85692533000064" lon="15.033280739685559"><ele>118.39999999999999</ele><time>2026-04-11T13:59:38.999Z</time></trkpt><trkpt lat="36.85694855241889" lon="15.033179965510598"><ele>119.6</ele><time>2026-04-11T13:59:39.999Z</time></trkpt><trkpt lat="36.85703691474771" lon="15.033083757586185"><ele>120.8</ele><time>2026-04-11T13:59:41.999Z</time></trkpt><trkpt lat="36.85711429676256" lon="15.033014364835772"><ele>122.0</ele><time>2026-04-11T13:59:42.999Z</time></trkpt><trkpt lat="36.857172771664395" lon="15.032941877363793"><ele>121.99999999999999</ele><time>2026-04-11T13:59:43.999Z</time></trkpt><trkpt lat="36.85721326503968" lon="15.032866571342192"><ele>122.0</ele><time>2026-04-11T13:59:44.999Z</time></trkpt><trkpt lat="36.85725349881992" lon="15.032785059545331"><ele>121.99999999999999</ele><time>2026-04-11T13:59:45.999Z</time></trkpt><trkpt lat="36.85729876207207" lon="15.032712465525142"><ele>121.99999999999999</ele><time>2026-04-11T13:59:46.999Z</time></trkpt><trkpt lat="36.85735660986028" lon="15.032648206709426"><ele>122.0</ele><time>2026-04-11T13:59:47.999Z</time></trkpt><trkpt lat="36.857423462483816" lon="15.032622220214325"><ele>121.99999999999999</ele><time>2026-04-11T13:59:48.999Z</time></trkpt><trkpt lat="36.85750133900815" lon="15.03260678708289"><ele>121.99999999999999</ele><time>2026-04-11T13:59:49.999Z</time></trkpt><trkpt lat="36.8575904575603" lon="15.032556239347228"><ele>120.16666666666666</ele><time>2026-04-11T13:59:50.999Z</time></trkpt><trkpt lat="36.85767751407849" lon="15.032498800927396"><ele>118.33333333333333</ele><time>2026-04-11T13:59:51.999Z</time></trkpt><trkpt lat="36.85775169324782" lon="15.032459017085145"><ele>116.5</ele><time>2026-04-11T13:59:52.999Z</time></trkpt><trkpt lat="36.85782744448405" lon="15.032425726294957"><ele>114.66666666666666</ele><time>2026-04-11T13:59:53.999Z</time></trkpt><trkpt lat="36.85789871426829" lon="15.032394680425067"><ele>112.83333333333333</ele><time>2026-04-11T13:59:54.999Z</time></trkpt><trkpt lat="36.857960903295336" lon="15.032366492678516"><ele>111.0</ele><time>2026-04-11T13:59:55.998Z</time></trkpt><trkpt lat="36.858053608253215" lon="15.032287550167547"><ele>111.0</ele><time>2026-04-11T13:59:57.998Z</time></trkpt><trkpt lat="36.858117444673944" lon="15.032155609926864"><ele>111.0</ele><time>2026-04-11T14:00:00Z</time></trkpt><trkpt lat="36.85815951915952" lon="15.032044791485475"><ele>111.0</ele><time>2026-04-11T14:00:01Z</time></trkpt><trkpt lat="36.858200851133304" lon="15.03196814320442"><ele>111.0</ele><time>2026-04-11T14:00:02Z</time></trkpt><trkpt lat="36.85822061918282" lon="15.031891368463452"><ele>111.0</ele><time>2026-04-11T14:00:03Z</time></trkpt><trkpt lat="36.858254200570585" lon="15.031797276603013"><ele>111.0</ele><time>2026-04-11T14:00:04Z</time></trkpt><trkpt lat="36.85826234385199" lon="15.031701752521192"><ele>113.6</ele><time>2026-04-11T14:00:05Z</time></trkpt><trkpt lat="36.85828350760109" lon="15.03160789029676"><ele>116.19999999999999</ele><time>2026-04-11T14:00:06Z</time></trkpt><trkpt lat="36.85828758114866" lon="15.03147448782964"><ele>118.80000000000001</ele><time>2026-04-11T14:00:07Z</time></trkpt><trkpt lat="36.85828283769623" lon="15.031358901254304"><ele>121.4</ele><time>2026-04-11T14:00:08Z</time></trkpt><trkpt lat="36.85828641911506" lon="15.031196963507961"><ele>124.0</ele><time>2026-04-11T14:00:10Z</time></trkpt><trkpt lat="36.85833313680589" lon="15.031132966607991"><ele>124.0</ele><time>2026-04-11T14:00:12Z</time></trkpt><trkpt lat="36.85841752635053" lon="15.031194901341467"><ele>124.0</ele><time>2026-04-11T14:00:14Z</time></trkpt><trkpt lat="36.858517591568905" lon="15.031261497277914"><ele>124.0</ele><time>2026-04-11T14:00:15Z</time></trkpt><trkpt lat="36.85859032550655" lon="15.031302588283658"><ele>124.0</ele><time>2026-04-11T14:00:16Z</time></trkpt><trkpt lat="36.85872539430141" lon="15.031317846246855"><ele>124.0</ele><time>2026-04-11T14:00:18Z</time></trkpt><trkpt lat="36.858813989869816" lon="15.031307933327028"><ele>123.33333333333334</ele><time>2026-04-11T14:00:19Z</time></trkpt><trkpt lat="36.858888228913166" lon="15.031309935591464"><ele>122.66666666666667</ele><time>2026-04-11T14:00:20Z</time></trkpt><trkpt lat="36.85895449809752" lon="15.031332740322018"><ele>122.0</ele><time>2026-04-11T14:00:21Z</time></trkpt><trkpt lat="36.859017842799055" lon="15.03136237244234"><ele>121.33333333333334</ele><time>2026-04-11T14:00:22Z</time></trkpt><trkpt lat="36.85907009606995" lon="15.031412858923211"><ele>120.66666666666667</ele><time>2026-04-11T14:00:23Z</time></trkpt><trkpt lat="36.859138775841146" lon="15.03149568724361"><ele>120.0</ele><time>2026-04-11T14:00:25Z</time></trkpt><trkpt lat="36.85921053432406" lon="15.03158220463768"><ele>114.75</ele><time>2026-04-11T14:00:27.999Z</time></trkpt><trkpt lat="36.85934664264499" lon="15.031780289442056"><ele>109.5</ele><time>2026-04-11T14:00:31.999Z</time></trkpt><trkpt lat="36.85943201984388" lon="15.031748441134331"><ele>104.25</ele><time>2026-04-11T14:00:33.999Z</time></trkpt><trkpt lat="36.85951505655778" lon="15.031673797234971"><ele>99.0</ele><time>2026-04-11T14:00:35.999Z</time></trkpt><trkpt lat="36.85960433577752" lon="15.031594678944687"><ele>99.0</ele><time>2026-04-11T14:00:37.999Z</time></trkpt><trkpt lat="36.85969536255717" lon="15.031536329829047"><ele>99.0</ele><time>2026-04-11T14:00:39.999Z</time></trkpt><trkpt lat="36.859763507971316" lon="15.031483144728487"><ele>99.0</ele><time>2026-04-11T14:00:41.999Z</time></trkpt><trkpt lat="36.85985573714721" lon="15.031441951887137"><ele>99.0</ele><time>2026-04-11T14:00:43.999Z</time></trkpt><trkpt lat="36.85991823835793" lon="15.031401252188068"><ele>99.0</ele><time>2026-04-11T14:00:44.999Z</time></trkpt><trkpt lat="36.85997409981794" lon="15.031332337632374"><ele>99.0</ele><time>2026-04-11T14:00:45.999Z</time></trkpt><trkpt lat="36.86002512784351" lon="15.031262618046995"><ele>99.0</ele><time>2026-04-11T14:00:46.999Z</time></trkpt><trkpt lat="36.860059004444054" lon="15.031152838375917"><ele>99.0</ele><time>2026-04-11T14:00:47.999Z</time></trkpt><trkpt lat="36.86012216750084" lon="15.03108868269463"><ele>99.0</ele><time>2026-04-11T14:00:48.999Z</time></trkpt><trkpt lat="36.860182488540644" lon="15.03100534567728"><ele>99.0</ele><time>2026-04-11T14:00:49.999Z</time></trkpt><trkpt lat="36.86021049223658" lon="15.030913629264077"><ele>99.0</ele><time>2026-04-11T14:00:50.999Z</time></trkpt><trkpt lat="36.860263239089306" lon="15.031016404315006"><ele>99.0</ele><time>2026-04-11T14:00:53.999Z</time></trkpt><trkpt lat="36.86023082357751" lon="15.03116206441788"><ele>100.16666666666667</ele><time>2026-04-11T14:00:55.999Z</time></trkpt><trkpt lat="36.86021769435032" lon="15.03126349238254"><ele>101.33333333333334</ele><time>2026-04-11T14:00:56.999Z</time></trkpt><trkpt lat="36.86019463600127" lon="15.031392638542002"><ele>102.5</ele><time>2026-04-11T14:00:57.999Z</time></trkpt><trkpt lat="36.86018752091445" lon="15.031484012774952"><ele>103.66666666666667</ele><time>2026-04-11T14:00:58.999Z</time></trkpt><trkpt lat="36.860195294423875" lon="15.031577252268919"><ele>104.83333333333334</ele><time>2026-04-11T14:00:59.999Z</time></trkpt><trkpt lat="36.86022856686425" lon="15.031666340691404"><ele>106.0</ele><time>2026-04-11T14:01:00.999Z</time></trkpt><trkpt lat="36.860270306271346" lon="15.031779589133048"><ele>106.00000000000001</ele><time>2026-04-11T14:01:01.999Z</time></trkpt><trkpt lat="36.86031406684116" lon="15.031895180964305"><ele>106.0</ele><time>2026-04-11T14:01:02.999Z</time></trkpt><trkpt lat="36.8603496258426" lon="15.031991555732672"><ele>106.0</ele><time>2026-04-11T14:01:03.999Z</time></trkpt><trkpt lat="36.8603910721501" lon="15.03205482979627"><ele>106.0</ele><time>2026-04-11T14:01:04.999Z</time></trkpt><trkpt lat="36.860434589324754" lon="15.032111966213328"><ele>106.00000000000001</ele><time>2026-04-11T14:01:05.999Z</time></trkpt><trkpt lat="36.8604762073634" lon="15.032176609599302"><ele>106.0</ele><time>2026-04-11T14:01:06.999Z</time></trkpt><trkpt lat="36.86051842313018" lon="15.03224535259121"><ele>106.00000000000001</ele><time>2026-04-11T14:01:07.999Z</time></trkpt><trkpt lat="36.86056303602548" lon="15.032309012182063"><ele>106.0</ele><time>2026-04-11T14:01:08.999Z</time></trkpt><trkpt lat="36.86061699589698" lon="15.032369976274287"><ele>106.0</ele><time>2026-04-11T14:01:09.999Z</time></trkpt><trkpt lat="36.860677801350185" lon="15.032425365784825"><ele>106.0</ele><time>2026-04-11T14:01:10.999Z</time></trkpt><trkpt lat="36.86074212230876" lon="15.03247264503909"><ele>106.00000000000001</ele><time>2026-04-11T14:01:11.999Z</time></trkpt><trkpt lat="36.86080284468313" lon="15.032516681822853"><ele>106.0</ele><time>2026-04-11T14:01:12.999Z</time></trkpt><trkpt lat="36.86089415609629" lon="15.032594395987104"><ele>105.50000000000001</ele><time>2026-04-11T14:01:14.999Z</time></trkpt><trkpt lat="36.86095034159771" lon="15.032636458586556"><ele>105.0</ele><time>2026-04-11T14:01:15.999Z</time></trkpt><trkpt lat="36.861031586832986" lon="15.032691792679788"><ele>104.5</ele><time>2026-04-11T14:01:17.999Z</time></trkpt><trkpt lat="36.86110606632237" lon="15.032740366189955"><ele>104.0</ele><time>2026-04-11T14:01:19.999Z</time></trkpt><trkpt lat="36.86120609938033" lon="15.032800248576319"><ele>103.50000000000001</ele><time>2026-04-11T14:01:21.999Z</time></trkpt><trkpt lat="36.86127115557376" lon="15.032829470496392"><ele>103.0</ele><time>2026-04-11T14:01:22.999Z</time></trkpt><trkpt lat="36.86135119899133" lon="15.032860896543413"><ele>103.00000000000001</ele><time>2026-04-11T14:01:23.999Z</time></trkpt><trkpt lat="36.86145996328278" lon="15.032876153386676"><ele>103.0</ele><time>2026-04-11T14:01:24.999Z</time></trkpt><trkpt lat="36.8615548337234" lon="15.032858177446638"><ele>103.0</ele><time>2026-04-11T14:01:25.999Z</time></trkpt><trkpt lat="36.86164094702957" lon="15.032832425642955"><ele>103.0</ele><time>2026-04-11T14:01:26.999Z</time></trkpt><trkpt lat="36.861697894041846" lon="15.032883540437034"><ele>103.00000000000001</ele><time>2026-04-11T14:01:27.999Z</time></trkpt><trkpt lat="36.86171560838385" lon="15.032970805493761"><ele>103.0</ele><time>2026-04-11T14:01:28.999Z</time></trkpt><trkpt lat="36.86177655659673" lon="15.033080270964172"><ele>106.0</ele><time>2026-04-11T14:01:29.999Z</time></trkpt><trkpt lat="36.86185266197647" lon="15.033218077334924"><ele>109.0</ele><time>2026-04-11T14:01:30.999Z</time></trkpt><trkpt lat="36.86193179843165" lon="15.033361800277666"><ele>112.0</ele><time>2026-04-11T14:01:31.999Z</time></trkpt><trkpt lat="36.862023197609346" lon="15.033529081398498"><ele>115.0</ele><time>2026-04-11T14:01:32.999Z</time></trkpt><trkpt lat="36.86213139604899" lon="15.03372894092691"><ele>115.0</ele><time>2026-04-11T14:01:33.999Z</time></trkpt><trkpt lat="36.86222712796444" lon="15.03390024150834"><ele>115.0</ele><time>2026-04-11T14:01:34.999Z</time></trkpt><trkpt lat="36.8622980087892" lon="15.034025670001514"><ele>115.0</ele><time>2026-04-11T14:01:35.999Z</time></trkpt><trkpt lat="36.8623626598114" lon="15.034128663606102"><ele>115.0</ele><time>2026-04-11T14:01:36.999Z</time></trkpt><trkpt lat="36.86246588247936" lon="15.03417399178865"><ele>112.25</ele><time>2026-04-11T14:01:37.999Z</time></trkpt><trkpt lat="36.86256195425944" lon="15.03420487285141"><ele>109.5</ele><time>2026-04-11T14:01:38.999Z</time></trkpt><trkpt lat="36.862686871669545" lon="15.034197756169089"><ele>106.75</ele><time>2026-04-11T14:01:39.999Z</time></trkpt><trkpt lat="36.86283474930786" lon="15.034251931317733"><ele>104.0</ele><time>2026-04-11T14:01:40.999Z</time></trkpt><trkpt lat="36.8630222487567" lon="15.034289449010446"><ele>103.0</ele><time>2026-04-11T14:01:41.999Z</time></trkpt><trkpt lat="36.86321032964941" lon="15.034324849421703"><ele>102.0</ele><time>2026-04-11T14:01:42.999Z</time></trkpt><trkpt lat="36.86339382412855" lon="15.034359386585793"><ele>101.0</ele><time>2026-04-11T14:01:43.999Z</time></trkpt><trkpt lat="36.86357506374132" lon="15.034390046867616"><ele>100.33333333333333</ele><time>2026-04-11T14:01:44.999Z</time></trkpt><trkpt lat="36.863740967348534" lon="15.03441577852914"><ele>99.66666666666666</ele><time>2026-04-11T14:01:45.999Z</time></trkpt><trkpt lat="36.86389187869225" lon="15.03443689495251"><ele>99.0</ele><time>2026-04-11T14:01:46.999Z</time></trkpt><trkpt lat="36.8640348905225" lon="15.034455668671393"><ele>99.0</ele><time>2026-04-11T14:01:47.999Z</time></trkpt><trkpt lat="36.864171525167876" lon="15.034471615629215"><ele>99.0</ele><time>2026-04-11T14:01:48.999Z</time></trkpt><trkpt lat="36.864301369139994" lon="15.034483976251726"><ele>99.0</ele><time>2026-04-11T14:01:49.999Z</time></trkpt><trkpt lat="36.86442597895027" lon="15.034490774562515"><ele>99.0</ele><time>2026-04-11T14:01:50.999Z</time></trkpt><trkpt lat="36.8645468968278" lon="15.034494064017894"><ele>98.4</ele><time>2026-04-11T14:01:51.999Z</time></trkpt><trkpt lat="36.864661842400395" lon="15.034480533669088"><ele>97.80000000000001</ele><time>2026-04-11T14:01:52.999Z</time></trkpt><trkpt lat="36.864766897741816" lon="15.034507958455777"><ele>97.19999999999999</ele><time>2026-04-11T14:01:53.999Z</time></trkpt><trkpt lat="36.864868418728506" lon="15.034517648680788"><ele>96.6</ele><time>2026-04-11T14:01:54.999Z</time></trkpt><trkpt lat="36.864979257352736" lon="15.03453195081379"><ele>96.0</ele><time>2026-04-11T14:01:55.999Z</time></trkpt><trkpt lat="36.86510166219426" lon="15.03453372771071"><ele>97.0</ele><time>2026-04-11T14:01:56.998Z</time></trkpt><trkpt lat="36.865225696157616" lon="15.034557360999102"><ele>98.0</ele><time>2026-04-11T14:01:57.998Z</time></trkpt><trkpt lat="36.86535899275052" lon="15.034583429015557"><ele>99.0</ele><time>2026-04-11T14:01:58.998Z</time></trkpt><trkpt lat="36.865495973743066" lon="15.034608832419366"><ele>100.0</ele><time>2026-04-11T14:01:59.998Z</time></trkpt><trkpt lat="36.86563047078892" lon="15.03460796847395"><ele>100.0</ele><time>2026-04-11T14:02:00.998Z</time></trkpt><trkpt lat="36.86576704408831" lon="15.034588249542484"><ele>100.0</ele><time>2026-04-11T14:02:01.998Z</time></trkpt><trkpt lat="36.865900913904035" lon="15.034573227192858"><ele>100.0</ele><time>2026-04-11T14:02:02.998Z</time></trkpt><trkpt lat="36.866032731647294" lon="15.034563129872629"><ele>100.0</ele><time>2026-04-11T14:02:03.998Z</time></trkpt><trkpt lat="36.86614600221787" lon="15.03458258261499"><ele>100.50000000000001</ele><time>2026-04-11T14:02:05Z</time></trkpt><trkpt lat="36.866233621021514" lon="15.03459717277775"><ele>101.0</ele><time>2026-04-11T14:02:06Z</time></trkpt><trkpt lat="36.866312177421335" lon="15.034621505028397"><ele>101.5</ele><time>2026-04-11T14:02:07Z</time></trkpt><trkpt lat="36.86637962283328" lon="15.034640196670985"><ele>102.0</ele><time>2026-04-11T14:02:08Z</time></trkpt><trkpt lat="36.866478512100514" lon="15.034668800324946"><ele>102.50000000000001</ele><time>2026-04-11T14:02:10Z</time></trkpt><trkpt lat="36.86657970433586" lon="15.03468363811216"><ele>103.0</ele><time>2026-04-11T14:02:12Z</time></trkpt><trkpt lat="36.866666962458666" lon="15.034734847866533"><ele>103.00000000000001</ele><time>2026-04-11T14:02:14Z</time></trkpt><trkpt lat="36.86674542559527" lon="15.034773522321661"><ele>103.0</ele><time>2026-04-11T14:02:16Z</time></trkpt><trkpt lat="36.86681032821503" lon="15.034819158041394"><ele>103.0</ele><time>2026-04-11T14:02:19Z</time></trkpt><trkpt lat="36.866882804092114" lon="15.034883901984415"><ele>103.0</ele><time>2026-04-11T14:02:34.999Z</time></trkpt><trkpt lat="36.866932749939984" lon="15.03493347658939"><ele>103.00000000000001</ele><time>2026-04-11T14:02:35.999Z</time></trkpt><trkpt lat="36.86699733409973" lon="15.034997681681931"><ele>103.0</ele><time>2026-04-11T14:02:36.999Z</time></trkpt><trkpt lat="36.86708511301789" lon="15.035080971747892"><ele>106.66666666666667</ele><time>2026-04-11T14:02:37.999Z</time></trkpt><trkpt lat="36.867190407156194" lon="15.035172826938549"><ele>110.33333333333334</ele><time>2026-04-11T14:02:38.999Z</time></trkpt><trkpt lat="36.867332825809164" lon="15.035295518543766"><ele>114.0</ele><time>2026-04-11T14:02:39.999Z</time></trkpt><trkpt lat="36.86749112240523" lon="15.035430320395808"><ele>116.33333333333334</ele><time>2026-04-11T14:02:40.999Z</time></trkpt><trkpt lat="36.8676564293362" lon="15.035566385521465"><ele>118.66666666666667</ele><time>2026-04-11T14:02:41.999Z</time></trkpt><trkpt lat="36.8678259236113" lon="15.035702702505164"><ele>121.0</ele><time>2026-04-11T14:02:42.999Z</time></trkpt><trkpt lat="36.86799800417935" lon="15.035825977402762"><ele>121.0</ele><time>2026-04-11T14:02:43.999Z</time></trkpt><trkpt lat="36.86817207219251" lon="15.035934577945765"><ele>121.0</ele><time>2026-04-11T14:02:44.999Z</time></trkpt><trkpt lat="36.868347637897614" lon="15.036021077674807"><ele>121.0</ele><time>2026-04-11T14:02:45.999Z</time></trkpt><trkpt lat="36.86849836313862" lon="15.036109466003252"><ele>123.0</ele><time>2026-04-11T14:02:46.999Z</time></trkpt><trkpt lat="36.868632739128195" lon="15.036166764802122"><ele>125.0</ele><time>2026-04-11T14:02:47.999Z</time></trkpt><trkpt lat="36.86875516899138" lon="15.036196884910353"><ele>127.0</ele><time>2026-04-11T14:02:48.999Z</time></trkpt><trkpt lat="36.86886722352322" lon="15.036193115080684"><ele>129.0</ele><time>2026-04-11T14:02:49.999Z</time></trkpt><trkpt lat="36.86895838116588" lon="15.036155894837021"><ele>129.0</ele><time>2026-04-11T14:02:50.999Z</time></trkpt><trkpt lat="36.8690359674933" lon="15.036093173860237"><ele>129.0</ele><time>2026-04-11T14:02:51.999Z</time></trkpt><trkpt lat="36.869085901743674" lon="15.03599181682964"><ele>129.0</ele><time>2026-04-11T14:02:52.999Z</time></trkpt><trkpt lat="36.86913438944305" lon="15.035920731385472"><ele>129.0</ele><time>2026-04-11T14:02:53.999Z</time></trkpt><trkpt lat="36.869207577825215" lon="15.035918086312561"><ele>129.0</ele><time>2026-04-11T14:02:55.999Z</time></trkpt><trkpt lat="36.86933176199408" lon="15.035886496879005"><ele>128.6</ele><time>2026-04-11T14:09:46Z</time></trkpt><trkpt lat="36.869300252320116" lon="15.035809689309485"><ele>128.2</ele><time>2026-04-11T14:09:54Z</time></trkpt><trkpt lat="36.869176534362076" lon="15.035743315318177"><ele>127.79999999999998</ele><time>2026-04-11T14:09:56Z</time></trkpt><trkpt lat="36.86906627446496" lon="15.035738371067213"><ele>127.39999999999999</ele><time>2026-04-11T14:09:57Z</time></trkpt><trkpt lat="36.86894482033807" lon="15.035719402096186"><ele>127.0</ele><time>2026-04-11T14:09:58Z</time></trkpt><trkpt lat="36.868818200539444" lon="15.035649663112627"><ele>128.25</ele><time>2026-04-11T14:09:59Z</time></trkpt><trkpt lat="36.8687170955705" lon="15.035567892974564"><ele>129.5</ele><time>2026-04-11T14:10:00Z</time></trkpt><trkpt lat="36.86863337540096" lon="15.035474418824748"><ele>130.75</ele><time>2026-04-11T14:10:01Z</time></trkpt><trkpt lat="36.868547863623306" lon="15.035362843606224"><ele>132.0</ele><time>2026-04-11T14:10:02Z</time></trkpt><trkpt lat="36.868471820126004" lon="15.035231621793004"><ele>132.75</ele><time>2026-04-11T14:10:03Z</time></trkpt><trkpt lat="36.86840477764632" lon="15.03508490664929"><ele>133.5</ele><time>2026-04-11T14:10:04Z</time></trkpt><trkpt lat="36.868340658104216" lon="15.034925641870881"><ele>134.25</ele><time>2026-04-11T14:10:05Z</time></trkpt><trkpt lat="36.86827782935866" lon="15.034758416610387"><ele>135.0</ele><time>2026-04-11T14:10:06Z</time></trkpt><trkpt lat="36.86821725821645" lon="15.034578060191121"><ele>135.0</ele><time>2026-04-11T14:10:06.999Z</time></trkpt><trkpt lat="36.868163362632274" lon="15.034418409323042"><ele>135.0</ele><time>2026-04-11T14:10:07.999Z</time></trkpt><trkpt lat="36.868111792422496" lon="15.034253032592815"><ele>135.0</ele><time>2026-04-11T14:10:08.999Z</time></trkpt><trkpt lat="36.86806550804113" lon="15.034075784305088"><ele>135.0</ele><time>2026-04-11T14:10:09.999Z</time></trkpt><trkpt lat="36.868019203477516" lon="15.033886384609517"><ele>135.66666666666666</ele><time>2026-04-11T14:10:10.999Z</time></trkpt><trkpt lat="36.86796181026084" lon="15.033693790121928"><ele>136.33333333333331</ele><time>2026-04-11T14:10:11.999Z</time></trkpt><trkpt lat="36.8679061208829" lon="15.033493982790233"><ele>137.0</ele><time>2026-04-11T14:10:12.999Z</time></trkpt><trkpt lat="36.86785243858275" lon="15.033281969917462"><ele>137.0</ele><time>2026-04-11T14:10:13.999Z</time></trkpt><trkpt lat="36.86779125552585" lon="15.033056938542767"><ele>137.0</ele><time>2026-04-11T14:10:14.999Z</time></trkpt><trkpt lat="36.86772707038067" lon="15.032831224628294"><ele>137.0</ele><time>2026-04-11T14:10:15.999Z</time></trkpt><trkpt lat="36.86766313527893" lon="15.032616528384619"><ele>130.66666666666666</ele><time>2026-04-11T14:10:16.999Z</time></trkpt><trkpt lat="36.86760626366259" lon="15.032420769146947"><ele>124.33333333333334</ele><time>2026-04-11T14:10:17.999Z</time></trkpt><trkpt lat="36.86755210617551" lon="15.032220189227777"><ele>118.0</ele><time>2026-04-11T14:10:18.999Z</time></trkpt><trkpt lat="36.86750593494287" lon="15.032015881484064"><ele>118.0</ele><time>2026-04-11T14:10:19.999Z</time></trkpt><trkpt lat="36.86747094405491" lon="15.031803835827107"><ele>118.0</ele><time>2026-04-11T14:10:20.999Z</time></trkpt><trkpt lat="36.867450335342326" lon="15.031589939077168"><ele>118.0</ele><time>2026-04-11T14:10:21.999Z</time></trkpt><trkpt lat="36.86744483746654" lon="15.031370808294495"><ele>117.66666666666667</ele><time>2026-04-11T14:10:22.999Z</time></trkpt><trkpt lat="36.86745553475325" lon="15.03115273063944"><ele>117.33333333333334</ele><time>2026-04-11T14:10:23.999Z</time></trkpt><trkpt lat="36.86747296038589" lon="15.03093395106676"><ele>117.0</ele><time>2026-04-11T14:10:24.999Z</time></trkpt><trkpt lat="36.86748658175764" lon="15.030717034476915"><ele>115.66666666666666</ele><time>2026-04-11T14:10:25.999Z</time></trkpt><trkpt lat="36.86749924158031" lon="15.030500196975156"><ele>114.33333333333333</ele><time>2026-04-11T14:10:26.999Z</time></trkpt><trkpt lat="36.86751336627375" lon="15.030288400477408"><ele>113.0</ele><time>2026-04-11T14:10:27.999Z</time></trkpt><trkpt lat="36.867526345146096" lon="15.030079829095714"><ele>113.0</ele><time>2026-04-11T14:10:29Z</time></trkpt><trkpt lat="36.867538271329956" lon="15.029875209527308"><ele>113.0</ele><time>2026-04-11T14:10:30Z</time></trkpt><trkpt lat="36.86755155959514" lon="15.02968402310078"><ele>113.0</ele><time>2026-04-11T14:10:31Z</time></trkpt><trkpt lat="36.86757319027648" lon="15.029517555431006"><ele>114.66666666666666</ele><time>2026-04-11T14:10:32Z</time></trkpt><trkpt lat="36.86761280834593" lon="15.029354763724367"><ele>116.33333333333334</ele><time>2026-04-11T14:10:33Z</time></trkpt><trkpt lat="36.86767949479919" lon="15.029172734846156"><ele>118.0</ele><time>2026-04-11T14:10:34Z</time></trkpt><trkpt lat="36.86776645058762" lon="15.028970677308921"><ele>118.0</ele><time>2026-04-11T14:10:35Z</time></trkpt><trkpt lat="36.86784762439186" lon="15.02874128187909"><ele>118.0</ele><time>2026-04-11T14:10:36Z</time></trkpt><trkpt lat="36.867930041719674" lon="15.028495737438485"><ele>118.0</ele><time>2026-04-11T14:10:37Z</time></trkpt><trkpt lat="36.86799795844386" lon="15.02825605458486"><ele>117.33333333333334</ele><time>2026-04-11T14:10:38Z</time></trkpt><trkpt lat="36.86809795116787" lon="15.028039326430795"><ele>116.66666666666666</ele><time>2026-04-11T14:10:39Z</time></trkpt><trkpt lat="36.86816279671005" lon="15.027812685061672"><ele>116.0</ele><time>2026-04-11T14:10:40Z</time></trkpt><trkpt lat="36.86823901495973" lon="15.02759949644254"><ele>116.0</ele><time>2026-04-11T14:10:41Z</time></trkpt><trkpt lat="36.868314811446716" lon="15.027387487538698"><ele>116.0</ele><time>2026-04-11T14:10:42Z</time></trkpt><trkpt lat="36.86838937328405" lon="15.027180186486234"><ele>116.0</ele><time>2026-04-11T14:10:43Z</time></trkpt><trkpt lat="36.86846401688233" lon="15.026980327481803"><ele>118.0</ele><time>2026-04-11T14:10:44Z</time></trkpt><trkpt lat="36.868537992171206" lon="15.026786069801833"><ele>120.0</ele><time>2026-04-11T14:10:45Z</time></trkpt><trkpt lat="36.8686106568868" lon="15.026595253664423"><ele>122.0</ele><time>2026-04-11T14:10:46Z</time></trkpt><trkpt lat="36.86868315080225" lon="15.026404886061044"><ele>122.0</ele><time>2026-04-11T14:10:47Z</time></trkpt><trkpt lat="36.8687546019518" lon="15.026216614517658"><ele>122.0</ele><time>2026-04-11T14:10:48Z</time></trkpt><trkpt lat="36.86882542284707" lon="15.026028370809067"><ele>122.0</ele><time>2026-04-11T14:10:49Z</time></trkpt><trkpt lat="36.86889695776369" lon="15.025838229259962"><ele>122.33333333333333</ele><time>2026-04-11T14:10:50Z</time></trkpt><trkpt lat="36.86896907064005" lon="15.025644677454205"><ele>122.66666666666666</ele><time>2026-04-11T14:10:51Z</time></trkpt><trkpt lat="36.86904043949758" lon="15.025453131203545"><ele>123.0</ele><time>2026-04-11T14:10:52Z</time></trkpt><trkpt lat="36.869111534514275" lon="15.02526429224543"><ele>123.0</ele><time>2026-04-11T14:10:53Z</time></trkpt><trkpt lat="36.86919471120848" lon="15.02508670527199"><ele>123.0</ele><time>2026-04-11T14:10:54Z</time></trkpt><trkpt lat="36.86926031582758" lon="15.024925999002766"><ele>123.0</ele><time>2026-04-11T14:10:55Z</time></trkpt><trkpt lat="36.86930200467889" lon="15.024775204849327"><ele>123.0</ele><time>2026-04-11T14:10:56Z</time></trkpt><trkpt lat="36.86935138882755" lon="15.024654049125424"><ele>125.2</ele><time>2026-04-11T14:10:57Z</time></trkpt><trkpt lat="36.86938784735637" lon="15.024539847064805"><ele>127.4</ele><time>2026-04-11T14:10:58Z</time></trkpt><trkpt lat="36.86939691640922" lon="15.024421428766221"><ele>129.60000000000002</ele><time>2026-04-11T14:10:59Z</time></trkpt><trkpt lat="36.86938445212597" lon="15.024292415492845"><ele>131.8</ele><time>2026-04-11T14:11:00Z</time></trkpt><trkpt lat="36.869353830655676" lon="15.024181270927714"><ele>134.0</ele><time>2026-04-11T14:11:01Z</time></trkpt><trkpt lat="36.86927667492923" lon="15.02408600413597"><ele>132.75</ele><time>2026-04-11T14:11:02Z</time></trkpt><trkpt lat="36.86917273054971" lon="15.024010263203957"><ele>131.5</ele><time>2026-04-11T14:11:03Z</time></trkpt><trkpt lat="36.86903890908723" lon="15.023950740401517"><ele>130.25</ele><time>2026-04-11T14:11:04Z</time></trkpt><trkpt lat="36.86889223303522" lon="15.023927314428581"><ele>129.0</ele><time>2026-04-11T14:11:05Z</time></trkpt><trkpt lat="36.86872964763423" lon="15.023938703764918"><ele>129.0</ele><time>2026-04-11T14:11:06Z</time></trkpt><trkpt lat="36.868566986483515" lon="15.023955713626838"><ele>129.0</ele><time>2026-04-11T14:11:07Z</time></trkpt><trkpt lat="36.86840725397079" lon="15.023991907023179"><ele>129.0</ele><time>2026-04-11T14:11:08Z</time></trkpt><trkpt lat="36.868252902114385" lon="15.024027582405473"><ele>131.0</ele><time>2026-04-11T14:11:09Z</time></trkpt><trkpt lat="36.868117199808374" lon="15.024059218719644"><ele>133.0</ele><time>2026-04-11T14:11:10Z</time></trkpt><trkpt lat="36.86799979248324" lon="15.024086589915658"><ele>135.0</ele><time>2026-04-11T14:11:11Z</time></trkpt><trkpt lat="36.86788227061791" lon="15.024113425160422"><ele>137.0</ele><time>2026-04-11T14:11:12Z</time></trkpt><trkpt lat="36.867767559442925" lon="15.024138311151438"><ele>136.79999999999998</ele><time>2026-04-11T14:11:13Z</time></trkpt><trkpt lat="36.8676721086531" lon="15.02415901870535"><ele>136.6</ele><time>2026-04-11T14:11:14Z</time></trkpt><trkpt lat="36.86759518574045" lon="15.024175706733027"><ele>136.39999999999998</ele><time>2026-04-11T14:11:15Z</time></trkpt><trkpt lat="36.86750091955475" lon="15.024196537762117"><ele>136.2</ele><time>2026-04-11T14:11:17Z</time></trkpt><trkpt lat="36.86743837507109" lon="15.024180603182002"><ele>136.0</ele><time>2026-04-11T14:11:24Z</time></trkpt><trkpt lat="36.86736310680049" lon="15.024062534180748"><ele>138.8</ele><time>2026-04-11T14:11:25Z</time></trkpt><trkpt lat="36.86725731204408" lon="15.02396436255478"><ele>141.6</ele><time>2026-04-11T14:11:27Z</time></trkpt><trkpt lat="36.86713698566835" lon="15.023967678855817"><ele>144.4</ele><time>2026-04-11T14:11:29Z</time></trkpt><trkpt lat="36.867022318077424" lon="15.023957939740031"><ele>147.2</ele><time>2026-04-11T14:11:31Z</time></trkpt><trkpt lat="36.86694739176082" lon="15.023953155589004"><ele>150.0</ele><time>2026-04-11T14:11:32Z</time></trkpt><trkpt lat="36.86688412771002" lon="15.023967748103734"><ele>150.0</ele><time>2026-04-11T14:11:33Z</time></trkpt><trkpt lat="36.86679321950396" lon="15.023871308222798"><ele>150.0</ele><time>2026-04-11T14:11:35Z</time></trkpt><trkpt lat="36.86672291236231" lon="15.023791635241672"><ele>150.0</ele><time>2026-04-11T14:11:36Z</time></trkpt><trkpt lat="36.86663601641912" lon="15.023727905501207"><ele>150.0</ele><time>2026-04-11T14:11:37Z</time></trkpt><trkpt lat="36.866569272465604" lon="15.023630660276734"><ele>150.0</ele><time>2026-04-11T14:11:38Z</time></trkpt><trkpt lat="36.86651472466255" lon="15.023513392363478"><ele>150.8</ele><time>2026-04-11T14:11:39Z</time></trkpt><trkpt lat="36.8664606082919" lon="15.023465524305317"><ele>151.6</ele><time>2026-04-11T14:11:40Z</time></trkpt><trkpt lat="36.866326917978064" lon="15.023499103059587"><ele>152.4</ele><time>2026-04-11T14:11:42Z</time></trkpt><trkpt lat="36.86625531318606" lon="15.023521642231731"><ele>153.2</ele><time>2026-04-11T14:11:43Z</time></trkpt><trkpt lat="36.866181305088595" lon="15.02347363388077"><ele>154.0</ele><time>2026-04-11T14:11:45Z</time></trkpt><trkpt lat="36.86608624119439" lon="15.023416730461976"><ele>154.0</ele><time>2026-04-11T14:11:47Z</time></trkpt><trkpt lat="36.86601662716862" lon="15.02339232253771"><ele>154.0</ele><time>2026-04-11T14:11:50Z</time></trkpt><trkpt lat="36.865980293484874" lon="15.02332751161707"><ele>154.0</ele><time>2026-04-11T14:11:54Z</time></trkpt><trkpt lat="36.86604797707062" lon="15.023269904229549"><ele>154.0</ele><time>2026-04-11T14:11:56Z</time></trkpt><trkpt lat="36.866146162102325" lon="15.02318905782595"><ele>154.0</ele><time>2026-04-11T14:11:57Z</time></trkpt><trkpt lat="36.866031620275315" lon="15.023136565596316"><ele>154.33333333333334</ele><time>2026-04-11T14:11:58Z</time></trkpt><trkpt lat="36.866093119037906" lon="15.023058326201262"><ele>154.66666666666666</ele><time>2026-04-11T14:11:59Z</time></trkpt><trkpt lat="36.86623277000782" lon="15.022935661869425"><ele>155.0</ele><time>2026-04-11T14:12:00Z</time></trkpt><trkpt lat="36.86638295948039" lon="15.02275548754746"><ele>155.0</ele><time>2026-04-11T14:12:01Z</time></trkpt><trkpt lat="36.8665498119648" lon="15.022565547999333"><ele>155.0</ele><time>2026-04-11T14:12:02Z</time></trkpt><trkpt lat="36.86673778237159" lon="15.022374791450758"><ele>157.66666666666666</ele><time>2026-04-11T14:12:03Z</time></trkpt><trkpt lat="36.86688859079495" lon="15.022203085209245"><ele>160.33333333333334</ele><time>2026-04-11T14:12:04Z</time></trkpt><trkpt lat="36.86705044713125" lon="15.022052695218798"><ele>163.0</ele><time>2026-04-11T14:12:05Z</time></trkpt><trkpt lat="36.86719036616446" lon="15.02191831697115"><ele>163.0</ele><time>2026-04-11T14:12:06Z</time></trkpt><trkpt lat="36.86729853480759" lon="15.021810364483118"><ele>163.0</ele><time>2026-04-11T14:12:07Z</time></trkpt><trkpt lat="36.86737551022838" lon="15.021733743125235"><ele>163.0</ele><time>2026-04-11T14:12:07.999Z</time></trkpt><trkpt lat="36.86743608747243" lon="15.021660881841797"><ele>163.0</ele><time>2026-04-11T14:12:08.999Z</time></trkpt><trkpt lat="36.86737978061005" lon="15.021599166097939"><ele>163.0</ele><time>2026-04-11T14:12:11.999Z</time></trkpt><trkpt lat="36.86737398396223" lon="15.02171849516309"><ele>163.0</ele><time>2026-04-11T14:12:12.999Z</time></trkpt><trkpt lat="36.867325594259164" lon="15.021635069610259"><ele>163.0</ele><time>2026-04-11T14:12:17.999Z</time></trkpt><trkpt lat="36.867271053908716" lon="15.021570751738825"><ele>163.0</ele><time>2026-04-11T14:12:18.999Z</time></trkpt><trkpt lat="36.867221644703555" lon="15.021506966775021"><ele>163.0</ele><time>2026-04-11T14:12:19.999Z</time></trkpt><trkpt lat="36.867178957244754" lon="15.021419093107177"><ele>163.0</ele><time>2026-04-11T14:12:20.999Z</time></trkpt><trkpt lat="36.86713175685135" lon="15.021320689639403"><ele>163.0</ele><time>2026-04-11T14:12:21.999Z</time></trkpt><trkpt lat="36.8670887251063" lon="15.021214187032841"><ele>163.0</ele><time>2026-04-11T14:12:22.999Z</time></trkpt><trkpt lat="36.86704317030484" lon="15.02110266824075"><ele>163.0</ele><time>2026-04-11T14:12:23.999Z</time></trkpt><trkpt lat="36.86700094851382" lon="15.020990661671837"><ele>163.0</ele><time>2026-04-11T14:12:24.999Z</time></trkpt><trkpt lat="36.866962156697454" lon="15.020872797694006"><ele>163.0</ele><time>2026-04-11T14:12:25.999Z</time></trkpt><trkpt lat="36.866908039344025" lon="15.02076272426864"><ele>163.0</ele><time>2026-04-11T14:12:26.999Z</time></trkpt><trkpt lat="36.86685467032634" lon="15.020650140386765"><ele>161.8</ele><time>2026-04-11T14:12:27.999Z</time></trkpt><trkpt lat="36.8668143877377" lon="15.020534686274333"><ele>160.60000000000002</ele><time>2026-04-11T14:12:28.999Z</time></trkpt><trkpt lat="36.86678599567342" lon="15.020420606872896"><ele>159.39999999999998</ele><time>2026-04-11T14:12:29.999Z</time></trkpt><trkpt lat="36.86675944490126" lon="15.020310731526116"><ele>158.2</ele><time>2026-04-11T14:12:30.999Z</time></trkpt><trkpt lat="36.86672527788687" lon="15.020219202410129"><ele>157.0</ele><time>2026-04-11T14:12:31.999Z</time></trkpt><trkpt lat="36.866665256576916" lon="15.02008318062899"><ele>153.2</ele><time>2026-04-11T14:12:33.999Z</time></trkpt><trkpt lat="36.86663187947294" lon="15.020012318415603"><ele>149.39999999999998</ele><time>2026-04-11T14:12:35Z</time></trkpt><trkpt lat="36.86657507493467" lon="15.019904147234998"><ele>145.60000000000002</ele><time>2026-04-11T14:12:37Z</time></trkpt><trkpt lat="36.866598429397186" lon="15.019772976333442"><ele>141.8</ele><time>2026-04-11T14:12:39Z</time></trkpt><trkpt lat="36.86665853876721" lon="15.019667387490149"><ele>138.0</ele><time>2026-04-11T14:12:41Z</time></trkpt><trkpt lat="36.866748807151694" lon="15.019569805656724"><ele>139.8</ele><time>2026-04-11T14:12:43Z</time></trkpt><trkpt lat="36.86681874953464" lon="15.019534775209808"><ele>141.60000000000002</ele><time>2026-04-11T14:12:44Z</time></trkpt><trkpt lat="36.86688978894652" lon="15.019486558093085"><ele>143.39999999999998</ele><time>2026-04-11T14:12:46Z</time></trkpt><trkpt lat="36.86680237487464" lon="15.01939423619697"><ele>145.2</ele><time>2026-04-11T14:12:48Z</time></trkpt><trkpt lat="36.86667218794915" lon="15.019359749485206"><ele>147.0</ele><time>2026-04-11T14:12:50Z</time></trkpt><trkpt lat="36.86658336845267" lon="15.01932578633946"><ele>143.5</ele><time>2026-04-11T14:12:51Z</time></trkpt><trkpt lat="36.866454959783695" lon="15.019339620650335"><ele>140.0</ele><time>2026-04-11T14:12:53Z</time></trkpt><trkpt lat="36.86638293967545" lon="15.019356820484383"><ele>136.5</ele><time>2026-04-11T14:12:54Z</time></trkpt><trkpt lat="36.866309963706826" lon="15.019386960092728"><ele>133.0</ele><time>2026-04-11T14:12:55Z</time></trkpt><trkpt lat="36.866245408889014" lon="15.019402706229295"><ele>129.5</ele><time>2026-04-11T14:12:56Z</time></trkpt><trkpt lat="36.86618040701955" lon="15.019417214086312"><ele>126.0</ele><time>2026-04-11T14:12:57Z</time></trkpt><trkpt lat="36.86607089437922" lon="15.019406220346264"><ele>126.0</ele><time>2026-04-11T14:12:59Z</time></trkpt><trkpt lat="36.86603632049275" lon="15.019219017925769"><ele>126.0</ele><time>2026-04-11T14:13:01Z</time></trkpt><trkpt lat="36.86602856163703" lon="15.019005928555991"><ele>126.0</ele><time>2026-04-11T14:13:02Z</time></trkpt><trkpt lat="36.865993967395795" lon="15.018852602133016"><ele>125.33333333333333</ele><time>2026-04-11T14:13:04Z</time></trkpt><trkpt lat="36.865975409954174" lon="15.01876905366138"><ele>124.66666666666666</ele><time>2026-04-11T14:13:05Z</time></trkpt><trkpt lat="36.86594148911782" lon="15.01865266422151"><ele>124.0</ele><time>2026-04-11T14:13:07Z</time></trkpt><trkpt lat="36.86587254897645" lon="15.018588507442"><ele>123.33333333333333</ele><time>2026-04-11T14:13:15Z</time></trkpt><trkpt lat="36.865807613522804" lon="15.018540021923924"><ele>122.66666666666666</ele><time>2026-04-11T14:13:17Z</time></trkpt><trkpt lat="36.865750231511356" lon="15.018504319213875"><ele>122.0</ele><time>2026-04-11T14:13:20Z</time></trkpt><trkpt lat="36.86563941641381" lon="15.018399966118354"><ele>120.8</ele><time>2026-04-11T14:13:22Z</time></trkpt><trkpt lat="36.86557696097324" lon="15.018362796984118"><ele>119.6</ele><time>2026-04-11T14:13:24Z</time></trkpt><trkpt lat="36.86548200421406" lon="15.018307485460785"><ele>118.39999999999999</ele><time>2026-04-11T14:13:26Z</time></trkpt><trkpt lat="36.86538193061036" lon="15.018250952541907"><ele>117.19999999999999</ele><time>2026-04-11T14:13:28Z</time></trkpt><trkpt lat="36.86527404669635" lon="15.018190439449658"><ele>116.0</ele><time>2026-04-11T14:13:30Z</time></trkpt><trkpt lat="36.865180801073556" lon="15.018109089411697"><ele>113.33333333333333</ele><time>2026-04-11T14:13:32Z</time></trkpt><trkpt lat="36.86508518871992" lon="15.018061562908924"><ele>110.66666666666666</ele><time>2026-04-11T14:13:34Z</time></trkpt><trkpt lat="36.865026434417395" lon="15.018020311956048"><ele>108.0</ele><time>2026-04-11T14:13:35Z</time></trkpt><trkpt lat="36.864970910587815" lon="15.017957901774261"><ele>105.33333333333334</ele><time>2026-04-11T14:13:36Z</time></trkpt><trkpt lat="36.864936215776105" lon="15.017890847154689"><ele>102.66666666666667</ele><time>2026-04-11T14:13:37Z</time></trkpt><trkpt lat="36.86490410306152" lon="15.01779667615972"><ele>100.0</ele><time>2026-04-11T14:13:39Z</time></trkpt><trkpt lat="36.8649643444698" lon="15.017842396739402"><ele>100.0</ele><time>2026-04-11T14:13:41Z</time></trkpt><trkpt lat="36.86500811368238" lon="15.01768481719832"><ele>100.0</ele><time>2026-04-11T14:15:20Z</time></trkpt><trkpt lat="36.86503986820981" lon="15.017580946791455"><ele>100.0</ele><time>2026-04-11T14:15:21Z</time></trkpt><trkpt lat="36.865033465757165" lon="15.017442229980855"><ele>100.0</ele><time>2026-04-11T14:15:22Z</time></trkpt><trkpt lat="36.86506662464067" lon="15.017308919670269"><ele>100.0</ele><time>2026-04-11T14:15:23Z</time></trkpt><trkpt lat="36.86508614044773" lon="15.017189571394905"><ele>100.6</ele><time>2026-04-11T14:15:24Z</time></trkpt><trkpt lat="36.86507851142857" lon="15.017100260848087"><ele>101.2</ele><time>2026-04-11T14:15:25Z</time></trkpt><trkpt lat="36.865066759878744" lon="15.0170069744367"><ele>101.80000000000001</ele><time>2026-04-11T14:15:26Z</time></trkpt><trkpt lat="36.8649968733812" lon="15.016898335535416"><ele>102.4</ele><time>2026-04-11T14:15:27Z</time></trkpt><trkpt lat="36.864965715945324" lon="15.016777752948274"><ele>103.0</ele><time>2026-04-11T14:15:28Z</time></trkpt><trkpt lat="36.86483445699665" lon="15.016744857676368"><ele>104.66666666666667</ele><time>2026-04-11T14:15:29Z</time></trkpt><trkpt lat="36.86477904665221" lon="15.016642431127206"><ele>106.33333333333334</ele><time>2026-04-11T14:15:30Z</time></trkpt><trkpt lat="36.864741610598585" lon="15.01652896951953"><ele>108.0</ele><time>2026-04-11T14:15:31Z</time></trkpt><trkpt lat="36.86478152384927" lon="15.016410481941172"><ele>109.66666666666666</ele><time>2026-04-11T14:15:32Z</time></trkpt><trkpt lat="36.86471794799722" lon="15.016361257289944"><ele>111.33333333333333</ele><time>2026-04-11T14:15:33Z</time></trkpt><trkpt lat="36.86466114230513" lon="15.016300652401487"><ele>113.0</ele><time>2026-04-11T14:15:34Z</time></trkpt><trkpt lat="36.86464535440987" lon="15.016204610360338"><ele>112.99999999999999</ele><time>2026-04-11T14:15:35Z</time></trkpt><trkpt lat="36.864622654196204" lon="15.016068712611311"><ele>113.0</ele><time>2026-04-11T14:15:36Z</time></trkpt><trkpt lat="36.86456363428681" lon="15.015977436044604"><ele>113.0</ele><time>2026-04-11T14:15:37Z</time></trkpt><trkpt lat="36.86452436769922" lon="15.015880736870718"><ele>113.0</ele><time>2026-04-11T14:15:38Z</time></trkpt><trkpt lat="36.864491700224626" lon="15.01578903349316"><ele>112.99999999999999</ele><time>2026-04-11T14:15:39Z</time></trkpt><trkpt lat="36.864461935121334" lon="15.015701492410727"><ele>113.0</ele><time>2026-04-11T14:15:40Z</time></trkpt><trkpt lat="36.864404058694745" lon="15.015583396153737"><ele>115.2</ele><time>2026-04-11T14:15:42Z</time></trkpt><trkpt lat="36.864334986701834" lon="15.01554105345403"><ele>117.4</ele><time>2026-04-11T14:15:43Z</time></trkpt><trkpt lat="36.86425018610244" lon="15.015461118279319"><ele>119.60000000000001</ele><time>2026-04-11T14:15:44Z</time></trkpt><trkpt lat="36.864159415669285" lon="15.015365978822349"><ele>121.80000000000001</ele><time>2026-04-11T14:15:45Z</time></trkpt><trkpt lat="36.864066036425115" lon="15.015300169033328"><ele>124.0</ele><time>2026-04-11T14:15:46Z</time></trkpt><trkpt lat="36.86395501990573" lon="15.015256499248427"><ele>120.0</ele><time>2026-04-11T14:15:47Z</time></trkpt><trkpt lat="36.86385641872845" lon="15.015205523980516"><ele>116.0</ele><time>2026-04-11T14:15:48Z</time></trkpt><trkpt lat="36.86378506814575" lon="15.01512250427839"><ele>112.0</ele><time>2026-04-11T14:15:49Z</time></trkpt><trkpt lat="36.86371397375082" lon="15.015024745374053"><ele>108.0</ele><time>2026-04-11T14:15:50Z</time></trkpt><trkpt lat="36.86365009345719" lon="15.01492255833892"><ele>104.0</ele><time>2026-04-11T14:15:51Z</time></trkpt><trkpt lat="36.863577005104815" lon="15.014797954511389"><ele>104.0</ele><time>2026-04-11T14:15:52Z</time></trkpt><trkpt lat="36.863495465010615" lon="15.01467796676474"><ele>104.0</ele><time>2026-04-11T14:15:53Z</time></trkpt><trkpt lat="36.86342618139028" lon="15.014566985030742"><ele>104.0</ele><time>2026-04-11T14:15:54Z</time></trkpt><trkpt lat="36.86334366692678" lon="15.014454551183922"><ele>104.0</ele><time>2026-04-11T14:15:55Z</time></trkpt><trkpt lat="36.863260902305946" lon="15.014345289796733"><ele>100.0</ele><time>2026-04-11T14:15:56Z</time></trkpt><trkpt lat="36.86320086613293" lon="15.014245069010498"><ele>96.0</ele><time>2026-04-11T14:15:57Z</time></trkpt><trkpt lat="36.863153826010475" lon="15.014142973631643"><ele>92.0</ele><time>2026-04-11T14:15:58Z</time></trkpt><trkpt lat="36.86310404451391" lon="15.014027849084583"><ele>88.0</ele><time>2026-04-11T14:15:59Z</time></trkpt><trkpt lat="36.863037691381564" lon="15.01388134674556"><ele>84.0</ele><time>2026-04-11T14:16:00Z</time></trkpt><trkpt lat="36.86297534384991" lon="15.013755205727435"><ele>83.0</ele><time>2026-04-11T14:16:01Z</time></trkpt><trkpt lat="36.862925762150475" lon="15.013652148603805"><ele>82.0</ele><time>2026-04-11T14:16:02Z</time></trkpt><trkpt lat="36.86288257786091" lon="15.013547471942113"><ele>81.0</ele><time>2026-04-11T14:16:03Z</time></trkpt><trkpt lat="36.86285036958138" lon="15.013429804885059"><ele>80.0</ele><time>2026-04-11T14:16:04Z</time></trkpt><trkpt lat="36.862820590459656" lon="15.013318517857682"><ele>79.0</ele><time>2026-04-11T14:16:05Z</time></trkpt><trkpt lat="36.862785208281245" lon="15.013235174502952"><ele>78.33333333333333</ele><time>2026-04-11T14:16:06Z</time></trkpt><trkpt lat="36.862738336278674" lon="15.01317230930398"><ele>77.66666666666666</ele><time>2026-04-11T14:16:07Z</time></trkpt><trkpt lat="36.862680791451695" lon="15.013139219316107"><ele>77.0</ele><time>2026-04-11T14:16:08Z</time></trkpt><trkpt lat="36.86262291220464" lon="15.01310414808489"><ele>76.33333333333333</ele><time>2026-04-11T14:16:09Z</time></trkpt><trkpt lat="36.86260943100076" lon="15.012972483246873"><ele>75.66666666666667</ele><time>2026-04-11T14:16:10.999Z</time></trkpt><trkpt lat="36.86262032794569" lon="15.012805404011493"><ele>75.0</ele><time>2026-04-11T14:16:11.999Z</time></trkpt><trkpt lat="36.86261595518354" lon="15.012641863780065"><ele>73.83333333333333</ele><time>2026-04-11T14:16:12.999Z</time></trkpt><trkpt lat="36.86259864207176" lon="15.012540520422176"><ele>72.66666666666667</ele><time>2026-04-11T14:16:13.999Z</time></trkpt><trkpt lat="36.86258169475692" lon="15.012437480269224"><ele>71.5</ele><time>2026-04-11T14:16:14.999Z</time></trkpt><trkpt lat="36.86257115397782" lon="15.012334525594426"><ele>70.33333333333334</ele><time>2026-04-11T14:16:15.999Z</time></trkpt><trkpt lat="36.862574181551615" lon="15.012231256838877"><ele>69.16666666666667</ele><time>2026-04-11T14:16:16.999Z</time></trkpt><trkpt lat="36.86257491433587" lon="15.012134339835196"><ele>68.0</ele><time>2026-04-11T14:16:17.999Z</time></trkpt><trkpt lat="36.86257110952194" lon="15.012054079425635"><ele>68.0</ele><time>2026-04-11T14:16:18.999Z</time></trkpt><trkpt lat="36.86262252589449" lon="15.011926961263379"><ele>68.0</ele><time>2026-04-11T14:16:20.999Z</time></trkpt><trkpt lat="36.86268441919384" lon="15.011862033516568"><ele>68.0</ele><time>2026-04-11T14:16:21.999Z</time></trkpt><trkpt lat="36.8627729981044" lon="15.01181759982655"><ele>68.0</ele><time>2026-04-11T14:16:22.999Z</time></trkpt><trkpt lat="36.86290330295451" lon="15.01177498438618"><ele>68.0</ele><time>2026-04-11T14:16:23.999Z</time></trkpt><trkpt lat="36.86306057427619" lon="15.011709886176757"><ele>68.33333333333334</ele><time>2026-04-11T14:16:24.999Z</time></trkpt><trkpt lat="36.863241043044866" lon="15.011610821544243"><ele>68.66666666666667</ele><time>2026-04-11T14:16:25.999Z</time></trkpt><trkpt lat="36.863435592752495" lon="15.0115049275513"><ele>69.0</ele><time>2026-04-11T14:16:26.999Z</time></trkpt><trkpt lat="36.86362685685397" lon="15.011430800736825"><ele>69.0</ele><time>2026-04-11T14:16:27.999Z</time></trkpt><trkpt lat="36.863815552040705" lon="15.011359193610772"><ele>69.0</ele><time>2026-04-11T14:16:28.999Z</time></trkpt><trkpt lat="36.864000139942426" lon="15.011277591887362"><ele>69.0</ele><time>2026-04-11T14:16:29.999Z</time></trkpt><trkpt lat="36.86415118723594" lon="15.011202535878649"><ele>69.0</ele><time>2026-04-11T14:16:30.999Z</time></trkpt><trkpt lat="36.86427781832555" lon="15.011132783785222"><ele>69.0</ele><time>2026-04-11T14:16:31.999Z</time></trkpt><trkpt lat="36.864416094930974" lon="15.011078834238388"><ele>69.0</ele><time>2026-04-11T14:16:32.999Z</time></trkpt><trkpt lat="36.864548029409384" lon="15.011037861207084"><ele>69.0</ele><time>2026-04-11T14:16:33.999Z</time></trkpt><trkpt lat="36.86467330216484" lon="15.011007640863475"><ele>69.75</ele><time>2026-04-11T14:16:34.999Z</time></trkpt><trkpt lat="36.86480321709472" lon="15.01100428798127"><ele>70.5</ele><time>2026-04-11T14:16:35.999Z</time></trkpt><trkpt lat="36.864942736936676" lon="15.011014200104048"><ele>71.25</ele><time>2026-04-11T14:16:36.999Z</time></trkpt><trkpt lat="36.86509753896315" lon="15.011017834938945"><ele>72.0</ele><time>2026-04-11T14:16:37.999Z</time></trkpt><trkpt lat="36.86525012584128" lon="15.011001277205231"><ele>73.75</ele><time>2026-04-11T14:16:38.999Z</time></trkpt><trkpt lat="36.865375707026814" lon="15.011000506157199"><ele>75.5</ele><time>2026-04-11T14:16:39.999Z</time></trkpt><trkpt lat="36.865495202793554" lon="15.010985727529807"><ele>77.25</ele><time>2026-04-11T14:16:40.999Z</time></trkpt><trkpt lat="36.86560930637276" lon="15.01092899133059"><ele>79.0</ele><time>2026-04-11T14:16:41.999Z</time></trkpt><trkpt lat="36.865730390783675" lon="15.010827868579305"><ele>78.75</ele><time>2026-04-11T14:16:42.999Z</time></trkpt><trkpt lat="36.86585631878234" lon="15.01071893614493"><ele>78.5</ele><time>2026-04-11T14:16:43.999Z</time></trkpt><trkpt lat="36.86595862278758" lon="15.010651054616297"><ele>78.25</ele><time>2026-04-11T14:16:44.999Z</time></trkpt><trkpt lat="36.86603227478634" lon="15.01060718343062"><ele>78.0</ele><time>2026-04-11T14:16:45.999Z</time></trkpt><trkpt lat="36.8661576142679" lon="15.010594310221325"><ele>78.0</ele><time>2026-04-11T14:16:48Z</time></trkpt><trkpt lat="36.86622757984786" lon="15.010622694003967"><ele>78.0</ele><time>2026-04-11T14:16:49Z</time></trkpt><trkpt lat="36.86631049547485" lon="15.010659144351537"><ele>78.0</ele><time>2026-04-11T14:16:50Z</time></trkpt><trkpt lat="36.86639387294389" lon="15.010650185460651"><ele>78.0</ele><time>2026-04-11T14:16:51Z</time></trkpt><trkpt lat="36.86646317126254" lon="15.01061549600359"><ele>78.0</ele><time>2026-04-11T14:16:52Z</time></trkpt><trkpt lat="36.866524237952" lon="15.01058488479207"><ele>78.0</ele><time>2026-04-11T14:16:53Z</time></trkpt><trkpt lat="36.86658685971881" lon="15.010564915483162"><ele>78.0</ele><time>2026-04-11T14:16:54Z</time></trkpt><trkpt lat="36.86663075660596" lon="15.01042593526602"><ele>78.0</ele><time>2026-04-11T14:16:56Z</time></trkpt><trkpt lat="36.8665875219977" lon="15.010296982908786"><ele>78.0</ele><time>2026-04-11T14:16:57Z</time></trkpt><trkpt lat="36.866532911661686" lon="15.01014615584565"><ele>78.0</ele><time>2026-04-11T14:16:58Z</time></trkpt><trkpt lat="36.866487114326276" lon="15.009973067313746"><ele>77.4</ele><time>2026-04-11T14:16:59Z</time></trkpt><trkpt lat="36.866482459408125" lon="15.009861873391166"><ele>76.8</ele><time>2026-04-11T14:17:00Z</time></trkpt><trkpt lat="36.86653065282332" lon="15.009769154344829"><ele>76.2</ele><time>2026-04-11T14:17:01Z</time></trkpt><trkpt lat="36.86657063435726" lon="15.009676832729953"><ele>75.6</ele><time>2026-04-11T14:17:02Z</time></trkpt><trkpt lat="36.86662960891394" lon="15.00959824730268"><ele>75.0</ele><time>2026-04-11T14:17:03Z</time></trkpt><trkpt lat="36.86673919599549" lon="15.009515183077882"><ele>75.75</ele><time>2026-04-11T14:17:04Z</time></trkpt><trkpt lat="36.86686741169311" lon="15.00938183510046"><ele>76.5</ele><time>2026-04-11T14:17:05Z</time></trkpt><trkpt lat="36.86696168817364" lon="15.00926040438501"><ele>77.25</ele><time>2026-04-11T14:17:06Z</time></trkpt><trkpt lat="36.86704246785903" lon="15.009114298680492"><ele>78.0</ele><time>2026-04-11T14:17:07Z</time></trkpt><trkpt lat="36.86711679958364" lon="15.008944562188855"><ele>78.0</ele><time>2026-04-11T14:17:08Z</time></trkpt><trkpt lat="36.86717643655689" lon="15.008795874954417"><ele>78.0</ele><time>2026-04-11T14:17:09Z</time></trkpt><trkpt lat="36.8672542367431" lon="15.008687477035904"><ele>78.0</ele><time>2026-04-11T14:17:10Z</time></trkpt><trkpt lat="36.86733667101117" lon="15.008615883126316"><ele>78.0</ele><time>2026-04-11T14:17:11Z</time></trkpt><trkpt lat="36.86742320772798" lon="15.008560117998803"><ele>78.0</ele><time>2026-04-11T14:17:12Z</time></trkpt><trkpt lat="36.86752710044239" lon="15.00852093886841"><ele>79.25</ele><time>2026-04-11T14:17:13Z</time></trkpt><trkpt lat="36.86765834980165" lon="15.008499262402047"><ele>80.5</ele><time>2026-04-11T14:17:14Z</time></trkpt><trkpt lat="36.86780399903147" lon="15.008478663319504"><ele>81.75</ele><time>2026-04-11T14:17:15Z</time></trkpt><trkpt lat="36.86794388629554" lon="15.008434171662085"><ele>83.0</ele><time>2026-04-11T14:17:16Z</time></trkpt><trkpt lat="36.868086693179976" lon="15.008360234676905"><ele>84.33333333333334</ele><time>2026-04-11T14:17:17Z</time></trkpt><trkpt lat="36.868266902662874" lon="15.008259358251047"><ele>85.66666666666667</ele><time>2026-04-11T14:17:18Z</time></trkpt><trkpt lat="36.868452789756965" lon="15.008159296838613"><ele>87.0</ele><time>2026-04-11T14:17:19Z</time></trkpt><trkpt lat="36.86860600955872" lon="15.008090001223318"><ele>88.25</ele><time>2026-04-11T14:17:20Z</time></trkpt><trkpt lat="36.86873804460842" lon="15.008038201207835"><ele>89.5</ele><time>2026-04-11T14:17:21Z</time></trkpt><trkpt lat="36.868869737017135" lon="15.008016035652291"><ele>90.75</ele><time>2026-04-11T14:17:22Z</time></trkpt><trkpt lat="36.8690015120007" lon="15.008024414557307"><ele>92.0</ele><time>2026-04-11T14:17:23Z</time></trkpt><trkpt lat="36.86914397389072" lon="15.008047755022545"><ele>91.33333333333334</ele><time>2026-04-11T14:17:24Z</time></trkpt><trkpt lat="36.869307217111036" lon="15.008055990244758"><ele>90.66666666666667</ele><time>2026-04-11T14:17:25Z</time></trkpt><trkpt lat="36.86946841712934" lon="15.008040609517218"><ele>90.0</ele><time>2026-04-11T14:17:26Z</time></trkpt><trkpt lat="36.86961287972961" lon="15.00800633997773"><ele>90.0</ele><time>2026-04-11T14:17:27Z</time></trkpt><trkpt lat="36.86972627682321" lon="15.007968021810349"><ele>90.0</ele><time>2026-04-11T14:17:28Z</time></trkpt><trkpt lat="36.86982984477514" lon="15.007894286513267"><ele>90.0</ele><time>2026-04-11T14:17:29Z</time></trkpt><trkpt lat="36.86993555614624" lon="15.00780502837174"><ele>90.0</ele><time>2026-04-11T14:17:30Z</time></trkpt><trkpt lat="36.87004024948973" lon="15.007725085245974"><ele>90.4</ele><time>2026-04-11T14:17:31Z</time></trkpt><trkpt lat="36.87014012649891" lon="15.007701652963155"><ele>90.8</ele><time>2026-04-11T14:17:32Z</time></trkpt><trkpt lat="36.87024058547224" lon="15.007720781544595"><ele>91.19999999999999</ele><time>2026-04-11T14:17:33Z</time></trkpt><trkpt lat="36.87035135015412" lon="15.007764749458776"><ele>91.6</ele><time>2026-04-11T14:17:34Z</time></trkpt><trkpt lat="36.87046479326164" lon="15.00779845006355"><ele>92.0</ele><time>2026-04-11T14:17:35Z</time></trkpt><trkpt lat="36.87056673476825" lon="15.007788215784005"><ele>92.0</ele><time>2026-04-11T14:17:36Z</time></trkpt><trkpt lat="36.87065561844807" lon="15.00775411878731"><ele>92.0</ele><time>2026-04-11T14:17:37Z</time></trkpt><trkpt lat="36.870717298302495" lon="15.00770178041472"><ele>92.0</ele><time>2026-04-11T14:17:38Z</time></trkpt><trkpt lat="36.87079197483177" lon="15.007609134746238"><ele>92.0</ele><time>2026-04-11T14:17:39Z</time></trkpt><trkpt lat="36.87089818193282" lon="15.007498238834975"><ele>92.0</ele><time>2026-04-11T14:17:40Z</time></trkpt><trkpt lat="36.871006540802775" lon="15.00744330425754"><ele>93.5</ele><time>2026-04-11T14:17:41Z</time></trkpt><trkpt lat="36.87112947934116" lon="15.007451754886192"><ele>95.0</ele><time>2026-04-11T14:17:42Z</time></trkpt><trkpt lat="36.87127124888366" lon="15.007448329576139"><ele>96.5</ele><time>2026-04-11T14:17:43Z</time></trkpt><trkpt lat="36.87138704515007" lon="15.007433753272482"><ele>98.0</ele><time>2026-04-11T14:17:44Z</time></trkpt><trkpt lat="36.87148346544949" lon="15.007371796838878"><ele>98.0</ele><time>2026-04-11T14:17:45Z</time></trkpt><trkpt lat="36.87158587795438" lon="15.007304357689117"><ele>98.0</ele><time>2026-04-11T14:17:46Z</time></trkpt><trkpt lat="36.8716957293707" lon="15.007207117281721"><ele>98.0</ele><time>2026-04-11T14:17:47Z</time></trkpt><trkpt lat="36.871827138891895" lon="15.007091725207006"><ele>98.0</ele><time>2026-04-11T14:17:48Z</time></trkpt><trkpt lat="36.87195480984866" lon="15.006986828183702"><ele>97.75</ele><time>2026-04-11T14:17:49Z</time></trkpt><trkpt lat="36.87205405963389" lon="15.006948913390021"><ele>97.5</ele><time>2026-04-11T14:17:50Z</time></trkpt><trkpt lat="36.872164588399706" lon="15.00691200100641"><ele>97.25</ele><time>2026-04-11T14:17:51Z</time></trkpt><trkpt lat="36.87229548066419" lon="15.006841769342019"><ele>97.0</ele><time>2026-04-11T14:17:52Z</time></trkpt><trkpt lat="36.87242702979363" lon="15.006780907263078"><ele>97.0</ele><time>2026-04-11T14:17:53Z</time></trkpt><trkpt lat="36.87253608983654" lon="15.006710468071867"><ele>97.0</ele><time>2026-04-11T14:17:54Z</time></trkpt><trkpt lat="36.87263625810079" lon="15.006640319296306"><ele>97.0</ele><time>2026-04-11T14:17:55Z</time></trkpt><trkpt lat="36.87276705428553" lon="15.006609130701175"><ele>97.0</ele><time>2026-04-11T14:17:56Z</time></trkpt><trkpt lat="36.87289696642245" lon="15.006551672953218"><ele>99.0</ele><time>2026-04-11T14:17:57Z</time></trkpt><trkpt lat="36.873019603489894" lon="15.006549952602075"><ele>101.0</ele><time>2026-04-11T14:17:58Z</time></trkpt><trkpt lat="36.87316295402671" lon="15.006584080396603"><ele>103.0</ele><time>2026-04-11T14:17:59Z</time></trkpt><trkpt lat="36.873330573465815" lon="15.006600518769856"><ele>105.0</ele><time>2026-04-11T14:18:00Z</time></trkpt><trkpt lat="36.873497698277" lon="15.006588633340055"><ele>105.0</ele><time>2026-04-11T14:18:01Z</time></trkpt><trkpt lat="36.87362521953362" lon="15.00656043877705"><ele>105.0</ele><time>2026-04-11T14:18:02Z</time></trkpt><trkpt lat="36.87374195524373" lon="15.006495076480661"><ele>105.0</ele><time>2026-04-11T14:18:03Z</time></trkpt><trkpt lat="36.873850145827575" lon="15.006400429383572"><ele>105.0</ele><time>2026-04-11T14:18:04Z</time></trkpt><trkpt lat="36.87397281168942" lon="15.006297165263456"><ele>105.0</ele><time>2026-04-11T14:18:05Z</time></trkpt><trkpt lat="36.87411418727057" lon="15.00619747635592"><ele>105.0</ele><time>2026-04-11T14:18:06Z</time></trkpt><trkpt lat="36.87425178435805" lon="15.006124893950576"><ele>105.0</ele><time>2026-04-11T14:18:07Z</time></trkpt><trkpt lat="36.87438869401625" lon="15.006085048862886"><ele>104.8</ele><time>2026-04-11T14:18:08Z</time></trkpt><trkpt lat="36.874502504402585" lon="15.006049073327931"><ele>104.6</ele><time>2026-04-11T14:18:09Z</time></trkpt><trkpt lat="36.87460985611881" lon="15.006029051146875"><ele>104.4</ele><time>2026-04-11T14:18:10Z</time></trkpt><trkpt lat="36.874706789810816" lon="15.0060251141673"><ele>104.2</ele><time>2026-04-11T14:18:11Z</time></trkpt><trkpt lat="36.87479992974406" lon="15.006056438345682"><ele>104.0</ele><time>2026-04-11T14:18:12Z</time></trkpt><trkpt lat="36.87489977990877" lon="15.006108931477545"><ele>104.0</ele><time>2026-04-11T14:18:12.999Z</time></trkpt><trkpt lat="36.87501653995694" lon="15.006146142263956"><ele>104.0</ele><time>2026-04-11T14:18:13.999Z</time></trkpt><trkpt lat="36.87514888135053" lon="15.006133554048334"><ele>104.0</ele><time>2026-04-11T14:18:14.999Z</time></trkpt><trkpt lat="36.8752918006473" lon="15.006058776962016"><ele>104.0</ele><time>2026-04-11T14:18:15.999Z</time></trkpt><trkpt lat="36.8754372512641" lon="15.005980443762942"><ele>104.75</ele><time>2026-04-11T14:18:16.999Z</time></trkpt><trkpt lat="36.87557307326477" lon="15.00594986707571"><ele>105.5</ele><time>2026-04-11T14:18:17.999Z</time></trkpt><trkpt lat="36.875706223819755" lon="15.005946712657051"><ele>106.25</ele><time>2026-04-11T14:18:18.999Z</time></trkpt><trkpt lat="36.87584375464688" lon="15.005953151030374"><ele>107.0</ele><time>2026-04-11T14:18:19.999Z</time></trkpt><trkpt lat="36.87597692724827" lon="15.005969357922357"><ele>108.25</ele><time>2026-04-11T14:18:20.999Z</time></trkpt><trkpt lat="36.87610243493856" lon="15.005954169263832"><ele>109.5</ele><time>2026-04-11T14:18:21.999Z</time></trkpt><trkpt lat="36.87620239862402" lon="15.005923559053622"><ele>110.75</ele><time>2026-04-11T14:18:22.999Z</time></trkpt><trkpt lat="36.87628550414066" lon="15.005860941592722"><ele>112.0</ele><time>2026-04-11T14:18:23.999Z</time></trkpt><trkpt lat="36.87638365693494" lon="15.005755297977453"><ele>112.83333333333334</ele><time>2026-04-11T14:18:24.999Z</time></trkpt><trkpt lat="36.87647688787062" lon="15.005652492694713"><ele>113.66666666666667</ele><time>2026-04-11T14:18:25.999Z</time></trkpt><trkpt lat="36.87656767686422" lon="15.005570195795793"><ele>114.5</ele><time>2026-04-11T14:18:26.999Z</time></trkpt><trkpt lat="36.87663405009791" lon="15.00553373727249"><ele>115.33333333333334</ele><time>2026-04-11T14:18:27.999Z</time></trkpt><trkpt lat="36.87670199058798" lon="15.005511146950449"><ele>116.16666666666667</ele><time>2026-04-11T14:18:28.999Z</time></trkpt><trkpt lat="36.876764534316" lon="15.00549827298173"><ele>117.0</ele><time>2026-04-11T14:18:29.999Z</time></trkpt><trkpt lat="36.87682963291835" lon="15.00551709413867"><ele>117.0</ele><time>2026-04-11T14:18:32.999Z</time></trkpt><trkpt lat="36.876931406237745" lon="15.005664885013397"><ele>117.0</ele><time>2026-04-11T14:19:21Z</time></trkpt><trkpt lat="36.87702639008365" lon="15.005779832514087"><ele>117.0</ele><time>2026-04-11T14:19:22Z</time></trkpt><trkpt lat="36.87712791598126" lon="15.005884193287478"><ele>117.0</ele><time>2026-04-11T14:19:23Z</time></trkpt><trkpt lat="36.877237037569834" lon="15.005971129481303"><ele>117.0</ele><time>2026-04-11T14:19:24Z</time></trkpt><trkpt lat="36.8773664300522" lon="15.006040512809927"><ele>117.0</ele><time>2026-04-11T14:19:25Z</time></trkpt><trkpt lat="36.877494993928686" lon="15.006102291996768"><ele>117.0</ele><time>2026-04-11T14:19:26Z</time></trkpt><trkpt lat="36.87757929989747" lon="15.00621258635709"><ele>117.0</ele><time>2026-04-11T14:19:27Z</time></trkpt><trkpt lat="36.87769093028985" lon="15.006315523165506"><ele>118.5</ele><time>2026-04-11T14:19:28Z</time></trkpt><trkpt lat="36.877809182037716" lon="15.006411240980965"><ele>120.0</ele><time>2026-04-11T14:19:29Z</time></trkpt><trkpt lat="36.877905908757846" lon="15.006459365825455"><ele>121.5</ele><time>2026-04-11T14:19:30Z</time></trkpt><trkpt lat="36.87799738736038" lon="15.006500526293182"><ele>123.0</ele><time>2026-04-11T14:19:31Z</time></trkpt><trkpt lat="36.87811799554403" lon="15.00655242309888"><ele>123.0</ele><time>2026-04-11T14:19:32Z</time></trkpt><trkpt lat="36.87822354866972" lon="15.006590213232604"><ele>123.0</ele><time>2026-04-11T14:19:33Z</time></trkpt><trkpt lat="36.87832901399013" lon="15.006629495341363"><ele>123.0</ele><time>2026-04-11T14:19:34Z</time></trkpt><trkpt lat="36.87846531779688" lon="15.006656430557477"><ele>123.0</ele><time>2026-04-11T14:19:35Z</time></trkpt><trkpt lat="36.87860397367666" lon="15.006725922367826"><ele>125.25</ele><time>2026-04-11T14:19:36Z</time></trkpt><trkpt lat="36.87873298483523" lon="15.006800389696023"><ele>127.5</ele><time>2026-04-11T14:19:37Z</time></trkpt><trkpt lat="36.87884314206436" lon="15.006883343792031"><ele>129.75</ele><time>2026-04-11T14:19:38Z</time></trkpt><trkpt lat="36.878958099128816" lon="15.006988261976735"><ele>132.0</ele><time>2026-04-11T14:19:39Z</time></trkpt><trkpt lat="36.87905597732286" lon="15.007061531802186"><ele>132.0</ele><time>2026-04-11T14:19:40Z</time></trkpt><trkpt lat="36.87916647792988" lon="15.007113880881432"><ele>132.0</ele><time>2026-04-11T14:19:41Z</time></trkpt><trkpt lat="36.87931000895105" lon="15.007159288041079"><ele>132.0</ele><time>2026-04-11T14:19:42Z</time></trkpt><trkpt lat="36.87946074487904" lon="15.007235197166965"><ele>132.0</ele><time>2026-04-11T14:19:43Z</time></trkpt><trkpt lat="36.879591354761146" lon="15.007313750183654"><ele>134.75</ele><time>2026-04-11T14:19:44Z</time></trkpt><trkpt lat="36.879659173505026" lon="15.007442411846283"><ele>137.5</ele><time>2026-04-11T14:19:45Z</time></trkpt><trkpt lat="36.87977281108801" lon="15.007499099442988"><ele>140.25</ele><time>2026-04-11T14:19:46Z</time></trkpt><trkpt lat="36.8798895075649" lon="15.007528524998085"><ele>143.0</ele><time>2026-04-11T14:19:47Z</time></trkpt><trkpt lat="36.8799866952779" lon="15.007555055059635"><ele>145.0</ele><time>2026-04-11T14:19:48Z</time></trkpt><trkpt lat="36.88007551457794" lon="15.00758768859407"><ele>147.0</ele><time>2026-04-11T14:19:49Z</time></trkpt><trkpt lat="36.88015959107832" lon="15.007625762098037"><ele>149.0</ele><time>2026-04-11T14:19:50Z</time></trkpt><trkpt lat="36.88023938100273" lon="15.007617330348019"><ele>151.0</ele><time>2026-04-11T14:19:51Z</time></trkpt><trkpt lat="36.880325452464035" lon="15.00754451302911"><ele>153.0</ele><time>2026-04-11T14:19:52Z</time></trkpt><trkpt lat="36.88038605290826" lon="15.007458701627488"><ele>155.4</ele><time>2026-04-11T14:19:53Z</time></trkpt><trkpt lat="36.880462614850536" lon="15.00735505981993"><ele>157.8</ele><time>2026-04-11T14:19:54Z</time></trkpt><trkpt lat="36.880543743553396" lon="15.007261672380253"><ele>160.2</ele><time>2026-04-11T14:19:55Z</time></trkpt><trkpt lat="36.8806411537114" lon="15.00720821073469"><ele>162.6</ele><time>2026-04-11T14:19:56Z</time></trkpt><trkpt lat="36.88073825766065" lon="15.007138672920307"><ele>165.0</ele><time>2026-04-11T14:19:57Z</time></trkpt><trkpt lat="36.88083600504156" lon="15.007065481838636"><ele>165.0</ele><time>2026-04-11T14:19:58Z</time></trkpt><trkpt lat="36.88092885553131" lon="15.007018583378827"><ele>165.0</ele><time>2026-04-11T14:19:59Z</time></trkpt><trkpt lat="36.88099325568916" lon="15.00699989909162"><ele>165.0</ele><time>2026-04-11T14:20:00Z</time></trkpt><trkpt lat="36.88110696012872" lon="15.00702666250673"><ele>165.0</ele><time>2026-04-11T14:20:02Z</time></trkpt><trkpt lat="36.881172562211916" lon="15.007040491883444"><ele>165.0</ele><time>2026-04-11T14:20:03Z</time></trkpt><trkpt lat="36.88125771380762" lon="15.006943244877094"><ele>168.66666666666666</ele><time>2026-04-11T14:20:04Z</time></trkpt><trkpt lat="36.88134437642675" lon="15.007038793744487"><ele>172.33333333333334</ele><time>2026-04-11T14:20:05Z</time></trkpt><trkpt lat="36.88141030803377" lon="15.007085941915744"><ele>176.0</ele><time>2026-04-11T14:20:06Z</time></trkpt><trkpt lat="36.881467241980204" lon="15.00712545356185"><ele>179.66666666666669</ele><time>2026-04-11T14:20:07Z</time></trkpt><trkpt lat="36.88153481501571" lon="15.007139774917164"><ele>183.33333333333334</ele><time>2026-04-11T14:20:08Z</time></trkpt><trkpt lat="36.88160420985256" lon="15.00715037539558"><ele>187.0</ele><time>2026-04-11T14:20:09Z</time></trkpt><trkpt lat="36.881681248995854" lon="15.007067454562804"><ele>187.0</ele><time>2026-04-11T14:20:11Z</time></trkpt><trkpt lat="36.8816699007648" lon="15.006813698700839"><ele>187.0</ele><time>2026-04-11T14:20:13Z</time></trkpt><trkpt lat="36.881681339055625" lon="15.006683197289526"><ele>187.0</ele><time>2026-04-11T14:20:13.999Z</time></trkpt><trkpt lat="36.88169662340527" lon="15.006581613143355"><ele>187.0</ele><time>2026-04-11T14:20:14.999Z</time></trkpt><trkpt lat="36.8817287294952" lon="15.006508763047956"><ele>187.2</ele><time>2026-04-11T14:20:15.999Z</time></trkpt><trkpt lat="36.881791012893544" lon="15.006359074457494"><ele>187.39999999999998</ele><time>2026-04-11T14:20:17.999Z</time></trkpt><trkpt lat="36.88185675657146" lon="15.006264981157628"><ele>187.60000000000002</ele><time>2026-04-11T14:20:19.999Z</time></trkpt><trkpt lat="36.881889078188145" lon="15.006157633648716"><ele>187.8</ele><time>2026-04-11T14:20:21.999Z</time></trkpt><trkpt lat="36.881940818147015" lon="15.006028971756352"><ele>188.0</ele><time>2026-04-11T14:20:23.999Z</time></trkpt><trkpt lat="36.88202578608475" lon="15.005927929235241"><ele>188.0</ele><time>2026-04-11T14:20:25.999Z</time></trkpt><trkpt lat="36.88208429834058" lon="15.005894800581906"><ele>188.0</ele><time>2026-04-11T14:20:26.999Z</time></trkpt><trkpt lat="36.882151301612254" lon="15.005860075965325"><ele>188.0</ele><time>2026-04-11T14:20:27.999Z</time></trkpt><trkpt lat="36.88224821981401" lon="15.005778178201806"><ele>188.0</ele><time>2026-04-11T14:20:29.999Z</time></trkpt><trkpt lat="36.8823230414999" lon="15.005668781780733"><ele>188.0</ele><time>2026-04-11T14:20:31.999Z</time></trkpt><trkpt lat="36.88239847447785" lon="15.005529329019495"><ele>183.33333333333331</ele><time>2026-04-11T14:20:33.999Z</time></trkpt><trkpt lat="36.88243844464719" lon="15.00544511221088"><ele>178.66666666666666</ele><time>2026-04-11T14:20:34.999Z</time></trkpt><trkpt lat="36.882484421443934" lon="15.005384959105653"><ele>174.0</ele><time>2026-04-11T14:20:35.999Z</time></trkpt><trkpt lat="36.88261951546805" lon="15.005350537632072"><ele>169.33333333333334</ele><time>2026-04-11T14:20:37.999Z</time></trkpt><trkpt lat="36.88268843291927" lon="15.005367401542413"><ele>164.66666666666669</ele><time>2026-04-11T14:20:38.999Z</time></trkpt><trkpt lat="36.88277835699939" lon="15.005393688858607"><ele>160.0</ele><time>2026-04-11T14:20:39.999Z</time></trkpt><trkpt lat="36.882871673813554" lon="15.005423562525676"><ele>159.83333333333334</ele><time>2026-04-11T14:20:40.999Z</time></trkpt><trkpt lat="36.882968432953696" lon="15.005445279869168"><ele>159.66666666666669</ele><time>2026-04-11T14:20:41.999Z</time></trkpt><trkpt lat="36.88305315835063" lon="15.005447703580835"><ele>159.5</ele><time>2026-04-11T14:20:42.999Z</time></trkpt><trkpt lat="36.88312575092521" lon="15.005471821662457"><ele>159.33333333333334</ele><time>2026-04-11T14:20:43.999Z</time></trkpt><trkpt lat="36.88319833871937" lon="15.00552540504554"><ele>159.16666666666666</ele><time>2026-04-11T14:20:45.999Z</time></trkpt><trkpt lat="36.8832073664047" lon="15.005443106647839"><ele>159.0</ele><time>2026-04-11T14:20:47.999Z</time></trkpt><trkpt lat="36.88316573345319" lon="15.005381746573951"><ele>159.0</ele><time>2026-04-11T14:20:48.999Z</time></trkpt><trkpt lat="36.88310726985106" lon="15.005297018190078"><ele>159.0</ele><time>2026-04-11T14:20:49.999Z</time></trkpt><trkpt lat="36.88307741118125" lon="15.005227320346892"><ele>159.0</ele><time>2026-04-11T14:20:50.999Z</time></trkpt><trkpt lat="36.883023503704884" lon="15.005160126894333"><ele>159.0</ele><time>2026-04-11T14:20:51.999Z</time></trkpt><trkpt lat="36.88295184430282" lon="15.005078878530123"><ele>159.0</ele><time>2026-04-11T14:20:52.999Z</time></trkpt><trkpt lat="36.88287088180308" lon="15.004984616168212"><ele>159.0</ele><time>2026-04-11T14:20:53.999Z</time></trkpt><trkpt lat="36.88279833040274" lon="15.004894265333608"><ele>157.83333333333334</ele><time>2026-04-11T14:20:54.999Z</time></trkpt><trkpt lat="36.8827418015536" lon="15.004815698204442"><ele>156.66666666666666</ele><time>2026-04-11T14:20:55.999Z</time></trkpt><trkpt lat="36.88267353617857" lon="15.004751119869843"><ele>155.5</ele><time>2026-04-11T14:20:56.999Z</time></trkpt><trkpt lat="36.88260206550221" lon="15.00468151812029"><ele>154.33333333333331</ele><time>2026-04-11T14:20:57.999Z</time></trkpt><trkpt lat="36.88253237915102" lon="15.004618342497412"><ele>153.16666666666666</ele><time>2026-04-11T14:20:59Z</time></trkpt><trkpt lat="36.88247027834878" lon="15.004557389303773"><ele>152.0</ele><time>2026-04-11T14:21:00Z</time></trkpt><trkpt lat="36.88241252262115" lon="15.004489859616921"><ele>150.33333333333331</ele><time>2026-04-11T14:21:01Z</time></trkpt><trkpt lat="36.88233149033732" lon="15.004468493232492"><ele>148.66666666666666</ele><time>2026-04-11T14:21:02Z</time></trkpt><trkpt lat="36.882247274547375" lon="15.004452787902945"><ele>147.0</ele><time>2026-04-11T14:21:03Z</time></trkpt><trkpt lat="36.882160103935185" lon="15.004428048295114"><ele>145.33333333333334</ele><time>2026-04-11T14:21:04Z</time></trkpt><trkpt lat="36.882074424433775" lon="15.004412455649376"><ele>143.66666666666669</ele><time>2026-04-11T14:21:05Z</time></trkpt><trkpt lat="36.88200611956842" lon="15.004401896429188"><ele>142.0</ele><time>2026-04-11T14:21:06Z</time></trkpt><trkpt lat="36.88191068503715" lon="15.004305392081022"><ele>142.0</ele><time>2026-04-11T14:21:08Z</time></trkpt><trkpt lat="36.88189475419457" lon="15.004208508833766"><ele>142.0</ele><time>2026-04-11T14:21:09Z</time></trkpt><trkpt lat="36.88184571661553" lon="15.004137371367507"><ele>142.0</ele><time>2026-04-11T14:21:10Z</time></trkpt><trkpt lat="36.88176653093992" lon="15.004110644848812"><ele>142.0</ele><time>2026-04-11T14:21:11Z</time></trkpt><trkpt lat="36.88169977956275" lon="15.004083821234017"><ele>142.0</ele><time>2026-04-11T14:21:12Z</time></trkpt><trkpt lat="36.88167664386508" lon="15.003958473294949"><ele>142.0</ele><time>2026-04-11T14:21:14Z</time></trkpt><trkpt lat="36.88165875986147" lon="15.003839115651212"><ele>140.2</ele><time>2026-04-11T14:21:15Z</time></trkpt><trkpt lat="36.881613574922824" lon="15.003752308152041"><ele>138.39999999999998</ele><time>2026-04-11T14:21:16Z</time></trkpt><trkpt lat="36.881552284397245" lon="15.00363805977787"><ele>136.60000000000002</ele><time>2026-04-11T14:21:17Z</time></trkpt><trkpt lat="36.88151833876422" lon="15.003532585795638"><ele>134.8</ele><time>2026-04-11T14:21:18Z</time></trkpt><trkpt lat="36.88141962007017" lon="15.00343094988664"><ele>133.0</ele><time>2026-04-11T14:21:21Z</time></trkpt><trkpt lat="36.881415470763095" lon="15.003346769425898"><ele>134.8</ele><time>2026-04-11T14:21:22Z</time></trkpt><trkpt lat="36.881507194948014" lon="15.003307718556368"><ele>136.60000000000002</ele><time>2026-04-11T14:22:16.999Z</time></trkpt><trkpt lat="36.88158396897841" lon="15.00328384740073"><ele>138.39999999999998</ele><time>2026-04-11T14:22:17.999Z</time></trkpt><trkpt lat="36.88169731248108" lon="15.003246362334206"><ele>140.2</ele><time>2026-04-11T14:22:18.999Z</time></trkpt><trkpt lat="36.88178264914616" lon="15.00319993025923"><ele>142.0</ele><time>2026-04-11T14:22:19.999Z</time></trkpt><trkpt lat="36.8818723424051" lon="15.003120230027116"><ele>142.0</ele><time>2026-04-11T14:22:21.999Z</time></trkpt><trkpt lat="36.88197382730733" lon="15.003101488771204"><ele>142.0</ele><time>2026-04-11T14:22:22.999Z</time></trkpt><trkpt lat="36.882080890978585" lon="15.003105209401868"><ele>142.0</ele><time>2026-04-11T14:22:23.999Z</time></trkpt><trkpt lat="36.88221873002116" lon="15.00306111396785"><ele>142.0</ele><time>2026-04-11T14:22:24.999Z</time></trkpt><trkpt lat="36.882400368793" lon="15.003105960476992"><ele>142.0</ele><time>2026-04-11T14:22:25.999Z</time></trkpt><trkpt lat="36.882531030725374" lon="15.003240565039611"><ele>142.0</ele><time>2026-04-11T14:22:26.999Z</time></trkpt><trkpt lat="36.88262907268546" lon="15.003312814975676"><ele>142.0</ele><time>2026-04-11T14:22:27.999Z</time></trkpt><trkpt lat="36.88274092418796" lon="15.003335335102989"><ele>142.0</ele><time>2026-04-11T14:22:28.999Z</time></trkpt><trkpt lat="36.88285169219206" lon="15.003329345267193"><ele>143.4</ele><time>2026-04-11T14:22:29.999Z</time></trkpt><trkpt lat="36.88295521855283" lon="15.00330186380597"><ele>144.79999999999998</ele><time>2026-04-11T14:22:30.999Z</time></trkpt><trkpt lat="36.88305409093936" lon="15.003298867258522"><ele>146.2</ele><time>2026-04-11T14:22:31.999Z</time></trkpt><trkpt lat="36.883161160753716" lon="15.003333503213682"><ele>147.6</ele><time>2026-04-11T14:22:32.999Z</time></trkpt><trkpt lat="36.883264015444595" lon="15.003376927514157"><ele>149.0</ele><time>2026-04-11T14:22:33.999Z</time></trkpt><trkpt lat="36.88335530763749" lon="15.003425386461297"><ele>149.83333333333331</ele><time>2026-04-11T14:22:34.999Z</time></trkpt><trkpt lat="36.883430427618215" lon="15.003484118951587"><ele>150.66666666666666</ele><time>2026-04-11T14:22:35.999Z</time></trkpt><trkpt lat="36.88347872429054" lon="15.003538664513496"><ele>151.5</ele><time>2026-04-11T14:22:36.999Z</time></trkpt><trkpt lat="36.88355478862445" lon="15.003622963160176"><ele>152.33333333333334</ele><time>2026-04-11T14:22:38.999Z</time></trkpt><trkpt lat="36.88360156035034" lon="15.003716131237253"><ele>153.16666666666669</ele><time>2026-04-11T14:22:39.999Z</time></trkpt><trkpt lat="36.88364520834843" lon="15.003820059843376"><ele>154.0</ele><time>2026-04-11T14:22:40.999Z</time></trkpt><trkpt lat="36.883690397082674" lon="15.003919483126328"><ele>156.5</ele><time>2026-04-11T14:22:41.999Z</time></trkpt><trkpt lat="36.88375624836878" lon="15.00399059450327"><ele>159.0</ele><time>2026-04-11T14:22:43.999Z</time></trkpt><trkpt lat="36.88382703132649" lon="15.003936707826977"><ele>161.5</ele><time>2026-04-11T14:22:45.999Z</time></trkpt><trkpt lat="36.883844246187856" lon="15.00386018723485"><ele>164.0</ele><time>2026-04-11T14:22:46.999Z</time></trkpt><trkpt lat="36.88386028608982" lon="15.003760712523317"><ele>166.5</ele><time>2026-04-11T14:22:47.999Z</time></trkpt><trkpt lat="36.88389084797724" lon="15.00365954337408"><ele>169.0</ele><time>2026-04-11T14:22:48.999Z</time></trkpt><trkpt lat="36.88393415205086" lon="15.003592327637625"><ele>169.0</ele><time>2026-04-11T14:22:49.999Z</time></trkpt><trkpt lat="36.88399263587731" lon="15.003532015590078"><ele>169.0</ele><time>2026-04-11T14:22:51.999Z</time></trkpt><trkpt lat="36.884045800692796" lon="15.003486020775442"><ele>169.0</ele><time>2026-04-11T14:22:53.999Z</time></trkpt><trkpt lat="36.88419396601386" lon="15.003344127530967"><ele>169.0</ele><time>2026-04-11T14:22:55.999Z</time></trkpt><trkpt lat="36.884248639992705" lon="15.003289036121574"><ele>169.0</ele><time>2026-04-11T14:22:56.999Z</time></trkpt><trkpt lat="36.88430781591948" lon="15.003247181454286"><ele>171.16666666666669</ele><time>2026-04-11T14:22:57.999Z</time></trkpt><trkpt lat="36.88437031555278" lon="15.003216175033566"><ele>173.33333333333334</ele><time>2026-04-11T14:22:58.999Z</time></trkpt><trkpt lat="36.884438748941115" lon="15.003194220563453"><ele>175.5</ele><time>2026-04-11T14:22:59.999Z</time></trkpt><trkpt lat="36.88451169034339" lon="15.003182880273327"><ele>177.66666666666666</ele><time>2026-04-11T14:23:00.999Z</time></trkpt><trkpt lat="36.88460536398151" lon="15.003176392911362"><ele>179.83333333333331</ele><time>2026-04-11T14:23:01.999Z</time></trkpt><trkpt lat="36.884689945758325" lon="15.003200418236418"><ele>182.0</ele><time>2026-04-11T14:23:02.999Z</time></trkpt><trkpt lat="36.88478544631756" lon="15.003233404732665"><ele>182.0</ele><time>2026-04-11T14:23:03.999Z</time></trkpt><trkpt lat="36.88487174624037" lon="15.003256163683858"><ele>182.0</ele><time>2026-04-11T14:23:05Z</time></trkpt><trkpt lat="36.88495705134028" lon="15.003270814255925"><ele>182.0</ele><time>2026-04-11T14:23:06Z</time></trkpt><trkpt lat="36.885030822446886" lon="15.003291310591736"><ele>182.0</ele><time>2026-04-11T14:23:07Z</time></trkpt><trkpt lat="36.885098920858574" lon="15.003313196674224"><ele>182.0</ele><time>2026-04-11T14:23:08Z</time></trkpt><trkpt lat="36.885149604954584" lon="15.003401958231292"><ele>182.0</ele><time>2026-04-11T14:23:10Z</time></trkpt><trkpt lat="36.88516702231136" lon="15.003503026967005"><ele>182.6</ele><time>2026-04-11T14:23:12Z</time></trkpt><trkpt lat="36.88506229469609" lon="15.00359751347291"><ele>183.2</ele><time>2026-04-11T14:23:14Z</time></trkpt><trkpt lat="36.885039676410045" lon="15.00367349418856"><ele>183.8</ele><time>2026-04-11T14:23:15Z</time></trkpt><trkpt lat="36.88508498003022" lon="15.003774611122834"><ele>184.4</ele><time>2026-04-11T14:23:19Z</time></trkpt><trkpt lat="36.88518923599918" lon="15.00380247322686"><ele>185.0</ele><time>2026-04-11T14:23:21Z</time></trkpt><trkpt lat="36.8852698536005" lon="15.00381431854376"><ele>188.0</ele><time>2026-04-11T14:23:22Z</time></trkpt><trkpt lat="36.88534457690321" lon="15.003842224983606"><ele>191.0</ele><time>2026-04-11T14:23:23Z</time></trkpt><trkpt lat="36.88543162603395" lon="15.003865369195697"><ele>194.0</ele><time>2026-04-11T14:23:24Z</time></trkpt><trkpt lat="36.88552046819581" lon="15.003862620978813"><ele>197.0</ele><time>2026-04-11T14:23:25Z</time></trkpt><trkpt lat="36.885604786360524" lon="15.003860958143008"><ele>200.00000000000003</ele><time>2026-04-11T14:23:26Z</time></trkpt><trkpt lat="36.88567908944603" lon="15.003847612845803"><ele>203.0</ele><time>2026-04-11T14:23:27Z</time></trkpt><trkpt lat="36.88573630915488" lon="15.003800540947603"><ele>203.00000000000003</ele><time>2026-04-11T14:23:28Z</time></trkpt><trkpt lat="36.885784294400814" lon="15.003748400071583"><ele>203.0</ele><time>2026-04-11T14:23:29Z</time></trkpt><trkpt lat="36.885847356658665" lon="15.003696121531352"><ele>203.0</ele><time>2026-04-11T14:23:30Z</time></trkpt><trkpt lat="36.8859238378207" lon="15.003653534754418"><ele>203.0</ele><time>2026-04-11T14:23:31Z</time></trkpt><trkpt lat="36.88600484023885" lon="15.003615466401893"><ele>203.00000000000003</ele><time>2026-04-11T14:23:32Z</time></trkpt><trkpt lat="36.886075040212155" lon="15.003546192131475"><ele>203.0</ele><time>2026-04-11T14:23:33Z</time></trkpt><trkpt lat="36.886129657749315" lon="15.00347374037171"><ele>206.83333333333334</ele><time>2026-04-11T14:23:34Z</time></trkpt><trkpt lat="36.88618654214365" lon="15.003412250082032"><ele>210.66666666666669</ele><time>2026-04-11T14:23:35Z</time></trkpt><trkpt lat="36.886255655367925" lon="15.00334162820582"><ele>214.5</ele><time>2026-04-11T14:23:36Z</time></trkpt><trkpt lat="36.88633145555902" lon="15.003253616467132"><ele>218.33333333333331</ele><time>2026-04-11T14:23:37Z</time></trkpt><trkpt lat="36.886391243848124" lon="15.0031762316181"><ele>222.16666666666666</ele><time>2026-04-11T14:23:38Z</time></trkpt><trkpt lat="36.886455455060656" lon="15.00310974124849"><ele>226.0</ele><time>2026-04-11T14:23:39Z</time></trkpt><trkpt lat="36.88652842779928" lon="15.003043566203527"><ele>225.99999999999997</ele><time>2026-04-11T14:23:40Z</time></trkpt><trkpt lat="36.88659530054936" lon="15.002964237717622"><ele>226.0</ele><time>2026-04-11T14:23:41Z</time></trkpt><trkpt lat="36.886635823497414" lon="15.002883822617084"><ele>226.0</ele><time>2026-04-11T14:23:42Z</time></trkpt><trkpt lat="36.88668316448654" lon="15.00279063106111"><ele>226.0</ele><time>2026-04-11T14:23:43Z</time></trkpt><trkpt lat="36.88674541823312" lon="15.002713162270737"><ele>225.99999999999997</ele><time>2026-04-11T14:23:44Z</time></trkpt><trkpt lat="36.88680737859488" lon="15.002656514203194"><ele>226.0</ele><time>2026-04-11T14:23:45Z</time></trkpt><trkpt lat="36.88688111847337" lon="15.002613843106937"><ele>229.49999999999997</ele><time>2026-04-11T14:23:46Z</time></trkpt><trkpt lat="36.88697115088087" lon="15.002585162839665"><ele>233.0</ele><time>2026-04-11T14:23:47Z</time></trkpt><trkpt lat="36.88705784746127" lon="15.002569967312061"><ele>236.5</ele><time>2026-04-11T14:23:48Z</time></trkpt><trkpt lat="36.887120967588444" lon="15.002531257044987"><ele>240.0</ele><time>2026-04-11T14:23:49Z</time></trkpt><trkpt lat="36.88719238867108" lon="15.002475644118752"><ele>243.49999999999997</ele><time>2026-04-11T14:23:50Z</time></trkpt><trkpt lat="36.887249954898635" lon="15.002412530945538"><ele>247.0</ele><time>2026-04-11T14:23:51Z</time></trkpt><trkpt lat="36.88728369516864" lon="15.002323182425089"><ele>247.0</ele><time>2026-04-11T14:23:52Z</time></trkpt><trkpt lat="36.88728757742073" lon="15.002215722256766"><ele>247.0</ele><time>2026-04-11T14:23:53Z</time></trkpt><trkpt lat="36.88729735310096" lon="15.002128124730408"><ele>247.0</ele><time>2026-04-11T14:23:54Z</time></trkpt><trkpt lat="36.887406149955915" lon="15.002027434581706"><ele>247.0</ele><time>2026-04-11T14:23:56Z</time></trkpt><trkpt lat="36.88744589366639" lon="15.001927660807258"><ele>247.0</ele><time>2026-04-11T14:23:57Z</time></trkpt><trkpt lat="36.887458876309424" lon="15.001802874268103"><ele>247.0</ele><time>2026-04-11T14:23:58Z</time></trkpt><trkpt lat="36.887439246550166" lon="15.001712326852987"><ele>247.0</ele><time>2026-04-11T14:23:59Z</time></trkpt><trkpt lat="36.887456157627284" lon="15.001617094746914"><ele>247.0</ele><time>2026-04-11T14:24:03Z</time></trkpt><trkpt lat="36.88749851546905" lon="15.001549155925076"><ele>247.0</ele><time>2026-04-11T14:24:12Z</time></trkpt><trkpt lat="36.88754312999956" lon="15.00146395941909"><ele>247.0</ele><time>2026-04-11T14:24:14.999Z</time></trkpt><trkpt lat="36.88766326819972" lon="15.001342341102388"><ele>246.6</ele><time>2026-04-11T14:30:28.999Z</time></trkpt><trkpt lat="36.8877455405259" lon="15.001245319558642"><ele>246.2</ele><time>2026-04-11T14:30:30.999Z</time></trkpt><trkpt lat="36.88782501591718" lon="15.0011603101272"><ele>245.8</ele><time>2026-04-11T14:30:32.999Z</time></trkpt><trkpt lat="36.8878808567944" lon="15.001123878353141"><ele>245.4</ele><time>2026-04-11T14:30:34.999Z</time></trkpt><trkpt lat="36.88798226926071" lon="15.001054449914141"><ele>245.0</ele><time>2026-04-11T14:30:36.999Z</time></trkpt><trkpt lat="36.888081233785115" lon="15.00102836712342"><ele>245.00000000000003</ele><time>2026-04-11T14:30:37.999Z</time></trkpt><trkpt lat="36.88816476128785" lon="15.001006654459236"><ele>245.0</ele><time>2026-04-11T14:30:38.999Z</time></trkpt><trkpt lat="36.888218986120954" lon="15.000964806911195"><ele>245.0</ele><time>2026-04-11T14:30:39.999Z</time></trkpt><trkpt lat="36.88828442698966" lon="15.000903696714435"><ele>245.0</ele><time>2026-04-11T14:30:40.999Z</time></trkpt><trkpt lat="36.88836188763468" lon="15.000832800032844"><ele>245.00000000000003</ele><time>2026-04-11T14:30:41.999Z</time></trkpt><trkpt lat="36.888443702014676" lon="15.000774907558903"><ele>245.0</ele><time>2026-04-11T14:30:42.999Z</time></trkpt><trkpt lat="36.88852699334879" lon="15.000731105528125"><ele>245.8</ele><time>2026-04-11T14:30:43.999Z</time></trkpt><trkpt lat="36.88861233932487" lon="15.000683557545866"><ele>246.6</ele><time>2026-04-11T14:30:44.999Z</time></trkpt><trkpt lat="36.88869827232945" lon="15.000623711420063"><ele>247.39999999999998</ele><time>2026-04-11T14:30:45.999Z</time></trkpt><trkpt lat="36.888793806721324" lon="15.000571445215773"><ele>248.2</ele><time>2026-04-11T14:30:46.999Z</time></trkpt><trkpt lat="36.888900723362724" lon="15.000513929057211"><ele>249.0</ele><time>2026-04-11T14:30:47.999Z</time></trkpt><trkpt lat="36.88899724013999" lon="15.000453551046661"><ele>249.0</ele><time>2026-04-11T14:30:48.999Z</time></trkpt><trkpt lat="36.88908972860876" lon="15.000390299157733"><ele>248.99999999999997</ele><time>2026-04-11T14:30:49.999Z</time></trkpt><trkpt lat="36.889186224155175" lon="15.000333821198241"><ele>248.99999999999997</ele><time>2026-04-11T14:30:50.999Z</time></trkpt><trkpt lat="36.88928884987924" lon="15.00029273359197"><ele>249.0</ele><time>2026-04-11T14:30:51.999Z</time></trkpt><trkpt lat="36.889375217835216" lon="15.00025645291417"><ele>249.0</ele><time>2026-04-11T14:30:52.999Z</time></trkpt><trkpt lat="36.88943170218879" lon="15.000207892790458"><ele>251.0</ele><time>2026-04-11T14:30:53.999Z</time></trkpt><trkpt lat="36.88950909794335" lon="15.000153368492374"><ele>252.99999999999997</ele><time>2026-04-11T14:30:55.999Z</time></trkpt><trkpt lat="36.889573288341914" lon="15.000105688578671"><ele>254.99999999999997</ele><time>2026-04-11T14:30:57.999Z</time></trkpt><trkpt lat="36.88968463066593" lon="15.000053960064312"><ele>257.0</ele><time>2026-04-11T14:30:59.999Z</time></trkpt><trkpt lat="36.889766043176586" lon="14.999997626601052"><ele>259.0</ele><time>2026-04-11T14:31:00.999Z</time></trkpt><trkpt lat="36.889836618155705" lon="14.999919357257086"><ele>259.0</ele><time>2026-04-11T14:31:01.999Z</time></trkpt><trkpt lat="36.88991787049782" lon="14.999850051286032"><ele>259.0</ele><time>2026-04-11T14:31:02.999Z</time></trkpt><trkpt lat="36.89002282148746" lon="14.999794865476225"><ele>259.0</ele><time>2026-04-11T14:31:03.999Z</time></trkpt><trkpt lat="36.89011629558199" lon="14.999750664428369"><ele>259.0</ele><time>2026-04-11T14:31:04.999Z</time></trkpt><trkpt lat="36.89019720653158" lon="14.999621590279416"><ele>259.0</ele><time>2026-04-11T14:31:06.999Z</time></trkpt><trkpt lat="36.8902466308003" lon="14.999473416705738"><ele>256.75</ele><time>2026-04-11T14:31:07.999Z</time></trkpt><trkpt lat="36.890307406344235" lon="14.999319598313807"><ele>254.5</ele><time>2026-04-11T14:31:08.999Z</time></trkpt><trkpt lat="36.89037920415882" lon="14.999185146924303"><ele>252.25</ele><time>2026-04-11T14:31:09.999Z</time></trkpt><trkpt lat="36.89045196775041" lon="14.999063537059357"><ele>250.0</ele><time>2026-04-11T14:31:10.999Z</time></trkpt><trkpt lat="36.89051990982386" lon="14.998916972976014"><ele>249.33333333333331</ele><time>2026-04-11T14:31:11.999Z</time></trkpt><trkpt lat="36.890603131526916" lon="14.99876243477434"><ele>248.66666666666669</ele><time>2026-04-11T14:31:12.999Z</time></trkpt><trkpt lat="36.89069057527325" lon="14.998594070007583"><ele>248.0</ele><time>2026-04-11T14:31:13.999Z</time></trkpt><trkpt lat="36.89078070622829" lon="14.998448485171954"><ele>247.2</ele><time>2026-04-11T14:31:14.999Z</time></trkpt><trkpt lat="36.89085158919497" lon="14.998323754576239"><ele>246.4</ele><time>2026-04-11T14:31:15.999Z</time></trkpt><trkpt lat="36.890919088433726" lon="14.998217845544913"><ele>245.59999999999997</ele><time>2026-04-11T14:31:16.999Z</time></trkpt><trkpt lat="36.89099105983309" lon="14.998119883962856"><ele>244.79999999999998</ele><time>2026-04-11T14:31:17.999Z</time></trkpt><trkpt lat="36.89105393000437" lon="14.998037833199648"><ele>244.0</ele><time>2026-04-11T14:31:18.999Z</time></trkpt><trkpt lat="36.89110544684448" lon="14.997979278250448"><ele>244.0</ele><time>2026-04-11T14:31:19.999Z</time></trkpt><trkpt lat="36.891165128912625" lon="14.997840360687663"><ele>244.0</ele><time>2026-04-11T14:31:21.999Z</time></trkpt><trkpt lat="36.89117393093843" lon="14.997716348173261"><ele>244.0</ele><time>2026-04-11T14:31:22.999Z</time></trkpt><trkpt lat="36.89118401252027" lon="14.997561587259234"><ele>244.0</ele><time>2026-04-11T14:31:23.999Z</time></trkpt><trkpt lat="36.891203699896906" lon="14.997438922277032"><ele>244.39999999999998</ele><time>2026-04-11T14:31:24.999Z</time></trkpt><trkpt lat="36.891237515383736" lon="14.99733850927847"><ele>244.79999999999998</ele><time>2026-04-11T14:31:25.999Z</time></trkpt><trkpt lat="36.89129308970153" lon="14.99726034412468"><ele>245.20000000000002</ele><time>2026-04-11T14:31:26.999Z</time></trkpt><trkpt lat="36.89135995738329" lon="14.997161858293746"><ele>245.60000000000002</ele><time>2026-04-11T14:31:27.999Z</time></trkpt><trkpt lat="36.89138831043932" lon="14.997024391679629"><ele>246.0</ele><time>2026-04-11T14:31:29Z</time></trkpt><trkpt lat="36.89141760240296" lon="14.996857641520192"><ele>246.0</ele><time>2026-04-11T14:31:30Z</time></trkpt><trkpt lat="36.89145750085552" lon="14.99667661371322"><ele>246.0</ele><time>2026-04-11T14:31:31Z</time></trkpt><trkpt lat="36.89152085052111" lon="14.99648795937034"><ele>246.0</ele><time>2026-04-11T14:31:32Z</time></trkpt><trkpt lat="36.89157343490072" lon="14.996295215608045"><ele>246.20000000000002</ele><time>2026-04-11T14:31:33Z</time></trkpt><trkpt lat="36.89160831437463" lon="14.99612219257491"><ele>246.40000000000003</ele><time>2026-04-11T14:31:34Z</time></trkpt><trkpt lat="36.891634507698214" lon="14.996031406305407"><ele>246.6</ele><time>2026-04-11T14:31:35Z</time></trkpt><trkpt lat="36.89171341583407" lon="14.995932659623984"><ele>246.8</ele><time>2026-04-11T14:31:37Z</time></trkpt><trkpt lat="36.891810184989296" lon="14.99589320149522"><ele>247.0</ele><time>2026-04-11T14:31:38Z</time></trkpt><trkpt lat="36.89191791522487" lon="14.99585291417056"><ele>247.8</ele><time>2026-04-11T14:31:39Z</time></trkpt><trkpt lat="36.891982580265264" lon="14.995730228342998"><ele>248.6</ele><time>2026-04-11T14:31:41Z</time></trkpt><trkpt lat="36.8920229573614" lon="14.995640967976708"><ele>249.40000000000003</ele><time>2026-04-11T14:31:43Z</time></trkpt><trkpt lat="36.89211355304347" lon="14.995716240159693"><ele>250.20000000000002</ele><time>2026-04-11T14:31:45Z</time></trkpt><trkpt lat="36.8921729450057" lon="14.995806561153397"><ele>251.0</ele><time>2026-04-11T14:31:46Z</time></trkpt><trkpt lat="36.892286081548875" lon="14.995833626903874"><ele>251.0</ele><time>2026-04-11T14:31:47Z</time></trkpt><trkpt lat="36.89243093094964" lon="14.995834319041595"><ele>251.0</ele><time>2026-04-11T14:31:48Z</time></trkpt><trkpt lat="36.89256906379823" lon="14.99584443561438"><ele>251.0</ele><time>2026-04-11T14:31:49Z</time></trkpt><trkpt lat="36.892639308428535" lon="14.99588122629413"><ele>251.0</ele><time>2026-04-11T14:31:50Z</time></trkpt><trkpt lat="36.89276348737879" lon="14.995863065954143"><ele>250.83333333333334</ele><time>2026-04-11T14:31:52Z</time></trkpt><trkpt lat="36.8928523689689" lon="14.995951898865588"><ele>250.66666666666669</ele><time>2026-04-11T14:31:58Z</time></trkpt><trkpt lat="36.89279274565529" lon="14.995987452584327"><ele>250.5</ele><time>2026-04-11T14:32:07Z</time></trkpt><trkpt lat="36.892743787317144" lon="14.996066665493208"><ele>250.33333333333331</ele><time>2026-04-11T14:32:16Z</time></trkpt><trkpt lat="36.89269346950173" lon="14.996146313934307"><ele>250.16666666666666</ele><time>2026-04-11T14:32:17Z</time></trkpt><trkpt lat="36.89263429268876" lon="14.996239654440915"><ele>250.0</ele><time>2026-04-11T14:32:18Z</time></trkpt><trkpt lat="36.89257457019216" lon="14.99629908661297"><ele>249.49999999999997</ele><time>2026-04-11T14:32:19Z</time></trkpt><trkpt lat="36.89251757765361" lon="14.996339141295644"><ele>249.0</ele><time>2026-04-11T14:32:20Z</time></trkpt><trkpt lat="36.89248343943933" lon="14.996450190361402"><ele>248.5</ele><time>2026-04-11T14:32:22Z</time></trkpt><trkpt lat="36.89249983686123" lon="14.996531700546504"><ele>248.0</ele><time>2026-04-11T14:32:23Z</time></trkpt><trkpt lat="36.892547026851425" lon="14.996612818339283"><ele>247.49999999999997</ele><time>2026-04-11T14:32:24Z</time></trkpt><trkpt lat="36.89262176767522" lon="14.996704313749666"><ele>247.0</ele><time>2026-04-11T14:32:25Z</time></trkpt><trkpt lat="36.892712278842026" lon="14.996814977202167"><ele>248.5</ele><time>2026-04-11T14:32:26Z</time></trkpt><trkpt lat="36.89279528984436" lon="14.996940765667919"><ele>250.0</ele><time>2026-04-11T14:32:27Z</time></trkpt><trkpt lat="36.89286623492433" lon="14.997089295427287"><ele>251.5</ele><time>2026-04-11T14:32:28Z</time></trkpt><trkpt lat="36.892953343777705" lon="14.997242013437516"><ele>253.0</ele><time>2026-04-11T14:32:29Z</time></trkpt><trkpt lat="36.89304591037036" lon="14.997400801924044"><ele>253.0</ele><time>2026-04-11T14:32:30Z</time></trkpt><trkpt lat="36.89313307652239" lon="14.997551490691883"><ele>253.0</ele><time>2026-04-11T14:32:30.999Z</time></trkpt><trkpt lat="36.8932207778307" lon="14.997704723520824"><ele>253.0</ele><time>2026-04-11T14:32:31.999Z</time></trkpt><trkpt lat="36.893305645256845" lon="14.99785945620078"><ele>253.0</ele><time>2026-04-11T14:32:32.999Z</time></trkpt><trkpt lat="36.89335000308442" lon="14.998033201637675"><ele>254.0</ele><time>2026-04-11T14:32:33.999Z</time></trkpt><trkpt lat="36.89347158042354" lon="14.998137976350685"><ele>255.0</ele><time>2026-04-11T14:32:34.999Z</time></trkpt><trkpt lat="36.893538513365826" lon="14.998288428685568"><ele>256.0</ele><time>2026-04-11T14:32:35.999Z</time></trkpt><trkpt lat="36.89358836707919" lon="14.998401866144167"><ele>257.0</ele><time>2026-04-11T14:32:36.999Z</time></trkpt><trkpt lat="36.893638485703356" lon="14.99847851999579"><ele>257.0</ele><time>2026-04-11T14:32:37.999Z</time></trkpt><trkpt lat="36.89369703059456" lon="14.998550582824226"><ele>257.0</ele><time>2026-04-11T14:32:38.999Z</time></trkpt><trkpt lat="36.89377764975649" lon="14.998610230274721"><ele>257.0</ele><time>2026-04-11T14:32:39.999Z</time></trkpt><trkpt lat="36.89389272880545" lon="14.998691166193105"><ele>257.0</ele><time>2026-04-11T14:32:40.999Z</time></trkpt><trkpt lat="36.89402548740761" lon="14.998820496049698"><ele>257.0</ele><time>2026-04-11T14:32:41.999Z</time></trkpt><trkpt lat="36.8941447750966" lon="14.998949442573519"><ele>257.0</ele><time>2026-04-11T14:32:42.999Z</time></trkpt><trkpt lat="36.89424852364297" lon="14.999063266958473"><ele>257.0</ele><time>2026-04-11T14:32:43.999Z</time></trkpt><trkpt lat="36.894352035627" lon="14.999176914043758"><ele>257.0</ele><time>2026-04-11T14:32:44.999Z</time></trkpt><trkpt lat="36.89443752476815" lon="14.999270610974452"><ele>257.5</ele><time>2026-04-11T14:32:45.999Z</time></trkpt><trkpt lat="36.89453042657729" lon="14.999368848406196"><ele>258.0</ele><time>2026-04-11T14:32:46.999Z</time></trkpt><trkpt lat="36.89464016452871" lon="14.999477686308627"><ele>258.5</ele><time>2026-04-11T14:32:47.999Z</time></trkpt><trkpt lat="36.89475021583479" lon="14.999582926359256"><ele>259.0</ele><time>2026-04-11T14:32:48.999Z</time></trkpt><trkpt lat="36.894842067184975" lon="14.999668432375325"><ele>259.0</ele><time>2026-04-11T14:32:49.999Z</time></trkpt><trkpt lat="36.8949143470016" lon="14.999757048751398"><ele>259.0</ele><time>2026-04-11T14:32:50.999Z</time></trkpt><trkpt lat="36.894972908261074" lon="14.999842797033242"><ele>259.0</ele><time>2026-04-11T14:32:51.999Z</time></trkpt><trkpt lat="36.895013979525324" lon="14.999935678543116"><ele>259.0</ele><time>2026-04-11T14:32:52.999Z</time></trkpt><trkpt lat="36.89505031883639" lon="15.00005690256778"><ele>259.0</ele><time>2026-04-11T14:32:53.999Z</time></trkpt><trkpt lat="36.89509869020913" lon="15.000202088453623"><ele>260.75</ele><time>2026-04-11T14:32:54.999Z</time></trkpt><trkpt lat="36.89516071607359" lon="15.000351727873396"><ele>262.5</ele><time>2026-04-11T14:32:55.999Z</time></trkpt><trkpt lat="36.895219901873304" lon="15.000490474046345"><ele>264.25</ele><time>2026-04-11T14:32:56.999Z</time></trkpt><trkpt lat="36.89523705841467" lon="15.000608612262125"><ele>266.0</ele><time>2026-04-11T14:32:57.999Z</time></trkpt><trkpt lat="36.89524175925065" lon="15.000733377221527"><ele>265.5</ele><time>2026-04-11T14:32:58.999Z</time></trkpt><trkpt lat="36.895223404157036" lon="15.000883269852093"><ele>265.0</ele><time>2026-04-11T14:32:59.999Z</time></trkpt><trkpt lat="36.89521679778424" lon="15.001053823747252"><ele>264.5</ele><time>2026-04-11T14:33:00.999Z</time></trkpt><trkpt lat="36.89522764338632" lon="15.00122054687102"><ele>264.0</ele><time>2026-04-11T14:33:01.999Z</time></trkpt><trkpt lat="36.89526065522927" lon="15.001376145153904"><ele>264.0</ele><time>2026-04-11T14:33:02.999Z</time></trkpt><trkpt lat="36.89531981796556" lon="15.00151190345463"><ele>264.0</ele><time>2026-04-11T14:33:03.999Z</time></trkpt><trkpt lat="36.89536839450501" lon="15.001648789655345"><ele>264.0</ele><time>2026-04-11T14:33:04.999Z</time></trkpt><trkpt lat="36.89541809961447" lon="15.001792613120132"><ele>264.0</ele><time>2026-04-11T14:33:05.999Z</time></trkpt><trkpt lat="36.89548771682984" lon="15.00193291156223"><ele>263.25</ele><time>2026-04-11T14:33:06.999Z</time></trkpt><trkpt lat="36.89556671785151" lon="15.00206433957042"><ele>262.5</ele><time>2026-04-11T14:33:07.999Z</time></trkpt><trkpt lat="36.89563955988822" lon="15.002185531466413"><ele>261.75</ele><time>2026-04-11T14:33:08.999Z</time></trkpt><trkpt lat="36.89570919810832" lon="15.002286691969315"><ele>261.0</ele><time>2026-04-11T14:33:09.999Z</time></trkpt><trkpt lat="36.89578597810011" lon="15.002361220568725"><ele>261.0</ele><time>2026-04-11T14:33:10.999Z</time></trkpt><trkpt lat="36.89586892881993" lon="15.002419338674342"><ele>261.0</ele><time>2026-04-11T14:33:11.999Z</time></trkpt><trkpt lat="36.895946285374784" lon="15.002487749442675"><ele>261.0</ele><time>2026-04-11T14:33:12.999Z</time></trkpt><trkpt lat="36.89601030087614" lon="15.0025812156764"><ele>261.0</ele><time>2026-04-11T14:33:13.999Z</time></trkpt><trkpt lat="36.896094391333065" lon="15.002681036754241"><ele>261.0</ele><time>2026-04-11T14:33:14.999Z</time></trkpt><trkpt lat="36.896163319922294" lon="15.002745684652549"><ele>261.5</ele><time>2026-04-11T14:33:15.999Z</time></trkpt><trkpt lat="36.8962178892125" lon="15.002807366776471"><ele>262.0</ele><time>2026-04-11T14:33:16.999Z</time></trkpt><trkpt lat="36.89626515708711" lon="15.00288818337674"><ele>262.5</ele><time>2026-04-11T14:33:17.999Z</time></trkpt><trkpt lat="36.8963284789292" lon="15.002978276858189"><ele>263.0</ele><time>2026-04-11T14:33:18.999Z</time></trkpt><trkpt lat="36.89638551135615" lon="15.003045628229758"><ele>263.5</ele><time>2026-04-11T14:33:19.999Z</time></trkpt><trkpt lat="36.896436239244814" lon="15.003096487330538"><ele>264.0</ele><time>2026-04-11T14:33:20.999Z</time></trkpt><trkpt lat="36.89651244780789" lon="15.003172828936075"><ele>264.0</ele><time>2026-04-11T14:33:22.999Z</time></trkpt><trkpt lat="36.89662102339995" lon="15.003281158535843"><ele>264.0</ele><time>2026-04-11T14:33:24.999Z</time></trkpt><trkpt lat="36.89670422137584" lon="15.003308672754539"><ele>264.0</ele><time>2026-04-11T14:33:25.999Z</time></trkpt><trkpt lat="36.896776880882484" lon="15.003343487264797"><ele>264.0</ele><time>2026-04-11T14:33:26.999Z</time></trkpt><trkpt lat="36.89684702773835" lon="15.003388722014819"><ele>264.0</ele><time>2026-04-11T14:33:27.999Z</time></trkpt><trkpt lat="36.896917126936" lon="15.003442314782752"><ele>261.3333333333333</ele><time>2026-04-11T14:33:28.999Z</time></trkpt><trkpt lat="36.89698312521244" lon="15.00350176934456"><ele>258.6666666666667</ele><time>2026-04-11T14:33:29.999Z</time></trkpt><trkpt lat="36.897036377661166" lon="15.003592195994278"><ele>256.0</ele><time>2026-04-11T14:33:30.999Z</time></trkpt><trkpt lat="36.897091959228334" lon="15.003665265351254"><ele>253.33333333333334</ele><time>2026-04-11T14:33:31.999Z</time></trkpt><trkpt lat="36.89714291848423" lon="15.003721882020551"><ele>250.66666666666669</ele><time>2026-04-11T14:33:32.999Z</time></trkpt><trkpt lat="36.89720116314399" lon="15.003765849986376"><ele>248.0</ele><time>2026-04-11T14:33:33.999Z</time></trkpt><trkpt lat="36.8972571644796" lon="15.003822254767694"><ele>248.0</ele><time>2026-04-11T14:33:35Z</time></trkpt><trkpt lat="36.8973035326284" lon="15.00388845864871"><ele>248.00000000000003</ele><time>2026-04-11T14:33:36Z</time></trkpt><trkpt lat="36.89735565727141" lon="15.003945238232333"><ele>248.0</ele><time>2026-04-11T14:33:37Z</time></trkpt><trkpt lat="36.897410516136674" lon="15.004004692178476"><ele>248.0</ele><time>2026-04-11T14:33:38Z</time></trkpt><trkpt lat="36.89745908722086" lon="15.004071038241293"><ele>248.00000000000003</ele><time>2026-04-11T14:33:39Z</time></trkpt><trkpt lat="36.89750730970962" lon="15.004142599875955"><ele>248.0</ele><time>2026-04-11T14:33:40Z</time></trkpt><trkpt lat="36.89755235738636" lon="15.004235857849453"><ele>248.0</ele><time>2026-04-11T14:33:41Z</time></trkpt><trkpt lat="36.89760162646046" lon="15.00434300894745"><ele>245.85714285714286</ele><time>2026-04-11T14:33:42Z</time></trkpt><trkpt lat="36.897640487620265" lon="15.004430962738207"><ele>243.71428571428572</ele><time>2026-04-11T14:33:43Z</time></trkpt><trkpt lat="36.89768357287572" lon="15.004500044523068"><ele>241.57142857142858</ele><time>2026-04-11T14:33:44Z</time></trkpt><trkpt lat="36.8977260268991" lon="15.00458045802955"><ele>239.42857142857144</ele><time>2026-04-11T14:33:45Z</time></trkpt><trkpt lat="36.89775876218166" lon="15.004663422321915"><ele>237.28571428571428</ele><time>2026-04-11T14:33:46Z</time></trkpt><trkpt lat="36.89779354761945" lon="15.004740356327018"><ele>235.14285714285717</ele><time>2026-04-11T14:33:47Z</time></trkpt><trkpt lat="36.89783451609823" lon="15.004815763295804"><ele>233.0</ele><time>2026-04-11T14:33:48Z</time></trkpt><trkpt lat="36.897885507444784" lon="15.004875858023434"><ele>233.00000000000003</ele><time>2026-04-11T14:33:49Z</time></trkpt><trkpt lat="36.897937286155766" lon="15.004942512864886"><ele>233.0</ele><time>2026-04-11T14:33:50Z</time></trkpt><trkpt lat="36.89798262297829" lon="15.005001809961657"><ele>233.0</ele><time>2026-04-11T14:33:51Z</time></trkpt><trkpt lat="36.898014247043115" lon="15.005161845414873"><ele>233.0</ele><time>2026-04-11T14:33:53Z</time></trkpt><trkpt lat="36.89801366786963" lon="15.005275838594208"><ele>233.00000000000003</ele><time>2026-04-11T14:33:54Z</time></trkpt><trkpt lat="36.89799775906743" lon="15.00536619290488"><ele>233.0</ele><time>2026-04-11T14:33:55Z</time></trkpt><trkpt lat="36.89799755945092" lon="15.005458070215388"><ele>232.60000000000002</ele><time>2026-04-11T14:33:56Z</time></trkpt><trkpt lat="36.8980126402081" lon="15.00557290360647"><ele>232.20000000000002</ele><time>2026-04-11T14:33:57Z</time></trkpt><trkpt lat="36.89803751760144" lon="15.00568988526218"><ele>231.8</ele><time>2026-04-11T14:33:58Z</time></trkpt><trkpt lat="36.89801710846375" lon="15.005822711235245"><ele>231.4</ele><time>2026-04-11T14:33:59Z</time></trkpt><trkpt lat="36.89804019051987" lon="15.005939270982994"><ele>231.0</ele><time>2026-04-11T14:34:00Z</time></trkpt><trkpt lat="36.8980656082929" lon="15.006033349024854"><ele>230.83333333333334</ele><time>2026-04-11T14:34:01Z</time></trkpt><trkpt lat="36.8980931297216" lon="15.00612328977358"><ele>230.66666666666669</ele><time>2026-04-11T14:34:02Z</time></trkpt><trkpt lat="36.89812051812957" lon="15.006210072262043"><ele>230.5</ele><time>2026-04-11T14:34:03Z</time></trkpt><trkpt lat="36.89815138346939" lon="15.006303691934107"><ele>230.33333333333334</ele><time>2026-04-11T14:34:05Z</time></trkpt><trkpt lat="36.898190949026564" lon="15.006413480312881"><ele>230.16666666666669</ele><time>2026-04-11T14:34:10Z</time></trkpt><trkpt lat="36.89823726605156" lon="15.006469730981761"><ele>230.0</ele><time>2026-04-11T14:34:11Z</time></trkpt><trkpt lat="36.89830121472491" lon="15.006607439707398"><ele>229.66666666666669</ele><time>2026-04-11T14:34:13Z</time></trkpt><trkpt lat="36.89834979397344" lon="15.006675442742953"><ele>229.33333333333334</ele><time>2026-04-11T14:34:14Z</time></trkpt><trkpt lat="36.89839037020177" lon="15.006749423919983"><ele>229.0</ele><time>2026-04-11T14:34:15Z</time></trkpt><trkpt lat="36.89844268031066" lon="15.006833660660847"><ele>228.66666666666669</ele><time>2026-04-11T14:34:16Z</time></trkpt><trkpt lat="36.898503503605795" lon="15.006920812888314"><ele>228.33333333333334</ele><time>2026-04-11T14:34:17Z</time></trkpt><trkpt lat="36.89856214822644" lon="15.00700761549111"><ele>228.0</ele><time>2026-04-11T14:34:18Z</time></trkpt><trkpt lat="36.89859560159841" lon="15.00708607181932"><ele>229.16666666666666</ele><time>2026-04-11T14:34:19Z</time></trkpt><trkpt lat="36.898641270848785" lon="15.007166889855691"><ele>230.33333333333331</ele><time>2026-04-11T14:34:20Z</time></trkpt><trkpt lat="36.89869177919907" lon="15.007252066232278"><ele>231.5</ele><time>2026-04-11T14:34:21Z</time></trkpt><trkpt lat="36.898740242991245" lon="15.00733159654532"><ele>232.66666666666666</ele><time>2026-04-11T14:34:22Z</time></trkpt><trkpt lat="36.89879914311376" lon="15.007397266519149"><ele>233.83333333333331</ele><time>2026-04-11T14:34:23Z</time></trkpt><trkpt lat="36.89886327293762" lon="15.00745911741464"><ele>235.0</ele><time>2026-04-11T14:34:24Z</time></trkpt><trkpt lat="36.89893476056093" lon="15.007542513492837"><ele>235.0</ele><time>2026-04-11T14:34:25Z</time></trkpt><trkpt lat="36.89900700174439" lon="15.007605888313554"><ele>235.0</ele><time>2026-04-11T14:34:26Z</time></trkpt><trkpt lat="36.89912235995987" lon="15.007648927643169"><ele>235.0</ele><time>2026-04-11T14:34:28Z</time></trkpt><trkpt lat="36.89924574905958" lon="15.007693370699878"><ele>235.0</ele><time>2026-04-11T14:34:29.999Z</time></trkpt><trkpt lat="36.89930342335437" lon="15.00775331268902"><ele>235.0</ele><time>2026-04-11T14:34:35.999Z</time></trkpt><trkpt lat="36.89937553905158" lon="15.007796829752747"><ele>235.16666666666666</ele><time>2026-04-11T14:34:43.999Z</time></trkpt><trkpt lat="36.89943140063706" lon="15.007861822528193"><ele>235.33333333333331</ele><time>2026-04-11T14:34:45.999Z</time></trkpt><trkpt lat="36.899485704930356" lon="15.007942343699543"><ele>235.5</ele><time>2026-04-11T14:34:46.999Z</time></trkpt><trkpt lat="36.899541118686834" lon="15.008049622246743"><ele>235.66666666666669</ele><time>2026-04-11T14:34:47.999Z</time></trkpt><trkpt lat="36.89957791721229" lon="15.008116884110404"><ele>235.83333333333334</ele><time>2026-04-11T14:34:48.999Z</time></trkpt><trkpt lat="36.899615153959154" lon="15.008183767894906"><ele>236.0</ele><time>2026-04-11T14:34:49.999Z</time></trkpt><trkpt lat="36.89965355583683" lon="15.008278798667558"><ele>235.33333333333334</ele><time>2026-04-11T14:34:50.999Z</time></trkpt><trkpt lat="36.899686172379255" lon="15.00837630127917"><ele>234.66666666666669</ele><time>2026-04-11T14:34:51.999Z</time></trkpt><trkpt lat="36.899711844686344" lon="15.008466351626891"><ele>234.0</ele><time>2026-04-11T14:34:52.999Z</time></trkpt><trkpt lat="36.89972778923229" lon="15.00854771572672"><ele>233.33333333333331</ele><time>2026-04-11T14:34:53.999Z</time></trkpt><trkpt lat="36.899735865040455" lon="15.008632145918668"><ele>232.66666666666666</ele><time>2026-04-11T14:34:54.999Z</time></trkpt><trkpt lat="36.89975720037487" lon="15.008786205875547"><ele>232.0</ele><time>2026-04-11T14:34:56.999Z</time></trkpt><trkpt lat="36.89978123413199" lon="15.008883102468692"><ele>232.0</ele><time>2026-04-11T14:34:57.999Z</time></trkpt><trkpt lat="36.899826365798454" lon="15.008995280774469"><ele>232.0</ele><time>2026-04-11T14:34:58.999Z</time></trkpt><trkpt lat="36.89986607488956" lon="15.009105211474441"><ele>232.0</ele><time>2026-04-11T14:34:59.999Z</time></trkpt><trkpt lat="36.89990830042594" lon="15.00920165616865"><ele>232.0</ele><time>2026-04-11T14:35:00.999Z</time></trkpt><trkpt lat="36.899950058033326" lon="15.009314620656951"><ele>232.0</ele><time>2026-04-11T14:35:01.999Z</time></trkpt><trkpt lat="36.89999342127388" lon="15.009467499475242"><ele>231.66666666666666</ele><time>2026-04-11T14:35:02.999Z</time></trkpt><trkpt lat="36.900043337673665" lon="15.009599166592746"><ele>231.33333333333331</ele><time>2026-04-11T14:35:03.999Z</time></trkpt><trkpt lat="36.90007836348534" lon="15.009697179396383"><ele>231.0</ele><time>2026-04-11T14:35:04.999Z</time></trkpt><trkpt lat="36.90010399420163" lon="15.009783110832336"><ele>230.66666666666669</ele><time>2026-04-11T14:35:05.999Z</time></trkpt><trkpt lat="36.90013916837984" lon="15.009875045356765"><ele>230.33333333333334</ele><time>2026-04-11T14:35:06.999Z</time></trkpt><trkpt lat="36.90018377537453" lon="15.0099416254525"><ele>230.0</ele><time>2026-04-11T14:35:07.999Z</time></trkpt><trkpt lat="36.90022095865145" lon="15.010043906560167"><ele>229.66666666666669</ele><time>2026-04-11T14:35:10.999Z</time></trkpt><trkpt lat="36.90019456040902" lon="15.010137142515905"><ele>229.33333333333334</ele><time>2026-04-11T14:35:11.999Z</time></trkpt><trkpt lat="36.90019128261704" lon="15.010250872447486"><ele>229.0</ele><time>2026-04-11T14:35:12.999Z</time></trkpt><trkpt lat="36.90022180434315" lon="15.010360282325"><ele>228.66666666666669</ele><time>2026-04-11T14:35:13.999Z</time></trkpt><trkpt lat="36.90024340062745" lon="15.010450109784111"><ele>228.33333333333334</ele><time>2026-04-11T14:35:14.999Z</time></trkpt><trkpt lat="36.900260047442664" lon="15.010545572963132"><ele>228.0</ele><time>2026-04-11T14:35:15.999Z</time></trkpt><trkpt lat="36.900279656217705" lon="15.010640260384598"><ele>228.0</ele><time>2026-04-11T14:35:16.999Z</time></trkpt><trkpt lat="36.90031973683514" lon="15.010748681407296"><ele>228.0</ele><time>2026-04-11T14:35:17.999Z</time></trkpt><trkpt lat="36.90035296413727" lon="15.010855677429987"><ele>228.0</ele><time>2026-04-11T14:35:18.999Z</time></trkpt><trkpt lat="36.9003525141924" lon="15.010936993333829"><ele>228.0</ele><time>2026-04-11T14:35:19.999Z</time></trkpt><trkpt lat="36.900372258646726" lon="15.011102859261934"><ele>228.0</ele><time>2026-04-11T14:35:21.999Z</time></trkpt><trkpt lat="36.900385944570274" lon="15.011240428563765"><ele>228.0</ele><time>2026-04-11T14:35:23.999Z</time></trkpt><trkpt lat="36.90042735356928" lon="15.011355250557974"><ele>228.0</ele><time>2026-04-11T14:35:25.999Z</time></trkpt><trkpt lat="36.90048924508366" lon="15.011518396140396"><ele>228.0</ele><time>2026-04-11T14:35:27.999Z</time></trkpt><trkpt lat="36.900509571033105" lon="15.011608993800214"><ele>228.0</ele><time>2026-04-11T14:35:28.999Z</time></trkpt><trkpt lat="36.900526641941816" lon="15.011748959676266"><ele>228.0</ele><time>2026-04-11T14:35:30.999Z</time></trkpt><trkpt lat="36.900505340078944" lon="15.011932679604962"><ele>228.0</ele><time>2026-04-11T14:35:32.999Z</time></trkpt><trkpt lat="36.90050939893195" lon="15.012072330467959"><ele>228.0</ele><time>2026-04-11T14:35:33.999Z</time></trkpt><trkpt lat="36.90053820328761" lon="15.01219599950552"><ele>228.0</ele><time>2026-04-11T14:35:34.999Z</time></trkpt><trkpt lat="36.90056786996309" lon="15.012317980447172"><ele>228.0</ele><time>2026-04-11T14:35:35.999Z</time></trkpt><trkpt lat="36.90059202369795" lon="15.012452118032696"><ele>228.0</ele><time>2026-04-11T14:35:36.999Z</time></trkpt><trkpt lat="36.90063132543066" lon="15.012593221173814"><ele>228.5</ele><time>2026-04-11T14:35:37.999Z</time></trkpt><trkpt lat="36.90067713078747" lon="15.012729085513826"><ele>229.0</ele><time>2026-04-11T14:35:38.999Z</time></trkpt><trkpt lat="36.90075660772917" lon="15.012889594511835"><ele>229.5</ele><time>2026-04-11T14:35:39.999Z</time></trkpt><trkpt lat="36.900836441071625" lon="15.013052510477035"><ele>230.0</ele><time>2026-04-11T14:35:41Z</time></trkpt><trkpt lat="36.90090983723316" lon="15.013226274910862"><ele>234.0</ele><time>2026-04-11T14:35:42Z</time></trkpt><trkpt lat="36.900983519881535" lon="15.013404738845242"><ele>238.0</ele><time>2026-04-11T14:35:43Z</time></trkpt><trkpt lat="36.90106244196475" lon="15.013575190513864"><ele>242.0</ele><time>2026-04-11T14:35:44Z</time></trkpt><trkpt lat="36.901160583697276" lon="15.013746066891024"><ele>242.0</ele><time>2026-04-11T14:35:45Z</time></trkpt><trkpt lat="36.90127619166703" lon="15.013937489964206"><ele>242.0</ele><time>2026-04-11T14:35:46Z</time></trkpt><trkpt lat="36.90138643994451" lon="15.014137327610772"><ele>242.0</ele><time>2026-04-11T14:35:47Z</time></trkpt><trkpt lat="36.90147581647599" lon="15.014320304577552"><ele>239.66666666666669</ele><time>2026-04-11T14:35:48Z</time></trkpt><trkpt lat="36.90154692558731" lon="15.014480016555732"><ele>237.33333333333331</ele><time>2026-04-11T14:35:49Z</time></trkpt><trkpt lat="36.90161097651404" lon="15.014649626404653"><ele>235.0</ele><time>2026-04-11T14:35:50Z</time></trkpt><trkpt lat="36.90170612810461" lon="15.014833188246593"><ele>235.5</ele><time>2026-04-11T14:35:51Z</time></trkpt><trkpt lat="36.901791969537314" lon="15.014999838577214"><ele>236.0</ele><time>2026-04-11T14:35:52Z</time></trkpt><trkpt lat="36.901882826001724" lon="15.015151852407591"><ele>236.5</ele><time>2026-04-11T14:35:53Z</time></trkpt><trkpt lat="36.90195694120992" lon="15.015289761484992"><ele>237.0</ele><time>2026-04-11T14:35:54Z</time></trkpt><trkpt lat="36.90202179584895" lon="15.015414131194602"><ele>237.0</ele><time>2026-04-11T14:35:55Z</time></trkpt><trkpt lat="36.90207966388766" lon="15.015529962104102"><ele>237.0</ele><time>2026-04-11T14:35:56Z</time></trkpt><trkpt lat="36.90212958087936" lon="15.015631850672822"><ele>237.0</ele><time>2026-04-11T14:35:57Z</time></trkpt><trkpt lat="36.90217865988397" lon="15.015717301173467"><ele>237.0</ele><time>2026-04-11T14:35:58Z</time></trkpt><trkpt lat="36.902223960496435" lon="15.015791216722162"><ele>237.0</ele><time>2026-04-11T14:35:59Z</time></trkpt><trkpt lat="36.90223122527958" lon="15.015874135637892"><ele>237.0</ele><time>2026-04-11T14:36:00Z</time></trkpt><trkpt lat="36.90233617918541" lon="15.015965454980012"><ele>235.0</ele><time>2026-04-11T14:36:02Z</time></trkpt><trkpt lat="36.902409356234365" lon="15.016015341699575"><ele>233.0</ele><time>2026-04-11T14:36:03Z</time></trkpt><trkpt lat="36.9024969446176" lon="15.016033421005604"><ele>231.0</ele><time>2026-04-11T14:36:04Z</time></trkpt><trkpt lat="36.90256615267062" lon="15.0160593032437"><ele>229.0</ele><time>2026-04-11T14:36:05Z</time></trkpt><trkpt lat="36.90265617278012" lon="15.016055615528918"><ele>227.0</ele><time>2026-04-11T14:36:06Z</time></trkpt><trkpt lat="36.902766643267505" lon="15.01605399217107"><ele>225.0</ele><time>2026-04-11T14:36:07Z</time></trkpt><trkpt lat="36.902882476949344" lon="15.016111080460247"><ele>225.0</ele><time>2026-04-11T14:36:08Z</time></trkpt><trkpt lat="36.90299101096147" lon="15.016194838515354"><ele>225.0</ele><time>2026-04-11T14:36:09Z</time></trkpt><trkpt lat="36.90309459004652" lon="15.016298193221848"><ele>225.0</ele><time>2026-04-11T14:36:10Z</time></trkpt><trkpt lat="36.903193295477344" lon="15.016415387896771"><ele>225.0</ele><time>2026-04-11T14:36:11Z</time></trkpt><trkpt lat="36.9033010581097" lon="15.016554409912784"><ele>223.33333333333331</ele><time>2026-04-11T14:36:12Z</time></trkpt><trkpt lat="36.90342066415453" lon="15.016707340895534"><ele>221.66666666666666</ele><time>2026-04-11T14:36:13Z</time></trkpt><trkpt lat="36.90354497282405" lon="15.016850064035578"><ele>220.0</ele><time>2026-04-11T14:36:14Z</time></trkpt><trkpt lat="36.90365034666457" lon="15.016963984156833"><ele>220.0</ele><time>2026-04-11T14:36:15Z</time></trkpt><trkpt lat="36.90374395293094" lon="15.017061683921325"><ele>220.0</ele><time>2026-04-11T14:36:16Z</time></trkpt><trkpt lat="36.90382078093624" lon="15.017156027399666"><ele>220.0</ele><time>2026-04-11T14:36:17Z</time></trkpt><trkpt lat="36.90387986417846" lon="15.017236378932123"><ele>220.0</ele><time>2026-04-11T14:36:18Z</time></trkpt><trkpt lat="36.90381640544476" lon="15.01730671233009"><ele>220.0</ele><time>2026-04-11T14:36:21Z</time></trkpt><trkpt lat="36.90370186098164" lon="15.017350367178711"><ele>220.0</ele><time>2026-04-11T14:36:23Z</time></trkpt><trkpt lat="36.90360365938607" lon="15.017327383469746"><ele>220.0</ele><time>2026-04-11T14:36:24Z</time></trkpt><trkpt lat="36.90352894271129" lon="15.017326935992367"><ele>220.0</ele><time>2026-04-11T14:36:25Z</time></trkpt><trkpt lat="36.90343116986932" lon="15.017349784898993"><ele>220.0</ele><time>2026-04-11T14:36:27Z</time></trkpt><trkpt lat="36.90342844661533" lon="15.017462304619356"><ele>220.0</ele><time>2026-04-11T14:36:27.999Z</time></trkpt><trkpt lat="36.9034462662854" lon="15.017571649078231"><ele>220.8</ele><time>2026-04-11T14:36:29.999Z</time></trkpt><trkpt lat="36.90346700554467" lon="15.017655818590477"><ele>221.6</ele><time>2026-04-11T14:36:30.999Z</time></trkpt><trkpt lat="36.903595370179545" lon="15.017664060571756"><ele>222.39999999999998</ele><time>2026-04-11T14:36:31.999Z</time></trkpt><trkpt lat="36.90370548334234" lon="15.01768969282124"><ele>223.2</ele><time>2026-04-11T14:36:32.999Z</time></trkpt><trkpt lat="36.903798225358514" lon="15.017706441584421"><ele>224.0</ele><time>2026-04-11T14:36:33.999Z</time></trkpt><trkpt lat="36.90390031257611" lon="15.017795331939118"><ele>224.0</ele><time>2026-04-11T14:36:35.999Z</time></trkpt><trkpt lat="36.90396668093984" lon="15.017918512167707"><ele>224.0</ele><time>2026-04-11T14:36:36.999Z</time></trkpt><trkpt lat="36.90408102127556" lon="15.01802062703193"><ele>224.0</ele><time>2026-04-11T14:36:37.999Z</time></trkpt><trkpt lat="36.90421465253555" lon="15.018122353902866"><ele>224.0</ele><time>2026-04-11T14:36:38.999Z</time></trkpt><trkpt lat="36.90431837101692" lon="15.018254814814027"><ele>227.5</ele><time>2026-04-11T14:36:39.999Z</time></trkpt><trkpt lat="36.90437292437167" lon="15.01836984227818"><ele>231.0</ele><time>2026-04-11T14:36:40.999Z</time></trkpt><trkpt lat="36.90441409193467" lon="15.018514276057855"><ele>234.5</ele><time>2026-04-11T14:36:41.999Z</time></trkpt><trkpt lat="36.90445722873883" lon="15.01867571340977"><ele>238.0</ele><time>2026-04-11T14:36:42.999Z</time></trkpt><trkpt lat="36.90446867942041" lon="15.018812560997604"><ele>238.0</ele><time>2026-04-11T14:36:43.999Z</time></trkpt><trkpt lat="36.9044116429295" lon="15.018904703710607"><ele>238.0</ele><time>2026-04-11T14:36:44.999Z</time></trkpt><trkpt lat="36.90439533391105" lon="15.019059762517744"><ele>238.0</ele><time>2026-04-11T14:36:45.999Z</time></trkpt><trkpt lat="36.90440802796284" lon="15.019233893600866"><ele>238.0</ele><time>2026-04-11T14:36:46.999Z</time></trkpt><trkpt lat="36.90440685083864" lon="15.019444118439809"><ele>242.33333333333331</ele><time>2026-04-11T14:36:47.999Z</time></trkpt><trkpt lat="36.904391567757756" lon="15.019662807036115"><ele>246.66666666666669</ele><time>2026-04-11T14:36:48.999Z</time></trkpt><trkpt lat="36.904371530373666" lon="15.019854981797204"><ele>251.0</ele><time>2026-04-11T14:36:49.999Z</time></trkpt><trkpt lat="36.90434799907352" lon="15.02000137841662"><ele>251.4</ele><time>2026-04-11T14:36:50.999Z</time></trkpt><trkpt lat="36.904319426914334" lon="15.020091330374527"><ele>251.8</ele><time>2026-04-11T14:36:51.999Z</time></trkpt><trkpt lat="36.904319323251016" lon="15.02021462063419"><ele>252.20000000000002</ele><time>2026-04-11T14:36:52.999Z</time></trkpt><trkpt lat="36.90421739454907" lon="15.020308834642808"><ele>252.60000000000002</ele><time>2026-04-11T14:36:53.999Z</time></trkpt><trkpt lat="36.90413267756313" lon="15.02039891203375"><ele>253.0</ele><time>2026-04-11T14:36:54.999Z</time></trkpt><trkpt lat="36.904056300286584" lon="15.020485622651233"><ele>253.0</ele><time>2026-04-11T14:36:55.999Z</time></trkpt><trkpt lat="36.90398915390274" lon="15.02058319937625"><ele>253.0</ele><time>2026-04-11T14:36:56.999Z</time></trkpt><trkpt lat="36.903943518518105" lon="15.020684537084994"><ele>253.0</ele><time>2026-04-11T14:36:57.999Z</time></trkpt><trkpt lat="36.90387542294027" lon="15.0208254831882"><ele>253.0</ele><time>2026-04-11T14:36:58.999Z</time></trkpt><trkpt lat="36.90376103332944" lon="15.020910072519138"><ele>255.99999999999997</ele><time>2026-04-11T14:36:59.999Z</time></trkpt><trkpt lat="36.90370926891202" lon="15.021019572987587"><ele>259.0</ele><time>2026-04-11T14:37:00.999Z</time></trkpt><trkpt lat="36.90367990183726" lon="15.02109874729913"><ele>262.0</ele><time>2026-04-11T14:37:02.999Z</time></trkpt><trkpt lat="36.903691172959334" lon="15.021184326743105"><ele>265.0</ele><time>2026-04-11T14:37:49Z</time></trkpt><trkpt lat="36.9036608810314" lon="15.021276922836737"><ele>268.0</ele><time>2026-04-11T14:37:53Z</time></trkpt><trkpt lat="36.9036400450466" lon="15.021376651491023"><ele>271.0</ele><time>2026-04-11T14:37:55Z</time></trkpt><trkpt lat="36.90363380247252" lon="15.021476263000965"><ele>271.0</ele><time>2026-04-11T14:37:57Z</time></trkpt><trkpt lat="36.903625451123126" lon="15.02157540843413"><ele>271.0</ele><time>2026-04-11T14:37:59Z</time></trkpt><trkpt lat="36.90363251015716" lon="15.021744022349914"><ele>271.0</ele><time>2026-04-11T14:38:01Z</time></trkpt><trkpt lat="36.903637017012215" lon="15.021842369458996"><ele>271.0</ele><time>2026-04-11T14:38:02Z</time></trkpt><trkpt lat="36.90364452986323" lon="15.021950112430517"><ele>271.0</ele><time>2026-04-11T14:38:03Z</time></trkpt><trkpt lat="36.90364870484044" lon="15.02208098920136"><ele>273.40000000000003</ele><time>2026-04-11T14:38:04Z</time></trkpt><trkpt lat="36.90366575260778" lon="15.022209440624417"><ele>275.8</ele><time>2026-04-11T14:38:05Z</time></trkpt><trkpt lat="36.90369558612492" lon="15.02234345475582"><ele>278.20000000000005</ele><time>2026-04-11T14:38:06Z</time></trkpt><trkpt lat="36.903745924756976" lon="15.02247643474512"><ele>280.6</ele><time>2026-04-11T14:38:07Z</time></trkpt><trkpt lat="36.903802519703945" lon="15.02259409671617"><ele>283.0</ele><time>2026-04-11T14:38:08Z</time></trkpt><trkpt lat="36.90386700134738" lon="15.022698665520737"><ele>283.2</ele><time>2026-04-11T14:38:09Z</time></trkpt><trkpt lat="36.90395089373149" lon="15.022781668202686"><ele>283.4</ele><time>2026-04-11T14:38:10Z</time></trkpt><trkpt lat="36.90405503255161" lon="15.022811605748982"><ele>283.59999999999997</ele><time>2026-04-11T14:38:11Z</time></trkpt><trkpt lat="36.90414017629365" lon="15.022885220542335"><ele>283.8</ele><time>2026-04-11T14:38:12Z</time></trkpt><trkpt lat="36.90420453777592" lon="15.022970318559699"><ele>284.0</ele><time>2026-04-11T14:38:13Z</time></trkpt><trkpt lat="36.904263989948994" lon="15.023039763337145"><ele>284.83333333333337</ele><time>2026-04-11T14:38:14Z</time></trkpt><trkpt lat="36.90431613472693" lon="15.02310477129864"><ele>285.6666666666667</ele><time>2026-04-11T14:38:15Z</time></trkpt><trkpt lat="36.90437454852504" lon="15.023163241870845"><ele>286.5</ele><time>2026-04-11T14:38:16Z</time></trkpt><trkpt lat="36.90444160990868" lon="15.02321562849865"><ele>287.3333333333333</ele><time>2026-04-11T14:38:17Z</time></trkpt><trkpt lat="36.90451170460387" lon="15.023272560871009"><ele>288.16666666666663</ele><time>2026-04-11T14:38:18Z</time></trkpt><trkpt lat="36.9045711792113" lon="15.02333598539139"><ele>289.0</ele><time>2026-04-11T14:38:19Z</time></trkpt><trkpt lat="36.90461397932469" lon="15.02340817291381"><ele>289.0</ele><time>2026-04-11T14:38:20Z</time></trkpt><trkpt lat="36.90463283378217" lon="15.023496355502694"><ele>289.0</ele><time>2026-04-11T14:38:21Z</time></trkpt><trkpt lat="36.904631455835485" lon="15.023579771641154"><ele>289.0</ele><time>2026-04-11T14:38:22Z</time></trkpt><trkpt lat="36.90461506770753" lon="15.023723511712202"><ele>289.0</ele><time>2026-04-11T14:38:24Z</time></trkpt><trkpt lat="36.90460704445039" lon="15.023805133667068"><ele>289.0</ele><time>2026-04-11T14:38:25Z</time></trkpt><trkpt lat="36.9046119497513" lon="15.023888813782236"><ele>289.0</ele><time>2026-04-11T14:38:25.999Z</time></trkpt><trkpt lat="36.904636438203305" lon="15.024028956179466"><ele>288.66666666666663</ele><time>2026-04-11T14:38:27.999Z</time></trkpt><trkpt lat="36.90467254013272" lon="15.024183014760084"><ele>288.3333333333333</ele><time>2026-04-11T14:38:29.999Z</time></trkpt><trkpt lat="36.90470683281304" lon="15.024258813239047"><ele>288.0</ele><time>2026-04-11T14:38:30.999Z</time></trkpt><trkpt lat="36.90475787551422" lon="15.024329380925572"><ele>287.6666666666667</ele><time>2026-04-11T14:38:31.999Z</time></trkpt><trkpt lat="36.90480945766722" lon="15.024412982197406"><ele>287.33333333333337</ele><time>2026-04-11T14:38:32.999Z</time></trkpt><trkpt lat="36.90488664848579" lon="15.024466548831349"><ele>287.0</ele><time>2026-04-11T14:38:33.999Z</time></trkpt><trkpt lat="36.904966311908446" lon="15.024510745967039"><ele>287.0</ele><time>2026-04-11T14:38:34.999Z</time></trkpt><trkpt lat="36.90504487580415" lon="15.024563852708939"><ele>287.0</ele><time>2026-04-11T14:38:35.999Z</time></trkpt><trkpt lat="36.90512374370098" lon="15.024618714190531"><ele>287.0</ele><time>2026-04-11T14:38:36.999Z</time></trkpt><trkpt lat="36.905202933527114" lon="15.02468152310142"><ele>287.0</ele><time>2026-04-11T14:38:37.999Z</time></trkpt><trkpt lat="36.905276306532485" lon="15.024752642354885"><ele>287.0</ele><time>2026-04-11T14:38:38.999Z</time></trkpt><trkpt lat="36.905346136430545" lon="15.024835755352106"><ele>288.4</ele><time>2026-04-11T14:38:39.999Z</time></trkpt><trkpt lat="36.90540436635002" lon="15.02493838937201"><ele>289.79999999999995</ele><time>2026-04-11T14:38:40.999Z</time></trkpt><trkpt lat="36.90546125165246" lon="15.025050823897445"><ele>291.2</ele><time>2026-04-11T14:38:41.999Z</time></trkpt><trkpt lat="36.905536338866625" lon="15.025148810307677"><ele>292.59999999999997</ele><time>2026-04-11T14:38:42.999Z</time></trkpt><trkpt lat="36.90560332182865" lon="15.025251448777173"><ele>294.0</ele><time>2026-04-11T14:38:43.999Z</time></trkpt><trkpt lat="36.90568275470624" lon="15.025341227991733"><ele>294.0</ele><time>2026-04-11T14:38:44.999Z</time></trkpt><trkpt lat="36.905776772763375" lon="15.02541978819267"><ele>294.0</ele><time>2026-04-11T14:38:45.999Z</time></trkpt><trkpt lat="36.90587618592386" lon="15.02548582317292"><ele>294.0</ele><time>2026-04-11T14:38:46.999Z</time></trkpt><trkpt lat="36.905981879066516" lon="15.025538596174483"><ele>294.0</ele><time>2026-04-11T14:38:47.999Z</time></trkpt><trkpt lat="36.90609423539264" lon="15.02557246980602"><ele>296.4</ele><time>2026-04-11T14:38:48.999Z</time></trkpt><trkpt lat="36.906208036104324" lon="15.025597460268711"><ele>298.79999999999995</ele><time>2026-04-11T14:38:49.999Z</time></trkpt><trkpt lat="36.90632173963086" lon="15.025611606995193"><ele>301.20000000000005</ele><time>2026-04-11T14:38:50.999Z</time></trkpt><trkpt lat="36.906426438216755" lon="15.025611901809766"><ele>303.6</ele><time>2026-04-11T14:38:51.999Z</time></trkpt><trkpt lat="36.9065140861272" lon="15.025616667834829"><ele>306.0</ele><time>2026-04-11T14:38:52.999Z</time></trkpt><trkpt lat="36.90657196864881" lon="15.02568912013185"><ele>306.0</ele><time>2026-04-11T14:38:53.999Z</time></trkpt><trkpt lat="36.906625926817334" lon="15.025758014551785"><ele>306.0</ele><time>2026-04-11T14:38:54.999Z</time></trkpt><trkpt lat="36.90667470576488" lon="15.025851959185587"><ele>306.0</ele><time>2026-04-11T14:38:55.999Z</time></trkpt><trkpt lat="36.90670199237519" lon="15.025963113105337"><ele>306.0</ele><time>2026-04-11T14:38:56.999Z</time></trkpt><trkpt lat="36.90673580738616" lon="15.026054660295669"><ele>306.0</ele><time>2026-04-11T14:38:57.999Z</time></trkpt><trkpt lat="36.906785189281884" lon="15.02612620019338"><ele>306.0</ele><time>2026-04-11T14:38:58.999Z</time></trkpt><trkpt lat="36.90684602725384" lon="15.026177491315629"><ele>304.40000000000003</ele><time>2026-04-11T14:38:59.999Z</time></trkpt><trkpt lat="36.90691156783548" lon="15.026205406504754"><ele>302.8</ele><time>2026-04-11T14:39:00.999Z</time></trkpt><trkpt lat="36.90697212651304" lon="15.026227351396534"><ele>301.20000000000005</ele><time>2026-04-11T14:39:01.999Z</time></trkpt><trkpt lat="36.90708221040313" lon="15.026257957465338"><ele>299.6</ele><time>2026-04-11T14:39:03.999Z</time></trkpt><trkpt lat="36.90719079778949" lon="15.026279168162153"><ele>298.0</ele><time>2026-04-11T14:39:05.999Z</time></trkpt><trkpt lat="36.90729355111218" lon="15.02629770041174"><ele>298.0</ele><time>2026-04-11T14:39:07.999Z</time></trkpt><trkpt lat="36.907392902329846" lon="15.026326669595537"><ele>298.0</ele><time>2026-04-11T14:39:09.999Z</time></trkpt><trkpt lat="36.907455648360425" lon="15.026343521638415"><ele>298.0</ele><time>2026-04-11T14:39:10.999Z</time></trkpt><trkpt lat="36.907521956030976" lon="15.026357337209328"><ele>298.0</ele><time>2026-04-11T14:39:11.999Z</time></trkpt><trkpt lat="36.907585508215384" lon="15.026364823073072"><ele>298.0</ele><time>2026-04-11T14:39:12.999Z</time></trkpt><trkpt lat="36.90770527413221" lon="15.026355768946017"><ele>298.0</ele><time>2026-04-11T14:39:14.999Z</time></trkpt><trkpt lat="36.90780284577965" lon="15.026338769621995"><ele>298.16666666666663</ele><time>2026-04-11T14:39:16.999Z</time></trkpt><trkpt lat="36.90788849044917" lon="15.026356494144794"><ele>298.3333333333333</ele><time>2026-04-11T14:39:18.999Z</time></trkpt><trkpt lat="36.90789847372669" lon="15.026490941050884"><ele>298.5</ele><time>2026-04-11T14:39:20.999Z</time></trkpt><trkpt lat="36.907887931352406" lon="15.026599318359835"><ele>298.6666666666667</ele><time>2026-04-11T14:39:22.999Z</time></trkpt><trkpt lat="36.90786139878534" lon="15.026707598832386"><ele>298.83333333333337</ele><time>2026-04-11T14:39:25.999Z</time></trkpt><trkpt lat="36.9078591407173" lon="15.02679912314852"><ele>299.0</ele><time>2026-04-11T14:39:28.999Z</time></trkpt><trkpt lat="36.90780292803583" lon="15.026959059238145"><ele>299.0</ele><time>2026-04-11T14:39:56Z</time></trkpt><trkpt lat="36.907762104256435" lon="15.027081482298254"><ele>299.0</ele><time>2026-04-11T14:39:58Z</time></trkpt><trkpt lat="36.90755037754858" lon="15.0269873315487"><ele>299.0</ele><time>2026-04-11T14:39:59Z</time></trkpt><trkpt lat="36.90749834669715" lon="15.027084073767297"><ele>299.0</ele><time>2026-04-11T14:40:00Z</time></trkpt><trkpt lat="36.907441734717864" lon="15.027265050986175"><ele>296.1666666666667</ele><time>2026-04-11T14:40:01Z</time></trkpt><trkpt lat="36.90743007620354" lon="15.02740771085498"><ele>293.33333333333337</ele><time>2026-04-11T14:40:02Z</time></trkpt><trkpt lat="36.90742583714483" lon="15.027507562372026"><ele>290.5</ele><time>2026-04-11T14:40:03Z</time></trkpt><trkpt lat="36.90741876547131" lon="15.027606963198819"><ele>287.6666666666667</ele><time>2026-04-11T14:40:04Z</time></trkpt><trkpt lat="36.90740063592076" lon="15.027697025289424"><ele>284.8333333333333</ele><time>2026-04-11T14:40:05Z</time></trkpt><trkpt lat="36.90734936007061" lon="15.027794744258019"><ele>282.0</ele><time>2026-04-11T14:40:07Z</time></trkpt><trkpt lat="36.907295999818864" lon="15.02791105657338"><ele>281.3333333333333</ele><time>2026-04-11T14:40:08Z</time></trkpt><trkpt lat="36.90723869318226" lon="15.02806420515519"><ele>280.6666666666667</ele><time>2026-04-11T14:40:09Z</time></trkpt><trkpt lat="36.90720476497259" lon="15.028170417551353"><ele>280.0</ele><time>2026-04-11T14:40:10Z</time></trkpt><trkpt lat="36.90717880852885" lon="15.02825225774275"><ele>279.33333333333337</ele><time>2026-04-11T14:40:11Z</time></trkpt><trkpt lat="36.907155394145896" lon="15.028327944330124"><ele>278.6666666666667</ele><time>2026-04-11T14:40:12Z</time></trkpt><trkpt lat="36.90713325678475" lon="15.028407192945577"><ele>278.0</ele><time>2026-04-11T14:40:13Z</time></trkpt><trkpt lat="36.90710373685927" lon="15.028542529717468"><ele>275.5</ele><time>2026-04-11T14:40:14Z</time></trkpt><trkpt lat="36.907149447402254" lon="15.029092435274565"><ele>273.0</ele><time>2026-04-11T14:40:15Z</time></trkpt><trkpt lat="36.90722741291883" lon="15.02923412516551"><ele>282.0</ele><time>2026-04-11T14:40:16Z</time></trkpt><trkpt lat="36.90773377835074" lon="15.028944146677526"><ele>282.0</ele><time>2026-04-11T14:40:19Z</time></trkpt><trkpt lat="36.907803683018756" lon="15.028973794899633"><ele>282.0</ele><time>2026-04-11T14:40:21Z</time></trkpt><trkpt lat="36.90802028750292" lon="15.029036569169785"><ele>282.0</ele><time>2026-04-11T14:40:25.999Z</time></trkpt><trkpt lat="36.90810832653186" lon="15.029002446894467"><ele>282.0</ele><time>2026-04-11T14:40:26.999Z</time></trkpt><trkpt lat="36.90822391386439" lon="15.028942778097715"><ele>282.0</ele><time>2026-04-11T14:40:27.999Z</time></trkpt><trkpt lat="36.90834647025602" lon="15.028859468384667"><ele>282.0</ele><time>2026-04-11T14:40:28.999Z</time></trkpt><trkpt lat="36.908455819658876" lon="15.028784880981407"><ele>282.0</ele><time>2026-04-11T14:40:29.999Z</time></trkpt><trkpt lat="36.908570190942065" lon="15.028706293644257"><ele>282.0</ele><time>2026-04-11T14:40:30.999Z</time></trkpt><trkpt lat="36.90868181901453" lon="15.028619210068818"><ele>281.0</ele><time>2026-04-11T14:40:31.999Z</time></trkpt><trkpt lat="36.908790019682435" lon="15.028528214732134"><ele>280.0</ele><time>2026-04-11T14:40:32.999Z</time></trkpt><trkpt lat="36.90888797746263" lon="15.028437468991998"><ele>279.0</ele><time>2026-04-11T14:40:33.999Z</time></trkpt><trkpt lat="36.90898031560127" lon="15.02834023282133"><ele>278.0</ele><time>2026-04-11T14:40:34.999Z</time></trkpt><trkpt lat="36.90908023878331" lon="15.028241824638112"><ele>281.5</ele><time>2026-04-11T14:40:35.999Z</time></trkpt><trkpt lat="36.909187434724544" lon="15.028122528611494"><ele>285.0</ele><time>2026-04-11T14:40:36.999Z</time></trkpt><trkpt lat="36.90929473104228" lon="15.027983722306947"><ele>288.5</ele><time>2026-04-11T14:40:37.999Z</time></trkpt><trkpt lat="36.909373782520156" lon="15.027873919017102"><ele>292.0</ele><time>2026-04-11T14:40:38.999Z</time></trkpt><trkpt lat="36.90946231144858" lon="15.027785197651834"><ele>292.0</ele><time>2026-04-11T14:40:39.999Z</time></trkpt><trkpt lat="36.909559826865745" lon="15.02769354439134"><ele>292.0</ele><time>2026-04-11T14:40:40.999Z</time></trkpt><trkpt lat="36.90966069861662" lon="15.027616717623992"><ele>292.0</ele><time>2026-04-11T14:40:41.999Z</time></trkpt><trkpt lat="36.9097574163869" lon="15.027564724349117"><ele>292.0</ele><time>2026-04-11T14:40:42.999Z</time></trkpt><trkpt lat="36.90987134612771" lon="15.027548941789279"><ele>292.0</ele><time>2026-04-11T14:40:43.999Z</time></trkpt><trkpt lat="36.909984274718894" lon="15.027566461000875"><ele>292.0</ele><time>2026-04-11T14:40:44.999Z</time></trkpt><trkpt lat="36.91016040283607" lon="15.027632494057674"><ele>292.0</ele><time>2026-04-11T14:40:45.999Z</time></trkpt><trkpt lat="36.91030347328049" lon="15.027633812585494"><ele>292.0</ele><time>2026-04-11T14:40:46.999Z</time></trkpt><trkpt lat="36.91040717630938" lon="15.0276280961317"><ele>292.6</ele><time>2026-04-11T14:40:47.999Z</time></trkpt><trkpt lat="36.910517518565776" lon="15.027607303648752"><ele>293.2</ele><time>2026-04-11T14:40:48.999Z</time></trkpt><trkpt lat="36.91060856177006" lon="15.027555480577629"><ele>293.8</ele><time>2026-04-11T14:40:49.999Z</time></trkpt><trkpt lat="36.910703552503165" lon="15.027484215982758"><ele>294.4</ele><time>2026-04-11T14:40:50.999Z</time></trkpt><trkpt lat="36.910801886136944" lon="15.027402298150498"><ele>295.0</ele><time>2026-04-11T14:40:51.999Z</time></trkpt><trkpt lat="36.910907710276" lon="15.027348266340931"><ele>295.0</ele><time>2026-04-11T14:40:52.999Z</time></trkpt><trkpt lat="36.910976610162955" lon="15.02727471107552"><ele>295.0</ele><time>2026-04-11T14:40:53.999Z</time></trkpt><trkpt lat="36.911027620333165" lon="15.027171665163713"><ele>295.0</ele><time>2026-04-11T14:40:54.999Z</time></trkpt><trkpt lat="36.91107722427053" lon="15.027065332276143"><ele>295.0</ele><time>2026-04-11T14:40:55.999Z</time></trkpt><trkpt lat="36.911151591085385" lon="15.02698735467141"><ele>295.0</ele><time>2026-04-11T14:40:56.999Z</time></trkpt><trkpt lat="36.91124352743104" lon="15.02692126014201"><ele>295.0</ele><time>2026-04-11T14:40:57.999Z</time></trkpt><trkpt lat="36.911334587745316" lon="15.026866070743262"><ele>295.0</ele><time>2026-04-11T14:40:58.999Z</time></trkpt><trkpt lat="36.911440304195466" lon="15.026828374561955"><ele>295.0</ele><time>2026-04-11T14:40:59.999Z</time></trkpt><trkpt lat="36.91156228230926" lon="15.026794565636411"><ele>295.0</ele><time>2026-04-11T14:41:00.999Z</time></trkpt><trkpt lat="36.911679600055884" lon="15.026747605879665"><ele>294.75</ele><time>2026-04-11T14:41:01.999Z</time></trkpt><trkpt lat="36.91181098002348" lon="15.026737709813528"><ele>294.5</ele><time>2026-04-11T14:41:02.999Z</time></trkpt><trkpt lat="36.91194604894112" lon="15.026751018985577"><ele>294.25</ele><time>2026-04-11T14:41:03.999Z</time></trkpt><trkpt lat="36.91206687410013" lon="15.026747565445108"><ele>294.0</ele><time>2026-04-11T14:41:04.999Z</time></trkpt><trkpt lat="36.91218764184538" lon="15.026724446588068"><ele>294.0</ele><time>2026-04-11T14:41:05.999Z</time></trkpt><trkpt lat="36.912317730139705" lon="15.02669962943579"><ele>294.0</ele><time>2026-04-11T14:41:06.999Z</time></trkpt><trkpt lat="36.91245362387303" lon="15.026683165750605"><ele>294.0</ele><time>2026-04-11T14:41:07.999Z</time></trkpt><trkpt lat="36.91258148499692" lon="15.026638183931412"><ele>294.0</ele><time>2026-04-11T14:41:08.999Z</time></trkpt><trkpt lat="36.912711455181494" lon="15.026582031440041"><ele>300.0</ele><time>2026-04-11T14:41:09.999Z</time></trkpt><trkpt lat="36.912844049176606" lon="15.026517594965176"><ele>306.0</ele><time>2026-04-11T14:41:10.999Z</time></trkpt><trkpt lat="36.912988557214" lon="15.026447202989921"><ele>312.0</ele><time>2026-04-11T14:41:11.999Z</time></trkpt><trkpt lat="36.91314041845646" lon="15.026375888299043"><ele>312.0</ele><time>2026-04-11T14:41:12.999Z</time></trkpt><trkpt lat="36.91329115088589" lon="15.026313705957385"><ele>312.0</ele><time>2026-04-11T14:41:13.999Z</time></trkpt><trkpt lat="36.91344146860374" lon="15.026245094726873"><ele>312.0</ele><time>2026-04-11T14:41:14.999Z</time></trkpt><trkpt lat="36.913569053766146" lon="15.026130357175933"><ele>310.5</ele><time>2026-04-11T14:41:15.999Z</time></trkpt><trkpt lat="36.913713327976026" lon="15.026079258175407"><ele>309.0</ele><time>2026-04-11T14:41:16.999Z</time></trkpt><trkpt lat="36.91384421893556" lon="15.026058133151198"><ele>307.5</ele><time>2026-04-11T14:41:17.999Z</time></trkpt><trkpt lat="36.91396784235669" lon="15.0260239499555"><ele>306.0</ele><time>2026-04-11T14:41:18.999Z</time></trkpt><trkpt lat="36.9141004392326" lon="15.025996478896698"><ele>306.0</ele><time>2026-04-11T14:41:19.999Z</time></trkpt><trkpt lat="36.91422954679972" lon="15.025983271091048"><ele>306.0</ele><time>2026-04-11T14:41:20.999Z</time></trkpt><trkpt lat="36.91435553513843" lon="15.025970211972606"><ele>306.0</ele><time>2026-04-11T14:41:21.999Z</time></trkpt><trkpt lat="36.91447978486584" lon="15.02595430442113"><ele>306.0</ele><time>2026-04-11T14:41:22.999Z</time></trkpt><trkpt lat="36.914608340703936" lon="15.025938919906167"><ele>304.75</ele><time>2026-04-11T14:41:23.999Z</time></trkpt><trkpt lat="36.91473575722973" lon="15.025913038860459"><ele>303.5</ele><time>2026-04-11T14:41:24.999Z</time></trkpt><trkpt lat="36.914868302304505" lon="15.025877734692283"><ele>302.25</ele><time>2026-04-11T14:41:25.999Z</time></trkpt><trkpt lat="36.91499102127565" lon="15.025844330522096"><ele>301.0</ele><time>2026-04-11T14:41:26.999Z</time></trkpt><trkpt lat="36.91512329083191" lon="15.025804431627522"><ele>305.5</ele><time>2026-04-11T14:41:27.999Z</time></trkpt><trkpt lat="36.915261751033604" lon="15.025778918453728"><ele>310.0</ele><time>2026-04-11T14:41:28.999Z</time></trkpt><trkpt lat="36.91539636417133" lon="15.02575110800241"><ele>314.5</ele><time>2026-04-11T14:41:29.999Z</time></trkpt><trkpt lat="36.915525320852204" lon="15.025731746818819"><ele>319.0</ele><time>2026-04-11T14:41:30.999Z</time></trkpt><trkpt lat="36.915658534741134" lon="15.025709586034072"><ele>319.0</ele><time>2026-04-11T14:41:31.999Z</time></trkpt><trkpt lat="36.915785957787214" lon="15.025681928922488"><ele>319.0</ele><time>2026-04-11T14:41:32.999Z</time></trkpt><trkpt lat="36.91590055096779" lon="15.025694264958284"><ele>319.0</ele><time>2026-04-11T14:41:33.999Z</time></trkpt><trkpt lat="36.91602285825822" lon="15.02569518883718"><ele>319.0</ele><time>2026-04-11T14:41:34.999Z</time></trkpt><trkpt lat="36.91612536626329" lon="15.025722256255197"><ele>319.5</ele><time>2026-04-11T14:41:35.999Z</time></trkpt><trkpt lat="36.91623537634413" lon="15.025756603634704"><ele>320.0</ele><time>2026-04-11T14:41:36.999Z</time></trkpt><trkpt lat="36.916352314930386" lon="15.025789660305096"><ele>320.5</ele><time>2026-04-11T14:41:37.999Z</time></trkpt><trkpt lat="36.916480140742465" lon="15.025798651892181"><ele>321.0</ele><time>2026-04-11T14:41:38.999Z</time></trkpt><trkpt lat="36.916622411629554" lon="15.025815837808764"><ele>316.5</ele><time>2026-04-11T14:41:39.999Z</time></trkpt><trkpt lat="36.91674613140985" lon="15.02586683577005"><ele>312.0</ele><time>2026-04-11T14:41:40.999Z</time></trkpt><trkpt lat="36.916852498287106" lon="15.02588819160829"><ele>307.5</ele><time>2026-04-11T14:41:41.999Z</time></trkpt><trkpt lat="36.916960340236216" lon="15.025890616845627"><ele>303.0</ele><time>2026-04-11T14:41:42.999Z</time></trkpt><trkpt lat="36.91706398645205" lon="15.0259132304493"><ele>303.0</ele><time>2026-04-11T14:41:43.999Z</time></trkpt><trkpt lat="36.91717557031051" lon="15.025901296694215"><ele>303.0</ele><time>2026-04-11T14:41:44.999Z</time></trkpt><trkpt lat="36.91726854165154" lon="15.025921773349559"><ele>303.0</ele><time>2026-04-11T14:41:45.999Z</time></trkpt><trkpt lat="36.91735266903766" lon="15.025929298866282"><ele>303.0</ele><time>2026-04-11T14:41:46.999Z</time></trkpt><trkpt lat="36.91742219145538" lon="15.025981630665164"><ele>303.0</ele><time>2026-04-11T14:41:47.999Z</time></trkpt><trkpt lat="36.9174944253039" lon="15.025991455060622"><ele>303.0</ele><time>2026-04-11T14:41:48.999Z</time></trkpt><trkpt lat="36.91755844241448" lon="15.026020586708587"><ele>302.6666666666667</ele><time>2026-04-11T14:41:49.999Z</time></trkpt><trkpt lat="36.917621400097666" lon="15.026030318098808"><ele>302.3333333333333</ele><time>2026-04-11T14:41:50.999Z</time></trkpt><trkpt lat="36.917691284149655" lon="15.026048531215546"><ele>302.0</ele><time>2026-04-11T14:41:51.999Z</time></trkpt><trkpt lat="36.91778154421573" lon="15.026062515693274"><ele>301.66666666666663</ele><time>2026-04-11T14:41:52.999Z</time></trkpt><trkpt lat="36.91787155106211" lon="15.02606849278603"><ele>301.3333333333333</ele><time>2026-04-11T14:41:53.999Z</time></trkpt><trkpt lat="36.91794161469619" lon="15.026122101782585"><ele>301.0</ele><time>2026-04-11T14:41:54.999Z</time></trkpt><trkpt lat="36.91800343343642" lon="15.026146384847152"><ele>301.0</ele><time>2026-04-11T14:41:55.999Z</time></trkpt><trkpt lat="36.918069175326416" lon="15.02616828922681"><ele>301.0</ele><time>2026-04-11T14:41:56.999Z</time></trkpt><trkpt lat="36.91815370223234" lon="15.026176429814678"><ele>301.0</ele><time>2026-04-11T14:41:58Z</time></trkpt><trkpt lat="36.91823525497533" lon="15.026213623018785"><ele>301.0</ele><time>2026-04-11T14:41:59Z</time></trkpt><trkpt lat="36.918315344725954" lon="15.026234566183247"><ele>301.0</ele><time>2026-04-11T14:42:00Z</time></trkpt><trkpt lat="36.91840438582459" lon="15.026244713959642"><ele>301.0</ele><time>2026-04-11T14:42:01Z</time></trkpt><trkpt lat="36.918500870284845" lon="15.026251102941503"><ele>300.40000000000003</ele><time>2026-04-11T14:42:02Z</time></trkpt><trkpt lat="36.918592504480145" lon="15.02624344336614"><ele>299.8</ele><time>2026-04-11T14:42:03Z</time></trkpt><trkpt lat="36.91871639518751" lon="15.026220654591667"><ele>299.20000000000005</ele><time>2026-04-11T14:42:04Z</time></trkpt><trkpt lat="36.91882873500707" lon="15.02621288292617"><ele>298.6</ele><time>2026-04-11T14:42:05Z</time></trkpt><trkpt lat="36.91893589939067" lon="15.026223980605778"><ele>298.0</ele><time>2026-04-11T14:42:06Z</time></trkpt><trkpt lat="36.91903109147916" lon="15.026247428300838"><ele>298.0</ele><time>2026-04-11T14:42:07Z</time></trkpt><trkpt lat="36.91910776315841" lon="15.026249423734887"><ele>298.0</ele><time>2026-04-11T14:42:08Z</time></trkpt><trkpt lat="36.91917823641109" lon="15.026227766060076"><ele>298.0</ele><time>2026-04-11T14:42:09Z</time></trkpt><trkpt lat="36.91927180301486" lon="15.026190458874936"><ele>298.0</ele><time>2026-04-11T14:42:10Z</time></trkpt><trkpt lat="36.919397072414554" lon="15.026157751285142"><ele>298.0</ele><time>2026-04-11T14:42:11Z</time></trkpt><trkpt lat="36.919526691903016" lon="15.026129532306069"><ele>297.5</ele><time>2026-04-11T14:42:12Z</time></trkpt><trkpt lat="36.91964967146595" lon="15.026112672633976"><ele>297.0</ele><time>2026-04-11T14:42:13Z</time></trkpt><trkpt lat="36.9197671094305" lon="15.02609404022473"><ele>296.5</ele><time>2026-04-11T14:42:14Z</time></trkpt><trkpt lat="36.91990145597767" lon="15.026093410395342"><ele>296.0</ele><time>2026-04-11T14:42:15Z</time></trkpt><trkpt lat="36.92004860506932" lon="15.02610765328711"><ele>294.25</ele><time>2026-04-11T14:42:16Z</time></trkpt><trkpt lat="36.920202489730556" lon="15.026117472857209"><ele>292.5</ele><time>2026-04-11T14:42:17Z</time></trkpt><trkpt lat="36.920312193054286" lon="15.026112366996927"><ele>290.75</ele><time>2026-04-11T14:42:18Z</time></trkpt><trkpt lat="36.92043231142843" lon="15.026110892192913"><ele>289.0</ele><time>2026-04-11T14:42:20Z</time></trkpt><trkpt lat="36.920525973573916" lon="15.026078697020255"><ele>289.0</ele><time>2026-04-11T14:42:21Z</time></trkpt><trkpt lat="36.920609395550194" lon="15.026073547149748"><ele>289.0</ele><time>2026-04-11T14:42:22Z</time></trkpt><trkpt lat="36.9207451060214" lon="15.026008848452811"><ele>289.0</ele><time>2026-04-11T14:42:23Z</time></trkpt><trkpt lat="36.9208382255043" lon="15.026005323106233"><ele>289.0</ele><time>2026-04-11T14:42:24Z</time></trkpt><trkpt lat="36.92094624268126" lon="15.025983398602714"><ele>289.0</ele><time>2026-04-11T14:42:25Z</time></trkpt><trkpt lat="36.92103237736917" lon="15.025945795344017"><ele>289.0</ele><time>2026-04-11T14:42:26Z</time></trkpt><trkpt lat="36.9211032421607" lon="15.025904647304046"><ele>289.0</ele><time>2026-04-11T14:42:27Z</time></trkpt><trkpt lat="36.92117508552521" lon="15.02586699751937"><ele>289.0</ele><time>2026-04-11T14:42:28Z</time></trkpt><trkpt lat="36.921248568674784" lon="15.025823790851911"><ele>289.0</ele><time>2026-04-11T14:42:28.999Z</time></trkpt><trkpt lat="36.92132687495835" lon="15.025758783082741"><ele>289.0</ele><time>2026-04-11T14:42:29.999Z</time></trkpt><trkpt lat="36.92138657231614" lon="15.025675284163977"><ele>289.0</ele><time>2026-04-11T14:42:30.999Z</time></trkpt><trkpt lat="36.92144944336654" lon="15.025607860818647"><ele>289.0</ele><time>2026-04-11T14:42:31.999Z</time></trkpt><trkpt lat="36.921507873840156" lon="15.025558574387844"><ele>289.0</ele><time>2026-04-11T14:42:32.999Z</time></trkpt><trkpt lat="36.921570099316085" lon="15.025501170629841"><ele>289.0</ele><time>2026-04-11T14:42:33.999Z</time></trkpt><trkpt lat="36.921625395207236" lon="15.02544529199888"><ele>289.0</ele><time>2026-04-11T14:42:34.999Z</time></trkpt><trkpt lat="36.921684231216204" lon="15.025368520202"><ele>289.0</ele><time>2026-04-11T14:42:35.999Z</time></trkpt><trkpt lat="36.921753530894705" lon="15.02530040240009"><ele>289.0</ele><time>2026-04-11T14:42:36.999Z</time></trkpt><trkpt lat="36.92181509232945" lon="15.025231446199019"><ele>289.8333333333333</ele><time>2026-04-11T14:42:37.999Z</time></trkpt><trkpt lat="36.92187099087315" lon="15.025138589992132"><ele>290.66666666666663</ele><time>2026-04-11T14:42:38.999Z</time></trkpt><trkpt lat="36.921919198062895" lon="15.025061094505599"><ele>291.5</ele><time>2026-04-11T14:42:39.999Z</time></trkpt><trkpt lat="36.92201257384667" lon="15.024968766048056"><ele>292.3333333333333</ele><time>2026-04-11T14:42:41.999Z</time></trkpt><trkpt lat="36.92208023388793" lon="15.024934829588625"><ele>293.1666666666667</ele><time>2026-04-11T14:42:42.999Z</time></trkpt><trkpt lat="36.922155559576524" lon="15.024921894630653"><ele>294.0</ele><time>2026-04-11T14:42:43.999Z</time></trkpt><trkpt lat="36.9222493864529" lon="15.0249031014816"><ele>294.0</ele><time>2026-04-11T14:42:44.999Z</time></trkpt><trkpt lat="36.92234059696113" lon="15.024865153081793"><ele>294.0</ele><time>2026-04-11T14:42:45.999Z</time></trkpt><trkpt lat="36.9224376397184" lon="15.02483062132474"><ele>294.0</ele><time>2026-04-11T14:42:46.999Z</time></trkpt><trkpt lat="36.922544694066175" lon="15.024768866920484"><ele>294.0</ele><time>2026-04-11T14:42:47.999Z</time></trkpt><trkpt lat="36.92265447787138" lon="15.024724225654076"><ele>294.0</ele><time>2026-04-11T14:42:48.999Z</time></trkpt><trkpt lat="36.92272924659479" lon="15.024724935631562"><ele>291.1666666666667</ele><time>2026-04-11T14:42:49.999Z</time></trkpt><trkpt lat="36.92279432592757" lon="15.024758496232128"><ele>288.3333333333333</ele><time>2026-04-11T14:42:50.999Z</time></trkpt><trkpt lat="36.92287072057267" lon="15.024768396827422"><ele>285.5</ele><time>2026-04-11T14:42:51.999Z</time></trkpt><trkpt lat="36.92293993925164" lon="15.024766099934228"><ele>282.66666666666663</ele><time>2026-04-11T14:42:52.999Z</time></trkpt><trkpt lat="36.92303253439329" lon="15.02479461530658"><ele>279.8333333333333</ele><time>2026-04-11T14:42:54.999Z</time></trkpt><trkpt lat="36.923114733153135" lon="15.024833173079031"><ele>277.0</ele><time>2026-04-11T14:42:56.999Z</time></trkpt><trkpt lat="36.92320467185446" lon="15.024774621698079"><ele>277.0</ele><time>2026-04-11T14:42:59.999Z</time></trkpt><trkpt lat="36.92323403162798" lon="15.024696943157672"><ele>277.0</ele><time>2026-04-11T14:43:00.999Z</time></trkpt><trkpt lat="36.92327573949917" lon="15.024597437690478"><ele>277.0</ele><time>2026-04-11T14:43:01.999Z</time></trkpt><trkpt lat="36.923346758532745" lon="15.024531604929154"><ele>277.0</ele><time>2026-04-11T14:43:02.999Z</time></trkpt><trkpt lat="36.92341908262646" lon="15.024536725973535"><ele>277.0</ele><time>2026-04-11T14:43:03.999Z</time></trkpt><trkpt lat="36.923504931324956" lon="15.024567531476478"><ele>277.0</ele><time>2026-04-11T14:43:04.999Z</time></trkpt><trkpt lat="36.92358343282495" lon="15.024574736717296"><ele>272.25</ele><time>2026-04-11T14:43:05.999Z</time></trkpt><trkpt lat="36.92367778903197" lon="15.024548037951957"><ele>267.5</ele><time>2026-04-11T14:43:06.999Z</time></trkpt><trkpt lat="36.92380605770809" lon="15.024497959334006"><ele>262.75</ele><time>2026-04-11T14:43:07.999Z</time></trkpt><trkpt lat="36.92393853731478" lon="15.024408387649421"><ele>258.0</ele><time>2026-04-11T14:43:08.999Z</time></trkpt><trkpt lat="36.924026844068095" lon="15.024357258210411"><ele>258.0</ele><time>2026-04-11T14:43:09.999Z</time></trkpt><trkpt lat="36.92408926094339" lon="15.024308422509375"><ele>258.0</ele><time>2026-04-11T14:43:10.999Z</time></trkpt><trkpt lat="36.9241660329631" lon="15.024297204964029"><ele>258.0</ele><time>2026-04-11T14:43:11.999Z</time></trkpt><trkpt lat="36.92426685354437" lon="15.024311557910956"><ele>258.0</ele><time>2026-04-11T14:43:12.999Z</time></trkpt><trkpt lat="36.924347507953684" lon="15.024312531399058"><ele>258.0</ele><time>2026-04-11T14:43:13.999Z</time></trkpt><trkpt lat="36.924428856763086" lon="15.024313350571186"><ele>258.0</ele><time>2026-04-11T14:43:14.999Z</time></trkpt><trkpt lat="36.924512003402285" lon="15.024322323721591"><ele>255.66666666666666</ele><time>2026-04-11T14:43:15.999Z</time></trkpt><trkpt lat="36.92459783982428" lon="15.024346840572099"><ele>253.33333333333331</ele><time>2026-04-11T14:43:16.999Z</time></trkpt><trkpt lat="36.92468461651351" lon="15.024365363842476"><ele>251.0</ele><time>2026-04-11T14:43:17.999Z</time></trkpt><trkpt lat="36.92476944371051" lon="15.024368297242505"><ele>248.66666666666666</ele><time>2026-04-11T14:43:18.999Z</time></trkpt><trkpt lat="36.924860460891814" lon="15.024372809357256"><ele>246.33333333333331</ele><time>2026-04-11T14:43:19.999Z</time></trkpt><trkpt lat="36.92494749878985" lon="15.024374782504816"><ele>244.0</ele><time>2026-04-11T14:43:20.999Z</time></trkpt><trkpt lat="36.92503755941643" lon="15.02439555009418"><ele>241.6</ele><time>2026-04-11T14:43:21.999Z</time></trkpt><trkpt lat="36.925139012494704" lon="15.02439060208505"><ele>239.2</ele><time>2026-04-11T14:43:22.999Z</time></trkpt><trkpt lat="36.925235613575616" lon="15.024396942354038"><ele>236.79999999999998</ele><time>2026-04-11T14:43:23.999Z</time></trkpt><trkpt lat="36.9253078244155" lon="15.02441594001534"><ele>234.39999999999998</ele><time>2026-04-11T14:43:24.999Z</time></trkpt><trkpt lat="36.925419332310526" lon="15.024428943907541"><ele>232.0</ele><time>2026-04-11T14:43:26.999Z</time></trkpt><trkpt lat="36.92548404426526" lon="15.024442032815735"><ele>231.99999999999997</ele><time>2026-04-11T14:43:27.999Z</time></trkpt><trkpt lat="36.92555454942675" lon="15.024438218011838"><ele>232.0</ele><time>2026-04-11T14:43:28.999Z</time></trkpt><trkpt lat="36.92563176029675" lon="15.024401471543577"><ele>232.0</ele><time>2026-04-11T14:43:29.999Z</time></trkpt><trkpt lat="36.92572099329722" lon="15.024364092641203"><ele>232.0</ele><time>2026-04-11T14:43:30.999Z</time></trkpt><trkpt lat="36.92579172280112" lon="15.024350424142876"><ele>231.99999999999997</ele><time>2026-04-11T14:43:31.999Z</time></trkpt><trkpt lat="36.925872711213245" lon="15.02436221939503"><ele>232.0</ele><time>2026-04-11T14:43:33.999Z</time></trkpt><trkpt lat="36.92595178256149" lon="15.024335087619372"><ele>228.25</ele><time>2026-04-11T14:43:34.999Z</time></trkpt><trkpt lat="36.926072086671944" lon="15.024334366959737"><ele>224.5</ele><time>2026-04-11T14:43:35.999Z</time></trkpt><trkpt lat="36.92626547241602" lon="15.024290899025116"><ele>220.75</ele><time>2026-04-11T14:46:55.999Z</time></trkpt><trkpt lat="36.92635766557622" lon="15.024249194550823"><ele>217.0</ele><time>2026-04-11T14:46:56.999Z</time></trkpt><trkpt lat="36.9264801062309" lon="15.024187669681814"><ele>217.2</ele><time>2026-04-11T14:46:57.999Z</time></trkpt><trkpt lat="36.92660082339417" lon="15.024082123398061"><ele>217.39999999999998</ele><time>2026-04-11T14:46:58.999Z</time></trkpt><trkpt lat="36.92668966373614" lon="15.024029128881997"><ele>217.60000000000002</ele><time>2026-04-11T14:46:59.999Z</time></trkpt><trkpt lat="36.92674957722898" lon="15.023993798749416"><ele>217.8</ele><time>2026-04-11T14:47:00.999Z</time></trkpt><trkpt lat="36.92685727253876" lon="15.0239316000991"><ele>218.0</ele><time>2026-04-11T14:47:01.999Z</time></trkpt><trkpt lat="36.92695494047455" lon="15.023879884757983"><ele>218.0</ele><time>2026-04-11T14:47:02.999Z</time></trkpt><trkpt lat="36.92703931397955" lon="15.023838661856207"><ele>218.0</ele><time>2026-04-11T14:47:03.999Z</time></trkpt><trkpt lat="36.927119491715295" lon="15.023798154885165"><ele>218.0</ele><time>2026-04-11T14:47:04.999Z</time></trkpt><trkpt lat="36.9272038019156" lon="15.023750260038572"><ele>218.0</ele><time>2026-04-11T14:47:05.999Z</time></trkpt><trkpt lat="36.92729886181672" lon="15.02369306413898"><ele>218.0</ele><time>2026-04-11T14:47:06.999Z</time></trkpt><trkpt lat="36.927377196653836" lon="15.02363079682821"><ele>218.00000000000003</ele><time>2026-04-11T14:47:07.999Z</time></trkpt><trkpt lat="36.92743942789648" lon="15.023562852063204"><ele>218.0</ele><time>2026-04-11T14:47:08.999Z</time></trkpt><trkpt lat="36.927514978314385" lon="15.023491304875549"><ele>218.0</ele><time>2026-04-11T14:47:09.999Z</time></trkpt><trkpt lat="36.92755065518245" lon="15.023394494378485"><ele>218.0</ele><time>2026-04-11T14:47:10.999Z</time></trkpt><trkpt lat="36.92759735732646" lon="15.023298397488508"><ele>218.00000000000003</ele><time>2026-04-11T14:47:11.999Z</time></trkpt><trkpt lat="36.92760755966343" lon="15.02319508169848"><ele>218.0</ele><time>2026-04-11T14:47:12.999Z</time></trkpt><trkpt lat="36.927604029786565" lon="15.023097790457268"><ele>218.16666666666669</ele><time>2026-04-11T14:47:13.999Z</time></trkpt><trkpt lat="36.92760294023242" lon="15.02300777582971"><ele>218.33333333333334</ele><time>2026-04-11T14:47:14.999Z</time></trkpt><trkpt lat="36.9276141696717" lon="15.022919134339302"><ele>218.5</ele><time>2026-04-11T14:47:15.999Z</time></trkpt><trkpt lat="36.927615075110616" lon="15.022743108561743"><ele>218.66666666666669</ele><time>2026-04-11T14:47:16.999Z</time></trkpt><trkpt lat="36.92764500294677" lon="15.022660809687066"><ele>218.83333333333334</ele><time>2026-04-11T14:47:17.999Z</time></trkpt><trkpt lat="36.927691478002245" lon="15.022596778594782"><ele>219.0</ele><time>2026-04-11T14:47:20.999Z</time></trkpt><trkpt lat="36.92774360800848" lon="15.022545309818307"><ele>219.0</ele><time>2026-04-11T14:47:22.999Z</time></trkpt><trkpt lat="36.9278656768106" lon="15.022493675868155"><ele>218.99999999999997</ele><time>2026-04-11T14:47:24.999Z</time></trkpt><trkpt lat="36.92791779977594" lon="15.022383920685908"><ele>218.99999999999997</ele><time>2026-04-11T14:47:26.999Z</time></trkpt><trkpt lat="36.92791451639546" lon="15.022296570903473"><ele>219.0</ele><time>2026-04-11T14:47:27.999Z</time></trkpt><trkpt lat="36.92791977923868" lon="15.022181198219295"><ele>219.0</ele><time>2026-04-11T14:47:28.999Z</time></trkpt><trkpt lat="36.92795819464024" lon="15.022101256874013"><ele>220.39999999999998</ele><time>2026-04-11T14:47:29.999Z</time></trkpt><trkpt lat="36.928002825280814" lon="15.022036124271352"><ele>221.79999999999998</ele><time>2026-04-11T14:47:30.999Z</time></trkpt><trkpt lat="36.928096945969344" lon="15.022044536691617"><ele>223.20000000000002</ele><time>2026-04-11T14:47:31.999Z</time></trkpt><trkpt lat="36.92817589939003" lon="15.022128504925096"><ele>224.60000000000002</ele><time>2026-04-11T14:47:32.999Z</time></trkpt><trkpt lat="36.928259670760646" lon="15.022167644179028"><ele>226.0</ele><time>2026-04-11T14:47:33.999Z</time></trkpt><trkpt lat="36.92836087405292" lon="15.022232456369013"><ele>227.0</ele><time>2026-04-11T14:47:34.999Z</time></trkpt><trkpt lat="36.928477858192764" lon="15.02229748176746"><ele>228.0</ele><time>2026-04-11T14:47:35.999Z</time></trkpt><trkpt lat="36.92859760743001" lon="15.022362457543606"><ele>229.0</ele><time>2026-04-11T14:47:36.999Z</time></trkpt><trkpt lat="36.928668602259265" lon="15.022448182832422"><ele>230.0</ele><time>2026-04-11T14:47:37.999Z</time></trkpt><trkpt lat="36.92875642926022" lon="15.02252458430778"><ele>230.0</ele><time>2026-04-11T14:47:38.999Z</time></trkpt><trkpt lat="36.928826534905134" lon="15.02261933388478"><ele>230.0</ele><time>2026-04-11T14:47:39.999Z</time></trkpt><trkpt lat="36.928914029278246" lon="15.022731910098893"><ele>230.0</ele><time>2026-04-11T14:47:40.999Z</time></trkpt><trkpt lat="36.92899269622864" lon="15.022820931205173"><ele>230.0</ele><time>2026-04-11T14:47:41.999Z</time></trkpt><trkpt lat="36.92908227321044" lon="15.022819289096889"><ele>230.0</ele><time>2026-04-11T14:47:43.999Z</time></trkpt><trkpt lat="36.929117423119955" lon="15.022740586541252"><ele>230.00000000000003</ele><time>2026-04-11T14:47:44.999Z</time></trkpt><trkpt lat="36.92911417760975" lon="15.022638291066597"><ele>230.0</ele><time>2026-04-11T14:47:45.999Z</time></trkpt><trkpt lat="36.9291092386453" lon="15.02251497208964"><ele>230.0</ele><time>2026-04-11T14:47:46.999Z</time></trkpt><trkpt lat="36.92912097607421" lon="15.022404909275561"><ele>230.0</ele><time>2026-04-11T14:47:47.999Z</time></trkpt><trkpt lat="36.929142591233706" lon="15.022299126427244"><ele>230.00000000000003</ele><time>2026-04-11T14:47:49.999Z</time></trkpt><trkpt lat="36.929225119477884" lon="15.022277925949192"><ele>230.0</ele><time>2026-04-11T14:47:50.999Z</time></trkpt><trkpt lat="36.92921193182025" lon="15.022480818444473"><ele>238.0</ele><time>2026-04-11T14:47:51.999Z</time></trkpt><trkpt lat="36.929240476888175" lon="15.02259676547843"><ele>246.0</ele><time>2026-04-11T14:47:52.999Z</time></trkpt><trkpt lat="36.92923687085752" lon="15.022752318483931"><ele>254.0</ele><time>2026-04-11T14:47:53.999Z</time></trkpt><trkpt lat="36.92931315159263" lon="15.022838841127387"><ele>262.0</ele><time>2026-04-11T14:47:54.999Z</time></trkpt><trkpt lat="36.92937774439094" lon="15.022918734576814"><ele>270.0</ele><time>2026-04-11T14:47:55.999Z</time></trkpt><trkpt lat="36.92946840101121" lon="15.023015898250833"><ele>270.0</ele><time>2026-04-11T14:47:56.999Z</time></trkpt><trkpt lat="36.92959414516253" lon="15.023145066384387"><ele>270.0</ele><time>2026-04-11T14:47:57.999Z</time></trkpt><trkpt lat="36.929690311461364" lon="15.023306650879139"><ele>270.0</ele><time>2026-04-11T14:47:58.999Z</time></trkpt><trkpt lat="36.929791129817204" lon="15.023462354333171"><ele>266.0</ele><time>2026-04-11T14:47:59.999Z</time></trkpt><trkpt lat="36.92987976915126" lon="15.023630654116683"><ele>262.0</ele><time>2026-04-11T14:48:00.999Z</time></trkpt><trkpt lat="36.929945907176986" lon="15.023809693205143"><ele>258.0</ele><time>2026-04-11T14:48:01.999Z</time></trkpt><trkpt lat="36.93001485666074" lon="15.023979974018056"><ele>261.25</ele><time>2026-04-11T14:48:02.999Z</time></trkpt><trkpt lat="36.93008384637371" lon="15.024121571603729"><ele>264.5</ele><time>2026-04-11T14:48:03.999Z</time></trkpt><trkpt lat="36.93014846887421" lon="15.02420008614265"><ele>267.75</ele><time>2026-04-11T14:48:04.999Z</time></trkpt><trkpt lat="36.93025117764788" lon="15.024266988012942"><ele>271.0</ele><time>2026-04-11T14:48:05.999Z</time></trkpt><trkpt lat="36.930366860070514" lon="15.024304072798078"><ele>271.0</ele><time>2026-04-11T14:48:06.999Z</time></trkpt><trkpt lat="36.93049197509742" lon="15.024333281857775"><ele>271.0</ele><time>2026-04-11T14:48:07.999Z</time></trkpt><trkpt lat="36.93061633626252" lon="15.02437708451475"><ele>271.0</ele><time>2026-04-11T14:48:08.999Z</time></trkpt><trkpt lat="36.93070979297002" lon="15.024392414331428"><ele>271.0</ele><time>2026-04-11T14:48:09.999Z</time></trkpt><trkpt lat="36.93078360352533" lon="15.024472665191931"><ele>271.0</ele><time>2026-04-11T14:48:10.999Z</time></trkpt><trkpt lat="36.93081943268534" lon="15.024552622593427"><ele>271.0</ele><time>2026-04-11T14:48:11.999Z</time></trkpt><trkpt lat="36.93084324981407" lon="15.024634465797295"><ele>271.0</ele><time>2026-04-11T14:48:12.999Z</time></trkpt><trkpt lat="36.93078489191377" lon="15.024771774012118"><ele>271.0</ele><time>2026-04-11T14:48:13.999Z</time></trkpt><trkpt lat="36.930727333958835" lon="15.024909725739148"><ele>271.0</ele><time>2026-04-11T14:48:15Z</time></trkpt><trkpt lat="36.93067250237973" lon="15.025054733524621"><ele>271.0</ele><time>2026-04-11T14:48:16Z</time></trkpt><trkpt lat="36.93063988803898" lon="15.025204104731012"><ele>269.25</ele><time>2026-04-11T14:48:17Z</time></trkpt><trkpt lat="36.93059148250215" lon="15.025354369464015"><ele>267.5</ele><time>2026-04-11T14:48:18Z</time></trkpt><trkpt lat="36.9305629137346" lon="15.025521371770857"><ele>265.75</ele><time>2026-04-11T14:48:19Z</time></trkpt><trkpt lat="36.93055158214757" lon="15.02567846383115"><ele>264.0</ele><time>2026-04-11T14:48:20Z</time></trkpt><trkpt lat="36.93055292889124" lon="15.025836673531643"><ele>267.75</ele><time>2026-04-11T14:48:21Z</time></trkpt><trkpt lat="36.930544365830585" lon="15.0259903972315"><ele>271.5</ele><time>2026-04-11T14:48:22Z</time></trkpt><trkpt lat="36.93053365412111" lon="15.02615247110106"><ele>275.25</ele><time>2026-04-11T14:48:23Z</time></trkpt><trkpt lat="36.93054246819193" lon="15.026334243025271"><ele>279.0</ele><time>2026-04-11T14:48:24Z</time></trkpt><trkpt lat="36.93056732534406" lon="15.02652056122038"><ele>279.3333333333333</ele><time>2026-04-11T14:48:25Z</time></trkpt><trkpt lat="36.93058478179665" lon="15.026705270871417"><ele>279.66666666666663</ele><time>2026-04-11T14:48:26Z</time></trkpt><trkpt lat="36.93060898484331" lon="15.026892142258092"><ele>280.0</ele><time>2026-04-11T14:48:27Z</time></trkpt><trkpt lat="36.93066774261562" lon="15.027069310338133"><ele>280.0</ele><time>2026-04-11T14:48:28Z</time></trkpt><trkpt lat="36.9307155561735" lon="15.027234804800786"><ele>280.0</ele><time>2026-04-11T14:48:29Z</time></trkpt><trkpt lat="36.93072995562136" lon="15.02740263915851"><ele>280.0</ele><time>2026-04-11T14:48:30Z</time></trkpt><trkpt lat="36.930789201835175" lon="15.027508912118378"><ele>280.0</ele><time>2026-04-11T14:48:32Z</time></trkpt><trkpt lat="36.930897427977094" lon="15.02757066306786"><ele>284.0</ele><time>2026-04-11T14:48:33Z</time></trkpt><trkpt lat="36.930981612695255" lon="15.027628648196082"><ele>288.0</ele><time>2026-04-11T14:48:34Z</time></trkpt><trkpt lat="36.9310744860765" lon="15.02756152181729"><ele>292.0</ele><time>2026-04-11T14:48:36Z</time></trkpt><trkpt lat="36.93107335724375" lon="15.027474286869"><ele>296.0</ele><time>2026-04-11T14:48:37Z</time></trkpt><trkpt lat="36.931093747741954" lon="15.027373641593666"><ele>300.0</ele><time>2026-04-11T14:48:38Z</time></trkpt><trkpt lat="36.93106808892717" lon="15.02718108224032"><ele>302.5</ele><time>2026-04-11T14:48:39Z</time></trkpt><trkpt lat="36.9310769254658" lon="15.027018881657623"><ele>305.0</ele><time>2026-04-11T14:48:40Z</time></trkpt><trkpt lat="36.931089010578226" lon="15.026882982938128"><ele>307.5</ele><time>2026-04-11T14:48:41Z</time></trkpt><trkpt lat="36.931108353804184" lon="15.02672632694346"><ele>310.0</ele><time>2026-04-11T14:48:42Z</time></trkpt><trkpt lat="36.93116540630307" lon="15.026555028260075"><ele>310.0</ele><time>2026-04-11T14:48:43Z</time></trkpt><trkpt lat="36.93120441787045" lon="15.026396979061222"><ele>310.0</ele><time>2026-04-11T14:48:44Z</time></trkpt><trkpt lat="36.93123981437701" lon="15.02624537015857"><ele>310.0</ele><time>2026-04-11T14:48:45Z</time></trkpt><trkpt lat="36.93129211403631" lon="15.026105561253537"><ele>310.0</ele><time>2026-04-11T14:48:46Z</time></trkpt><trkpt lat="36.93136348744787" lon="15.026155816782676"><ele>310.0</ele><time>2026-04-11T14:48:47.999Z</time></trkpt><trkpt lat="36.93133322653135" lon="15.026256464886714"><ele>310.0</ele><time>2026-04-11T14:48:48.999Z</time></trkpt><trkpt lat="36.93131006965294" lon="15.026350850730314"><ele>310.0</ele><time>2026-04-11T14:48:49.999Z</time></trkpt><trkpt lat="36.93133537142765" lon="15.026493662693376"><ele>310.0</ele><time>2026-04-11T14:48:50.999Z</time></trkpt><trkpt lat="36.931376440287735" lon="15.026654912325602"><ele>310.0</ele><time>2026-04-11T14:48:51.999Z</time></trkpt><trkpt lat="36.93146473534172" lon="15.026798030547997"><ele>310.0</ele><time>2026-04-11T14:48:52.999Z</time></trkpt><trkpt lat="36.931528359099815" lon="15.026874866162723"><ele>310.0</ele><time>2026-04-11T14:48:53.999Z</time></trkpt><trkpt lat="36.93160155560664" lon="15.026876872275599"><ele>310.0</ele><time>2026-04-11T14:48:54.999Z</time></trkpt><trkpt lat="36.93163013427219" lon="15.026687708327978"><ele>310.0</ele><time>2026-04-11T14:48:56.999Z</time></trkpt><trkpt lat="36.93161632959114" lon="15.026585573055787"><ele>310.0</ele><time>2026-04-11T14:48:57.999Z</time></trkpt><trkpt lat="36.931643756029416" lon="15.026440332380616"><ele>310.0</ele><time>2026-04-11T14:48:58.999Z</time></trkpt><trkpt lat="36.93166336102989" lon="15.026313608455354"><ele>310.0</ele><time>2026-04-11T14:48:59.999Z</time></trkpt><trkpt lat="36.93169540218118" lon="15.026199343815458"><ele>310.0</ele><time>2026-04-11T14:49:00.999Z</time></trkpt><trkpt lat="36.93174546982171" lon="15.0260815132978"><ele>310.0</ele><time>2026-04-11T14:49:01.999Z</time></trkpt><trkpt lat="36.931782677040324" lon="15.025992709948882"><ele>310.0</ele><time>2026-04-11T14:49:02.999Z</time></trkpt><trkpt lat="36.93183965480434" lon="15.026098245984498"><ele>317.25</ele><time>2026-04-11T14:49:04.999Z</time></trkpt><trkpt lat="36.93192376774141" lon="15.026294174930857"><ele>324.5</ele><time>2026-04-11T14:49:06.999Z</time></trkpt><trkpt lat="36.93199204142739" lon="15.026440693152923"><ele>331.75</ele><time>2026-04-11T14:49:07.999Z</time></trkpt><trkpt lat="36.93205213832565" lon="15.026518060303374"><ele>339.0</ele><time>2026-04-11T14:49:08.999Z</time></trkpt><trkpt lat="36.932133441948984" lon="15.026507508740693"><ele>339.0</ele><time>2026-04-11T14:49:09.999Z</time></trkpt><trkpt lat="36.932186894759596" lon="15.026345722704836"><ele>339.0</ele><time>2026-04-11T14:49:11.999Z</time></trkpt><trkpt lat="36.93222581373928" lon="15.026272048432599"><ele>339.0</ele><time>2026-04-11T14:49:12.999Z</time></trkpt><trkpt lat="36.93229304692502" lon="15.026194423404135"><ele>339.0</ele><time>2026-04-11T14:49:13.999Z</time></trkpt><trkpt lat="36.932349920100386" lon="15.026154500569254"><ele>339.0</ele><time>2026-04-11T14:49:14.999Z</time></trkpt><trkpt lat="36.93238120853331" lon="15.026319792628628"><ele>339.0</ele><time>2026-04-11T14:49:17.999Z</time></trkpt><trkpt lat="36.932375668121345" lon="15.026449540841845"><ele>339.0</ele><time>2026-04-11T14:49:18.999Z</time></trkpt><trkpt lat="36.93237863806713" lon="15.02656186072415"><ele>339.0</ele><time>2026-04-11T14:49:19.999Z</time></trkpt><trkpt lat="36.9324266862636" lon="15.026668967190213"><ele>339.0</ele><time>2026-04-11T14:49:20.999Z</time></trkpt><trkpt lat="36.93249494319675" lon="15.02676087238855"><ele>339.0</ele><time>2026-04-11T14:49:21.999Z</time></trkpt><trkpt lat="36.9325693390634" lon="15.026850729082836"><ele>341.6</ele><time>2026-04-11T14:49:22.999Z</time></trkpt><trkpt lat="36.932652118860275" lon="15.02694045111922"><ele>344.2</ele><time>2026-04-11T14:49:23.999Z</time></trkpt><trkpt lat="36.932741572043746" lon="15.027019602527655"><ele>346.8</ele><time>2026-04-11T14:49:24.999Z</time></trkpt><trkpt lat="36.93283119247897" lon="15.02708114219544"><ele>349.40000000000003</ele><time>2026-04-11T14:49:25.999Z</time></trkpt><trkpt lat="36.932938856770136" lon="15.027108225606526"><ele>352.0</ele><time>2026-04-11T14:49:26.999Z</time></trkpt><trkpt lat="36.93304006263131" lon="15.027126979332904"><ele>352.0</ele><time>2026-04-11T14:49:27.999Z</time></trkpt><trkpt lat="36.93311765148116" lon="15.027150040682896"><ele>352.0</ele><time>2026-04-11T14:49:28.999Z</time></trkpt><trkpt lat="36.933198233706236" lon="15.027064439720743"><ele>352.0</ele><time>2026-04-11T14:49:29.999Z</time></trkpt><trkpt lat="36.933256463785" lon="15.026993178555834"><ele>352.0</ele><time>2026-04-11T14:49:30.999Z</time></trkpt><trkpt lat="36.93331519981865" lon="15.02692471267914"><ele>352.0</ele><time>2026-04-11T14:49:31.999Z</time></trkpt><trkpt lat="36.93338641677061" lon="15.02683170012113"><ele>357.6</ele><time>2026-04-11T14:49:32.999Z</time></trkpt><trkpt lat="36.9334563674085" lon="15.026749975013065"><ele>363.20000000000005</ele><time>2026-04-11T14:49:33.999Z</time></trkpt><trkpt lat="36.93351995503491" lon="15.026671803903657"><ele>368.8</ele><time>2026-04-11T14:49:34.999Z</time></trkpt><trkpt lat="36.933520258967356" lon="15.026524954011082"><ele>374.4</ele><time>2026-04-11T14:49:36.999Z</time></trkpt><trkpt lat="36.93350911467458" lon="15.026435740030491"><ele>380.0</ele><time>2026-04-11T14:49:37.999Z</time></trkpt><trkpt lat="36.93342102022914" lon="15.026268602199162"><ele>379.6</ele><time>2026-04-11T14:49:38.999Z</time></trkpt><trkpt lat="36.93335276824533" lon="15.026180795380084"><ele>379.2</ele><time>2026-04-11T14:49:39.999Z</time></trkpt><trkpt lat="36.933270344477066" lon="15.02607649474499"><ele>378.79999999999995</ele><time>2026-04-11T14:49:40.999Z</time></trkpt><trkpt lat="36.93318656291128" lon="15.025990177737214"><ele>378.4</ele><time>2026-04-11T14:49:41.999Z</time></trkpt><trkpt lat="36.93308342647411" lon="15.025912598151512"><ele>378.0</ele><time>2026-04-11T14:49:42.999Z</time></trkpt><trkpt lat="36.93301197743683" lon="15.025800638615966"><ele>378.0</ele><time>2026-04-11T14:49:43.999Z</time></trkpt><trkpt lat="36.93293669834162" lon="15.025702488024656"><ele>378.0</ele><time>2026-04-11T14:49:44.999Z</time></trkpt><trkpt lat="36.93287440857324" lon="15.025601659099824"><ele>378.0</ele><time>2026-04-11T14:49:45.999Z</time></trkpt><trkpt lat="36.93282747935757" lon="15.025495584483728"><ele>378.0</ele><time>2026-04-11T14:49:46.999Z</time></trkpt><trkpt lat="36.93277570806471" lon="15.025379021300102"><ele>378.0</ele><time>2026-04-11T14:49:47.999Z</time></trkpt><trkpt lat="36.93270265899755" lon="15.025268858342685"><ele>378.0</ele><time>2026-04-11T14:49:48.999Z</time></trkpt><trkpt lat="36.93265131255326" lon="15.025154950323085"><ele>378.0</ele><time>2026-04-11T14:49:49.999Z</time></trkpt><trkpt lat="36.9326553005196" lon="15.025038023504667"><ele>378.0</ele><time>2026-04-11T14:49:50.999Z</time></trkpt><trkpt lat="36.93266656192698" lon="15.02494294022648"><ele>378.0</ele><time>2026-04-11T14:49:51.999Z</time></trkpt><trkpt lat="36.932706755486734" lon="15.02484772251573"><ele>378.0</ele><time>2026-04-11T14:49:52.999Z</time></trkpt><trkpt lat="36.93278676479388" lon="15.024780808556725"><ele>372.5</ele><time>2026-04-11T14:49:53.999Z</time></trkpt><trkpt lat="36.932866187424025" lon="15.024693062813851"><ele>367.0</ele><time>2026-04-11T14:49:54.999Z</time></trkpt><trkpt lat="36.93298749321993" lon="15.024607023929745"><ele>361.5</ele><time>2026-04-11T14:49:55.999Z</time></trkpt><trkpt lat="36.933102200927195" lon="15.02452027220189"><ele>356.0</ele><time>2026-04-11T14:49:56.999Z</time></trkpt><trkpt lat="36.933223718681916" lon="15.024489627919598"><ele>356.0</ele><time>2026-04-11T14:49:57.999Z</time></trkpt><trkpt lat="36.93334726731455" lon="15.02446479592569"><ele>356.0</ele><time>2026-04-11T14:49:58.999Z</time></trkpt><trkpt lat="36.93348992535604" lon="15.024450524356828"><ele>356.0</ele><time>2026-04-11T14:49:59.999Z</time></trkpt><trkpt lat="36.93362612494211" lon="15.024447816384669"><ele>356.0</ele><time>2026-04-11T14:50:00.999Z</time></trkpt><trkpt lat="36.93376318658243" lon="15.02445114455149"><ele>359.0</ele><time>2026-04-11T14:50:01.999Z</time></trkpt><trkpt lat="36.933906553919115" lon="15.024456796571078"><ele>362.0</ele><time>2026-04-11T14:50:02.999Z</time></trkpt><trkpt lat="36.93405404359564" lon="15.024462738243262"><ele>365.0</ele><time>2026-04-11T14:50:03.999Z</time></trkpt><trkpt lat="36.934208793308926" lon="15.024470986020866"><ele>368.0</ele><time>2026-04-11T14:50:04.999Z</time></trkpt><trkpt lat="36.93435238944858" lon="15.024438699067858"><ele>371.25</ele><time>2026-04-11T14:50:05.999Z</time></trkpt><trkpt lat="36.93447013117604" lon="15.024412437686006"><ele>374.5</ele><time>2026-04-11T14:50:06.999Z</time></trkpt><trkpt lat="36.93460183109028" lon="15.024356493960674"><ele>377.75</ele><time>2026-04-11T14:50:07.999Z</time></trkpt><trkpt lat="36.93472030119991" lon="15.024309930027142"><ele>381.0</ele><time>2026-04-11T14:50:08.999Z</time></trkpt><trkpt lat="36.934859976614646" lon="15.024242138970358"><ele>381.0</ele><time>2026-04-11T14:50:09.999Z</time></trkpt><trkpt lat="36.935015760020065" lon="15.024169429373986"><ele>381.0</ele><time>2026-04-11T14:50:10.999Z</time></trkpt><trkpt lat="36.93515558380528" lon="15.024106513329219"><ele>381.0</ele><time>2026-04-11T14:50:11.999Z</time></trkpt><trkpt lat="36.93527143752182" lon="15.02404700167924"><ele>381.0</ele><time>2026-04-11T14:50:12.999Z</time></trkpt><trkpt lat="36.935369093143656" lon="15.02398824608991"><ele>383.6</ele><time>2026-04-11T14:50:13.999Z</time></trkpt><trkpt lat="36.93547910039676" lon="15.023916768976905"><ele>386.20000000000005</ele><time>2026-04-11T14:50:14.999Z</time></trkpt><trkpt lat="36.9355821204178" lon="15.023830732103564"><ele>388.79999999999995</ele><time>2026-04-11T14:50:15.999Z</time></trkpt><trkpt lat="36.93566898454988" lon="15.023755853709496"><ele>391.4</ele><time>2026-04-11T14:50:16.999Z</time></trkpt><trkpt lat="36.93574585452866" lon="15.023702118992281"><ele>394.0</ele><time>2026-04-11T14:50:17.999Z</time></trkpt><trkpt lat="36.93583108685749" lon="15.023715820088128"><ele>395.79999999999995</ele><time>2026-04-11T14:50:18.999Z</time></trkpt><trkpt lat="36.93592746912445" lon="15.023727878675485"><ele>397.59999999999997</ele><time>2026-04-11T14:50:20Z</time></trkpt><trkpt lat="36.93604378946519" lon="15.023725928444744"><ele>399.4</ele><time>2026-04-11T14:50:21Z</time></trkpt><trkpt lat="36.93615847771509" lon="15.02374469466344"><ele>401.2</ele><time>2026-04-11T14:50:22Z</time></trkpt><trkpt lat="36.9362664408142" lon="15.02374997145588"><ele>403.0</ele><time>2026-04-11T14:50:23Z</time></trkpt><trkpt lat="36.93638261288073" lon="15.02372513097571"><ele>403.0</ele><time>2026-04-11T14:50:24Z</time></trkpt><trkpt lat="36.93649401465119" lon="15.023697069680026"><ele>403.0</ele><time>2026-04-11T14:50:25Z</time></trkpt><trkpt lat="36.93660185481081" lon="15.02366750798785"><ele>403.0</ele><time>2026-04-11T14:50:26Z</time></trkpt><trkpt lat="36.936698633616366" lon="15.023654151394256"><ele>403.0</ele><time>2026-04-11T14:50:27Z</time></trkpt><trkpt lat="36.936809513674824" lon="15.023693302812772"><ele>403.0</ele><time>2026-04-11T14:50:29Z</time></trkpt><trkpt lat="36.93682773782786" lon="15.023808728202976"><ele>403.59999999999997</ele><time>2026-04-11T14:50:31Z</time></trkpt><trkpt lat="36.93686015849416" lon="15.023921956464125"><ele>404.2</ele><time>2026-04-11T14:50:32Z</time></trkpt><trkpt lat="36.936917182950765" lon="15.024040567823828"><ele>404.8</ele><time>2026-04-11T14:50:33Z</time></trkpt><trkpt lat="36.93697952795566" lon="15.024154588952186"><ele>405.4</ele><time>2026-04-11T14:50:34Z</time></trkpt><trkpt lat="36.937043094749214" lon="15.024271959153294"><ele>406.0</ele><time>2026-04-11T14:50:35Z</time></trkpt><trkpt lat="36.93707884297291" lon="15.024358274523967"><ele>406.0</ele><time>2026-04-11T14:50:36Z</time></trkpt><trkpt lat="36.93715174904306" lon="15.02441469601618"><ele>406.0</ele><time>2026-04-11T14:50:38Z</time></trkpt><trkpt lat="36.93726627729904" lon="15.024311743274003"><ele>406.0</ele><time>2026-04-11T14:50:40Z</time></trkpt><trkpt lat="36.93735160777668" lon="15.024223040859257"><ele>406.0</ele><time>2026-04-11T14:50:41Z</time></trkpt><trkpt lat="36.937444499122805" lon="15.024153842940459"><ele>406.0</ele><time>2026-04-11T14:50:41.999Z</time></trkpt><trkpt lat="36.93751793263392" lon="15.024115903405846"><ele>407.00000000000006</ele><time>2026-04-11T14:50:42.999Z</time></trkpt><trkpt lat="36.93759754870847" lon="15.024069367777237"><ele>408.0</ele><time>2026-04-11T14:50:43.999Z</time></trkpt><trkpt lat="36.937673544244355" lon="15.0240178909962"><ele>409.0</ele><time>2026-04-11T14:50:44.999Z</time></trkpt><trkpt lat="36.937731763935425" lon="15.023982809778428"><ele>410.0</ele><time>2026-04-11T14:50:45.999Z</time></trkpt><trkpt lat="36.9378090861637" lon="15.023927858338954"><ele>411.00000000000006</ele><time>2026-04-11T14:50:47.999Z</time></trkpt><trkpt lat="36.93787412755162" lon="15.02389284805652"><ele>412.0</ele><time>2026-04-11T14:50:51.999Z</time></trkpt><trkpt lat="36.93795824211514" lon="15.023849894669988"><ele>412.00000000000006</ele><time>2026-04-11T14:50:57.999Z</time></trkpt><trkpt lat="36.93802054722203" lon="15.02381817019719"><ele>412.0</ele><time>2026-04-11T14:50:58.999Z</time></trkpt><trkpt lat="36.93808241559566" lon="15.023769280296046"><ele>412.0</ele><time>2026-04-11T14:50:59.999Z</time></trkpt><trkpt lat="36.938158500292126" lon="15.023718082982132"><ele>412.0</ele><time>2026-04-11T14:51:00.999Z</time></trkpt><trkpt lat="36.938251112775916" lon="15.023660618267835"><ele>412.00000000000006</ele><time>2026-04-11T14:51:01.999Z</time></trkpt><trkpt lat="36.938338373076036" lon="15.023601746189987"><ele>412.0</ele><time>2026-04-11T14:51:02.999Z</time></trkpt><trkpt lat="36.9384145121469" lon="15.023536951522146"><ele>412.50000000000006</ele><time>2026-04-11T14:51:03.999Z</time></trkpt><trkpt lat="36.93847496540597" lon="15.023460796457645"><ele>413.0</ele><time>2026-04-11T14:51:04.999Z</time></trkpt><trkpt lat="36.938512349172576" lon="15.023359460042313"><ele>413.5</ele><time>2026-04-11T14:51:05.999Z</time></trkpt><trkpt lat="36.93853150893708" lon="15.023255409829037"><ele>414.0</ele><time>2026-04-11T14:51:06.999Z</time></trkpt><trkpt lat="36.93854401324624" lon="15.02314549872154"><ele>414.50000000000006</ele><time>2026-04-11T14:51:07.999Z</time></trkpt><trkpt lat="36.938557886110274" lon="15.02302352671555"><ele>415.0</ele><time>2026-04-11T14:51:08.999Z</time></trkpt><trkpt lat="36.938577775654224" lon="15.022907253685755"><ele>415.00000000000006</ele><time>2026-04-11T14:51:09.999Z</time></trkpt><trkpt lat="36.93859894380026" lon="15.022794927707627"><ele>415.0</ele><time>2026-04-11T14:51:10.999Z</time></trkpt><trkpt lat="36.938623565881734" lon="15.022685330617636"><ele>415.0</ele><time>2026-04-11T14:51:11.999Z</time></trkpt><trkpt lat="36.93864605549231" lon="15.02258690041443"><ele>415.0</ele><time>2026-04-11T14:51:12.999Z</time></trkpt><trkpt lat="36.938665021067315" lon="15.02250078073164"><ele>415.00000000000006</ele><time>2026-04-11T14:51:13.999Z</time></trkpt><trkpt lat="36.93870565547037" lon="15.022373816349793"><ele>415.0</ele><time>2026-04-11T14:51:15.999Z</time></trkpt><trkpt lat="36.93880366491201" lon="15.022285416978523"><ele>414.8</ele><time>2026-04-11T14:51:17.999Z</time></trkpt><trkpt lat="36.93888365492582" lon="15.022283545122994"><ele>414.6</ele><time>2026-04-11T14:51:18.999Z</time></trkpt><trkpt lat="36.93898442318236" lon="15.02231210629735"><ele>414.4</ele><time>2026-04-11T14:51:19.999Z</time></trkpt><trkpt lat="36.93910012780241" lon="15.02237772324777"><ele>414.2</ele><time>2026-04-11T14:51:20.999Z</time></trkpt><trkpt lat="36.93921100176023" lon="15.022437775824965"><ele>414.0</ele><time>2026-04-11T14:51:21.999Z</time></trkpt><trkpt lat="36.93930588552928" lon="15.022490151792605"><ele>414.0</ele><time>2026-04-11T14:51:22.999Z</time></trkpt><trkpt lat="36.939388417350905" lon="15.022545216519527"><ele>414.0</ele><time>2026-04-11T14:51:23.999Z</time></trkpt><trkpt lat="36.939457381371774" lon="15.0226044134082"><ele>414.0</ele><time>2026-04-11T14:51:24.999Z</time></trkpt><trkpt lat="36.93950406358694" lon="15.022682095407946"><ele>414.0</ele><time>2026-04-11T14:51:25.999Z</time></trkpt><trkpt lat="36.939596353374974" lon="15.022781819617402"><ele>414.0</ele><time>2026-04-11T14:51:27.999Z</time></trkpt><trkpt lat="36.93969148388565" lon="15.022845284356322"><ele>414.0</ele><time>2026-04-11T14:51:29.999Z</time></trkpt><trkpt lat="36.939806221838595" lon="15.022878992112897"><ele>414.0</ele><time>2026-04-11T14:51:31.999Z</time></trkpt><trkpt lat="36.93987639764509" lon="15.022883921253504"><ele>414.0</ele><time>2026-04-11T14:51:32.999Z</time></trkpt><trkpt lat="36.93995165935773" lon="15.022885491932986"><ele>414.0</ele><time>2026-04-11T14:51:33.999Z</time></trkpt><trkpt lat="36.9400336948174" lon="15.022893854962664"><ele>414.0</ele><time>2026-04-11T14:51:34.999Z</time></trkpt><trkpt lat="36.940121524033145" lon="15.022912236955206"><ele>414.0</ele><time>2026-04-11T14:51:35.999Z</time></trkpt><trkpt lat="36.940212938228385" lon="15.022930325725921"><ele>414.2</ele><time>2026-04-11T14:51:36.999Z</time></trkpt><trkpt lat="36.94031003997903" lon="15.022940082001838"><ele>414.4</ele><time>2026-04-11T14:51:37.999Z</time></trkpt><trkpt lat="36.94040731310494" lon="15.022949638218002"><ele>414.6</ele><time>2026-04-11T14:51:38.999Z</time></trkpt><trkpt lat="36.94050215415907" lon="15.022959108748374"><ele>414.8</ele><time>2026-04-11T14:51:39.999Z</time></trkpt><trkpt lat="36.94059211041563" lon="15.022968274131022"><ele>415.0</ele><time>2026-04-11T14:51:40.999Z</time></trkpt><trkpt lat="36.940685425051385" lon="15.022982515801527"><ele>415.0</ele><time>2026-04-11T14:51:41.999Z</time></trkpt><trkpt lat="36.94078058300108" lon="15.022996621290275"><ele>415.0</ele><time>2026-04-11T14:51:42.999Z</time></trkpt><trkpt lat="36.940877285031796" lon="15.023012584741899"><ele>415.0</ele><time>2026-04-11T14:51:43.999Z</time></trkpt><trkpt lat="36.94097320493136" lon="15.023036696346734"><ele>415.0</ele><time>2026-04-11T14:51:44.999Z</time></trkpt><trkpt lat="36.941061459508475" lon="15.023070683532714"><ele>415.0</ele><time>2026-04-11T14:51:45.999Z</time></trkpt><trkpt lat="36.94114829715912" lon="15.023102508191277"><ele>415.2</ele><time>2026-04-11T14:51:46.999Z</time></trkpt><trkpt lat="36.94123479636678" lon="15.02312707565037"><ele>415.4</ele><time>2026-04-11T14:51:47.999Z</time></trkpt><trkpt lat="36.94132064837097" lon="15.023154558370754"><ele>415.6</ele><time>2026-04-11T14:51:48.999Z</time></trkpt><trkpt lat="36.941406529263375" lon="15.023186053818469"><ele>415.8</ele><time>2026-04-11T14:51:49.999Z</time></trkpt><trkpt lat="36.94149787726499" lon="15.023225645340771"><ele>416.0</ele><time>2026-04-11T14:51:50.999Z</time></trkpt><trkpt lat="36.941587865809346" lon="15.023261893783536"><ele>415.99999999999994</ele><time>2026-04-11T14:51:51.999Z</time></trkpt><trkpt lat="36.94167676593023" lon="15.02329014539684"><ele>416.0</ele><time>2026-04-11T14:51:52.999Z</time></trkpt><trkpt lat="36.94175562249925" lon="15.0233269587121"><ele>416.0</ele><time>2026-04-11T14:51:53.999Z</time></trkpt><trkpt lat="36.941829915233114" lon="15.023378585658627"><ele>416.0</ele><time>2026-04-11T14:51:54.999Z</time></trkpt><trkpt lat="36.941914898682604" lon="15.023416085849409"><ele>415.99999999999994</ele><time>2026-04-11T14:51:55.999Z</time></trkpt><trkpt lat="36.94200633714485" lon="15.023434782539836"><ele>416.0</ele><time>2026-04-11T14:51:56.999Z</time></trkpt><trkpt lat="36.94209853672033" lon="15.023450461273333"><ele>416.16666666666663</ele><time>2026-04-11T14:51:57.999Z</time></trkpt><trkpt lat="36.94218476673093" lon="15.023456942967641"><ele>416.3333333333333</ele><time>2026-04-11T14:51:58.999Z</time></trkpt><trkpt lat="36.942271537465544" lon="15.02345782974785"><ele>416.5</ele><time>2026-04-11T14:51:59.999Z</time></trkpt><trkpt lat="36.94235888035972" lon="15.023460591712542"><ele>416.66666666666663</ele><time>2026-04-11T14:52:00.999Z</time></trkpt><trkpt lat="36.94244507082821" lon="15.023460907255945"><ele>416.8333333333333</ele><time>2026-04-11T14:52:01.999Z</time></trkpt><trkpt lat="36.94253118759272" lon="15.0234513834256"><ele>417.0</ele><time>2026-04-11T14:52:02.999Z</time></trkpt><trkpt lat="36.94262122655992" lon="15.023445610190103"><ele>416.6</ele><time>2026-04-11T14:52:03.999Z</time></trkpt><trkpt lat="36.942714181455486" lon="15.02344870977863"><ele>416.20000000000005</ele><time>2026-04-11T14:52:04.999Z</time></trkpt><trkpt lat="36.94281037648245" lon="15.023452131790812"><ele>415.8</ele><time>2026-04-11T14:52:05.999Z</time></trkpt><trkpt lat="36.942905592913924" lon="15.023451459947225"><ele>415.4</ele><time>2026-04-11T14:52:06.999Z</time></trkpt><trkpt lat="36.94299260576252" lon="15.023444789808318"><ele>415.0</ele><time>2026-04-11T14:52:07.999Z</time></trkpt><trkpt lat="36.94307741995467" lon="15.023428190812963"><ele>415.00000000000006</ele><time>2026-04-11T14:52:08.999Z</time></trkpt><trkpt lat="36.9431679914164" lon="15.023410878630083"><ele>415.0</ele><time>2026-04-11T14:52:09.999Z</time></trkpt><trkpt lat="36.943257311826095" lon="15.023392812757471"><ele>415.0</ele><time>2026-04-11T14:52:10.999Z</time></trkpt><trkpt lat="36.9433389672146" lon="15.0233833462063"><ele>415.0</ele><time>2026-04-11T14:52:11.999Z</time></trkpt><trkpt lat="36.94341340944417" lon="15.023378434929969"><ele>415.00000000000006</ele><time>2026-04-11T14:52:12.999Z</time></trkpt><trkpt lat="36.94348068266172" lon="15.023376182130297"><ele>415.0</ele><time>2026-04-11T14:52:13.998Z</time></trkpt><trkpt lat="36.94354926050745" lon="15.023365349096004"><ele>415.00000000000006</ele><time>2026-04-11T14:52:14.998Z</time></trkpt><trkpt lat="36.9436183188462" lon="15.023330331734067"><ele>415.0</ele><time>2026-04-11T14:52:15.998Z</time></trkpt><trkpt lat="36.943690413999015" lon="15.023292438489129"><ele>415.0</ele><time>2026-04-11T14:52:16.998Z</time></trkpt><trkpt lat="36.94376825709093" lon="15.023266501908076"><ele>415.0</ele><time>2026-04-11T14:52:17.998Z</time></trkpt><trkpt lat="36.94385750739513" lon="15.023263085365695"><ele>415.00000000000006</ele><time>2026-04-11T14:52:18.998Z</time></trkpt><trkpt lat="36.94394776422265" lon="15.023266196901078"><ele>415.0</ele><time>2026-04-11T14:52:19.998Z</time></trkpt><trkpt lat="36.94403764789991" lon="15.023266388368928"><ele>413.8</ele><time>2026-04-11T14:52:20.998Z</time></trkpt><trkpt lat="36.94412987174504" lon="15.023252497844044"><ele>412.6</ele><time>2026-04-11T14:52:21.998Z</time></trkpt><trkpt lat="36.944229625938455" lon="15.023234443779133"><ele>411.4</ele><time>2026-04-11T14:52:22.998Z</time></trkpt><trkpt lat="36.94433666525428" lon="15.023211423217745"><ele>410.2</ele><time>2026-04-11T14:52:23.999Z</time></trkpt><trkpt lat="36.94443354343941" lon="15.023182362929736"><ele>409.0</ele><time>2026-04-11T14:52:24.999Z</time></trkpt><trkpt lat="36.94452896257859" lon="15.02316041643414"><ele>407.50000000000006</ele><time>2026-04-11T14:52:26.001Z</time></trkpt><trkpt lat="36.944614349788026" lon="15.023127975560751"><ele>406.0</ele><time>2026-04-11T14:52:27.001Z</time></trkpt><trkpt lat="36.94468487736143" lon="15.023093461734154"><ele>404.5</ele><time>2026-04-11T14:52:28.001Z</time></trkpt><trkpt lat="36.944748645934766" lon="15.023065237320111"><ele>403.0</ele><time>2026-04-11T14:52:29.001Z</time></trkpt><trkpt lat="36.944817985537085" lon="15.023048044376118"><ele>401.50000000000006</ele><time>2026-04-11T14:52:30.001Z</time></trkpt><trkpt lat="36.94489270758447" lon="15.023033721930686"><ele>400.0</ele><time>2026-04-11T14:52:31.001Z</time></trkpt><trkpt lat="36.94497356229262" lon="15.023037941330578"><ele>400.00000000000006</ele><time>2026-04-11T14:52:32.001Z</time></trkpt><trkpt lat="36.94504446093957" lon="15.023098196968432"><ele>400.0</ele><time>2026-04-11T14:52:33.001Z</time></trkpt><trkpt lat="36.945104725127926" lon="15.023158602472686"><ele>400.0</ele><time>2026-04-11T14:52:34.001Z</time></trkpt><trkpt lat="36.94515675606624" lon="15.023227514143748"><ele>400.0</ele><time>2026-04-11T14:52:35.001Z</time></trkpt><trkpt lat="36.945180386553936" lon="15.023309954235561"><ele>400.00000000000006</ele><time>2026-04-11T14:52:36.001Z</time></trkpt><trkpt lat="36.94520306607355" lon="15.023392916531188"><ele>400.0</ele><time>2026-04-11T14:52:37.001Z</time></trkpt><trkpt lat="36.94522597948943" lon="15.023480235922685"><ele>402.50000000000006</ele><time>2026-04-11T14:52:38.001Z</time></trkpt><trkpt lat="36.94523662597447" lon="15.023565885975994"><ele>405.0</ele><time>2026-04-11T14:52:39.001Z</time></trkpt><trkpt lat="36.94524522452895" lon="15.02365424160113"><ele>407.5</ele><time>2026-04-11T14:52:40.001Z</time></trkpt><trkpt lat="36.94527583686925" lon="15.023751051527576"><ele>410.0</ele><time>2026-04-11T14:52:41Z</time></trkpt><trkpt lat="36.945330988451" lon="15.023832882829812"><ele>412.50000000000006</ele><time>2026-04-11T14:52:42Z</time></trkpt><trkpt lat="36.94539552439763" lon="15.023891594714506"><ele>415.0</ele><time>2026-04-11T14:52:43Z</time></trkpt><trkpt lat="36.94547795984631" lon="15.023911805104323"><ele>415.0</ele><time>2026-04-11T14:52:44Z</time></trkpt><trkpt lat="36.945560821432075" lon="15.023930864724802"><ele>415.0</ele><time>2026-04-11T14:52:45Z</time></trkpt><trkpt lat="36.94565430419281" lon="15.023915195736627"><ele>415.0</ele><time>2026-04-11T14:52:46Z</time></trkpt><trkpt lat="36.945760396613146" lon="15.023917376750944"><ele>415.0</ele><time>2026-04-11T14:52:47Z</time></trkpt><trkpt lat="36.9458559048985" lon="15.023882806641996"><ele>415.0</ele><time>2026-04-11T14:52:48Z</time></trkpt><trkpt lat="36.945918010824386" lon="15.02381125566551"><ele>415.00000000000006</ele><time>2026-04-11T14:52:49Z</time></trkpt><trkpt lat="36.9459761226579" lon="15.023748439848339"><ele>415.0</ele><time>2026-04-11T14:52:50Z</time></trkpt><trkpt lat="36.946032188846594" lon="15.023673115810961"><ele>415.0</ele><time>2026-04-11T14:52:51Z</time></trkpt><trkpt lat="36.94608681254086" lon="15.023580939144692"><ele>415.0</ele><time>2026-04-11T14:52:52Z</time></trkpt><trkpt lat="36.94614137722157" lon="15.02348026194538"><ele>415.00000000000006</ele><time>2026-04-11T14:52:53Z</time></trkpt><trkpt lat="36.9461999811505" lon="15.023399377514993"><ele>415.0</ele><time>2026-04-11T14:52:54Z</time></trkpt><trkpt lat="36.94624401531629" lon="15.023309206943585"><ele>415.00000000000006</ele><time>2026-04-11T14:52:55Z</time></trkpt><trkpt lat="36.94628285249864" lon="15.023227437562081"><ele>415.0</ele><time>2026-04-11T14:52:56Z</time></trkpt><trkpt lat="36.946329960186056" lon="15.023172435085554"><ele>415.0</ele><time>2026-04-11T14:52:57Z</time></trkpt><trkpt lat="36.94636809548156" lon="15.023104902331601"><ele>415.0</ele><time>2026-04-11T14:52:58Z</time></trkpt><trkpt lat="36.94640862076741" lon="15.023033896084327"><ele>415.00000000000006</ele><time>2026-04-11T14:52:59Z</time></trkpt><trkpt lat="36.9464874184675" lon="15.022986199584361"><ele>415.0</ele><time>2026-04-11T14:53:01Z</time></trkpt><trkpt lat="36.94659788706865" lon="15.023150564433614"><ele>415.0</ele><time>2026-04-11T14:53:02Z</time></trkpt><trkpt lat="36.94667266273095" lon="15.023216199169344"><ele>415.0</ele><time>2026-04-11T14:53:03Z</time></trkpt><trkpt lat="36.946720192038526" lon="15.02331356568426"><ele>415.0</ele><time>2026-04-11T14:53:04Z</time></trkpt><trkpt lat="36.946739493688504" lon="15.023432049782718"><ele>415.0</ele><time>2026-04-11T14:53:05Z</time></trkpt><trkpt lat="36.946773958793045" lon="15.023541170877149"><ele>415.0</ele><time>2026-04-11T14:53:06Z</time></trkpt><trkpt lat="36.94677335518307" lon="15.023659666461652"><ele>415.2857142857143</ele><time>2026-04-11T14:53:07Z</time></trkpt><trkpt lat="36.94682355962438" lon="15.02374773159138"><ele>415.57142857142856</ele><time>2026-04-11T14:53:08Z</time></trkpt><trkpt lat="36.946885537217334" lon="15.02380789726148"><ele>415.8571428571429</ele><time>2026-04-11T14:53:09Z</time></trkpt><trkpt lat="36.94694883663839" lon="15.023858643549193"><ele>416.1428571428571</ele><time>2026-04-11T14:53:10Z</time></trkpt><trkpt lat="36.947015067791476" lon="15.023883934391838"><ele>416.4285714285714</ele><time>2026-04-11T14:53:11Z</time></trkpt><trkpt lat="36.94707307615764" lon="15.023921401002402"><ele>416.7142857142857</ele><time>2026-04-11T14:53:12Z</time></trkpt><trkpt lat="36.947136397690464" lon="15.02393299481907"><ele>417.0</ele><time>2026-04-11T14:53:13Z</time></trkpt><trkpt lat="36.94724397313388" lon="15.02394602306161"><ele>417.0</ele><time>2026-04-11T14:53:15Z</time></trkpt><trkpt lat="36.9473317060951" lon="15.023990930859801"><ele>417.0</ele><time>2026-04-11T14:53:17Z</time></trkpt><trkpt lat="36.94741292527607" lon="15.024068948577472"><ele>417.0</ele><time>2026-04-11T14:53:19Z</time></trkpt><trkpt lat="36.9474898383103" lon="15.024138535040436"><ele>417.0</ele><time>2026-04-11T14:53:21Z</time></trkpt><trkpt lat="36.94755271875661" lon="15.024228945079235"><ele>417.0</ele><time>2026-04-11T14:53:23Z</time></trkpt><trkpt lat="36.94759544480702" lon="15.02433133900633"><ele>417.8333333333333</ele><time>2026-04-11T14:53:25Z</time></trkpt><trkpt lat="36.947614129697925" lon="15.024447548517852"><ele>418.66666666666663</ele><time>2026-04-11T14:53:27Z</time></trkpt><trkpt lat="36.94763230151174" lon="15.02454134502067"><ele>419.5</ele><time>2026-04-11T14:53:29Z</time></trkpt><trkpt lat="36.947649011869956" lon="15.024625987525372"><ele>420.3333333333333</ele><time>2026-04-11T14:53:31Z</time></trkpt><trkpt lat="36.94766640268158" lon="15.024719739775778"><ele>421.16666666666663</ele><time>2026-04-11T14:53:33Z</time></trkpt><trkpt lat="36.94768082971949" lon="15.02479972328239"><ele>422.0</ele><time>2026-04-11T14:53:35Z</time></trkpt><trkpt lat="36.94773965598409" lon="15.024838047681918"><ele>421.99999999999994</ele><time>2026-04-11T14:53:36Z</time></trkpt><trkpt lat="36.94777663451538" lon="15.024924264139926"><ele>422.0</ele><time>2026-04-11T14:53:38Z</time></trkpt><trkpt lat="36.94781346749612" lon="15.024994542419043"><ele>422.0</ele><time>2026-04-11T14:53:41Z</time></trkpt><trkpt lat="36.947895705744145" lon="15.025137542329785"><ele>422.0</ele><time>2026-04-11T14:53:44Z</time></trkpt><trkpt lat="36.94796284100631" lon="15.025201593593419"><ele>421.99999999999994</ele><time>2026-04-11T14:53:46Z</time></trkpt><trkpt lat="36.948028669136185" lon="15.025221968333456"><ele>422.0</ele><time>2026-04-11T14:53:48Z</time></trkpt><trkpt lat="36.948100350499644" lon="15.025238585824416"><ele>419.14285714285717</ele><time>2026-04-11T14:53:50Z</time></trkpt><trkpt lat="36.94816339572164" lon="15.02527669774003"><ele>416.28571428571433</ele><time>2026-04-11T14:53:52Z</time></trkpt><trkpt lat="36.948228043414346" lon="15.025291400816856"><ele>413.42857142857144</ele><time>2026-04-11T14:53:54Z</time></trkpt><trkpt lat="36.948290367058874" lon="15.025312756431024"><ele>410.57142857142856</ele><time>2026-04-11T14:53:56Z</time></trkpt><trkpt lat="36.94836475775216" lon="15.02531016568872"><ele>407.7142857142857</ele><time>2026-04-11T14:53:59Z</time></trkpt><trkpt lat="36.948441001301994" lon="15.025310794158768"><ele>404.85714285714283</ele><time>2026-04-11T14:54:01Z</time></trkpt><trkpt lat="36.9485109741574" lon="15.025300961218331"><ele>402.0</ele><time>2026-04-11T14:54:02Z</time></trkpt><trkpt lat="36.948590114799465" lon="15.025279190049071"><ele>401.8333333333333</ele><time>2026-04-11T14:54:05Z</time></trkpt><trkpt lat="36.94868245368698" lon="15.025306422798213"><ele>401.66666666666663</ele><time>2026-04-11T14:54:08Z</time></trkpt><trkpt lat="36.94876071360427" lon="15.025292483107807"><ele>401.5</ele><time>2026-04-11T14:54:11Z</time></trkpt><trkpt lat="36.94883421938318" lon="15.025274113786054"><ele>401.3333333333333</ele><time>2026-04-11T14:54:14Z</time></trkpt><trkpt lat="36.94890234530956" lon="15.025245799529314"><ele>401.16666666666663</ele><time>2026-04-11T14:54:16.999Z</time></trkpt><trkpt lat="36.94897201436838" lon="15.025219930012613"><ele>401.0</ele><time>2026-04-11T14:54:22.999Z</time></trkpt><trkpt lat="36.94903478364565" lon="15.025200545260315"><ele>400.99999999999994</ele><time>2026-04-11T14:54:24.999Z</time></trkpt><trkpt lat="36.94910127264383" lon="15.025135856119403"><ele>401.0</ele><time>2026-04-11T14:54:26.999Z</time></trkpt><trkpt lat="36.949194768639316" lon="15.025053157753671"><ele>401.0</ele><time>2026-04-11T14:54:28.999Z</time></trkpt><trkpt lat="36.949266184296526" lon="15.024982829255132"><ele>401.0</ele><time>2026-04-11T14:54:32.001Z</time></trkpt><trkpt lat="36.94934029022768" lon="15.024937771667592"><ele>400.99999999999994</ele><time>2026-04-11T14:54:36.001Z</time></trkpt><trkpt lat="36.94939487230809" lon="15.024897160533065"><ele>401.0</ele><time>2026-04-11T14:54:39.001Z</time></trkpt><trkpt lat="36.949470198563056" lon="15.024864836563252"><ele>401.14285714285717</ele><time>2026-04-11T14:54:44Z</time></trkpt><trkpt lat="36.94954603290181" lon="15.024906683399227"><ele>401.28571428571433</ele><time>2026-04-11T14:54:47Z</time></trkpt><trkpt lat="36.949615948700895" lon="15.024880193461215"><ele>401.42857142857144</ele><time>2026-04-11T14:54:52Z</time></trkpt><trkpt lat="36.949682340285506" lon="15.024844200408866"><ele>401.57142857142856</ele><time>2026-04-11T14:54:57Z</time></trkpt><trkpt lat="36.949742213743114" lon="15.024807579547602"><ele>401.7142857142857</ele><time>2026-04-11T14:55:01Z</time></trkpt><trkpt lat="36.949805303658316" lon="15.024803038606194"><ele>401.85714285714283</ele><time>2026-04-11T14:55:05Z</time></trkpt><trkpt lat="36.949850684969064" lon="15.02474045070991"><ele>402.0</ele><time>2026-04-11T14:55:12Z</time></trkpt><trkpt lat="36.94984553565499" lon="15.024832595941858"><ele>402.0</ele><time>2026-04-11T14:55:27Z</time></trkpt><trkpt lat="36.94979917656614" lon="15.024934102246977"><ele>402.0</ele><time>2026-04-11T14:56:39Z</time></trkpt><trkpt lat="36.94974219617473" lon="15.024968242522931"><ele>402.0</ele><time>2026-04-11T14:56:51Z</time></trkpt><trkpt lat="36.949679459264445" lon="15.025003168713376"><ele>402.0</ele><time>2026-04-11T14:56:57Z</time></trkpt><trkpt lat="36.949626365953826" lon="15.025094899829863"><ele>402.0</ele><time>2026-04-11T14:57:20Z</time></trkpt><trkpt lat="36.94979917656614" lon="15.024934102246977"><ele>402.0</ele><time>2026-04-11T14:56:39Z</time></trkpt><trkpt lat="36.94974219617473" lon="15.024968242522931"><ele>402.0</ele><time>2026-04-11T14:56:51Z</time></trkpt><trkpt lat="36.949679459264445" lon="15.025003168713376"><ele>402.0</ele><time>2026-04-11T14:56:57Z</time></trkpt><trkpt lat="36.949626365953826" lon="15.025094899829863"><ele>402.0</ele><time>2026-04-11T14:57:20Z</time></trkpt><trkpt lat="36.949580224504004" lon="15.025149084448932"><ele>402.0</ele><time>2026-04-11T14:57:45Z</time></trkpt><trkpt lat="36.94951482730475" lon="15.025212211923067"><ele>402.0</ele><time>2026-04-11T14:57:49Z</time></trkpt><trkpt lat="36.9494901376938" lon="15.025287044202576"><ele>402.0</ele><time>2026-04-11T14:57:53Z</time></trkpt><trkpt lat="36.94945275591611" lon="15.025363570981332"><ele>401.85714285714283</ele><time>2026-04-11T14:57:59Z</time></trkpt><trkpt lat="36.94949105974564" lon="15.02542774136607"><ele>401.7142857142857</ele><time>2026-04-11T14:58:13Z</time></trkpt><trkpt lat="36.94957300712629" lon="15.025423585143196"><ele>401.57142857142856</ele><time>2026-04-11T14:58:18.999Z</time></trkpt><trkpt lat="36.949636508938575" lon="15.02541014075663"><ele>401.42857142857144</ele><time>2026-04-11T14:58:20.999Z</time></trkpt><trkpt lat="36.9496825477464" lon="15.025473814448874"><ele>401.28571428571433</ele><time>2026-04-11T14:58:25.999Z</time></trkpt><trkpt lat="36.94975035793742" lon="15.025422174943188"><ele>401.14285714285717</ele><time>2026-04-11T14:58:31.999Z</time></trkpt><trkpt lat="36.94982166809035" lon="15.02537027163057"><ele>401.0</ele><time>2026-04-11T14:58:38.999Z</time></trkpt><trkpt lat="36.949866522809984" lon="15.025306062212962"><ele>401.0</ele><time>2026-04-11T14:58:41.999Z</time></trkpt><trkpt lat="36.94993785830824" lon="15.025276810542056"><ele>401.0</ele><time>2026-04-11T14:58:45Z</time></trkpt><trkpt lat="36.95001237726963" lon="15.025256657295872"><ele>401.0</ele><time>2026-04-11T14:58:48Z</time></trkpt><trkpt lat="36.95007491634721" lon="15.025284784810271"><ele>401.0</ele><time>2026-04-11T14:58:53Z</time></trkpt><trkpt lat="36.950083095668006" lon="15.025367938383559"><ele>401.0</ele><time>2026-04-11T14:59:26Z</time></trkpt><trkpt lat="36.95008183960886" lon="15.025462826408042"><ele>401.0</ele><time>2026-04-11T14:59:42Z</time></trkpt><trkpt lat="36.950151131109976" lon="15.025440822345107"><ele>401.0</ele><time>2026-04-11T14:59:56Z</time></trkpt><trkpt lat="36.950191310009025" lon="15.025519196582263"><ele>403.14285714285717</ele><time>2026-04-11T14:59:59Z</time></trkpt><trkpt lat="36.95016773493623" lon="15.025597703186902"><ele>405.28571428571433</ele><time>2026-04-11T15:00:03Z</time></trkpt><trkpt lat="36.95018854998519" lon="15.025687796031109"><ele>407.42857142857144</ele><time>2026-04-11T15:00:06Z</time></trkpt><trkpt lat="36.9502067837921" lon="15.025780447436128"><ele>409.57142857142856</ele><time>2026-04-11T15:00:09Z</time></trkpt><trkpt lat="36.95028978510253" lon="15.02577732123761"><ele>411.7142857142857</ele><time>2026-04-11T15:00:12Z</time></trkpt><trkpt lat="36.950356139005976" lon="15.02581352039527"><ele>413.85714285714283</ele><time>2026-04-11T15:00:14Z</time></trkpt><trkpt lat="36.950396797161545" lon="15.025882817410071"><ele>416.0</ele><time>2026-04-11T15:00:16Z</time></trkpt><trkpt lat="36.950413721495536" lon="15.025967260216717"><ele>416.85714285714283</ele><time>2026-04-11T15:00:24.999Z</time></trkpt><trkpt lat="36.95044760598423" lon="15.026053816521477"><ele>417.7142857142857</ele><time>2026-04-11T15:00:26.999Z</time></trkpt><trkpt lat="36.95047201844724" lon="15.026136734679882"><ele>418.57142857142856</ele><time>2026-04-11T15:00:29.999Z</time></trkpt><trkpt lat="36.95049307641116" lon="15.02621630680241"><ele>419.42857142857144</ele><time>2026-04-11T15:00:31.999Z</time></trkpt><trkpt lat="36.950498403416994" lon="15.026131835873393"><ele>420.28571428571433</ele><time>2026-04-11T15:00:57Z</time></trkpt><trkpt lat="36.95051698586236" lon="15.026214929077398"><ele>421.14285714285717</ele><time>2026-04-11T15:01:57Z</time></trkpt><trkpt lat="36.950553937146886" lon="15.026299911180827"><ele>422.0</ele><time>2026-04-11T15:02:30.999Z</time></trkpt><trkpt lat="36.95061331079131" lon="15.026341429037185"><ele>422.0</ele><time>2026-04-11T15:03:02Z</time></trkpt><trkpt lat="36.9507333897226" lon="15.02641630882967"><ele>422.0</ele><time>2026-04-11T15:09:54.999Z</time></trkpt><trkpt lat="36.950812883069226" lon="15.026500407270472"><ele>422.0</ele><time>2026-04-11T15:09:55.999Z</time></trkpt><trkpt lat="36.950896334656115" lon="15.02658280257404"><ele>422.0</ele><time>2026-04-11T15:09:56.999Z</time></trkpt><trkpt lat="36.95099223761259" lon="15.026669241673023"><ele>420.8</ele><time>2026-04-11T15:09:57.999Z</time></trkpt><trkpt lat="36.951060996748595" lon="15.026803691196843"><ele>419.6</ele><time>2026-04-11T15:09:58.999Z</time></trkpt><trkpt lat="36.95114451269246" lon="15.026884040861859"><ele>418.40000000000003</ele><time>2026-04-11T15:09:59.999Z</time></trkpt><trkpt lat="36.951222385112985" lon="15.026967520112795"><ele>417.20000000000005</ele><time>2026-04-11T15:10:00.999Z</time></trkpt><trkpt lat="36.95129753657869" lon="15.027049801068756"><ele>416.0</ele><time>2026-04-11T15:10:01.999Z</time></trkpt><trkpt lat="36.95136818613783" lon="15.027130828497159"><ele>415.99999999999994</ele><time>2026-04-11T15:10:02.999Z</time></trkpt><trkpt lat="36.95143699167881" lon="15.02721038624468"><ele>416.0</ele><time>2026-04-11T15:10:03.999Z</time></trkpt><trkpt lat="36.95149949242741" lon="15.02728500490369"><ele>416.0</ele><time>2026-04-11T15:10:04.999Z</time></trkpt><trkpt lat="36.95155884586712" lon="15.027357509563869"><ele>416.0</ele><time>2026-04-11T15:10:05.999Z</time></trkpt><trkpt lat="36.95161381311772" lon="15.02742603343683"><ele>415.99999999999994</ele><time>2026-04-11T15:10:06.999Z</time></trkpt><trkpt lat="36.95166656747797" lon="15.027495850436875"><ele>416.0</ele><time>2026-04-11T15:10:07.999Z</time></trkpt><trkpt lat="36.95171238704158" lon="15.027558167623033"><ele>415.6</ele><time>2026-04-11T15:10:08.999Z</time></trkpt><trkpt lat="36.95175533831355" lon="15.027618967601876"><ele>415.20000000000005</ele><time>2026-04-11T15:10:09.999Z</time></trkpt><trkpt lat="36.951833389722594" lon="15.02773910347365"><ele>414.79999999999995</ele><time>2026-04-11T15:10:11.999Z</time></trkpt><trkpt lat="36.9519019086776" lon="15.027872928559285"><ele>414.4</ele><time>2026-04-11T15:10:13.999Z</time></trkpt><trkpt lat="36.95193851592942" lon="15.02796298269285"><ele>414.0</ele><time>2026-04-11T15:10:14.999Z</time></trkpt><trkpt lat="36.95197464811281" lon="15.028067613435388"><ele>414.0</ele><time>2026-04-11T15:10:15.999Z</time></trkpt><trkpt lat="36.95201194807034" lon="15.028187773054693"><ele>414.0</ele><time>2026-04-11T15:10:16.999Z</time></trkpt><trkpt lat="36.95204690322487" lon="15.028314282116776"><ele>414.0</ele><time>2026-04-11T15:10:17.999Z</time></trkpt><trkpt lat="36.95207768721171" lon="15.028445773727716"><ele>414.0</ele><time>2026-04-11T15:10:18.999Z</time></trkpt><trkpt lat="36.95210535498058" lon="15.02857288392694"><ele>414.0</ele><time>2026-04-11T15:10:19.999Z</time></trkpt><trkpt lat="36.95213002854185" lon="15.028688931582979"><ele>413.0</ele><time>2026-04-11T15:10:20.999Z</time></trkpt><trkpt lat="36.95215028484593" lon="15.028792359125653"><ele>412.0</ele><time>2026-04-11T15:10:21.999Z</time></trkpt><trkpt lat="36.95216908443585" lon="15.028889900855622"><ele>411.0</ele><time>2026-04-11T15:10:22.999Z</time></trkpt><trkpt lat="36.952185669304804" lon="15.028975600069069"><ele>410.0</ele><time>2026-04-11T15:10:23.999Z</time></trkpt><trkpt lat="36.95221536691671" lon="15.029140394853984"><ele>409.0</ele><time>2026-04-11T15:10:25.999Z</time></trkpt><trkpt lat="36.95223323133902" lon="15.02923971359902"><ele>408.79999999999995</ele><time>2026-04-11T15:10:26.999Z</time></trkpt><trkpt lat="36.95225426182114" lon="15.02935024625615"><ele>408.59999999999997</ele><time>2026-04-11T15:10:27.999Z</time></trkpt><trkpt lat="36.95228209526344" lon="15.029468810421394"><ele>408.4</ele><time>2026-04-11T15:10:28.999Z</time></trkpt><trkpt lat="36.952317326374335" lon="15.029591075750542"><ele>408.2</ele><time>2026-04-11T15:10:29.999Z</time></trkpt><trkpt lat="36.95235447667219" lon="15.029716133118068"><ele>408.0</ele><time>2026-04-11T15:10:30.999Z</time></trkpt><trkpt lat="36.95239444846178" lon="15.029845235939352"><ele>408.0</ele><time>2026-04-11T15:10:31.999Z</time></trkpt><trkpt lat="36.952447913816094" lon="15.029963177269279"><ele>408.0</ele><time>2026-04-11T15:10:32.999Z</time></trkpt><trkpt lat="36.952520152390804" lon="15.03005864054116"><ele>408.0</ele><time>2026-04-11T15:10:33.999Z</time></trkpt><trkpt lat="36.95261638317397" lon="15.030118191513756"><ele>408.0</ele><time>2026-04-11T15:10:34.999Z</time></trkpt><trkpt lat="36.952739298563806" lon="15.030079191462113"><ele>408.0</ele><time>2026-04-11T15:10:35.999Z</time></trkpt><trkpt lat="36.95284543060168" lon="15.030071473314994"><ele>407.4</ele><time>2026-04-11T15:10:36.999Z</time></trkpt><trkpt lat="36.952944380299726" lon="15.030079650725606"><ele>406.79999999999995</ele><time>2026-04-11T15:10:37.999Z</time></trkpt><trkpt lat="36.95303302428865" lon="15.03013479650826"><ele>406.2</ele><time>2026-04-11T15:10:38.999Z</time></trkpt><trkpt lat="36.95310670394215" lon="15.03019185645839"><ele>405.6</ele><time>2026-04-11T15:10:39.999Z</time></trkpt><trkpt lat="36.953174071990624" lon="15.030258570064921"><ele>405.0</ele><time>2026-04-11T15:10:40.999Z</time></trkpt><trkpt lat="36.953244795700144" lon="15.03033217720547"><ele>405.0</ele><time>2026-04-11T15:10:41.999Z</time></trkpt><trkpt lat="36.95331129236284" lon="15.030405761001887"><ele>405.0</ele><time>2026-04-11T15:10:42.999Z</time></trkpt><trkpt lat="36.95337541028" lon="15.03047902963374"><ele>405.0</ele><time>2026-04-11T15:10:43.999Z</time></trkpt><trkpt lat="36.95343865228333" lon="15.030552705394316"><ele>405.0</ele><time>2026-04-11T15:10:44.999Z</time></trkpt><trkpt lat="36.95349899847417" lon="15.03062300758962"><ele>405.0</ele><time>2026-04-11T15:10:45.999Z</time></trkpt><trkpt lat="36.95355943301473" lon="15.030692945388605"><ele>405.0</ele><time>2026-04-11T15:10:46.999Z</time></trkpt><trkpt lat="36.953619204051265" lon="15.030758360029557"><ele>402.6666666666667</ele><time>2026-04-11T15:10:47.999Z</time></trkpt><trkpt lat="36.9536788440355" lon="15.030819989185177"><ele>400.33333333333337</ele><time>2026-04-11T15:10:48.999Z</time></trkpt><trkpt lat="36.95373890846419" lon="15.030875061431143"><ele>398.0</ele><time>2026-04-11T15:10:49.999Z</time></trkpt><trkpt lat="36.95379840162056" lon="15.030921877753464"><ele>395.6666666666667</ele><time>2026-04-11T15:10:50.999Z</time></trkpt><trkpt lat="36.9538732952301" lon="15.030964668200788"><ele>393.33333333333337</ele><time>2026-04-11T15:10:51.999Z</time></trkpt><trkpt lat="36.95396338317432" lon="15.030996002356837"><ele>391.0</ele><time>2026-04-11T15:10:52.999Z</time></trkpt><trkpt lat="36.954066361562596" lon="15.030993225321732"><ele>391.0</ele><time>2026-04-11T15:10:53.999Z</time></trkpt><trkpt lat="36.95417548234884" lon="15.031006036411457"><ele>391.0</ele><time>2026-04-11T15:10:54.999Z</time></trkpt><trkpt lat="36.95429144410021" lon="15.031005769018517"><ele>391.0</ele><time>2026-04-11T15:10:55.999Z</time></trkpt><trkpt lat="36.95441725812401" lon="15.031012396918225"><ele>391.0</ele><time>2026-04-11T15:10:56.999Z</time></trkpt><trkpt lat="36.95454320640629" lon="15.031002541018829"><ele>390.0</ele><time>2026-04-11T15:10:57.999Z</time></trkpt><trkpt lat="36.954657234390034" lon="15.031002383882791"><ele>389.0</ele><time>2026-04-11T15:10:58.999Z</time></trkpt><trkpt lat="36.954763806662285" lon="15.030980861042028"><ele>388.0</ele><time>2026-04-11T15:10:59.999Z</time></trkpt><trkpt lat="36.95488366208699" lon="15.030941338255559"><ele>387.0</ele><time>2026-04-11T15:11:00.999Z</time></trkpt><trkpt lat="36.955012739349776" lon="15.030904829421665"><ele>385.8</ele><time>2026-04-11T15:11:01.999Z</time></trkpt><trkpt lat="36.955123840075316" lon="15.03087742968534"><ele>384.6</ele><time>2026-04-11T15:11:02.999Z</time></trkpt><trkpt lat="36.95522904946725" lon="15.030856872910707"><ele>383.40000000000003</ele><time>2026-04-11T15:11:03.999Z</time></trkpt><trkpt lat="36.9553274992188" lon="15.030839629617917"><ele>382.20000000000005</ele><time>2026-04-11T15:11:04.999Z</time></trkpt><trkpt lat="36.955419080560375" lon="15.030823987419813"><ele>381.0</ele><time>2026-04-11T15:11:05.999Z</time></trkpt><trkpt lat="36.95551377268994" lon="15.03080933610742"><ele>382.5</ele><time>2026-04-11T15:11:06.999Z</time></trkpt><trkpt lat="36.9556207111283" lon="15.030793115617199"><ele>384.0</ele><time>2026-04-11T15:11:07.999Z</time></trkpt><trkpt lat="36.95573779476757" lon="15.03077250318126"><ele>385.5</ele><time>2026-04-11T15:11:08.999Z</time></trkpt><trkpt lat="36.955861114234494" lon="15.030749201215162"><ele>387.0</ele><time>2026-04-11T15:11:09.999Z</time></trkpt><trkpt lat="36.95598788601257" lon="15.030725957724524"><ele>387.0</ele><time>2026-04-11T15:11:10.999Z</time></trkpt><trkpt lat="36.95612083754187" lon="15.030698797176312"><ele>387.0</ele><time>2026-04-11T15:11:11.999Z</time></trkpt><trkpt lat="36.95625669988874" lon="15.030675359083629"><ele>387.0</ele><time>2026-04-11T15:11:12.999Z</time></trkpt><trkpt lat="36.9563775189024" lon="15.030651994699449"><ele>387.0</ele><time>2026-04-11T15:11:13.999Z</time></trkpt><trkpt lat="36.956490187493635" lon="15.030635885683306"><ele>387.0</ele><time>2026-04-11T15:11:14.999Z</time></trkpt><trkpt lat="36.956594032443164" lon="15.030627616996428"><ele>387.0</ele><time>2026-04-11T15:11:15.999Z</time></trkpt><trkpt lat="36.956661803719335" lon="15.030557726325032"><ele>387.0</ele><time>2026-04-11T15:11:16.999Z</time></trkpt><trkpt lat="36.956677560271174" lon="15.030481344494877"><ele>387.0</ele><time>2026-04-11T15:11:17.999Z</time></trkpt><trkpt lat="36.9567042714276" lon="15.030400002386502"><ele>387.0</ele><time>2026-04-11T15:11:18.999Z</time></trkpt><trkpt lat="36.95672482847041" lon="15.03030416415359"><ele>387.0</ele><time>2026-04-11T15:11:19.999Z</time></trkpt><trkpt lat="36.9567536280232" lon="15.030185702149774"><ele>388.0</ele><time>2026-04-11T15:11:20.999Z</time></trkpt><trkpt lat="36.956783657422875" lon="15.03006483847856"><ele>389.0</ele><time>2026-04-11T15:11:21.999Z</time></trkpt><trkpt lat="36.956827776729554" lon="15.029952738679372"><ele>390.0</ele><time>2026-04-11T15:11:22.999Z</time></trkpt><trkpt lat="36.95688892124516" lon="15.029848107431096"><ele>391.0</ele><time>2026-04-11T15:11:23.999Z</time></trkpt><trkpt lat="36.95695171155267" lon="15.029748797100199"><ele>392.0</ele><time>2026-04-11T15:11:24.999Z</time></trkpt><trkpt lat="36.957016130560596" lon="15.029651303390429"><ele>392.8333333333333</ele><time>2026-04-11T15:11:25.999Z</time></trkpt><trkpt lat="36.95710415370547" lon="15.029592105105214"><ele>393.66666666666663</ele><time>2026-04-11T15:11:26.999Z</time></trkpt><trkpt lat="36.957206162418494" lon="15.029590981175167"><ele>394.5</ele><time>2026-04-11T15:11:27.999Z</time></trkpt><trkpt lat="36.957278352950034" lon="15.029585956392358"><ele>395.33333333333337</ele><time>2026-04-11T15:11:28.999Z</time></trkpt><trkpt lat="36.957282787597656" lon="15.029694932301746"><ele>396.1666666666667</ele><time>2026-04-11T15:11:29.999Z</time></trkpt><trkpt lat="36.95731932116526" lon="15.029768017212584"><ele>397.0</ele><time>2026-04-11T15:11:30.999Z</time></trkpt><trkpt lat="36.957284487123" lon="15.029843678056949"><ele>395.75</ele><time>2026-04-11T15:11:32.999Z</time></trkpt><trkpt lat="36.95720738954599" lon="15.030017903370327"><ele>394.5</ele><time>2026-04-11T15:11:34.999Z</time></trkpt><trkpt lat="36.95718045220372" lon="15.030145027435653"><ele>393.25</ele><time>2026-04-11T15:11:35.999Z</time></trkpt><trkpt lat="36.95719896048158" lon="15.03031066732537"><ele>392.0</ele><time>2026-04-11T15:11:36.999Z</time></trkpt><trkpt lat="36.95731526539942" lon="15.030429747004113"><ele>392.0</ele><time>2026-04-11T15:11:37.999Z</time></trkpt><trkpt lat="36.95735370469651" lon="15.030522636501457"><ele>392.0</ele><time>2026-04-11T15:11:38.999Z</time></trkpt><trkpt lat="36.95742103911063" lon="15.030624459813763"><ele>392.0</ele><time>2026-04-11T15:11:39.999Z</time></trkpt><trkpt lat="36.957468450905324" lon="15.030732904510867"><ele>392.0</ele><time>2026-04-11T15:11:40.999Z</time></trkpt><trkpt lat="36.95749866527207" lon="15.03083333861765"><ele>392.0</ele><time>2026-04-11T15:11:41.999Z</time></trkpt><trkpt lat="36.957523323185946" lon="15.030942350571012"><ele>389.0</ele><time>2026-04-11T15:11:42.999Z</time></trkpt><trkpt lat="36.95749735203261" lon="15.031014849106207"><ele>386.0</ele><time>2026-04-11T15:11:43.999Z</time></trkpt><trkpt lat="36.95747508269356" lon="15.031172404479046"><ele>383.0</ele><time>2026-04-11T15:11:45.999Z</time></trkpt><trkpt lat="36.95745982498437" lon="15.031289886568857"><ele>380.0</ele><time>2026-04-11T15:11:46.999Z</time></trkpt><trkpt lat="36.957447570673764" lon="15.031399165401822"><ele>377.0</ele><time>2026-04-11T15:11:47.999Z</time></trkpt><trkpt lat="36.95742959400126" lon="15.031501494838551"><ele>377.0</ele><time>2026-04-11T15:11:48.999Z</time></trkpt><trkpt lat="36.957394134799" lon="15.0315759423816"><ele>377.0</ele><time>2026-04-11T15:11:49.999Z</time></trkpt><trkpt lat="36.95727461001643" lon="15.031599460287309"><ele>377.0</ele><time>2026-04-11T15:11:51.999Z</time></trkpt><trkpt lat="36.95719857940653" lon="15.031608690005827"><ele>377.0</ele><time>2026-04-11T15:11:52.999Z</time></trkpt><trkpt lat="36.9571216525634" lon="15.031637416722155"><ele>377.0</ele><time>2026-04-11T15:11:53.999Z</time></trkpt><trkpt lat="36.95703966026492" lon="15.031680848936034"><ele>377.0</ele><time>2026-04-11T15:11:54.999Z</time></trkpt><trkpt lat="36.956958525062184" lon="15.03174795528205"><ele>377.0</ele><time>2026-04-11T15:11:55.999Z</time></trkpt><trkpt lat="36.956907892598466" lon="15.031816830688713"><ele>377.0</ele><time>2026-04-11T15:11:56.999Z</time></trkpt><trkpt lat="36.95683652479289" lon="15.031916869420677"><ele>377.0</ele><time>2026-04-11T15:11:57.999Z</time></trkpt><trkpt lat="36.95676911505911" lon="15.032026258044725"><ele>377.0</ele><time>2026-04-11T15:11:58.999Z</time></trkpt><trkpt lat="36.95669991491207" lon="15.032145933916283"><ele>377.0</ele><time>2026-04-11T15:11:59.999Z</time></trkpt><trkpt lat="36.956638097531965" lon="15.032259148449311"><ele>375.8</ele><time>2026-04-11T15:12:00.999Z</time></trkpt><trkpt lat="36.95657756334855" lon="15.032374917820114"><ele>374.6</ele><time>2026-04-11T15:12:01.999Z</time></trkpt><trkpt lat="36.956517354358326" lon="15.03249124325827"><ele>373.40000000000003</ele><time>2026-04-11T15:12:02.999Z</time></trkpt><trkpt lat="36.956456951180414" lon="15.032607943882926"><ele>372.20000000000005</ele><time>2026-04-11T15:12:03.999Z</time></trkpt><trkpt lat="36.95639855413949" lon="15.032723501501495"><ele>371.0</ele><time>2026-04-11T15:12:04.999Z</time></trkpt><trkpt lat="36.9563519204134" lon="15.032818463426961"><ele>373.8</ele><time>2026-04-11T15:12:05.999Z</time></trkpt><trkpt lat="36.95631079612247" lon="15.032905263098934"><ele>376.6</ele><time>2026-04-11T15:12:06.999Z</time></trkpt><trkpt lat="36.956273854203346" lon="15.032989114074086"><ele>379.4</ele><time>2026-04-11T15:12:07.999Z</time></trkpt><trkpt lat="36.956250834812764" lon="15.033080745288023"><ele>382.2</ele><time>2026-04-11T15:12:08.999Z</time></trkpt><trkpt lat="36.956289689834776" lon="15.033213743721797"><ele>385.0</ele><time>2026-04-11T15:12:09.999Z</time></trkpt><trkpt lat="36.95642529626462" lon="15.033252455299523"><ele>385.0</ele><time>2026-04-11T15:12:10.999Z</time></trkpt><trkpt lat="36.95653781811684" lon="15.033180692529188"><ele>385.0</ele><time>2026-04-11T15:12:11.999Z</time></trkpt><trkpt lat="36.9566176625457" lon="15.033131479941732"><ele>385.0</ele><time>2026-04-11T15:12:12.999Z</time></trkpt><trkpt lat="36.95672517829466" lon="15.033100191217692"><ele>385.0</ele><time>2026-04-11T15:12:13.999Z</time></trkpt><trkpt lat="36.9568419803867" lon="15.03303736652331"><ele>387.0</ele><time>2026-04-11T15:12:14.999Z</time></trkpt><trkpt lat="36.95697040045992" lon="15.032978460454048"><ele>389.0</ele><time>2026-04-11T15:12:15.999Z</time></trkpt><trkpt lat="36.957106245642926" lon="15.032917039086538"><ele>391.0</ele><time>2026-04-11T15:12:16.999Z</time></trkpt><trkpt lat="36.957247597445956" lon="15.032852142865346"><ele>393.0</ele><time>2026-04-11T15:12:17.999Z</time></trkpt><trkpt lat="36.95738638684414" lon="15.03278380392712"><ele>393.0</ele><time>2026-04-11T15:12:18.999Z</time></trkpt><trkpt lat="36.957524322500355" lon="15.03272185060598"><ele>393.0</ele><time>2026-04-11T15:12:19.999Z</time></trkpt><trkpt lat="36.95766137117533" lon="15.032658479153213"><ele>393.0</ele><time>2026-04-11T15:12:20.999Z</time></trkpt><trkpt lat="36.95778941919628" lon="15.032621193318969"><ele>393.0</ele><time>2026-04-11T15:12:21.999Z</time></trkpt><trkpt lat="36.95789292698169" lon="15.032583633117538"><ele>391.6666666666667</ele><time>2026-04-11T15:12:22.999Z</time></trkpt><trkpt lat="36.95798304726424" lon="15.032560234926919"><ele>390.33333333333337</ele><time>2026-04-11T15:12:23.999Z</time></trkpt><trkpt lat="36.958058107831945" lon="15.032568789247062"><ele>389.0</ele><time>2026-04-11T15:12:24.999Z</time></trkpt><trkpt lat="36.95810903000058" lon="15.032695752542633"><ele>387.6666666666667</ele><time>2026-04-11T15:12:26.999Z</time></trkpt><trkpt lat="36.95812546298736" lon="15.032773835020093"><ele>386.33333333333337</ele><time>2026-04-11T15:12:27.999Z</time></trkpt><trkpt lat="36.95815721167959" lon="15.032890725708462"><ele>385.0</ele><time>2026-04-11T15:12:28.999Z</time></trkpt><trkpt lat="36.9581879721983" lon="15.033018044967456"><ele>385.0</ele><time>2026-04-11T15:12:29.999Z</time></trkpt><trkpt lat="36.95822041587396" lon="15.033146792631008"><ele>385.0</ele><time>2026-04-11T15:12:30.999Z</time></trkpt><trkpt lat="36.958253379575766" lon="15.03327560462659"><ele>385.0</ele><time>2026-04-11T15:12:31.999Z</time></trkpt><trkpt lat="36.95828659415788" lon="15.033405396993098"><ele>385.0</ele><time>2026-04-11T15:12:32.999Z</time></trkpt><trkpt lat="36.958319956299015" lon="15.033533856067518"><ele>385.0</ele><time>2026-04-11T15:12:33.999Z</time></trkpt><trkpt lat="36.95835270687466" lon="15.033658519301017"><ele>387.50000000000006</ele><time>2026-04-11T15:12:34.999Z</time></trkpt><trkpt lat="36.958384728028804" lon="15.033776298593484"><ele>390.0</ele><time>2026-04-11T15:12:35.999Z</time></trkpt><trkpt lat="36.958414848699135" lon="15.033887087584136"><ele>392.5</ele><time>2026-04-11T15:12:36.999Z</time></trkpt><trkpt lat="36.958440284196506" lon="15.033980643709793"><ele>395.0</ele><time>2026-04-11T15:12:37.999Z</time></trkpt><trkpt lat="36.958462978676046" lon="15.034065041555017"><ele>397.50000000000006</ele><time>2026-04-11T15:12:38.999Z</time></trkpt><trkpt lat="36.95848657076253" lon="15.034157526355507"><ele>400.0</ele><time>2026-04-11T15:12:39.999Z</time></trkpt><trkpt lat="36.958511828364074" lon="15.034256540254301"><ele>402.1666666666667</ele><time>2026-04-11T15:12:40.999Z</time></trkpt><trkpt lat="36.958538252105114" lon="15.034356726316457"><ele>404.33333333333337</ele><time>2026-04-11T15:12:41.999Z</time></trkpt><trkpt lat="36.95856516913406" lon="15.034444273730703"><ele>406.5</ele><time>2026-04-11T15:12:42.999Z</time></trkpt><trkpt lat="36.95859297690662" lon="15.034525046284086"><ele>408.66666666666663</ele><time>2026-04-11T15:12:43.999Z</time></trkpt><trkpt lat="36.95862330267204" lon="15.03461371514939"><ele>410.8333333333333</ele><time>2026-04-11T15:12:44.999Z</time></trkpt><trkpt lat="36.95868109694221" lon="15.034702670796584"><ele>413.0</ele><time>2026-04-11T15:12:45.999Z</time></trkpt><trkpt lat="36.95874744402398" lon="15.034776549223068"><ele>413.0</ele><time>2026-04-11T15:12:46.999Z</time></trkpt><trkpt lat="36.95880151537815" lon="15.034842030146786"><ele>413.0</ele><time>2026-04-11T15:12:47.999Z</time></trkpt><trkpt lat="36.958861192276665" lon="15.034902708874611"><ele>413.0</ele><time>2026-04-11T15:12:48.999Z</time></trkpt><trkpt lat="36.958915861069784" lon="15.034959264178589"><ele>413.0</ele><time>2026-04-11T15:12:49.999Z</time></trkpt><trkpt lat="36.958964535309015" lon="15.035009618071474"><ele>413.0</ele><time>2026-04-11T15:12:50.999Z</time></trkpt><trkpt lat="36.959020429591895" lon="15.035068956822215"><ele>413.0</ele><time>2026-04-11T15:12:51.999Z</time></trkpt><trkpt lat="36.959080684985665" lon="15.035136071144711"><ele>413.0</ele><time>2026-04-11T15:12:52.999Z</time></trkpt><trkpt lat="36.95914804169633" lon="15.035211836497156"><ele>413.16666666666663</ele><time>2026-04-11T15:12:53.999Z</time></trkpt><trkpt lat="36.95921181496722" lon="15.035283571062115"><ele>413.3333333333333</ele><time>2026-04-11T15:12:54.999Z</time></trkpt><trkpt lat="36.959268620744446" lon="15.035347468329926"><ele>413.5</ele><time>2026-04-11T15:12:55.999Z</time></trkpt><trkpt lat="36.95932020306469" lon="15.035405490053794"><ele>413.66666666666663</ele><time>2026-04-11T15:12:56.999Z</time></trkpt><trkpt lat="36.959377947063274" lon="15.03546899524495"><ele>413.8333333333333</ele><time>2026-04-11T15:12:57.999Z</time></trkpt><trkpt lat="36.95944153432044" lon="15.035538124511989"><ele>414.0</ele><time>2026-04-11T15:12:58.999Z</time></trkpt><trkpt lat="36.959506274842795" lon="15.035608637352825"><ele>414.0</ele><time>2026-04-11T15:12:59.999Z</time></trkpt><trkpt lat="36.959572248653934" lon="15.035680600074018"><ele>414.0</ele><time>2026-04-11T15:13:00.999Z</time></trkpt><trkpt lat="36.95963739554596" lon="15.035751660810611"><ele>414.0</ele><time>2026-04-11T15:13:01.999Z</time></trkpt><trkpt lat="36.95970283003646" lon="15.035823035252681"><ele>414.0</ele><time>2026-04-11T15:13:02.999Z</time></trkpt><trkpt lat="36.95976855441022" lon="15.035894356161835"><ele>414.0</ele><time>2026-04-11T15:13:03.999Z</time></trkpt><trkpt lat="36.95983373015383" lon="15.035964386197366"><ele>414.0</ele><time>2026-04-11T15:13:04.999Z</time></trkpt><trkpt lat="36.95989106571858" lon="15.036025992118354"><ele>413.8333333333333</ele><time>2026-04-11T15:13:05.999Z</time></trkpt><trkpt lat="36.95995722916065" lon="15.03609708342063"><ele>413.66666666666663</ele><time>2026-04-11T15:13:07.999Z</time></trkpt><trkpt lat="36.96002705591278" lon="15.036172110856379"><ele>413.5</ele><time>2026-04-11T15:13:35Z</time></trkpt><trkpt lat="36.96010364798301" lon="15.036254422388636"><ele>413.3333333333333</ele><time>2026-04-11T15:13:51Z</time></trkpt><trkpt lat="36.960177561708264" lon="15.036334367035751"><ele>413.16666666666663</ele><time>2026-04-11T15:13:52Z</time></trkpt><trkpt lat="36.960227821819835" lon="15.036388727895526"><ele>413.0</ele><time>2026-04-11T15:13:53Z</time></trkpt><trkpt lat="36.96040942137948" lon="15.036217667431734"><ele>413.0</ele><time>2026-04-11T15:13:57Z</time></trkpt><trkpt lat="36.960548981893744" lon="15.036226629404082"><ele>413.0</ele><time>2026-04-11T15:14:00Z</time></trkpt><trkpt lat="36.96060002848683" lon="15.03629696612403"><ele>413.0</ele><time>2026-04-11T15:14:02Z</time></trkpt><trkpt lat="36.96077748718763" lon="15.036346731996627"><ele>413.0</ele><time>2026-04-11T15:14:04Z</time></trkpt><trkpt lat="36.960907137694136" lon="15.036371091517584"><ele>412.79999999999995</ele><time>2026-04-11T15:14:05Z</time></trkpt><trkpt lat="36.96101910867074" lon="15.036407182367872"><ele>412.6</ele><time>2026-04-11T15:14:06Z</time></trkpt><trkpt lat="36.96111029415877" lon="15.03645279150199"><ele>412.4</ele><time>2026-04-11T15:14:07Z</time></trkpt><trkpt lat="36.961178604827815" lon="15.036496812272544"><ele>412.20000000000005</ele><time>2026-04-11T15:14:08Z</time></trkpt><trkpt lat="36.961250852460424" lon="15.03652741033065"><ele>412.0</ele><time>2026-04-11T15:14:09Z</time></trkpt><trkpt lat="36.96133202142359" lon="15.03656894524285"><ele>412.0</ele><time>2026-04-11T15:14:10Z</time></trkpt><trkpt lat="36.96143038808046" lon="15.036609019806743"><ele>412.0</ele><time>2026-04-11T15:14:11Z</time></trkpt><trkpt lat="36.96152201298266" lon="15.036640710365011"><ele>412.0</ele><time>2026-04-11T15:14:12Z</time></trkpt><trkpt lat="36.961600258635265" lon="15.036667443798237"><ele>412.0</ele><time>2026-04-11T15:14:13Z</time></trkpt><trkpt lat="36.96168698449892" lon="15.03670418496262"><ele>412.0</ele><time>2026-04-11T15:14:14Z</time></trkpt><trkpt lat="36.961783531939474" lon="15.036734704809492"><ele>412.20000000000005</ele><time>2026-04-11T15:14:15Z</time></trkpt><trkpt lat="36.96187755449179" lon="15.036784155237962"><ele>412.4</ele><time>2026-04-11T15:14:16Z</time></trkpt><trkpt lat="36.961972610288676" lon="15.03683754663945"><ele>412.6</ele><time>2026-04-11T15:14:17Z</time></trkpt><trkpt lat="36.9620629033916" lon="15.036885305501151"><ele>412.79999999999995</ele><time>2026-04-11T15:14:18Z</time></trkpt><trkpt lat="36.96214563654096" lon="15.036941363333689"><ele>413.0</ele><time>2026-04-11T15:14:19Z</time></trkpt><trkpt lat="36.96222293099551" lon="15.037008616452892"><ele>413.0</ele><time>2026-04-11T15:14:20Z</time></trkpt><trkpt lat="36.96228622165545" lon="15.037076126618985"><ele>413.0</ele><time>2026-04-11T15:14:21Z</time></trkpt><trkpt lat="36.96233517637452" lon="15.037147367151382"><ele>413.0</ele><time>2026-04-11T15:14:22Z</time></trkpt><trkpt lat="36.96237843961994" lon="15.03723961831569"><ele>413.0</ele><time>2026-04-11T15:14:24Z</time></trkpt><trkpt lat="36.962450972939145" lon="15.037336165678159"><ele>413.0</ele><time>2026-04-11T15:14:28Z</time></trkpt><trkpt lat="36.962577561613536" lon="15.037501495062642"><ele>413.8333333333333</ele><time>2026-04-11T15:14:30Z</time></trkpt><trkpt lat="36.96262368246037" lon="15.037583041701518"><ele>414.66666666666663</ele><time>2026-04-11T15:14:31Z</time></trkpt><trkpt lat="36.96266066835776" lon="15.037668867932107"><ele>415.5</ele><time>2026-04-11T15:14:32Z</time></trkpt><trkpt lat="36.962726573589464" lon="15.037742530199505"><ele>416.33333333333337</ele><time>2026-04-11T15:14:33.999Z</time></trkpt><trkpt lat="36.962762113086356" lon="15.037665981968514"><ele>417.1666666666667</ele><time>2026-04-11T15:14:36.999Z</time></trkpt><trkpt lat="36.96285320420947" lon="15.03764798029263"><ele>418.0</ele><time>2026-04-11T15:14:39.999Z</time></trkpt><trkpt lat="36.962956701578136" lon="15.03759997800679"><ele>418.0</ele><time>2026-04-11T15:14:41.999Z</time></trkpt><trkpt lat="36.96302520548075" lon="15.037543250641868"><ele>418.0</ele><time>2026-04-11T15:14:42.999Z</time></trkpt><trkpt lat="36.9630909581829" lon="15.037479965921728"><ele>418.0</ele><time>2026-04-11T15:14:43.999Z</time></trkpt><trkpt lat="36.96317815018098" lon="15.037375025974256"><ele>418.0</ele><time>2026-04-11T15:14:44.999Z</time></trkpt><trkpt lat="36.96327755518478" lon="15.037251209008593"><ele>418.0</ele><time>2026-04-11T15:14:45.999Z</time></trkpt><trkpt lat="36.96337876719473" lon="15.037120266388781"><ele>420.33333333333337</ele><time>2026-04-11T15:14:46.999Z</time></trkpt><trkpt lat="36.96348376836214" lon="15.036990423321253"><ele>422.66666666666663</ele><time>2026-04-11T15:14:47.999Z</time></trkpt><trkpt lat="36.96366816822734" lon="15.03682099808487"><ele>425.0</ele><time>2026-04-11T15:14:48.999Z</time></trkpt><trkpt lat="36.9637460963776" lon="15.036713557046744"><ele>426.4</ele><time>2026-04-11T15:14:49.999Z</time></trkpt><trkpt lat="36.96381722443524" lon="15.036606152333393"><ele>427.8</ele><time>2026-04-11T15:14:50.999Z</time></trkpt><trkpt lat="36.96386761076484" lon="15.036490533301864"><ele>429.20000000000005</ele><time>2026-04-11T15:14:51.999Z</time></trkpt><trkpt lat="36.96393695551336" lon="15.036404757257177"><ele>430.6</ele><time>2026-04-11T15:14:52.999Z</time></trkpt><trkpt lat="36.96403429051148" lon="15.036301756977545"><ele>432.0</ele><time>2026-04-11T15:14:53.999Z</time></trkpt><trkpt lat="36.96412892964122" lon="15.036171920615983"><ele>432.25</ele><time>2026-04-11T15:14:54.999Z</time></trkpt><trkpt lat="36.964206827426224" lon="15.036062127380157"><ele>432.5</ele><time>2026-04-11T15:14:55.999Z</time></trkpt><trkpt lat="36.964282327249215" lon="15.035954726622796"><ele>432.75</ele><time>2026-04-11T15:14:56.999Z</time></trkpt><trkpt lat="36.96435733443385" lon="15.035837447608472"><ele>433.0</ele><time>2026-04-11T15:14:57.999Z</time></trkpt><trkpt lat="36.964441643382486" lon="15.035714424828793"><ele>434.25</ele><time>2026-04-11T15:14:58.999Z</time></trkpt><trkpt lat="36.9645148092198" lon="15.03562354225228"><ele>435.5</ele><time>2026-04-11T15:14:59.999Z</time></trkpt><trkpt lat="36.96459453470404" lon="15.035526476252915"><ele>436.75</ele><time>2026-04-11T15:15:00.999Z</time></trkpt><trkpt lat="36.9647046557889" lon="15.035423230636786"><ele>438.0</ele><time>2026-04-11T15:15:01.999Z</time></trkpt><trkpt lat="36.96479393983225" lon="15.035353214715407"><ele>438.0</ele><time>2026-04-11T15:15:02.999Z</time></trkpt><trkpt lat="36.9648723519836" lon="15.035293878129924"><ele>437.99999999999994</ele><time>2026-04-11T15:15:03.999Z</time></trkpt><trkpt lat="36.964947101191356" lon="15.035242710489001"><ele>437.99999999999994</ele><time>2026-04-11T15:15:04.999Z</time></trkpt><trkpt lat="36.96504783739906" lon="15.035190705552496"><ele>438.0</ele><time>2026-04-11T15:15:05.999Z</time></trkpt><trkpt lat="36.96514948736164" lon="15.035135752625003"><ele>438.0</ele><time>2026-04-11T15:15:06.999Z</time></trkpt><trkpt lat="36.96525481730739" lon="15.03505875091032"><ele>438.0</ele><time>2026-04-11T15:15:07.999Z</time></trkpt><trkpt lat="36.96535710796286" lon="15.03499014580858"><ele>438.0</ele><time>2026-04-11T15:15:08.999Z</time></trkpt><trkpt lat="36.96546403494878" lon="15.03493056865891"><ele>438.0</ele><time>2026-04-11T15:15:09.999Z</time></trkpt><trkpt lat="36.96557149040306" lon="15.034863996902452"><ele>438.0</ele><time>2026-04-11T15:15:10.999Z</time></trkpt><trkpt lat="36.96568193177027" lon="15.034801038375376"><ele>438.0</ele><time>2026-04-11T15:15:11.999Z</time></trkpt><trkpt lat="36.96577370738058" lon="15.034744150218478"><ele>438.0</ele><time>2026-04-11T15:15:12.999Z</time></trkpt><trkpt lat="36.965855454905444" lon="15.034700627927217"><ele>438.0</ele><time>2026-04-11T15:15:13.999Z</time></trkpt><trkpt lat="36.96592773225123" lon="15.034668641379119"><ele>438.0</ele><time>2026-04-11T15:15:14.999Z</time></trkpt><trkpt lat="36.96600129939768" lon="15.034626878659108"><ele>438.0</ele><time>2026-04-11T15:15:16.999Z</time></trkpt><trkpt lat="36.965947349646854" lon="15.034521274967787"><ele>438.0</ele><time>2026-04-11T15:18:18Z</time></trkpt><trkpt lat="36.96594898465212" lon="15.03442679060347"><ele>438.0</ele><time>2026-04-11T15:18:21Z</time></trkpt><trkpt lat="36.96600778441523" lon="15.034380597929315"><ele>437.99999999999994</ele><time>2026-04-11T15:18:23Z</time></trkpt><trkpt lat="36.96607499178878" lon="15.034350869619733"><ele>437.99999999999994</ele><time>2026-04-11T15:18:24Z</time></trkpt><trkpt lat="36.96616915831127" lon="15.034340440718186"><ele>438.0</ele><time>2026-04-11T15:18:25Z</time></trkpt><trkpt lat="36.96630044452453" lon="15.034310456439924"><ele>438.0</ele><time>2026-04-11T15:18:26Z</time></trkpt><trkpt lat="36.96646129109902" lon="15.034260519934097"><ele>438.0</ele><time>2026-04-11T15:18:27Z</time></trkpt><trkpt lat="36.96663620216828" lon="15.034218401600846"><ele>438.0</ele><time>2026-04-11T15:18:28Z</time></trkpt><trkpt lat="36.966782782556685" lon="15.034183830340606"><ele>438.0</ele><time>2026-04-11T15:18:29Z</time></trkpt><trkpt lat="36.96689983194204" lon="15.034150672989972"><ele>438.0</ele><time>2026-04-11T15:18:30Z</time></trkpt><trkpt lat="36.96698650301009" lon="15.034128610234458"><ele>438.0</ele><time>2026-04-11T15:18:31Z</time></trkpt><trkpt lat="36.967065198724725" lon="15.034108781040352"><ele>437.99999999999994</ele><time>2026-04-11T15:18:32Z</time></trkpt><trkpt lat="36.9671513683215" lon="15.034089606214602"><ele>437.99999999999994</ele><time>2026-04-11T15:18:33Z</time></trkpt><trkpt lat="36.9672618202142" lon="15.03405991415482"><ele>438.0</ele><time>2026-04-11T15:18:34Z</time></trkpt><trkpt lat="36.967396510841304" lon="15.034023817246256"><ele>438.0</ele><time>2026-04-11T15:18:34.999Z</time></trkpt><trkpt lat="36.967556286417036" lon="15.033987262810152"><ele>439.0</ele><time>2026-04-11T15:18:35.999Z</time></trkpt><trkpt lat="36.96773335586024" lon="15.033952691655395"><ele>440.0</ele><time>2026-04-11T15:18:36.999Z</time></trkpt><trkpt lat="36.96792734950884" lon="15.033908666155211"><ele>441.0</ele><time>2026-04-11T15:18:37.999Z</time></trkpt><trkpt lat="36.96814232698238" lon="15.033852027195122"><ele>441.5</ele><time>2026-04-11T15:18:38.999Z</time></trkpt><trkpt lat="36.96837907720651" lon="15.033790790153347"><ele>442.0</ele><time>2026-04-11T15:18:39.999Z</time></trkpt><trkpt lat="36.968632153760815" lon="15.03372088563768"><ele>442.0</ele><time>2026-04-11T15:18:40.999Z</time></trkpt><trkpt lat="36.96881728955947" lon="15.03366986928742"><ele>442.0</ele><time>2026-04-11T15:18:41.999Z</time></trkpt><trkpt lat="36.969046776917395" lon="15.033590869564417"><ele>442.0</ele><time>2026-04-11T15:18:42.999Z</time></trkpt><trkpt lat="36.96925783597119" lon="15.033510160793545"><ele>443.0</ele><time>2026-04-11T15:18:43.999Z</time></trkpt><trkpt lat="36.969485544105495" lon="15.03342174940017"><ele>444.0</ele><time>2026-04-11T15:18:44.999Z</time></trkpt><trkpt lat="36.96969089609741" lon="15.033327244556103"><ele>444.0</ele><time>2026-04-11T15:18:45.999Z</time></trkpt><trkpt lat="36.96986946611224" lon="15.033257353778135"><ele>444.0</ele><time>2026-04-11T15:18:46.999Z</time></trkpt><trkpt lat="36.97004929167327" lon="15.033192552449668"><ele>444.0</ele><time>2026-04-11T15:18:47.999Z</time></trkpt><trkpt lat="36.9702460089645" lon="15.033149907540038"><ele>444.0</ele><time>2026-04-11T15:18:48.999Z</time></trkpt><trkpt lat="36.970443096931085" lon="15.03313096938701"><ele>444.0</ele><time>2026-04-11T15:18:49.999Z</time></trkpt><trkpt lat="36.97063090061446" lon="15.033147527924315"><ele>444.0</ele><time>2026-04-11T15:18:50.999Z</time></trkpt><trkpt lat="36.97081426438029" lon="15.033156849798582"><ele>446.0</ele><time>2026-04-11T15:18:51.999Z</time></trkpt><trkpt lat="36.97099805371024" lon="15.033159440869927"><ele>448.0</ele><time>2026-04-11T15:18:52.999Z</time></trkpt><trkpt lat="36.97118218088559" lon="15.033160293600885"><ele>450.0</ele><time>2026-04-11T15:18:53.999Z</time></trkpt><trkpt lat="36.97136739835519" lon="15.033149807698038"><ele>450.0</ele><time>2026-04-11T15:18:54.999Z</time></trkpt><trkpt lat="36.97154447499133" lon="15.033142286209195"><ele>450.0</ele><time>2026-04-11T15:18:55.999Z</time></trkpt><trkpt lat="36.971726927344285" lon="15.033136883285787"><ele>450.0</ele><time>2026-04-11T15:18:56.999Z</time></trkpt><trkpt lat="36.971900475287974" lon="15.033122364959265"><ele>448.66666666666663</ele><time>2026-04-11T15:18:57.999Z</time></trkpt><trkpt lat="36.972074741648576" lon="15.033079849866061"><ele>447.3333333333333</ele><time>2026-04-11T15:18:58.999Z</time></trkpt><trkpt lat="36.97225147985691" lon="15.032995515964133"><ele>446.0</ele><time>2026-04-11T15:18:59.999Z</time></trkpt><trkpt lat="36.97243154736897" lon="15.032911881918437"><ele>446.3333333333333</ele><time>2026-04-11T15:19:00.999Z</time></trkpt><trkpt lat="36.97261467434099" lon="15.03283953353143"><ele>446.66666666666663</ele><time>2026-04-11T15:19:01.999Z</time></trkpt><trkpt lat="36.972835035248664" lon="15.032767072315515"><ele>447.0</ele><time>2026-04-11T15:19:02.999Z</time></trkpt><trkpt lat="36.972995411757374" lon="15.032696967544968"><ele>447.0</ele><time>2026-04-11T15:19:03.999Z</time></trkpt><trkpt lat="36.973156923461204" lon="15.032626554767413"><ele>447.0</ele><time>2026-04-11T15:19:04.999Z</time></trkpt><trkpt lat="36.973321752698006" lon="15.03256049390009"><ele>447.0</ele><time>2026-04-11T15:19:05.999Z</time></trkpt><trkpt lat="36.97349130109809" lon="15.032494810131737"><ele>446.66666666666663</ele><time>2026-04-11T15:19:06.999Z</time></trkpt><trkpt lat="36.97366969969207" lon="15.032437341489953"><ele>446.3333333333333</ele><time>2026-04-11T15:19:07.999Z</time></trkpt><trkpt lat="36.9738404755125" lon="15.032368321720055"><ele>446.0</ele><time>2026-04-11T15:19:08.999Z</time></trkpt><trkpt lat="36.97400860643635" lon="15.032297253982563"><ele>446.0</ele><time>2026-04-11T15:19:09.999Z</time></trkpt><trkpt lat="36.9741769776842" lon="15.032228941247777"><ele>446.0</ele><time>2026-04-11T15:19:10.999Z</time></trkpt><trkpt lat="36.97433026476405" lon="15.032137482824519"><ele>446.0</ele><time>2026-04-11T15:19:11.999Z</time></trkpt><trkpt lat="36.974497495637344" lon="15.032063128863658"><ele>446.0</ele><time>2026-04-11T15:19:12.999Z</time></trkpt><trkpt lat="36.974664573596556" lon="15.031989441640963"><ele>446.0</ele><time>2026-04-11T15:19:13.999Z</time></trkpt><trkpt lat="36.97482600496119" lon="15.031922185564687"><ele>446.0</ele><time>2026-04-11T15:19:14.999Z</time></trkpt><trkpt lat="36.9749855837951" lon="15.031858522944152"><ele>447.3333333333333</ele><time>2026-04-11T15:19:15.999Z</time></trkpt><trkpt lat="36.97514460457646" lon="15.03179227660246"><ele>448.66666666666663</ele><time>2026-04-11T15:19:16.999Z</time></trkpt><trkpt lat="36.97529310077244" lon="15.031729913786611"><ele>450.0</ele><time>2026-04-11T15:19:17.999Z</time></trkpt><trkpt lat="36.975429046475256" lon="15.031678463236705"><ele>450.0</ele><time>2026-04-11T15:19:18.999Z</time></trkpt><trkpt lat="36.97555143178762" lon="15.031644774784422"><ele>450.0</ele><time>2026-04-11T15:19:19.999Z</time></trkpt><trkpt lat="36.97568086431535" lon="15.03162709924657"><ele>450.0</ele><time>2026-04-11T15:19:20.999Z</time></trkpt><trkpt lat="36.975804676661305" lon="15.03167811040299"><ele>450.0</ele><time>2026-04-11T15:19:21.999Z</time></trkpt><trkpt lat="36.97592167068642" lon="15.031733863192525"><ele>451.5</ele><time>2026-04-11T15:19:22.999Z</time></trkpt><trkpt lat="36.97600399249697" lon="15.031833027330455"><ele>453.0</ele><time>2026-04-11T15:19:23.999Z</time></trkpt><trkpt lat="36.976084303438235" lon="15.031947955038284"><ele>454.5</ele><time>2026-04-11T15:19:24.999Z</time></trkpt><trkpt lat="36.97615673024346" lon="15.032069563166369"><ele>456.0</ele><time>2026-04-11T15:19:25.999Z</time></trkpt><trkpt lat="36.97623600606081" lon="15.032198353086677"><ele>456.0</ele><time>2026-04-11T15:19:26.999Z</time></trkpt><trkpt lat="36.976311962477986" lon="15.032324317999706"><ele>456.0</ele><time>2026-04-11T15:19:27.999Z</time></trkpt><trkpt lat="36.97640014097113" lon="15.032453732698219"><ele>456.0</ele><time>2026-04-11T15:19:28.999Z</time></trkpt><trkpt lat="36.97650587352714" lon="15.032557687113169"><ele>456.0</ele><time>2026-04-11T15:19:29.999Z</time></trkpt><trkpt lat="36.97662612347968" lon="15.032615489538344"><ele>454.0</ele><time>2026-04-11T15:19:30.999Z</time></trkpt><trkpt lat="36.97675104494421" lon="15.032621110222095"><ele>452.0</ele><time>2026-04-11T15:19:31.999Z</time></trkpt><trkpt lat="36.97688104469106" lon="15.032626934790276"><ele>450.0</ele><time>2026-04-11T15:19:32.999Z</time></trkpt><trkpt lat="36.97703683812026" lon="15.032624828143577"><ele>448.0</ele><time>2026-04-11T15:19:33.999Z</time></trkpt><trkpt lat="36.97720475272079" lon="15.032606183582544"><ele>448.0</ele><time>2026-04-11T15:19:34.999Z</time></trkpt><trkpt lat="36.977374632001414" lon="15.03256267033"><ele>448.0</ele><time>2026-04-11T15:19:35.999Z</time></trkpt><trkpt lat="36.977539722727414" lon="15.032485491105954"><ele>448.0</ele><time>2026-04-11T15:19:36.999Z</time></trkpt><trkpt lat="36.977698316684915" lon="15.032382517643242"><ele>445.6666666666667</ele><time>2026-04-11T15:19:37.999Z</time></trkpt><trkpt lat="36.97784709007258" lon="15.032255645967549"><ele>443.33333333333337</ele><time>2026-04-11T15:19:38.999Z</time></trkpt><trkpt lat="36.97797578993888" lon="15.032112692987118"><ele>441.0</ele><time>2026-04-11T15:19:40Z</time></trkpt><trkpt lat="36.97808511085552" lon="15.031952429998693"><ele>441.0</ele><time>2026-04-11T15:19:41Z</time></trkpt><trkpt lat="36.978170945659485" lon="15.031771951216022"><ele>441.0</ele><time>2026-04-11T15:19:42Z</time></trkpt><trkpt lat="36.97824208322184" lon="15.031576508101162"><ele>441.0</ele><time>2026-04-11T15:19:43Z</time></trkpt><trkpt lat="36.97831583807342" lon="15.031391237713528"><ele>440.75</ele><time>2026-04-11T15:19:44Z</time></trkpt><trkpt lat="36.97838692914394" lon="15.031224527411583"><ele>440.5</ele><time>2026-04-11T15:19:45Z</time></trkpt><trkpt lat="36.978458015343946" lon="15.031071277733568"><ele>440.25</ele><time>2026-04-11T15:19:46Z</time></trkpt><trkpt lat="36.978528458093265" lon="15.030933920094885"><ele>440.0</ele><time>2026-04-11T15:19:47Z</time></trkpt><trkpt lat="36.97859552396084" lon="15.030836686912604"><ele>440.0</ele><time>2026-04-11T15:19:48Z</time></trkpt><trkpt lat="36.978672422748545" lon="15.030769618390746"><ele>440.0</ele><time>2026-04-11T15:19:49Z</time></trkpt><trkpt lat="36.97876052059505" lon="15.03075755006601"><ele>440.0</ele><time>2026-04-11T15:19:50Z</time></trkpt><trkpt lat="36.978807265577295" lon="15.03081369921876"><ele>440.0</ele><time>2026-04-11T15:19:51Z</time></trkpt><trkpt lat="36.97871411098947" lon="15.03066629375347"><ele>440.0</ele><time>2026-04-11T15:19:55Z</time></trkpt><trkpt lat="36.978631836649946" lon="15.03064229422961"><ele>441.2</ele><time>2026-04-11T15:19:56Z</time></trkpt><trkpt lat="36.978580113901465" lon="15.030582919217922"><ele>442.4</ele><time>2026-04-11T15:19:57Z</time></trkpt><trkpt lat="36.97851156657799" lon="15.03050739811464"><ele>443.6</ele><time>2026-04-11T15:19:58Z</time></trkpt><trkpt lat="36.97846797781126" lon="15.030400090335299"><ele>444.8</ele><time>2026-04-11T15:19:59Z</time></trkpt><trkpt lat="36.97838704693763" lon="15.03022816950784"><ele>446.0</ele><time>2026-04-11T15:20:00Z</time></trkpt><trkpt lat="36.978339820731456" lon="15.030101723797358"><ele>446.0</ele><time>2026-04-11T15:20:01Z</time></trkpt><trkpt lat="36.978297303994864" lon="15.029999978003286"><ele>446.0</ele><time>2026-04-11T15:20:02Z</time></trkpt><trkpt lat="36.97823365142154" lon="15.02987273395515"><ele>446.0</ele><time>2026-04-11T15:20:03Z</time></trkpt><trkpt lat="36.978168036658936" lon="15.029753135310887"><ele>446.0</ele><time>2026-04-11T15:20:04Z</time></trkpt><trkpt lat="36.97810728215532" lon="15.029627437846463"><ele>446.0</ele><time>2026-04-11T15:20:05Z</time></trkpt><trkpt lat="36.978005545467646" lon="15.029497866592903"><ele>446.6</ele><time>2026-04-11T15:20:06Z</time></trkpt><trkpt lat="36.97790862382492" lon="15.029392817456722"><ele>447.20000000000005</ele><time>2026-04-11T15:20:07Z</time></trkpt><trkpt lat="36.97782374398143" lon="15.029288343307526"><ele>447.79999999999995</ele><time>2026-04-11T15:20:08Z</time></trkpt><trkpt lat="36.977744960019876" lon="15.029198230933034"><ele>448.4</ele><time>2026-04-11T15:20:09Z</time></trkpt><trkpt lat="36.977666174068126" lon="15.029136338016842"><ele>449.0</ele><time>2026-04-11T15:20:10Z</time></trkpt><trkpt lat="36.97757065442518" lon="15.0290739583545"><ele>448.75</ele><time>2026-04-11T15:20:11Z</time></trkpt><trkpt lat="36.97747069335393" lon="15.02899853181351"><ele>448.5</ele><time>2026-04-11T15:20:12Z</time></trkpt><trkpt lat="36.977348037809506" lon="15.028947671527908"><ele>448.25</ele><time>2026-04-11T15:20:13Z</time></trkpt><trkpt lat="36.9772070838283" lon="15.02887141380858"><ele>448.0</ele><time>2026-04-11T15:20:14Z</time></trkpt><trkpt lat="36.97708047494254" lon="15.028805407203972"><ele>448.0</ele><time>2026-04-11T15:20:15Z</time></trkpt><trkpt lat="36.976948924444" lon="15.028734502247039"><ele>448.0</ele><time>2026-04-11T15:20:16Z</time></trkpt><trkpt lat="36.97683426846783" lon="15.02865536020958"><ele>448.0</ele><time>2026-04-11T15:20:17Z</time></trkpt><trkpt lat="36.976727284136985" lon="15.02859753900186"><ele>448.0</ele><time>2026-04-11T15:20:18Z</time></trkpt><trkpt lat="36.97663481581846" lon="15.028549040975939"><ele>448.5</ele><time>2026-04-11T15:20:19Z</time></trkpt><trkpt lat="36.9765184645923" lon="15.028485942737293"><ele>449.0</ele><time>2026-04-11T15:20:21Z</time></trkpt><trkpt lat="36.976428640862224" lon="15.028360771394889"><ele>449.5</ele><time>2026-04-11T15:20:23Z</time></trkpt><trkpt lat="36.97636302698906" lon="15.028252168331209"><ele>450.0</ele><time>2026-04-11T15:20:24Z</time></trkpt><trkpt lat="36.9762860444172" lon="15.028135724773522"><ele>450.5</ele><time>2026-04-11T15:20:25Z</time></trkpt><trkpt lat="36.97621204790782" lon="15.02801055122588"><ele>451.0</ele><time>2026-04-11T15:20:26Z</time></trkpt><trkpt lat="36.97613404554135" lon="15.027887480818277"><ele>451.5</ele><time>2026-04-11T15:20:27Z</time></trkpt><trkpt lat="36.97605128268648" lon="15.027775901118885"><ele>452.0</ele><time>2026-04-11T15:20:28Z</time></trkpt><trkpt lat="36.97596249795368" lon="15.027672990317546"><ele>453.5</ele><time>2026-04-11T15:20:29Z</time></trkpt><trkpt lat="36.975851917872305" lon="15.027566985651141"><ele>455.0</ele><time>2026-04-11T15:20:30Z</time></trkpt><trkpt lat="36.97575385216251" lon="15.027474161140717"><ele>456.5</ele><time>2026-04-11T15:20:31Z</time></trkpt><trkpt lat="36.97565337272645" lon="15.027383140072816"><ele>458.0</ele><time>2026-04-11T15:20:32Z</time></trkpt><trkpt lat="36.975589664931775" lon="15.027337121743251"><ele>459.3333333333333</ele><time>2026-04-11T15:20:33Z</time></trkpt><trkpt lat="36.97552097191979" lon="15.027293407344818"><ele>460.66666666666663</ele><time>2026-04-11T15:20:34Z</time></trkpt><trkpt lat="36.975431511714454" lon="15.027229004613796"><ele>462.0</ele><time>2026-04-11T15:20:36Z</time></trkpt><trkpt lat="36.975476202742" lon="15.027127679460495"><ele>463.33333333333337</ele><time>2026-04-11T15:20:38Z</time></trkpt><trkpt lat="36.9755261283406" lon="15.027075199469923"><ele>464.6666666666667</ele><time>2026-04-11T15:20:39Z</time></trkpt><trkpt lat="36.975585299540704" lon="15.02703049191415"><ele>466.0</ele><time>2026-04-11T15:20:40Z</time></trkpt><trkpt lat="36.975606206058714" lon="15.026952647431154"><ele>466.00000000000006</ele><time>2026-04-11T15:20:42Z</time></trkpt><trkpt lat="36.97552378342237" lon="15.026908902774526"><ele>466.0</ele><time>2026-04-11T15:20:43.999Z</time></trkpt><trkpt lat="36.975457310918046" lon="15.026867889777526"><ele>466.0</ele><time>2026-04-11T15:20:44.999Z</time></trkpt><trkpt lat="36.975383365601736" lon="15.026840844534966"><ele>466.0</ele><time>2026-04-11T15:20:45.999Z</time></trkpt><trkpt lat="36.97530009583396" lon="15.026832996834887"><ele>466.00000000000006</ele><time>2026-04-11T15:20:46.999Z</time></trkpt><trkpt lat="36.975189420039925" lon="15.026828989276673"><ele>466.0</ele><time>2026-04-11T15:20:47.999Z</time></trkpt><trkpt lat="36.97504642246785" lon="15.026861184729906"><ele>465.4</ele><time>2026-04-11T15:20:48.999Z</time></trkpt><trkpt lat="36.97489927696996" lon="15.026911044170099"><ele>464.8</ele><time>2026-04-11T15:20:49.999Z</time></trkpt><trkpt lat="36.97481326754163" lon="15.026935569965666"><ele>464.19999999999993</ele><time>2026-04-11T15:20:50.999Z</time></trkpt><trkpt lat="36.97473502982801" lon="15.026958179623618"><ele>463.59999999999997</ele><time>2026-04-11T15:20:51.999Z</time></trkpt><trkpt lat="36.97464472056239" lon="15.026926674226884"><ele>463.0</ele><time>2026-04-11T15:20:53.999Z</time></trkpt><trkpt lat="36.97458578023167" lon="15.026879622396907"><ele>463.00000000000006</ele><time>2026-04-11T15:20:55.999Z</time></trkpt><trkpt lat="36.97451045727748" lon="15.026908810070294"><ele>463.0</ele><time>2026-04-11T15:21:04.999Z</time></trkpt><trkpt lat="36.974486276679706" lon="15.026819264578352"><ele>463.0</ele><time>2026-04-11T15:21:08.999Z</time></trkpt><trkpt lat="36.974440196886896" lon="15.026751267263588"><ele>463.0</ele><time>2026-04-11T15:21:11.999Z</time></trkpt><trkpt lat="36.97438531934493" lon="15.02668396171198"><ele>463.00000000000006</ele><time>2026-04-11T15:21:14.999Z</time></trkpt><trkpt lat="36.974320736178676" lon="15.026612435880434"><ele>463.0</ele><time>2026-04-11T15:21:17.999Z</time></trkpt><trkpt lat="36.97422941163456" lon="15.026564471374382"><ele>461.4285714285714</ele><time>2026-04-11T15:21:20.999Z</time></trkpt><trkpt lat="36.97416335964346" lon="15.02653641932588"><ele>459.8571428571428</ele><time>2026-04-11T15:21:23.999Z</time></trkpt><trkpt lat="36.97411060240407" lon="15.026482585190744"><ele>458.2857142857143</ele><time>2026-04-11T15:21:26.999Z</time></trkpt><trkpt lat="36.97406448074584" lon="15.026406767809787"><ele>456.71428571428567</ele><time>2026-04-11T15:21:29.999Z</time></trkpt><trkpt lat="36.974016895658664" lon="15.026349022206821"><ele>455.1428571428571</ele><time>2026-04-11T15:21:32.999Z</time></trkpt><trkpt lat="36.973954839242836" lon="15.026284097488261"><ele>453.57142857142856</ele><time>2026-04-11T15:21:35.999Z</time></trkpt><trkpt lat="36.97391049866651" lon="15.026223018705547"><ele>452.0</ele><time>2026-04-11T15:21:37.999Z</time></trkpt><trkpt lat="36.97366115237682" lon="15.026048461259485"><ele>451.99999999999994</ele><time>2026-04-11T15:21:39.999Z</time></trkpt><trkpt lat="36.97363565251926" lon="15.025974652497691"><ele>452.0</ele><time>2026-04-11T15:21:40.999Z</time></trkpt><trkpt lat="36.973608227052736" lon="15.025901761131207"><ele>452.0</ele><time>2026-04-11T15:21:41.999Z</time></trkpt><trkpt lat="36.97355697161803" lon="15.025762573454733"><ele>452.0</ele><time>2026-04-11T15:21:43.999Z</time></trkpt><trkpt lat="36.97353476648934" lon="15.025623863466542"><ele>451.99999999999994</ele><time>2026-04-11T15:21:46Z</time></trkpt><trkpt lat="36.97352267550667" lon="15.025537799125813"><ele>452.0</ele><time>2026-04-11T15:21:47Z</time></trkpt><trkpt lat="36.973514217148555" lon="15.025449430452623"><ele>452.6</ele><time>2026-04-11T15:21:48Z</time></trkpt><trkpt lat="36.97347743337841" lon="15.025321022082013"><ele>453.20000000000005</ele><time>2026-04-11T15:21:50Z</time></trkpt><trkpt lat="36.97342832498585" lon="15.025231921219733"><ele>453.8</ele><time>2026-04-11T15:21:52Z</time></trkpt><trkpt lat="36.973357891808696" lon="15.02517740055917"><ele>454.4</ele><time>2026-04-11T15:21:54Z</time></trkpt><trkpt lat="36.973272534204014" lon="15.025176940776635"><ele>455.0</ele><time>2026-04-11T15:21:55Z</time></trkpt><trkpt lat="36.97317347181026" lon="15.02515276612999"><ele>455.49999999999994</ele><time>2026-04-11T15:21:56Z</time></trkpt><trkpt lat="36.97311239267626" lon="15.025113984674316"><ele>456.0</ele><time>2026-04-11T15:21:57Z</time></trkpt><trkpt lat="36.97302794127924" lon="15.025075856623271"><ele>456.5</ele><time>2026-04-11T15:21:59Z</time></trkpt><trkpt lat="36.972931046208096" lon="15.025070032340155"><ele>457.0</ele><time>2026-04-11T15:22:01Z</time></trkpt><trkpt lat="36.972872287719895" lon="15.025037659970971"><ele>457.49999999999994</ele><time>2026-04-11T15:22:02Z</time></trkpt><trkpt lat="36.972801935438284" lon="15.025046552250124"><ele>458.0</ele><time>2026-04-11T15:22:06Z</time></trkpt><trkpt lat="36.972732833732266" lon="15.025186742165175"><ele>457.99999999999994</ele><time>2026-04-11T15:22:08Z</time></trkpt><trkpt lat="36.972673927745326" lon="15.025278333646197"><ele>458.0</ele><time>2026-04-11T15:22:09Z</time></trkpt><trkpt lat="36.97260933719383" lon="15.025340320585535"><ele>458.0</ele><time>2026-04-11T15:22:11Z</time></trkpt><trkpt lat="36.97253801274533" lon="15.025392274664597"><ele>458.0</ele><time>2026-04-11T15:22:14Z</time></trkpt><trkpt lat="36.97247986571843" lon="15.025426830008913"><ele>457.99999999999994</ele><time>2026-04-11T15:22:16Z</time></trkpt><trkpt lat="36.972403694582894" lon="15.025469768944982"><ele>458.0</ele><time>2026-04-11T15:22:18Z</time></trkpt><trkpt lat="36.972355616262256" lon="15.025522142316285"><ele>458.2857142857143</ele><time>2026-04-11T15:22:21Z</time></trkpt><trkpt lat="36.9722989855141" lon="15.025613255634983"><ele>458.57142857142856</ele><time>2026-04-11T15:22:24Z</time></trkpt><trkpt lat="36.97224582867668" lon="15.02567928172516"><ele>458.85714285714283</ele><time>2026-04-11T15:22:27Z</time></trkpt><trkpt lat="36.97218639590872" lon="15.025722655542436"><ele>459.1428571428571</ele><time>2026-04-11T15:22:31Z</time></trkpt><trkpt lat="36.97213067856153" lon="15.025789837273292"><ele>459.42857142857144</ele><time>2026-04-11T15:22:35Z</time></trkpt><trkpt lat="36.9720826096557" lon="15.025844911835778"><ele>459.71428571428567</ele><time>2026-04-11T15:22:39Z</time></trkpt><trkpt lat="36.97203916872799" lon="15.025776502914754"><ele>459.99999999999994</ele><time>2026-04-11T15:23:56Z</time></trkpt><trkpt lat="36.9719565334175" lon="15.025730153703227"><ele>460.0</ele><time>2026-04-11T15:24:01Z</time></trkpt><trkpt lat="36.971893231636905" lon="15.025691758352277"><ele>460.0</ele><time>2026-04-11T15:24:04Z</time></trkpt><trkpt lat="36.9717492303929" lon="15.025560048144726"><ele>460.0</ele><time>2026-04-11T15:39:24Z</time></trkpt><trkpt lat="36.97169507413273" lon="15.025493576017418"><ele>460.0</ele><time>2026-04-11T15:39:26Z</time></trkpt><trkpt lat="36.971612454276396" lon="15.025409262759501"><ele>460.0</ele><time>2026-04-11T15:39:28Z</time></trkpt><trkpt lat="36.97156207204817" lon="15.025338591963372"><ele>460.1666666666667</ele><time>2026-04-11T15:39:31Z</time></trkpt><trkpt lat="36.97151073193296" lon="15.025291400199142"><ele>460.33333333333337</ele><time>2026-04-11T15:39:33Z</time></trkpt><trkpt lat="36.971436344364676" lon="15.025230649545527"><ele>460.5</ele><time>2026-04-11T15:39:35Z</time></trkpt><trkpt lat="36.9714095470778" lon="15.025132811007518"><ele>460.66666666666663</ele><time>2026-04-11T15:39:38Z</time></trkpt><trkpt lat="36.971341107670426" lon="15.025092080288497"><ele>460.8333333333333</ele><time>2026-04-11T15:39:41Z</time></trkpt><trkpt lat="36.971271466430196" lon="15.025065749905172"><ele>461.0</ele><time>2026-04-11T15:39:44Z</time></trkpt><trkpt lat="36.971177736164535" lon="15.025075379887053"><ele>461.0</ele><time>2026-04-11T15:39:47Z</time></trkpt><trkpt lat="36.97111450093763" lon="15.025046248288072"><ele>461.0</ele><time>2026-04-11T15:39:49Z</time></trkpt><trkpt lat="36.97102451095451" lon="15.024981310138411"><ele>461.0</ele><time>2026-04-11T15:39:52Z</time></trkpt><trkpt lat="36.97099163473955" lon="15.024910236051085"><ele>461.0</ele><time>2026-04-11T15:39:55Z</time></trkpt><trkpt lat="36.97091226779592" lon="15.024809965708785"><ele>461.0</ele><time>2026-04-11T15:39:58Z</time></trkpt><trkpt lat="36.970984426869286" lon="15.024703483171706"><ele>460.5</ele><time>2026-04-11T15:40:00Z</time></trkpt><trkpt lat="36.971073875884734" lon="15.024616981624527"><ele>460.0</ele><time>2026-04-11T15:40:01Z</time></trkpt><trkpt lat="36.97115174962569" lon="15.024497298564663"><ele>459.5</ele><time>2026-04-11T15:40:02Z</time></trkpt><trkpt lat="36.971227879854474" lon="15.024373887271638"><ele>459.0</ele><time>2026-04-11T15:40:03Z</time></trkpt><trkpt lat="36.97129696602057" lon="15.024271693002262"><ele>459.0</ele><time>2026-04-11T15:40:04Z</time></trkpt><trkpt lat="36.971342357628096" lon="15.024169559210543"><ele>459.0</ele><time>2026-04-11T15:40:05Z</time></trkpt><trkpt lat="36.97139049398651" lon="15.024054306197371"><ele>459.0</ele><time>2026-04-11T15:40:06Z</time></trkpt><trkpt lat="36.97144193404187" lon="15.023929751769593"><ele>459.0</ele><time>2026-04-11T15:40:07Z</time></trkpt><trkpt lat="36.97149046826844" lon="15.023799174246383"><ele>459.0</ele><time>2026-04-11T15:40:08Z</time></trkpt><trkpt lat="36.97153562592447" lon="15.023646159704695"><ele>457.0</ele><time>2026-04-11T15:40:09Z</time></trkpt><trkpt lat="36.97155820566428" lon="15.023473591870422"><ele>455.0</ele><time>2026-04-11T15:40:10Z</time></trkpt><trkpt lat="36.971666545392424" lon="15.02308529827053"><ele>455.75</ele><time>2026-04-11T15:40:11Z</time></trkpt><trkpt lat="36.97176399117004" lon="15.022974126681923"><ele>456.5</ele><time>2026-04-11T15:40:12Z</time></trkpt><trkpt lat="36.97186970210982" lon="15.022876366592268"><ele>457.25</ele><time>2026-04-11T15:40:13Z</time></trkpt><trkpt lat="36.97197755828091" lon="15.02276934131908"><ele>458.0</ele><time>2026-04-11T15:40:14Z</time></trkpt><trkpt lat="36.972084660421864" lon="15.02264579203374"><ele>458.0</ele><time>2026-04-11T15:40:15Z</time></trkpt><trkpt lat="36.97217887077256" lon="15.022502731978982"><ele>458.0</ele><time>2026-04-11T15:40:16Z</time></trkpt><trkpt lat="36.97225684090791" lon="15.022339197339262"><ele>458.0</ele><time>2026-04-11T15:40:17Z</time></trkpt><trkpt lat="36.972311138211786" lon="15.022166611737353"><ele>458.0</ele><time>2026-04-11T15:40:18Z</time></trkpt><trkpt lat="36.97234891658458" lon="15.021995881322384"><ele>458.5</ele><time>2026-04-11T15:40:19Z</time></trkpt><trkpt lat="36.972295531955396" lon="15.021813331109513"><ele>459.0</ele><time>2026-04-11T15:40:20Z</time></trkpt><trkpt lat="36.972284051187536" lon="15.021661163164344"><ele>459.5</ele><time>2026-04-11T15:40:21Z</time></trkpt><trkpt lat="36.97224605525621" lon="15.021497490607535"><ele>460.0</ele><time>2026-04-11T15:40:22Z</time></trkpt><trkpt lat="36.97218264787576" lon="15.02133845144369"><ele>460.0</ele><time>2026-04-11T15:40:23Z</time></trkpt><trkpt lat="36.97210446006919" lon="15.02117797760964"><ele>460.0</ele><time>2026-04-11T15:40:24Z</time></trkpt><trkpt lat="36.97202629647712" lon="15.021014426869915"><ele>460.0</ele><time>2026-04-11T15:40:25Z</time></trkpt><trkpt lat="36.97193003188519" lon="15.020868013309283"><ele>460.6666666666667</ele><time>2026-04-11T15:40:26Z</time></trkpt><trkpt lat="36.97183391820391" lon="15.020724053401489"><ele>461.33333333333337</ele><time>2026-04-11T15:40:27Z</time></trkpt><trkpt lat="36.97174241322253" lon="15.020569125924156"><ele>462.0</ele><time>2026-04-11T15:40:28Z</time></trkpt><trkpt lat="36.97166800219413" lon="15.02040593523447"><ele>462.0</ele><time>2026-04-11T15:40:29Z</time></trkpt><trkpt lat="36.97158830009902" lon="15.020251319813037"><ele>462.0</ele><time>2026-04-11T15:40:30Z</time></trkpt><trkpt lat="36.97153138249148" lon="15.020075260609367"><ele>462.0</ele><time>2026-04-11T15:40:31Z</time></trkpt><trkpt lat="36.97147701352107" lon="15.019888762239752"><ele>464.66666666666663</ele><time>2026-04-11T15:40:32Z</time></trkpt><trkpt lat="36.971420823976146" lon="15.019703744368304"><ele>467.3333333333333</ele><time>2026-04-11T15:40:33Z</time></trkpt><trkpt lat="36.97135752831945" lon="15.019520736549323"><ele>470.0</ele><time>2026-04-11T15:40:34Z</time></trkpt><trkpt lat="36.97128455049433" lon="15.019350062514283"><ele>470.0</ele><time>2026-04-11T15:40:35Z</time></trkpt><trkpt lat="36.97120115521081" lon="15.019196330190026"><ele>470.0</ele><time>2026-04-11T15:40:36Z</time></trkpt><trkpt lat="36.97111162211223" lon="15.019070397553694"><ele>470.0</ele><time>2026-04-11T15:40:37Z</time></trkpt><trkpt lat="36.97102230597874" lon="15.018977532732514"><ele>470.0</ele><time>2026-04-11T15:40:38Z</time></trkpt><trkpt lat="36.97090717603029" lon="15.018946261256684"><ele>469.6</ele><time>2026-04-11T15:40:39Z</time></trkpt><trkpt lat="36.970784574653884" lon="15.018961534195572"><ele>469.2</ele><time>2026-04-11T15:40:40Z</time></trkpt><trkpt lat="36.9706603201414" lon="15.018946347666018"><ele>468.79999999999995</ele><time>2026-04-11T15:40:41Z</time></trkpt><trkpt lat="36.97057446172216" lon="15.018931050855247"><ele>468.4</ele><time>2026-04-11T15:40:42Z</time></trkpt><trkpt lat="36.97046198697893" lon="15.018914294199611"><ele>468.0</ele><time>2026-04-11T15:40:43Z</time></trkpt><trkpt lat="36.97037875287947" lon="15.018849133115836"><ele>468.0</ele><time>2026-04-11T15:40:44Z</time></trkpt><trkpt lat="36.97030692994929" lon="15.01875710775464"><ele>468.0</ele><time>2026-04-11T15:40:45Z</time></trkpt><trkpt lat="36.9702420358636" lon="15.01864283713992"><ele>468.0</ele><time>2026-04-11T15:40:46Z</time></trkpt><trkpt lat="36.97017391612771" lon="15.018504568718372"><ele>468.0</ele><time>2026-04-11T15:40:47Z</time></trkpt><trkpt lat="36.97010722422893" lon="15.018353238275592"><ele>469.0</ele><time>2026-04-11T15:40:48Z</time></trkpt><trkpt lat="36.97005113214432" lon="15.018187201859911"><ele>470.0</ele><time>2026-04-11T15:40:49Z</time></trkpt><trkpt lat="36.97001297520061" lon="15.018023134971367"><ele>471.0</ele><time>2026-04-11T15:40:50Z</time></trkpt><trkpt lat="36.96998686947399" lon="15.017851537578196"><ele>472.0</ele><time>2026-04-11T15:40:51Z</time></trkpt><trkpt lat="36.96996397464889" lon="15.01768053822208"><ele>473.0</ele><time>2026-04-11T15:40:52Z</time></trkpt><trkpt lat="36.96994228464563" lon="15.017506168015785"><ele>474.0</ele><time>2026-04-11T15:40:53Z</time></trkpt><trkpt lat="36.96992461985604" lon="15.017328578619187"><ele>475.0</ele><time>2026-04-11T15:40:54Z</time></trkpt><trkpt lat="36.969931744549626" lon="15.017145259957797"><ele>476.0</ele><time>2026-04-11T15:40:55Z</time></trkpt><trkpt lat="36.96994680159297" lon="15.016968860964203"><ele>475.75</ele><time>2026-04-11T15:40:56Z</time></trkpt><trkpt lat="36.969997649129624" lon="15.016821807570375"><ele>475.5</ele><time>2026-04-11T15:40:57Z</time></trkpt><trkpt lat="36.97007479322138" lon="15.01667590335972"><ele>475.25</ele><time>2026-04-11T15:40:58Z</time></trkpt><trkpt lat="36.970154599022905" lon="15.016536709268394"><ele>475.0</ele><time>2026-04-11T15:40:59Z</time></trkpt><trkpt lat="36.97022585045513" lon="15.016395410463055"><ele>475.75</ele><time>2026-04-11T15:41:00Z</time></trkpt><trkpt lat="36.97029087288769" lon="15.01627931484403"><ele>476.5</ele><time>2026-04-11T15:41:01Z</time></trkpt><trkpt lat="36.97035716300673" lon="15.016156679107148"><ele>477.25</ele><time>2026-04-11T15:41:02Z</time></trkpt><trkpt lat="36.97042329513814" lon="15.01602568547687"><ele>478.0</ele><time>2026-04-11T15:41:03Z</time></trkpt><trkpt lat="36.97045513616304" lon="15.015870770235228"><ele>480.0</ele><time>2026-04-11T15:41:04Z</time></trkpt><trkpt lat="36.97048764435314" lon="15.015718721574212"><ele>482.0</ele><time>2026-04-11T15:41:05Z</time></trkpt><trkpt lat="36.9705154699265" lon="15.015557109992887"><ele>484.0</ele><time>2026-04-11T15:41:06Z</time></trkpt><trkpt lat="36.970539419717895" lon="15.015396136303556"><ele>486.0</ele><time>2026-04-11T15:41:07Z</time></trkpt><trkpt lat="36.97056222124213" lon="15.015237548172822"><ele>486.0</ele><time>2026-04-11T15:41:08Z</time></trkpt><trkpt lat="36.970587505661875" lon="15.015086490441039"><ele>486.0</ele><time>2026-04-11T15:41:09Z</time></trkpt><trkpt lat="36.97062201713369" lon="15.014966078865644"><ele>486.0</ele><time>2026-04-11T15:41:10Z</time></trkpt><trkpt lat="36.9706646129695" lon="15.014893931080215"><ele>486.0</ele><time>2026-04-11T15:41:11Z</time></trkpt><trkpt lat="36.97088570923812" lon="15.01494344163665"><ele>486.2857142857143</ele><time>2026-04-11T15:41:35Z</time></trkpt><trkpt lat="36.970959311343215" lon="15.014927696629528"><ele>486.57142857142856</ele><time>2026-04-11T15:41:53Z</time></trkpt><trkpt lat="36.971037311799" lon="15.014927482478843"><ele>486.85714285714283</ele><time>2026-04-11T15:41:56Z</time></trkpt><trkpt lat="36.97111252376519" lon="15.014911944113713"><ele>487.1428571428571</ele><time>2026-04-11T15:41:59Z</time></trkpt><trkpt lat="36.97117631207513" lon="15.01487855375849"><ele>487.42857142857144</ele><time>2026-04-11T15:42:01Z</time></trkpt><trkpt lat="36.971242710887765" lon="15.01485577535824"><ele>487.71428571428567</ele><time>2026-04-11T15:42:02Z</time></trkpt><trkpt lat="36.97130908646715" lon="15.014888491049769"><ele>487.99999999999994</ele><time>2026-04-11T15:42:05Z</time></trkpt><trkpt lat="36.9714464540603" lon="15.01494090185719"><ele>488.0</ele><time>2026-04-11T15:42:07Z</time></trkpt><trkpt lat="36.971553974141976" lon="15.014962515291913"><ele>487.99999999999994</ele><time>2026-04-11T15:42:09Z</time></trkpt><trkpt lat="36.97164882717386" lon="15.014997391505677"><ele>487.99999999999994</ele><time>2026-04-11T15:42:11Z</time></trkpt><trkpt lat="36.97174000717071" lon="15.015033350542733"><ele>488.0</ele><time>2026-04-11T15:42:13Z</time></trkpt><trkpt lat="36.97182723881435" lon="15.015079812553424"><ele>488.0</ele><time>2026-04-11T15:42:15Z</time></trkpt><trkpt lat="36.97190564245698" lon="15.015105891272643"><ele>488.16666666666663</ele><time>2026-04-11T15:42:17Z</time></trkpt><trkpt lat="36.97197335139766" lon="15.015136055830848"><ele>488.3333333333333</ele><time>2026-04-11T15:42:24Z</time></trkpt><trkpt lat="36.972070200730236" lon="15.015152625652663"><ele>488.5</ele><time>2026-04-11T15:42:27Z</time></trkpt><trkpt lat="36.972150391499504" lon="15.015187858770924"><ele>488.66666666666663</ele><time>2026-04-11T15:42:31Z</time></trkpt><trkpt lat="36.972218879659806" lon="15.015184521119085"><ele>488.8333333333333</ele><time>2026-04-11T15:42:33Z</time></trkpt><trkpt lat="36.97229108387451" lon="15.01524336237653"><ele>489.0</ele><time>2026-04-11T15:42:35Z</time></trkpt><trkpt lat="36.972382052951" lon="15.015295888561708"><ele>489.0</ele><time>2026-04-11T15:42:38Z</time></trkpt><trkpt lat="36.97248018375613" lon="15.01532755891122"><ele>489.0</ele><time>2026-04-11T15:42:41Z</time></trkpt><trkpt lat="36.97253894819692" lon="15.015393581642083"><ele>489.0</ele><time>2026-04-11T15:42:44Z</time></trkpt><trkpt lat="36.97260600048906" lon="15.0155051140565"><ele>489.0</ele><time>2026-04-11T15:42:46.001Z</time></trkpt><trkpt lat="36.97266382243995" lon="15.01555028237597"><ele>489.0</ele><time>2026-04-11T15:42:49.001Z</time></trkpt><trkpt lat="36.97271809754089" lon="15.015595916357144"><ele>489.0</ele><time>2026-04-11T15:42:53.001Z</time></trkpt><trkpt lat="36.97279455109684" lon="15.015668788902579"><ele>489.3333333333333</ele><time>2026-04-11T15:42:55.001Z</time></trkpt><trkpt lat="36.97286474659372" lon="15.01572903919399"><ele>489.66666666666663</ele><time>2026-04-11T15:42:57.001Z</time></trkpt><trkpt lat="36.972943957024505" lon="15.015784427309697"><ele>490.0</ele><time>2026-04-11T15:42:59.001Z</time></trkpt><trkpt lat="36.97303033398704" lon="15.015804851691614"><ele>490.3333333333333</ele><time>2026-04-11T15:43:01.001Z</time></trkpt><trkpt lat="36.9731105006348" lon="15.015855243262607"><ele>490.66666666666663</ele><time>2026-04-11T15:43:03Z</time></trkpt><trkpt lat="36.97315558908517" lon="15.015919819585132"><ele>491.0</ele><time>2026-04-11T15:43:05Z</time></trkpt><trkpt lat="36.973169775514236" lon="15.015998310592215"><ele>491.0</ele><time>2026-04-11T15:43:07Z</time></trkpt><trkpt lat="36.9732135990838" lon="15.016089626618333"><ele>491.0</ele><time>2026-04-11T15:43:10Z</time></trkpt><trkpt lat="36.973272672316334" lon="15.01619670957176"><ele>491.0</ele><time>2026-04-11T15:43:13Z</time></trkpt><trkpt lat="36.973300871637875" lon="15.01633947053201"><ele>491.0</ele><time>2026-04-11T15:43:15Z</time></trkpt><trkpt lat="36.97334850380969" lon="15.016415867011291"><ele>491.0</ele><time>2026-04-11T15:43:17Z</time></trkpt><trkpt lat="36.97345780938308" lon="15.016700812667152"><ele>490.99999999999994</ele><time>2026-04-11T15:43:20Z</time></trkpt><trkpt lat="36.97348889901158" lon="15.016772194195472"><ele>491.0</ele><time>2026-04-11T15:43:21Z</time></trkpt><trkpt lat="36.97352508642668" lon="15.01684747053594"><ele>491.0</ele><time>2026-04-11T15:43:22Z</time></trkpt><trkpt lat="36.97359121637936" lon="15.01697531801936"><ele>491.0</ele><time>2026-04-11T15:43:24Z</time></trkpt><trkpt lat="36.973636730441186" lon="15.017068722275672"><ele>490.99999999999994</ele><time>2026-04-11T15:43:26Z</time></trkpt><trkpt lat="36.97367608653977" lon="15.017140638609312"><ele>491.0</ele><time>2026-04-11T15:43:28Z</time></trkpt><trkpt lat="36.97373606336606" lon="15.017236718792166"><ele>490.99999999999994</ele><time>2026-04-11T15:43:31Z</time></trkpt><trkpt lat="36.973784194808324" lon="15.017332397703148"><ele>491.0</ele><time>2026-04-11T15:43:33Z</time></trkpt><trkpt lat="36.973821660504214" lon="15.017429970089598"><ele>491.0</ele><time>2026-04-11T15:43:35Z</time></trkpt><trkpt lat="36.97385720076726" lon="15.017527913316242"><ele>491.0</ele><time>2026-04-11T15:43:37Z</time></trkpt><trkpt lat="36.97392300526542" lon="15.017582034882045"><ele>490.99999999999994</ele><time>2026-04-11T15:43:39Z</time></trkpt><trkpt lat="36.97397145029486" lon="15.017668008357267"><ele>491.0</ele><time>2026-04-11T15:43:44Z</time></trkpt><trkpt lat="36.97403650769308" lon="15.01775017589149"><ele>489.49999999999994</ele><time>2026-04-11T15:43:47Z</time></trkpt><trkpt lat="36.97410423359501" lon="15.01782237572413"><ele>488.0</ele><time>2026-04-11T15:43:50Z</time></trkpt><trkpt lat="36.97414888418854" lon="15.017882888757777"><ele>486.5</ele><time>2026-04-11T15:43:52Z</time></trkpt><trkpt lat="36.97421429031394" lon="15.017932349037675"><ele>485.0</ele><time>2026-04-11T15:43:54Z</time></trkpt><trkpt lat="36.97426157510099" lon="15.018035414714321"><ele>483.49999999999994</ele><time>2026-04-11T15:43:55Z</time></trkpt><trkpt lat="36.974331257003215" lon="15.018063936529098"><ele>482.0</ele><time>2026-04-11T15:43:56Z</time></trkpt><trkpt lat="36.974399986324585" lon="15.018093096329878"><ele>481.99999999999994</ele><time>2026-04-11T15:43:57Z</time></trkpt><trkpt lat="36.97447122382335" lon="15.018127795176897"><ele>482.0</ele><time>2026-04-11T15:43:58Z</time></trkpt><trkpt lat="36.97453900504346" lon="15.018166635540801"><ele>482.0</ele><time>2026-04-11T15:43:59Z</time></trkpt><trkpt lat="36.97459418943928" lon="15.01820977225439"><ele>482.0</ele><time>2026-04-11T15:44:00Z</time></trkpt><trkpt lat="36.974662251749095" lon="15.018278008963575"><ele>481.99999999999994</ele><time>2026-04-11T15:44:01Z</time></trkpt><trkpt lat="36.97472939554024" lon="15.01834351300355"><ele>482.0</ele><time>2026-04-11T15:44:02Z</time></trkpt><trkpt lat="36.974793832011365" lon="15.01840227751565"><ele>481.8333333333333</ele><time>2026-04-11T15:44:03Z</time></trkpt><trkpt lat="36.974853181142414" lon="15.018450836556083"><ele>481.66666666666663</ele><time>2026-04-11T15:44:04Z</time></trkpt><trkpt lat="36.97492465288112" lon="15.01851846984294"><ele>481.5</ele><time>2026-04-11T15:44:06Z</time></trkpt><trkpt lat="36.97499160498285" lon="15.018571496161332"><ele>481.33333333333337</ele><time>2026-04-11T15:44:08Z</time></trkpt><trkpt lat="36.97503554074717" lon="15.018628553569807"><ele>481.1666666666667</ele><time>2026-04-11T15:44:10Z</time></trkpt><trkpt lat="36.975107451094985" lon="15.018703691769874"><ele>481.0</ele><time>2026-04-11T15:44:12Z</time></trkpt><trkpt lat="36.975175087189974" lon="15.018790671801947"><ele>481.00000000000006</ele><time>2026-04-11T15:44:14Z</time></trkpt><trkpt lat="36.97524477744177" lon="15.018816758164977"><ele>481.0</ele><time>2026-04-11T15:44:16Z</time></trkpt><trkpt lat="36.97531731947018" lon="15.01887083443529"><ele>481.0</ele><time>2026-04-11T15:44:19Z</time></trkpt><trkpt lat="36.9753811066978" lon="15.018957617466848"><ele>481.0</ele><time>2026-04-11T15:44:22Z</time></trkpt><trkpt lat="36.97540176447784" lon="15.019057910185255"><ele>481.00000000000006</ele><time>2026-04-11T15:44:24Z</time></trkpt><trkpt lat="36.97546430146546" lon="15.0191341117271"><ele>481.0</ele><time>2026-04-11T15:44:26Z</time></trkpt><trkpt lat="36.97552684627704" lon="15.019220300164054"><ele>481.00000000000006</ele><time>2026-04-11T15:44:28Z</time></trkpt><trkpt lat="36.97558788118356" lon="15.019300147433444"><ele>481.0</ele><time>2026-04-11T15:44:30Z</time></trkpt><trkpt lat="36.97563590609579" lon="15.019393494393302"><ele>481.0</ele><time>2026-04-11T15:44:32Z</time></trkpt><trkpt lat="36.975677460665516" lon="15.019479612211605"><ele>481.0</ele><time>2026-04-11T15:44:35Z</time></trkpt><trkpt lat="36.975718136943215" lon="15.019586425241943"><ele>481.00000000000006</ele><time>2026-04-11T15:44:38Z</time></trkpt><trkpt lat="36.97574773441047" lon="15.01965601585041"><ele>481.0</ele><time>2026-04-11T15:44:40Z</time></trkpt><trkpt lat="36.97587357878842" lon="15.019762292116177"><ele>481.00000000000006</ele><time>2026-04-11T15:44:43Z</time></trkpt><trkpt lat="36.975901518097004" lon="15.019892351366645"><ele>481.0</ele><time>2026-04-11T15:44:45Z</time></trkpt><trkpt lat="36.97592913551131" lon="15.019969601747643"><ele>481.0</ele><time>2026-04-11T15:44:46Z</time></trkpt><trkpt lat="36.97601095164204" lon="15.02004662677564"><ele>481.0</ele><time>2026-04-11T15:44:48Z</time></trkpt><trkpt lat="36.976096127609765" lon="15.020095166675217"><ele>481.00000000000006</ele><time>2026-04-11T15:44:52.001Z</time></trkpt><trkpt lat="36.97614717426605" lon="15.020146183352937"><ele>481.0</ele><time>2026-04-11T15:44:54.001Z</time></trkpt><trkpt lat="36.97621625290629" lon="15.020215338000499"><ele>480.00000000000006</ele><time>2026-04-11T15:44:57.001Z</time></trkpt><trkpt lat="36.976270370482716" lon="15.020287797581451"><ele>479.0</ele><time>2026-04-11T15:45:00.001Z</time></trkpt><trkpt lat="36.97634855976721" lon="15.02034746438218"><ele>478.0</ele><time>2026-04-11T15:45:03.001Z</time></trkpt><trkpt lat="36.97642996843237" lon="15.020389516494165"><ele>477.0</ele><time>2026-04-11T15:45:06.001Z</time></trkpt><trkpt lat="36.976508639618224" lon="15.020413155471516"><ele>476.00000000000006</ele><time>2026-04-11T15:45:09.001Z</time></trkpt><trkpt lat="36.97657316750828" lon="15.02040369957634"><ele>475.0</ele><time>2026-04-11T15:45:11.001Z</time></trkpt><trkpt lat="36.97666044155513" lon="15.020440733297006"><ele>473.25</ele><time>2026-04-11T15:45:13.001Z</time></trkpt><trkpt lat="36.976840436496495" lon="15.020527676408781"><ele>471.5</ele><time>2026-04-11T15:45:15.001Z</time></trkpt><trkpt lat="36.976907093785144" lon="15.020553071376465"><ele>469.75</ele><time>2026-04-11T15:45:16.001Z</time></trkpt><trkpt lat="36.977024754013186" lon="15.020576402025885"><ele>468.0</ele><time>2026-04-11T15:45:18Z</time></trkpt><trkpt lat="36.97716094295665" lon="15.020567150343808"><ele>468.0</ele><time>2026-04-11T15:45:20Z</time></trkpt><trkpt lat="36.97723942469259" lon="15.02055490083806"><ele>468.00000000000006</ele><time>2026-04-11T15:45:21Z</time></trkpt><trkpt lat="36.977312877148115" lon="15.02054496818345"><ele>468.0</ele><time>2026-04-11T15:45:22Z</time></trkpt><trkpt lat="36.977379524341956" lon="15.020529973724624"><ele>468.0</ele><time>2026-04-11T15:45:23Z</time></trkpt><trkpt lat="36.97744803732518" lon="15.02051739810869"><ele>468.00000000000006</ele><time>2026-04-11T15:45:24Z</time></trkpt><trkpt lat="36.97752084328791" lon="15.020516562276674"><ele>468.0</ele><time>2026-04-11T15:45:25Z</time></trkpt><trkpt lat="36.97759910103426" lon="15.020530537439873"><ele>468.0</ele><time>2026-04-11T15:45:26Z</time></trkpt><trkpt lat="36.97767571383017" lon="15.020549163932836"><ele>466.8333333333333</ele><time>2026-04-11T15:45:27Z</time></trkpt><trkpt lat="36.97775441659024" lon="15.02058678214487"><ele>465.66666666666663</ele><time>2026-04-11T15:45:28Z</time></trkpt><trkpt lat="36.977846966433574" lon="15.020626982168064"><ele>464.5</ele><time>2026-04-11T15:45:29Z</time></trkpt><trkpt lat="36.97793541259755" lon="15.020685217983093"><ele>463.3333333333333</ele><time>2026-04-11T15:45:30Z</time></trkpt><trkpt lat="36.97800670824754" lon="15.020739637513211"><ele>462.16666666666663</ele><time>2026-04-11T15:45:31Z</time></trkpt><trkpt lat="36.97806430241995" lon="15.020783986405803"><ele>461.0</ele><time>2026-04-11T15:45:32Z</time></trkpt><trkpt lat="36.97811458562383" lon="15.020836493067682"><ele>461.0</ele><time>2026-04-11T15:45:33Z</time></trkpt><trkpt lat="36.9781692398054" lon="15.021012432588194"><ele>461.0</ele><time>2026-04-11T15:45:34Z</time></trkpt><trkpt lat="36.97823049310692" lon="15.021055873525015"><ele>461.0</ele><time>2026-04-11T15:45:35Z</time></trkpt><trkpt lat="36.978317913241234" lon="15.021111374616272"><ele>461.0</ele><time>2026-04-11T15:45:37Z</time></trkpt><trkpt lat="36.97837502190659" lon="15.021144994080627"><ele>461.0</ele><time>2026-04-11T15:45:38Z</time></trkpt><trkpt lat="36.978458416009325" lon="15.021211542603949"><ele>461.49999999999994</ele><time>2026-04-11T15:45:40Z</time></trkpt><trkpt lat="36.97854690552882" lon="15.021284540030795"><ele>462.0</ele><time>2026-04-11T15:45:42Z</time></trkpt><trkpt lat="36.97862876574169" lon="15.021349959384207"><ele>462.5</ele><time>2026-04-11T15:45:44Z</time></trkpt><trkpt lat="36.9786748298702" lon="15.021404097478179"><ele>463.0</ele><time>2026-04-11T15:45:45Z</time></trkpt><trkpt lat="36.978729281548254" lon="15.021453910789731"><ele>463.49999999999994</ele><time>2026-04-11T15:45:46Z</time></trkpt><trkpt lat="36.97878529928497" lon="15.021506891769263"><ele>464.0</ele><time>2026-04-11T15:45:47Z</time></trkpt><trkpt lat="36.97886503622115" lon="15.021615895686672"><ele>464.6</ele><time>2026-04-11T15:45:49Z</time></trkpt><trkpt lat="36.97894546474022" lon="15.0217174886013"><ele>465.2</ele><time>2026-04-11T15:45:51Z</time></trkpt><trkpt lat="36.97900128567545" lon="15.021834194318433"><ele>465.80000000000007</ele><time>2026-04-11T15:45:53Z</time></trkpt><trkpt lat="36.97906563965813" lon="15.021940644283267"><ele>466.40000000000003</ele><time>2026-04-11T15:45:55Z</time></trkpt><trkpt lat="36.97913259359705" lon="15.02203175110954"><ele>467.0</ele><time>2026-04-11T15:45:57Z</time></trkpt><trkpt lat="36.979209324293066" lon="15.022136605757657"><ele>467.20000000000005</ele><time>2026-04-11T15:45:59Z</time></trkpt><trkpt lat="36.97928588198935" lon="15.022227536591027"><ele>467.40000000000003</ele><time>2026-04-11T15:46:01Z</time></trkpt><trkpt lat="36.97936940677514" lon="15.022323578904585"><ele>467.59999999999997</ele><time>2026-04-11T15:46:03Z</time></trkpt><trkpt lat="36.97942141860522" lon="15.022377718053022"><ele>467.79999999999995</ele><time>2026-04-11T15:46:04Z</time></trkpt><trkpt lat="36.97947957080002" lon="15.02242667139507"><ele>468.0</ele><time>2026-04-11T15:46:05Z</time></trkpt><trkpt lat="36.97957079584663" lon="15.022490980758624"><ele>468.0</ele><time>2026-04-11T15:46:07Z</time></trkpt><trkpt lat="36.979653920828696" lon="15.022578603041524"><ele>467.99999999999994</ele><time>2026-04-11T15:46:09Z</time></trkpt><trkpt lat="36.97969760299281" lon="15.022707783962177"><ele>467.99999999999994</ele><time>2026-04-11T15:46:11Z</time></trkpt><trkpt lat="36.97973053501468" lon="15.022774995818107"><ele>468.0</ele><time>2026-04-11T15:46:12Z</time></trkpt><trkpt lat="36.97980137000209" lon="15.022836812471308"><ele>468.0</ele><time>2026-04-11T15:46:13Z</time></trkpt><trkpt lat="36.97990724735426" lon="15.022906322605033"><ele>468.0</ele><time>2026-04-11T15:46:15Z</time></trkpt><trkpt lat="36.980000795861706" lon="15.022966001086075"><ele>468.0</ele><time>2026-04-11T15:46:17Z</time></trkpt><trkpt lat="36.98005858850491" lon="15.022997609460566"><ele>468.0</ele><time>2026-04-11T15:46:18Z</time></trkpt><trkpt lat="36.980120897027305" lon="15.023031687698115"><ele>468.0</ele><time>2026-04-11T15:46:19Z</time></trkpt><trkpt lat="36.9801805323721" lon="15.023065716312681"><ele>468.0</ele><time>2026-04-11T15:46:20Z</time></trkpt><trkpt lat="36.98024626114487" lon="15.0231086239913"><ele>468.0</ele><time>2026-04-11T15:46:21Z</time></trkpt><trkpt lat="36.98031341620846" lon="15.023161454366134"><ele>467.14285714285717</ele><time>2026-04-11T15:46:22Z</time></trkpt><trkpt lat="36.98037220496034" lon="15.023211620775413"><ele>466.28571428571433</ele><time>2026-04-11T15:46:23Z</time></trkpt><trkpt lat="36.98042750939351" lon="15.023258813893433"><ele>465.42857142857144</ele><time>2026-04-11T15:46:24Z</time></trkpt><trkpt lat="36.98048551422465" lon="15.023305003634798"><ele>464.57142857142856</ele><time>2026-04-11T15:46:25Z</time></trkpt><trkpt lat="36.98054629047661" lon="15.023344486088915"><ele>463.7142857142857</ele><time>2026-04-11T15:46:26Z</time></trkpt><trkpt lat="36.980608806149505" lon="15.023370056532436"><ele>462.8571428571429</ele><time>2026-04-11T15:46:27Z</time></trkpt><trkpt lat="36.98067605187265" lon="15.023349608991351"><ele>462.0</ele><time>2026-04-11T15:46:28Z</time></trkpt><trkpt lat="36.98079824464233" lon="15.023364277121734"><ele>458.25</ele><time>2026-04-11T15:46:30Z</time></trkpt><trkpt lat="36.98086453089968" lon="15.023384504102415"><ele>454.5</ele><time>2026-04-11T15:46:31Z</time></trkpt><trkpt lat="36.98092868630625" lon="15.023525396040082"><ele>450.75</ele><time>2026-04-11T15:46:33Z</time></trkpt><trkpt lat="36.98103570257618" lon="15.023607066786925"><ele>447.0</ele><time>2026-04-11T15:46:35Z</time></trkpt><trkpt lat="36.98115192040596" lon="15.023688375380976"><ele>447.0</ele><time>2026-04-11T15:46:37Z</time></trkpt><trkpt lat="36.98123268429535" lon="15.023715858317656"><ele>447.0</ele><time>2026-04-11T15:46:38Z</time></trkpt><trkpt lat="36.98131264310043" lon="15.023750411976666"><ele>447.0</ele><time>2026-04-11T15:46:39Z</time></trkpt><trkpt lat="36.98139959912031" lon="15.023778379461916"><ele>447.0</ele><time>2026-04-11T15:46:40Z</time></trkpt><trkpt lat="36.9814832614806" lon="15.02379569866119"><ele>447.0</ele><time>2026-04-11T15:46:41Z</time></trkpt><trkpt lat="36.981563019387856" lon="15.023784311890715"><ele>447.0</ele><time>2026-04-11T15:46:42Z</time></trkpt><trkpt lat="36.98164204660828" lon="15.02379875175154"><ele>445.6</ele><time>2026-04-11T15:46:43Z</time></trkpt><trkpt lat="36.981733628480036" lon="15.023798346343343"><ele>444.20000000000005</ele><time>2026-04-11T15:46:44Z</time></trkpt><trkpt lat="36.98182783264448" lon="15.02378815018703"><ele>442.8</ele><time>2026-04-11T15:46:45Z</time></trkpt><trkpt lat="36.981920002561175" lon="15.023781285123526"><ele>441.4</ele><time>2026-04-11T15:46:46Z</time></trkpt><trkpt lat="36.98201776509342" lon="15.023808394209315"><ele>440.0</ele><time>2026-04-11T15:46:47Z</time></trkpt><trkpt lat="36.982127146364206" lon="15.023823743229904"><ele>440.0</ele><time>2026-04-11T15:46:48Z</time></trkpt><trkpt lat="36.98223606071476" lon="15.02384875880265"><ele>440.0</ele><time>2026-04-11T15:46:49Z</time></trkpt><trkpt lat="36.98234918101423" lon="15.023885932647374"><ele>440.0</ele><time>2026-04-11T15:46:50Z</time></trkpt><trkpt lat="36.98246562044195" lon="15.023929834544772"><ele>440.0</ele><time>2026-04-11T15:46:51Z</time></trkpt><trkpt lat="36.982577983656256" lon="15.023978282032466"><ele>439.8</ele><time>2026-04-11T15:46:52Z</time></trkpt><trkpt lat="36.98268596610702" lon="15.02403477598685"><ele>439.6</ele><time>2026-04-11T15:46:53Z</time></trkpt><trkpt lat="36.982790269108094" lon="15.0240981297039"><ele>439.4</ele><time>2026-04-11T15:46:54Z</time></trkpt><trkpt lat="36.98288792834782" lon="15.02416468079684"><ele>439.2</ele><time>2026-04-11T15:46:55Z</time></trkpt><trkpt lat="36.98297607751504" lon="15.024228815926412"><ele>439.0</ele><time>2026-04-11T15:46:56Z</time></trkpt><trkpt lat="36.98307517292537" lon="15.024301551914737"><ele>439.0</ele><time>2026-04-11T15:46:57Z</time></trkpt><trkpt lat="36.98317185971185" lon="15.024375593241567"><ele>439.0</ele><time>2026-04-11T15:46:58.001Z</time></trkpt><trkpt lat="36.983279454661854" lon="15.024457002519625"><ele>439.0</ele><time>2026-04-11T15:46:59.001Z</time></trkpt><trkpt lat="36.98339300479599" lon="15.0245429176217"><ele>439.0</ele><time>2026-04-11T15:47:00.001Z</time></trkpt><trkpt lat="36.9834981048051" lon="15.024625330762047"><ele>438.0</ele><time>2026-04-11T15:47:01.001Z</time></trkpt><trkpt lat="36.983602738447715" lon="15.024707309586129"><ele>437.0</ele><time>2026-04-11T15:47:02.001Z</time></trkpt><trkpt lat="36.983709217892795" lon="15.024790148163357"><ele>436.0</ele><time>2026-04-11T15:47:03.001Z</time></trkpt><trkpt lat="36.983808282732696" lon="15.02486498193375"><ele>435.0</ele><time>2026-04-11T15:47:04.001Z</time></trkpt><trkpt lat="36.983912619721146" lon="15.02494379726852"><ele>435.25</ele><time>2026-04-11T15:47:05.001Z</time></trkpt><trkpt lat="36.98401583003186" lon="15.025022052194611"><ele>435.5</ele><time>2026-04-11T15:47:06.001Z</time></trkpt><trkpt lat="36.98412052535333" lon="15.025102956864004"><ele>435.75</ele><time>2026-04-11T15:47:07.001Z</time></trkpt><trkpt lat="36.98422128287518" lon="15.025185039297568"><ele>436.0</ele><time>2026-04-11T15:47:08.001Z</time></trkpt><trkpt lat="36.98431846458056" lon="15.025273381332966"><ele>435.5</ele><time>2026-04-11T15:47:09.001Z</time></trkpt><trkpt lat="36.98441325648199" lon="15.025368567382493"><ele>435.0</ele><time>2026-04-11T15:47:10.001Z</time></trkpt><trkpt lat="36.98450895675824" lon="15.02547535145686"><ele>434.5</ele><time>2026-04-11T15:47:11.001Z</time></trkpt><trkpt lat="36.984604268881384" lon="15.02558195248533"><ele>434.0</ele><time>2026-04-11T15:47:12.001Z</time></trkpt><trkpt lat="36.984703173568086" lon="15.02568102517053"><ele>434.0</ele><time>2026-04-11T15:47:13.001Z</time></trkpt><trkpt lat="36.98480314302037" lon="15.025771522185442"><ele>434.0</ele><time>2026-04-11T15:47:14.001Z</time></trkpt><trkpt lat="36.9849033145341" lon="15.025856228297078"><ele>434.0</ele><time>2026-04-11T15:47:15.001Z</time></trkpt><trkpt lat="36.98500592827204" lon="15.025942772091936"><ele>434.0</ele><time>2026-04-11T15:47:16.001Z</time></trkpt><trkpt lat="36.98510604437404" lon="15.02602555166751"><ele>433.0</ele><time>2026-04-11T15:47:17.001Z</time></trkpt><trkpt lat="36.985210180232656" lon="15.026108782926825"><ele>432.0</ele><time>2026-04-11T15:47:18.001Z</time></trkpt><trkpt lat="36.98530778843497" lon="15.026186566839748"><ele>431.0</ele><time>2026-04-11T15:47:19.001Z</time></trkpt><trkpt lat="36.98541947180695" lon="15.026275595166073"><ele>430.0</ele><time>2026-04-11T15:47:20Z</time></trkpt><trkpt lat="36.98551889879481" lon="15.026356049602354"><ele>430.00000000000006</ele><time>2026-04-11T15:47:21Z</time></trkpt><trkpt lat="36.98559766698349" lon="15.026419787289502"><ele>430.0</ele><time>2026-04-11T15:47:22Z</time></trkpt><trkpt lat="36.98567354811784" lon="15.026481188774934"><ele>430.0</ele><time>2026-04-11T15:47:23Z</time></trkpt><trkpt lat="36.98573994380691" lon="15.026539076821999"><ele>430.0</ele><time>2026-04-11T15:47:24Z</time></trkpt><trkpt lat="36.98580220464606" lon="15.026596037606465"><ele>430.00000000000006</ele><time>2026-04-11T15:47:25Z</time></trkpt><trkpt lat="36.985860275773575" lon="15.026659880437196"><ele>430.0</ele><time>2026-04-11T15:47:26Z</time></trkpt><trkpt lat="36.98590899104707" lon="15.026721765875108"><ele>428.33333333333337</ele><time>2026-04-11T15:47:27Z</time></trkpt><trkpt lat="36.9859525031321" lon="15.026779724274556"><ele>426.6666666666667</ele><time>2026-04-11T15:47:28Z</time></trkpt><trkpt lat="36.98601478775252" lon="15.026869063227052"><ele>425.0</ele><time>2026-04-11T15:47:30Z</time></trkpt><trkpt lat="36.986093880351405" lon="15.026873351451211"><ele>423.33333333333337</ele><time>2026-04-11T15:49:40Z</time></trkpt><trkpt lat="36.98616691520048" lon="15.026811187620192"><ele>421.6666666666667</ele><time>2026-04-11T15:49:43Z</time></trkpt><trkpt lat="36.9862036882246" lon="15.026730316365182"><ele>420.0</ele><time>2026-04-11T15:49:44Z</time></trkpt><trkpt lat="36.98626440578785" lon="15.02658295097145"><ele>419.6666666666667</ele><time>2026-04-11T15:49:46Z</time></trkpt><trkpt lat="36.986317409369704" lon="15.02651232507104"><ele>419.33333333333337</ele><time>2026-04-11T15:49:47Z</time></trkpt><trkpt lat="36.98638910230366" lon="15.026469668189586"><ele>419.0</ele><time>2026-04-11T15:49:48Z</time></trkpt><trkpt lat="36.98646005432336" lon="15.026463299716838"><ele>418.6666666666667</ele><time>2026-04-11T15:49:49Z</time></trkpt><trkpt lat="36.986538874084964" lon="15.026508335126284"><ele>418.33333333333337</ele><time>2026-04-11T15:49:51Z</time></trkpt><trkpt lat="36.98660718352037" lon="15.02638360501905"><ele>418.0</ele><time>2026-04-11T15:49:54Z</time></trkpt><trkpt lat="36.98664611481116" lon="15.026286120309663"><ele>418.00000000000006</ele><time>2026-04-11T15:49:55Z</time></trkpt><trkpt lat="36.986676307925315" lon="15.026169605522366"><ele>418.0</ele><time>2026-04-11T15:49:56Z</time></trkpt><trkpt lat="36.986694688839535" lon="15.026057838996703"><ele>418.0</ele><time>2026-04-11T15:49:57Z</time></trkpt><trkpt lat="36.9867027607595" lon="15.025963804066794"><ele>418.0</ele><time>2026-04-11T15:49:58Z</time></trkpt><trkpt lat="36.98666671991107" lon="15.025822456393286"><ele>418.00000000000006</ele><time>2026-04-11T15:50:00Z</time></trkpt><trkpt lat="36.98662500877771" lon="15.02576310380976"><ele>418.0</ele><time>2026-04-11T15:50:01Z</time></trkpt><trkpt lat="36.986588917289524" lon="15.025685172378859"><ele>417.75</ele><time>2026-04-11T15:50:02Z</time></trkpt><trkpt lat="36.986589947153604" lon="15.025549363902586"><ele>417.5</ele><time>2026-04-11T15:50:04Z</time></trkpt><trkpt lat="36.98660945561762" lon="15.025375527218314"><ele>417.25</ele><time>2026-04-11T15:50:06Z</time></trkpt><trkpt lat="36.98663169385303" lon="15.02526206531526"><ele>417.0</ele><time>2026-04-11T15:50:07Z</time></trkpt><trkpt lat="36.98666347376864" lon="15.025124580029358"><ele>415.8333333333333</ele><time>2026-04-11T15:50:08Z</time></trkpt><trkpt lat="36.98669423733315" lon="15.025017385395344"><ele>414.66666666666663</ele><time>2026-04-11T15:50:09Z</time></trkpt><trkpt lat="36.98672783242379" lon="15.024921467903189"><ele>413.5</ele><time>2026-04-11T15:50:10Z</time></trkpt><trkpt lat="36.986764627201325" lon="15.024831111653064"><ele>412.3333333333333</ele><time>2026-04-11T15:50:11Z</time></trkpt><trkpt lat="36.9868036836953" lon="15.024750169863676"><ele>411.16666666666663</ele><time>2026-04-11T15:50:12Z</time></trkpt><trkpt lat="36.986840709723815" lon="15.024670189348242"><ele>410.0</ele><time>2026-04-11T15:50:13Z</time></trkpt><trkpt lat="36.98689845463683" lon="15.02455952166555"><ele>410.0</ele><time>2026-04-11T15:50:15Z</time></trkpt><trkpt lat="36.986963175834084" lon="15.024701127341586"><ele>410.0</ele><time>2026-04-11T15:50:21Z</time></trkpt><trkpt lat="36.9868945046226" lon="15.024824213974854"><ele>410.0</ele><time>2026-04-11T15:50:23Z</time></trkpt><trkpt lat="36.98684144316039" lon="15.024880366345613"><ele>410.0</ele><time>2026-04-11T15:50:24Z</time></trkpt><trkpt lat="36.98679289861523" lon="15.024932194489159"><ele>410.0</ele><time>2026-04-11T15:50:25Z</time></trkpt><trkpt lat="36.986744601604464" lon="15.025023147727378"><ele>409.49999999999994</ele><time>2026-04-11T15:50:27Z</time></trkpt><trkpt lat="36.98671080911391" lon="15.025139264758607"><ele>409.0</ele><time>2026-04-11T15:50:29Z</time></trkpt><trkpt lat="36.986661576849215" lon="15.02519278190045"><ele>408.5</ele><time>2026-04-11T15:50:30Z</time></trkpt><trkpt lat="36.98671372030604" lon="15.025267519641423"><ele>408.0</ele><time>2026-04-11T15:50:32Z</time></trkpt><trkpt lat="36.98679927380331" lon="15.025328384190741"><ele>407.49999999999994</ele><time>2026-04-11T15:50:34Z</time></trkpt><trkpt lat="36.98686430231023" lon="15.025366958045382"><ele>407.0</ele><time>2026-04-11T15:50:36Z</time></trkpt><trkpt lat="36.986942033993955" lon="15.025411583973888"><ele>406.99999999999994</ele><time>2026-04-11T15:50:38Z</time></trkpt><trkpt lat="36.986973593504814" lon="15.025501039741117"><ele>407.0</ele><time>2026-04-11T15:50:41Z</time></trkpt><trkpt lat="36.98703918866348" lon="15.025512037610474"><ele>407.0</ele><time>2026-04-11T15:50:44Z</time></trkpt><trkpt lat="36.987086650903215" lon="15.025438413132603"><ele>407.0</ele><time>2026-04-11T15:50:48Z</time></trkpt><trkpt lat="36.987152381995614" lon="15.025378040683757"><ele>406.99999999999994</ele><time>2026-04-11T15:50:52Z</time></trkpt><trkpt lat="36.9872785232751" lon="15.02534031947755"><ele>407.0</ele><time>2026-04-11T15:50:56Z</time></trkpt><trkpt lat="36.987302667904466" lon="15.025247781539223"><ele>406.99999999999994</ele><time>2026-04-11T15:50:57.999Z</time></trkpt><trkpt lat="36.98728834334597" lon="15.025160798197925"><ele>407.0</ele><time>2026-04-11T15:50:59.999Z</time></trkpt><trkpt lat="36.987266222930835" lon="15.02508452647447"><ele>407.0</ele><time>2026-04-11T15:51:01.999Z</time></trkpt><trkpt lat="36.987297647172895" lon="15.02498479386052"><ele>407.0</ele><time>2026-04-11T15:51:04.999Z</time></trkpt><trkpt lat="36.98735161595575" lon="15.024932422018932"><ele>406.99999999999994</ele><time>2026-04-11T15:51:06.999Z</time></trkpt><trkpt lat="36.98741116792664" lon="15.024858293511741"><ele>407.0</ele><time>2026-04-11T15:51:08.999Z</time></trkpt><trkpt lat="36.98747193862935" lon="15.02479022889477"><ele>407.20000000000005</ele><time>2026-04-11T15:51:11.001Z</time></trkpt><trkpt lat="36.98752642192547" lon="15.024719663339114"><ele>407.4</ele><time>2026-04-11T15:51:13.001Z</time></trkpt><trkpt lat="36.98771208967911" lon="15.024608734738191"><ele>407.6</ele><time>2026-04-11T15:51:15Z</time></trkpt><trkpt lat="36.98776157006592" lon="15.024552998050293"><ele>407.79999999999995</ele><time>2026-04-11T15:51:16Z</time></trkpt><trkpt lat="36.987831504786904" lon="15.024507530708332"><ele>408.0</ele><time>2026-04-11T15:51:17Z</time></trkpt><trkpt lat="36.98790695139439" lon="15.024459298088841"><ele>408.0</ele><time>2026-04-11T15:51:18Z</time></trkpt><trkpt lat="36.98798071018642" lon="15.024407707281519"><ele>408.0</ele><time>2026-04-11T15:51:19Z</time></trkpt><trkpt lat="36.988053334773845" lon="15.024352123270976"><ele>408.0</ele><time>2026-04-11T15:51:20Z</time></trkpt><trkpt lat="36.988125257718394" lon="15.02429370904207"><ele>408.0</ele><time>2026-04-11T15:51:21Z</time></trkpt><trkpt lat="36.9881885650555" lon="15.0242367468503"><ele>408.0</ele><time>2026-04-11T15:51:22Z</time></trkpt><trkpt lat="36.98825489291968" lon="15.024180912066859"><ele>408.0</ele><time>2026-04-11T15:51:23Z</time></trkpt><trkpt lat="36.988321811989245" lon="15.024124568578992"><ele>409.5</ele><time>2026-04-11T15:51:24Z</time></trkpt><trkpt lat="36.98838441003752" lon="15.02406733433047"><ele>411.0</ele><time>2026-04-11T15:51:25Z</time></trkpt><trkpt lat="36.98844861174849" lon="15.024017703949308"><ele>412.5</ele><time>2026-04-11T15:51:26Z</time></trkpt><trkpt lat="36.988516868491324" lon="15.023974595644662"><ele>414.0</ele><time>2026-04-11T15:51:27Z</time></trkpt><trkpt lat="36.98858825906778" lon="15.023942375906412"><ele>415.5</ele><time>2026-04-11T15:51:28Z</time></trkpt><trkpt lat="36.98866717352796" lon="15.023903722407487"><ele>417.0</ele><time>2026-04-11T15:51:29Z</time></trkpt><trkpt lat="36.988737917300234" lon="15.023865121091097"><ele>417.0</ele><time>2026-04-11T15:51:30Z</time></trkpt><trkpt lat="36.988793961984236" lon="15.023828901998009"><ele>417.0</ele><time>2026-04-11T15:51:31Z</time></trkpt><trkpt lat="36.9889153777037" lon="15.023774933751664"><ele>417.0</ele><time>2026-04-11T15:51:33Z</time></trkpt><trkpt lat="36.989025551424085" lon="15.02370392371113"><ele>417.0</ele><time>2026-04-11T15:51:34Z</time></trkpt><trkpt lat="36.989127093108685" lon="15.023658264897954"><ele>417.0</ele><time>2026-04-11T15:51:36Z</time></trkpt><trkpt lat="36.98920702530917" lon="15.023633611701609"><ele>417.25</ele><time>2026-04-11T15:51:37Z</time></trkpt><trkpt lat="36.9893323887214" lon="15.023645800079665"><ele>417.5</ele><time>2026-04-11T15:51:39Z</time></trkpt><trkpt lat="36.98941830634544" lon="15.023683437585092"><ele>417.75</ele><time>2026-04-11T15:51:41Z</time></trkpt><trkpt lat="36.98958347696051" lon="15.02368039259264"><ele>418.0</ele><time>2026-04-11T15:51:47Z</time></trkpt><trkpt lat="36.98965103498603" lon="15.023675584451988"><ele>418.00000000000006</ele><time>2026-04-11T15:51:54Z</time></trkpt><trkpt lat="36.989724886410066" lon="15.02368844415285"><ele>418.0</ele><time>2026-04-11T15:51:57Z</time></trkpt><trkpt lat="36.98979592399963" lon="15.023734299016185"><ele>418.0</ele><time>2026-04-11T15:52:00Z</time></trkpt><trkpt lat="36.989937447977724" lon="15.023745497190424"><ele>418.0</ele><time>2026-04-11T15:52:02Z</time></trkpt><trkpt lat="36.99000825213868" lon="15.023779875870185"><ele>418.00000000000006</ele><time>2026-04-11T15:52:16Z</time></trkpt><trkpt lat="36.9900635093855" lon="15.023822403236297"><ele>418.0</ele><time>2026-04-11T15:52:17Z</time></trkpt><trkpt lat="36.99010058299067" lon="15.02390173150607"><ele>418.4</ele><time>2026-04-11T15:52:19Z</time></trkpt><trkpt lat="36.99017387982675" lon="15.024016667266086"><ele>418.79999999999995</ele><time>2026-04-11T15:52:21Z</time></trkpt><trkpt lat="36.99027263011749" lon="15.024085474681701"><ele>419.2</ele><time>2026-04-11T15:52:22Z</time></trkpt><trkpt lat="36.99033194634935" lon="15.024142825912717"><ele>419.6</ele><time>2026-04-11T15:52:23Z</time></trkpt><trkpt lat="36.990454545311096" lon="15.024193820482408"><ele>420.0</ele><time>2026-04-11T15:52:25Z</time></trkpt><trkpt lat="36.99056639197476" lon="15.024185597966197"><ele>419.0</ele><time>2026-04-11T15:52:26Z</time></trkpt><trkpt lat="36.99071962007472" lon="15.024165549278301"><ele>418.0</ele><time>2026-04-11T15:52:28Z</time></trkpt><trkpt lat="36.99094252826557" lon="15.024161129548613"><ele>417.0</ele><time>2026-04-11T15:52:33Z</time></trkpt><trkpt lat="36.9910166581196" lon="15.024117804626556"><ele>416.75</ele><time>2026-04-11T15:52:35Z</time></trkpt><trkpt lat="36.99115702274185" lon="15.02410474487015"><ele>416.5</ele><time>2026-04-11T15:52:37Z</time></trkpt><trkpt lat="36.99122444537346" lon="15.024086865999834"><ele>416.25</ele><time>2026-04-11T15:52:39Z</time></trkpt><trkpt lat="36.9913339473437" lon="15.024085254166021"><ele>416.0</ele><time>2026-04-11T15:53:28Z</time></trkpt><trkpt lat="36.991479649919505" lon="15.0240510829812"><ele>416.0</ele><time>2026-04-11T15:53:32Z</time></trkpt><trkpt lat="36.99153772272339" lon="15.02401139829101"><ele>416.0</ele><time>2026-04-11T15:53:33Z</time></trkpt><trkpt lat="36.99160229458079" lon="15.023979660000425"><ele>416.0</ele><time>2026-04-11T15:53:34Z</time></trkpt><trkpt lat="36.99169964344003" lon="15.023942339869624"><ele>416.0</ele><time>2026-04-11T15:53:36Z</time></trkpt><trkpt lat="36.99173223500161" lon="15.02387012979268"><ele>416.0</ele><time>2026-04-11T15:53:37Z</time></trkpt><trkpt lat="36.99173789659366" lon="15.023773940600483"><ele>416.0</ele><time>2026-04-11T15:53:38Z</time></trkpt><trkpt lat="36.99174304889715" lon="15.023692552199826"><ele>416.0</ele><time>2026-04-11T15:53:39Z</time></trkpt><trkpt lat="36.9918070106043" lon="15.02361527961895"><ele>415.3333333333333</ele><time>2026-04-11T15:53:41Z</time></trkpt><trkpt lat="36.991888387494726" lon="15.023586822043098"><ele>414.66666666666663</ele><time>2026-04-11T15:53:43Z</time></trkpt><trkpt lat="36.99186012056724" lon="15.023504529698572"><ele>414.0</ele><time>2026-04-11T15:53:46Z</time></trkpt><trkpt lat="36.991836883901655" lon="15.023428093333342"><ele>413.33333333333337</ele><time>2026-04-11T15:53:51Z</time></trkpt><trkpt lat="36.991809266707726" lon="15.023334568987728"><ele>412.6666666666667</ele><time>2026-04-11T15:53:54Z</time></trkpt><trkpt lat="36.99178818591422" lon="15.023213125865205"><ele>412.0</ele><time>2026-04-11T15:53:57Z</time></trkpt><trkpt lat="36.99180395952647" lon="15.023121280884396"><ele>411.99999999999994</ele><time>2026-04-11T15:53:59Z</time></trkpt><trkpt lat="36.991770404233634" lon="15.02301784360011"><ele>412.0</ele><time>2026-04-11T15:54:49.999Z</time></trkpt><trkpt lat="36.991774004461895" lon="15.022926970766393"><ele>412.0</ele><time>2026-04-11T15:54:51.999Z</time></trkpt><trkpt lat="36.991789506718725" lon="15.022841569881864"><ele>412.0</ele><time>2026-04-11T15:54:56.999Z</time></trkpt><trkpt lat="36.99176757879528" lon="15.02274635349115"><ele>412.0</ele><time>2026-04-11T15:55:12.999Z</time></trkpt><trkpt lat="36.99175111608604" lon="15.022667296471823"><ele>411.99999999999994</ele><time>2026-04-11T15:55:22Z</time></trkpt><trkpt lat="36.991743095853394" lon="15.022579373037903"><ele>412.0</ele><time>2026-04-11T15:55:28Z</time></trkpt><trkpt lat="36.991745002361384" lon="15.022494925213614"><ele>413.33333333333337</ele><time>2026-04-11T15:57:05.999Z</time></trkpt><trkpt lat="36.9917554036914" lon="15.022394915002286"><ele>414.6666666666667</ele><time>2026-04-11T15:57:09.999Z</time></trkpt><trkpt lat="36.99177553625179" lon="15.02231968215944"><ele>416.0</ele><time>2026-04-11T15:57:17.999Z</time></trkpt><trkpt lat="36.991754841323285" lon="15.022242425996673"><ele>417.33333333333337</ele><time>2026-04-11T15:57:28Z</time></trkpt><trkpt lat="36.99174062921998" lon="15.022143316924248"><ele>418.6666666666667</ele><time>2026-04-11T15:57:39Z</time></trkpt><trkpt lat="36.99172011570859" lon="15.022023402095115"><ele>420.0</ele><time>2026-04-11T15:57:41Z</time></trkpt><trkpt lat="36.99169536908004" lon="15.021943441390196"><ele>420.0</ele><time>2026-04-11T15:57:43Z</time></trkpt><trkpt lat="36.9916946478328" lon="15.021862923700876"><ele>420.0</ele><time>2026-04-11T15:57:45Z</time></trkpt><trkpt lat="36.99168294459585" lon="15.021758840483756"><ele>420.0</ele><time>2026-04-11T15:57:47Z</time></trkpt><trkpt lat="36.99169027145795" lon="15.021612309498199"><ele>420.0</ele><time>2026-04-11T15:57:49Z</time></trkpt><trkpt lat="36.99170771916092" lon="15.02145762519029"><ele>420.0</ele><time>2026-04-11T15:57:51Z</time></trkpt><trkpt lat="36.99170191425854" lon="15.021339640840402"><ele>421.6</ele><time>2026-04-11T15:57:53Z</time></trkpt><trkpt lat="36.99167505097831" lon="15.021187795122051"><ele>423.2</ele><time>2026-04-11T15:57:55Z</time></trkpt><trkpt lat="36.99170275475523" lon="15.02107323139298"><ele>424.79999999999995</ele><time>2026-04-11T15:58:00Z</time></trkpt><trkpt lat="36.99169583310675" lon="15.020970108084438"><ele>426.4</ele><time>2026-04-11T15:58:03Z</time></trkpt><trkpt lat="36.99168883405327" lon="15.020853146152978"><ele>428.0</ele><time>2026-04-11T15:58:05Z</time></trkpt><trkpt lat="36.99170490123845" lon="15.02077410626282"><ele>427.8333333333333</ele><time>2026-04-11T15:58:13Z</time></trkpt><trkpt lat="36.991710517663144" lon="15.02069377419931"><ele>427.66666666666663</ele><time>2026-04-11T15:58:15Z</time></trkpt><trkpt lat="36.991704356861504" lon="15.02056307511297"><ele>427.5</ele><time>2026-04-11T15:58:17Z</time></trkpt><trkpt lat="36.9917076329095" lon="15.020462395501529"><ele>427.33333333333337</ele><time>2026-04-11T15:58:20Z</time></trkpt><trkpt lat="36.9916871283723" lon="15.020375759085116"><ele>427.1666666666667</ele><time>2026-04-11T15:58:21.999Z</time></trkpt><trkpt lat="36.99167094433071" lon="15.020298862799459"><ele>427.0</ele><time>2026-04-11T15:58:22.999Z</time></trkpt><trkpt lat="36.99168085203127" lon="15.020178840049555"><ele>427.0</ele><time>2026-04-11T15:58:24.999Z</time></trkpt><trkpt lat="36.99166673978403" lon="15.020066750871104"><ele>427.00000000000006</ele><time>2026-04-11T15:58:27.999Z</time></trkpt><trkpt lat="36.99166306157676" lon="15.01996336090512"><ele>427.00000000000006</ele><time>2026-04-11T15:58:29.999Z</time></trkpt><trkpt lat="36.99161552142016" lon="15.019823308581287"><ele>427.0</ele><time>2026-04-11T15:58:31.999Z</time></trkpt><trkpt lat="36.9916065654294" lon="15.019694934347259"><ele>427.0</ele><time>2026-04-11T15:58:34.999Z</time></trkpt><trkpt lat="36.99159197226086" lon="15.019617546339319"><ele>427.00000000000006</ele><time>2026-04-11T15:58:38.999Z</time></trkpt><trkpt lat="36.99157632712838" lon="15.019532885792371"><ele>427.0</ele><time>2026-04-11T15:58:45.999Z</time></trkpt><trkpt lat="36.99157918364402" lon="15.019433818853393"><ele>427.0</ele><time>2026-04-11T15:58:51.999Z</time></trkpt><trkpt lat="36.99158079817833" lon="15.019348708400054"><ele>427.0</ele><time>2026-04-11T15:58:53.999Z</time></trkpt><trkpt lat="36.99155724559605" lon="15.019254624403754"><ele>427.00000000000006</ele><time>2026-04-11T15:58:55.999Z</time></trkpt><trkpt lat="36.99152806614631" lon="15.019162600411297"><ele>427.0</ele><time>2026-04-11T15:58:59.999Z</time></trkpt><trkpt lat="36.99148691816001" lon="15.01907014747136"><ele>427.57142857142856</ele><time>2026-04-11T15:59:06.999Z</time></trkpt><trkpt lat="36.99145657504362" lon="15.018983636572772"><ele>428.1428571428571</ele><time>2026-04-11T15:59:10.999Z</time></trkpt><trkpt lat="36.991437262879494" lon="15.01889553516193"><ele>428.7142857142857</ele><time>2026-04-11T15:59:13.999Z</time></trkpt><trkpt lat="36.991442547696295" lon="15.018808287809653"><ele>429.2857142857143</ele><time>2026-04-11T15:59:15.999Z</time></trkpt><trkpt lat="36.991381507663476" lon="15.018743735321824"><ele>429.85714285714283</ele><time>2026-04-11T15:59:19.999Z</time></trkpt><trkpt lat="36.991364024878266" lon="15.018654689467155"><ele>430.42857142857144</ele><time>2026-04-11T15:59:22.999Z</time></trkpt><trkpt lat="36.99135614199348" lon="15.018568493319938"><ele>431.0</ele><time>2026-04-11T15:59:42Z</time></trkpt><trkpt lat="36.991323821133065" lon="15.018450680354485"><ele>430.99999999999994</ele><time>2026-04-11T16:00:21Z</time></trkpt><trkpt lat="36.99134503202749" lon="15.01835889984193"><ele>431.0</ele><time>2026-04-11T16:00:25.999Z</time></trkpt><trkpt lat="36.99132370426954" lon="15.018273223797479"><ele>431.0</ele><time>2026-04-11T16:00:29.999Z</time></trkpt><trkpt lat="36.991348199485756" lon="15.018196853877061"><ele>431.0</ele><time>2026-04-11T16:00:36.999Z</time></trkpt><trkpt lat="36.99129378098489" lon="15.018099393804297"><ele>430.99999999999994</ele><time>2026-04-11T16:01:36.999Z</time></trkpt><trkpt lat="36.9913505396621" lon="15.018038915335957"><ele>431.0</ele><time>2026-04-11T16:01:48Z</time></trkpt><trkpt lat="36.991406710507995" lon="15.0179495307509"><ele>431.14285714285717</ele><time>2026-04-11T16:01:55Z</time></trkpt><trkpt lat="36.991450176269844" lon="15.017881845981366"><ele>431.2857142857143</ele><time>2026-04-11T16:02:04Z</time></trkpt><trkpt lat="36.991496670827914" lon="15.017813697329792"><ele>431.42857142857144</ele><time>2026-04-11T16:02:10Z</time></trkpt><trkpt lat="36.99153891310894" lon="15.017753097863613"><ele>431.57142857142856</ele><time>2026-04-11T16:02:13Z</time></trkpt><trkpt lat="36.9915956368633" lon="15.017698274182463"><ele>431.71428571428567</ele><time>2026-04-11T16:02:21Z</time></trkpt><trkpt lat="36.991612114866484" lon="15.017617596549151"><ele>431.85714285714283</ele><time>2026-04-11T16:02:28.999Z</time></trkpt><trkpt lat="36.99163254995233" lon="15.017533569427432"><ele>432.0</ele><time>2026-04-11T16:05:16.999Z</time></trkpt><trkpt lat="36.99163671673461" lon="15.01745120190435"><ele>432.1666666666667</ele><time>2026-04-11T16:05:26.999Z</time></trkpt><trkpt lat="36.991645501523685" lon="15.017361035332762"><ele>432.33333333333337</ele><time>2026-04-11T16:05:29.999Z</time></trkpt><trkpt lat="36.99166953407547" lon="15.01725891951999"><ele>432.5</ele><time>2026-04-11T16:05:55Z</time></trkpt><trkpt lat="36.991692966428076" lon="15.017167806834038"><ele>432.6666666666667</ele><time>2026-04-11T16:05:57Z</time></trkpt><trkpt lat="36.99172126299767" lon="15.017087514078574"><ele>432.83333333333337</ele><time>2026-04-11T16:06:01Z</time></trkpt><trkpt lat="36.991751402415474" lon="15.01699525451111"><ele>433.0</ele><time>2026-04-11T16:06:05Z</time></trkpt><trkpt lat="36.991764755913785" lon="15.016877750081317"><ele>434.4</ele><time>2026-04-11T16:06:09Z</time></trkpt><trkpt lat="36.9918207715479" lon="15.016800855527881"><ele>435.79999999999995</ele><time>2026-04-11T16:06:23Z</time></trkpt><trkpt lat="36.991865412063596" lon="15.016739046051745"><ele>437.2</ele><time>2026-04-11T16:06:28Z</time></trkpt><trkpt lat="36.99205571548389" lon="15.016729479043859"><ele>438.6</ele><time>2026-04-11T16:06:41.999Z</time></trkpt><trkpt lat="36.99211642317557" lon="15.016758742020954"><ele>440.0</ele><time>2026-04-11T16:09:04.999Z</time></trkpt><trkpt lat="36.992183522884915" lon="15.016797218139645"><ele>439.99999999999994</ele><time>2026-04-11T16:09:08.999Z</time></trkpt><trkpt lat="36.9922421965775" lon="15.016881772771454"><ele>440.0</ele><time>2026-04-11T16:09:13.999Z</time></trkpt><trkpt lat="36.9922988020464" lon="15.016929912376453"><ele>440.0</ele><time>2026-04-11T16:09:14.999Z</time></trkpt><trkpt lat="36.99237752738" lon="15.01698465850347"><ele>440.0</ele><time>2026-04-11T16:09:15.999Z</time></trkpt><trkpt lat="36.99246745730094" lon="15.01706094143989"><ele>439.99999999999994</ele><time>2026-04-11T16:09:16.999Z</time></trkpt><trkpt lat="36.99249986809286" lon="15.017132499971542"><ele>440.0</ele><time>2026-04-11T16:09:17.999Z</time></trkpt><trkpt lat="36.992540290604225" lon="15.017220423804252"><ele>439.99999999999994</ele><time>2026-04-11T16:09:18.999Z</time></trkpt><trkpt lat="36.99258522640396" lon="15.017298859744804"><ele>440.0</ele><time>2026-04-11T16:09:19.999Z</time></trkpt><trkpt lat="36.99262845328214" lon="15.01735925993871"><ele>440.0</ele><time>2026-04-11T16:09:20.999Z</time></trkpt><trkpt lat="36.99266684580469" lon="15.017463052534564"><ele>440.0</ele><time>2026-04-11T16:09:22.999Z</time></trkpt><trkpt lat="36.992651913442295" lon="15.017544795864897"><ele>439.99999999999994</ele><time>2026-04-11T16:09:24.999Z</time></trkpt><trkpt lat="36.99263227517177" lon="15.017664735279041"><ele>440.0</ele><time>2026-04-11T16:09:27.999Z</time></trkpt><trkpt lat="36.992570915429916" lon="15.017735376458713"><ele>439.6</ele><time>2026-04-11T16:09:28.999Z</time></trkpt><trkpt lat="36.99256072177225" lon="15.017886506391369"><ele>439.2</ele><time>2026-04-11T16:09:30.999Z</time></trkpt><trkpt lat="36.9925727414949" lon="15.018001125976165"><ele>438.79999999999995</ele><time>2026-04-11T16:09:32.999Z</time></trkpt><trkpt lat="36.99264463500082" lon="15.018070405083702"><ele>438.4</ele><time>2026-04-11T16:09:34.999Z</time></trkpt><trkpt lat="36.992765983266956" lon="15.018106578766396"><ele>438.0</ele><time>2026-04-11T16:09:36.999Z</time></trkpt><trkpt lat="36.99283818934338" lon="15.01812323175784"><ele>438.0</ele><time>2026-04-11T16:09:37.999Z</time></trkpt><trkpt lat="36.992899904449295" lon="15.018141010034418"><ele>438.0</ele><time>2026-04-11T16:09:38.999Z</time></trkpt><trkpt lat="36.992941906865184" lon="15.018218226860931"><ele>438.0</ele><time>2026-04-11T16:09:40.999Z</time></trkpt><trkpt lat="36.99300525760533" lon="15.018302306312677"><ele>438.0</ele><time>2026-04-11T16:09:42.999Z</time></trkpt><trkpt lat="36.99308005810743" lon="15.018417385494468"><ele>438.0</ele><time>2026-04-11T16:09:44.999Z</time></trkpt><trkpt lat="36.99315516441755" lon="15.018476839648963"><ele>438.0</ele><time>2026-04-11T16:09:46.999Z</time></trkpt><trkpt lat="36.99320932523598" lon="15.018565790158082"><ele>438.0</ele><time>2026-04-11T16:09:48.999Z</time></trkpt><trkpt lat="36.9932742078676" lon="15.018591978051028"><ele>438.0</ele><time>2026-04-11T16:09:49.999Z</time></trkpt><trkpt lat="36.99333569397389" lon="15.018680702495153"><ele>438.0</ele><time>2026-04-11T16:09:51.999Z</time></trkpt><trkpt lat="36.99338000434094" lon="15.018766696782919"><ele>438.0</ele><time>2026-04-11T16:09:54.999Z</time></trkpt><trkpt lat="36.99344208536565" lon="15.01880999891128"><ele>438.0</ele><time>2026-04-11T16:09:56.999Z</time></trkpt><trkpt lat="36.99351744460331" lon="15.018766664280292"><ele>438.0</ele><time>2026-04-11T16:09:58.999Z</time></trkpt><trkpt lat="36.99359456567636" lon="15.018740327320865"><ele>437.8333333333333</ele><time>2026-04-11T16:10:00.999Z</time></trkpt><trkpt lat="36.99365237896865" lon="15.018811458091855"><ele>437.66666666666663</ele><time>2026-04-11T16:10:03Z</time></trkpt><trkpt lat="36.99369805142402" lon="15.018886610073936"><ele>437.5</ele><time>2026-04-11T16:10:05Z</time></trkpt><trkpt lat="36.9937632579498" lon="15.018928296937856"><ele>437.3333333333333</ele><time>2026-04-11T16:10:15Z</time></trkpt><trkpt lat="36.99383207875164" lon="15.018886002762777"><ele>437.16666666666663</ele><time>2026-04-11T16:10:18Z</time></trkpt><trkpt lat="36.993937379754044" lon="15.01891099983301"><ele>437.0</ele><time>2026-04-11T16:10:21Z</time></trkpt><trkpt lat="36.99402881410348" lon="15.018964414387925"><ele>436.99999999999994</ele><time>2026-04-11T16:10:22Z</time></trkpt><trkpt lat="36.99413952666167" lon="15.01896591618524"><ele>437.0</ele><time>2026-04-11T16:10:23Z</time></trkpt><trkpt lat="36.99422108968281" lon="15.01902203475862"><ele>437.0</ele><time>2026-04-11T16:10:24Z</time></trkpt><trkpt lat="36.99427690620339" lon="15.01906508843179"><ele>437.0</ele><time>2026-04-11T16:10:25Z</time></trkpt><trkpt lat="36.99435061989135" lon="15.01905173583591"><ele>436.99999999999994</ele><time>2026-04-11T16:10:27Z</time></trkpt><trkpt lat="36.99435782021837" lon="15.018948769541975"><ele>437.0</ele><time>2026-04-11T16:10:36.999Z</time></trkpt><trkpt lat="36.99440617301496" lon="15.01888954573787"><ele>436.0</ele><time>2026-04-11T16:10:39.999Z</time></trkpt><trkpt lat="36.99447798923916" lon="15.018854244623675"><ele>435.0</ele><time>2026-04-11T16:10:43.999Z</time></trkpt><trkpt lat="36.9946414332402" lon="15.018855175788143"><ele>434.0</ele><time>2026-04-11T16:10:53.999Z</time></trkpt><trkpt lat="36.9947733299523" lon="15.018761576564177"><ele>433.0</ele><time>2026-04-11T16:10:59.999Z</time></trkpt><trkpt lat="36.994844806067846" lon="15.018683681988405"><ele>433.00000000000006</ele><time>2026-04-11T16:11:00.999Z</time></trkpt><trkpt lat="36.99490413876786" lon="15.018632889364367"><ele>433.0</ele><time>2026-04-11T16:11:01.999Z</time></trkpt><trkpt lat="36.994968224405156" lon="15.018664248210374"><ele>433.0</ele><time>2026-04-11T16:11:04.999Z</time></trkpt><trkpt lat="36.99503761008872" lon="15.018589365908106"><ele>433.0</ele><time>2026-04-11T16:11:07.999Z</time></trkpt><trkpt lat="36.99509963314018" lon="15.018479068311137"><ele>433.00000000000006</ele><time>2026-04-11T16:11:09.999Z</time></trkpt><trkpt lat="36.99514962599834" lon="15.01852759178614"><ele>433.0</ele><time>2026-04-11T16:11:18.999Z</time></trkpt><trkpt lat="36.99514382267956" lon="15.018640433657723"><ele>431.59999999999997</ele><time>2026-04-11T16:11:21.999Z</time></trkpt><trkpt lat="36.99514607123968" lon="15.018759248341626"><ele>430.19999999999993</ele><time>2026-04-11T16:11:23.999Z</time></trkpt><trkpt lat="36.99515436547773" lon="15.018839157319766"><ele>428.8</ele><time>2026-04-11T16:11:24.999Z</time></trkpt><trkpt lat="36.99518688585789" lon="15.01894538255349"><ele>427.4</ele><time>2026-04-11T16:11:26.999Z</time></trkpt><trkpt lat="36.99522234653645" lon="15.019066051154159"><ele>426.0</ele><time>2026-04-11T16:11:28.999Z</time></trkpt><trkpt lat="36.995231989623555" lon="15.019195401423806"><ele>425.20000000000005</ele><time>2026-04-11T16:11:30.999Z</time></trkpt><trkpt lat="36.99520401213582" lon="15.019304914967"><ele>424.40000000000003</ele><time>2026-04-11T16:11:32.999Z</time></trkpt><trkpt lat="36.99520777453759" lon="15.01938957734423"><ele>423.6</ele><time>2026-04-11T16:11:34.999Z</time></trkpt><trkpt lat="36.995229955735454" lon="15.019510722705412"><ele>422.8</ele><time>2026-04-11T16:11:36.999Z</time></trkpt><trkpt lat="36.99526764281203" lon="15.01963449857444"><ele>422.0</ele><time>2026-04-11T16:11:38.999Z</time></trkpt><trkpt lat="36.99533275340538" lon="15.019719580317668"><ele>422.0</ele><time>2026-04-11T16:11:40.999Z</time></trkpt><trkpt lat="36.9953510984638" lon="15.019796911017147"><ele>422.0</ele><time>2026-04-11T16:11:42.999Z</time></trkpt><trkpt lat="36.99539631675043" lon="15.01998950389582"><ele>422.0</ele><time>2026-04-11T16:11:44.999Z</time></trkpt><trkpt lat="36.9954684003556" lon="15.020095063261278"><ele>422.0</ele><time>2026-04-11T16:11:46.999Z</time></trkpt><trkpt lat="36.99553701226597" lon="15.020161024671665"><ele>422.0</ele><time>2026-04-11T16:11:48.999Z</time></trkpt><trkpt lat="36.995570974279445" lon="15.020227781882523"><ele>421.57142857142856</ele><time>2026-04-11T16:11:50.999Z</time></trkpt><trkpt lat="36.995498330156764" lon="15.02028398750515"><ele>421.14285714285717</ele><time>2026-04-11T16:12:19Z</time></trkpt><trkpt lat="36.99542047314788" lon="15.020283089610627"><ele>420.71428571428567</ele><time>2026-04-11T16:12:20Z</time></trkpt><trkpt lat="36.99535660799908" lon="15.020269456080781"><ele>420.2857142857143</ele><time>2026-04-11T16:12:21Z</time></trkpt><trkpt lat="36.995296713209484" lon="15.02023159836273"><ele>419.85714285714283</ele><time>2026-04-11T16:12:33Z</time></trkpt><trkpt lat="36.99524228485036" lon="15.020179986604859"><ele>419.4285714285714</ele><time>2026-04-11T16:12:43.999Z</time></trkpt><trkpt lat="36.99517017108322" lon="15.020149527733794"><ele>419.0</ele><time>2026-04-11T16:12:48.999Z</time></trkpt><trkpt lat="36.99510667530895" lon="15.020114923355255"><ele>418.99999999999994</ele><time>2026-04-11T16:12:51.999Z</time></trkpt><trkpt lat="36.99508691193636" lon="15.020016183312288"><ele>419.0</ele><time>2026-04-11T16:12:53.999Z</time></trkpt><trkpt lat="36.995013312738465" lon="15.019982051333995"><ele>419.0</ele><time>2026-04-11T16:12:56.999Z</time></trkpt><trkpt lat="36.99503172693121" lon="15.019879414626898"><ele>419.0</ele><time>2026-04-11T16:15:32.999Z</time></trkpt><trkpt lat="36.99500677829442" lon="15.019774847618358"><ele>418.99999999999994</ele><time>2026-04-11T16:15:36.999Z</time></trkpt><trkpt lat="36.995021118246356" lon="15.019693717824877"><ele>419.0</ele><time>2026-04-11T16:15:37.999Z</time></trkpt><trkpt lat="36.99495078967502" lon="15.019626227636692"><ele>419.79999999999995</ele><time>2026-04-11T16:15:40.999Z</time></trkpt><trkpt lat="36.99490678147269" lon="15.019698913109982"><ele>420.59999999999997</ele><time>2026-04-11T16:15:44.999Z</time></trkpt><trkpt lat="36.99485960991818" lon="15.019796163776908"><ele>421.4</ele><time>2026-04-11T16:15:47.999Z</time></trkpt><trkpt lat="36.9947963784101" lon="15.019935778547252"><ele>422.2</ele><time>2026-04-11T16:15:49.999Z</time></trkpt><trkpt lat="36.99473034544805" lon="15.020045764079388"><ele>423.0</ele><time>2026-04-11T16:15:51.999Z</time></trkpt><trkpt lat="36.99466601291897" lon="15.020134461272102"><ele>423.0</ele><time>2026-04-11T16:15:53.999Z</time></trkpt><trkpt lat="36.994577593997164" lon="15.02016093198294"><ele>423.0</ele><time>2026-04-11T16:15:55.999Z</time></trkpt><trkpt lat="36.994522366514666" lon="15.020215024314423"><ele>423.0</ele><time>2026-04-11T16:15:56.999Z</time></trkpt><trkpt lat="36.9944781494538" lon="15.020294794811594"><ele>423.0</ele><time>2026-04-11T16:15:57.998Z</time></trkpt><trkpt lat="36.9944323713813" lon="15.020365663160781"><ele>423.0</ele><time>2026-04-11T16:15:58.998Z</time></trkpt><trkpt lat="36.99438804946923" lon="15.020445355735227"><ele>423.0</ele><time>2026-04-11T16:15:59.998Z</time></trkpt><trkpt lat="36.99433910905411" lon="15.020536224100868"><ele>423.0</ele><time>2026-04-11T16:16:00.998Z</time></trkpt><trkpt lat="36.99429185291663" lon="15.02063837973332"><ele>423.0</ele><time>2026-04-11T16:16:01.998Z</time></trkpt><trkpt lat="36.99425673962196" lon="15.020750534398374"><ele>423.0</ele><time>2026-04-11T16:16:02.998Z</time></trkpt><trkpt lat="36.99423451575953" lon="15.020845515413844"><ele>423.0</ele><time>2026-04-11T16:16:03.998Z</time></trkpt><trkpt lat="36.9942219197838" lon="15.020935951707978"><ele>423.0</ele><time>2026-04-11T16:16:04.998Z</time></trkpt><trkpt lat="36.99421827573037" lon="15.021056996890957"><ele>423.0</ele><time>2026-04-11T16:16:06.998Z</time></trkpt><trkpt lat="36.99417189131059" lon="15.021164734138374"><ele>422.6666666666667</ele><time>2026-04-11T16:16:08.998Z</time></trkpt><trkpt lat="36.99414800415132" lon="15.021304706751925"><ele>422.33333333333337</ele><time>2026-04-11T16:16:10.998Z</time></trkpt><trkpt lat="36.99410298428659" lon="15.021375424464441"><ele>422.0</ele><time>2026-04-11T16:16:12.998Z</time></trkpt><trkpt lat="36.99408191939441" lon="15.02144978757043"><ele>421.6666666666667</ele><time>2026-04-11T16:16:15.998Z</time></trkpt><trkpt lat="36.99410607206733" lon="15.02156307419647"><ele>421.33333333333337</ele><time>2026-04-11T16:16:18.999Z</time></trkpt><trkpt lat="36.99406876174693" lon="15.02165477475483"><ele>421.0</ele><time>2026-04-11T16:16:20.999Z</time></trkpt><trkpt lat="36.99402297851752" lon="15.021754264411182"><ele>421.0</ele><time>2026-04-11T16:16:22.999Z</time></trkpt><trkpt lat="36.99395450754083" lon="15.021793178772727"><ele>421.0</ele><time>2026-04-11T16:16:23.999Z</time></trkpt><trkpt lat="36.993875448457366" lon="15.021886159836699"><ele>421.0</ele><time>2026-04-11T16:16:25.999Z</time></trkpt><trkpt lat="36.993817746508356" lon="15.022020118205711"><ele>421.0</ele><time>2026-04-11T16:16:27.999Z</time></trkpt><trkpt lat="36.993773557689956" lon="15.022144676158327"><ele>421.0</ele><time>2026-04-11T16:16:29.999Z</time></trkpt><trkpt lat="36.99377920869053" lon="15.022250782179453"><ele>421.00000000000006</ele><time>2026-04-11T16:16:31.999Z</time></trkpt><trkpt lat="36.99383178963793" lon="15.022324358982583"><ele>421.0</ele><time>2026-04-11T16:16:33.999Z</time></trkpt><trkpt lat="36.993875354971806" lon="15.022386778249926"><ele>421.0</ele><time>2026-04-11T16:16:37.999Z</time></trkpt><trkpt lat="36.99386097219742" lon="15.022251089863449"><ele>421.0</ele><time>2026-04-11T16:16:45.999Z</time></trkpt><trkpt lat="36.99395485900022" lon="15.022225223885279"><ele>421.00000000000006</ele><time>2026-04-11T16:20:24.999Z</time></trkpt><trkpt lat="36.99399251454834" lon="15.022290349802859"><ele>421.0</ele><time>2026-04-11T16:20:42Z</time></trkpt><trkpt lat="36.99405659712591" lon="15.022298030439277"><ele>421.0</ele><time>2026-04-11T16:22:10.999Z</time></trkpt><trkpt lat="36.99410683318422" lon="15.022348988251933"><ele>421.0</ele><time>2026-04-11T16:23:13Z</time></trkpt><trkpt lat="36.99417255241975" lon="15.022529676922323"><ele>421.0</ele><time>2026-04-11T16:25:52Z</time></trkpt><trkpt lat="36.994267079433804" lon="15.022505128903038"><ele>421.0</ele><time>2026-04-11T16:36:44.999Z</time></trkpt><trkpt lat="36.99433620079156" lon="15.0224424346886"><ele>421.0</ele><time>2026-04-11T16:36:46.999Z</time></trkpt><trkpt lat="36.99438207805557" lon="15.022376374488696"><ele>421.75</ele><time>2026-04-11T16:36:47.999Z</time></trkpt><trkpt lat="36.99444867571295" lon="15.022295317456285"><ele>422.5</ele><time>2026-04-11T16:36:49.999Z</time></trkpt><trkpt lat="36.994582501900815" lon="15.022065759983526"><ele>423.25</ele><time>2026-04-11T16:36:55.999Z</time></trkpt><trkpt lat="36.99460861131194" lon="15.021973978684105"><ele>424.0</ele><time>2026-04-11T16:36:56.999Z</time></trkpt><trkpt lat="36.994638328445774" lon="15.021891106438465"><ele>424.0</ele><time>2026-04-11T16:36:57.999Z</time></trkpt><trkpt lat="36.994659931371025" lon="15.021783365178369"><ele>424.0</ele><time>2026-04-11T16:36:58.999Z</time></trkpt><trkpt lat="36.994686763616244" lon="15.021652878913386"><ele>424.0</ele><time>2026-04-11T16:37:00.999Z</time></trkpt><trkpt lat="36.99471997906954" lon="15.021552242776044"><ele>424.0</ele><time>2026-04-11T16:37:02.999Z</time></trkpt><trkpt lat="36.99471524941838" lon="15.021436673789621"><ele>424.0</ele><time>2026-04-11T16:37:04.999Z</time></trkpt><trkpt lat="36.99473318298604" lon="15.021320281149585"><ele>423.50000000000006</ele><time>2026-04-11T16:37:07.999Z</time></trkpt><trkpt lat="36.99479572714028" lon="15.021273482335365"><ele>423.0</ele><time>2026-04-11T16:37:10.999Z</time></trkpt><trkpt lat="36.99484446880164" lon="15.021205697854674"><ele>422.5</ele><time>2026-04-11T16:37:12.999Z</time></trkpt><trkpt lat="36.99490732186906" lon="15.021157377338486"><ele>422.0</ele><time>2026-04-11T16:37:14.999Z</time></trkpt><trkpt lat="36.9949922980426" lon="15.021106130484029"><ele>421.50000000000006</ele><time>2026-04-11T16:37:16.999Z</time></trkpt><trkpt lat="36.99505375335149" lon="15.021036223697825"><ele>421.0</ele><time>2026-04-11T16:37:19Z</time></trkpt><trkpt lat="36.995063553683444" lon="15.020958156504461"><ele>420.6</ele><time>2026-04-11T16:37:22Z</time></trkpt><trkpt lat="36.99508503564606" lon="15.020877946211245"><ele>420.20000000000005</ele><time>2026-04-11T16:37:26Z</time></trkpt><trkpt lat="36.99517368542542" lon="15.020801245925034"><ele>419.79999999999995</ele><time>2026-04-11T16:37:45Z</time></trkpt><trkpt lat="36.99526855768802" lon="15.02073005669407"><ele>419.4</ele><time>2026-04-11T16:37:47Z</time></trkpt><trkpt lat="36.99536248711535" lon="15.020672411347439"><ele>419.0</ele><time>2026-04-11T16:37:49Z</time></trkpt><trkpt lat="36.9954277577454" lon="15.020588947005479"><ele>419.0</ele><time>2026-04-11T16:37:51Z</time></trkpt><trkpt lat="36.9954407915073" lon="15.020495706823377"><ele>419.0</ele><time>2026-04-11T16:37:58Z</time></trkpt><trkpt lat="36.99544622734355" lon="15.02058404756765"><ele>419.0</ele><time>2026-04-11T16:39:35Z</time></trkpt><trkpt lat="36.995384684813224" lon="15.020652511650713"><ele>419.0</ele><time>2026-04-11T16:39:38Z</time></trkpt><trkpt lat="36.995271377480044" lon="15.020735052495214"><ele>419.0</ele><time>2026-04-11T16:39:40Z</time></trkpt><trkpt lat="36.99519011428437" lon="15.020791065595764"><ele>419.3333333333333</ele><time>2026-04-11T16:39:42Z</time></trkpt><trkpt lat="36.99513452448008" lon="15.02084177455675"><ele>419.66666666666663</ele><time>2026-04-11T16:39:45Z</time></trkpt><trkpt lat="36.99504905022812" lon="15.02083384962689"><ele>420.0</ele><time>2026-04-11T16:39:48Z</time></trkpt><trkpt lat="36.99499197044175" lon="15.020889633735287"><ele>420.33333333333337</ele><time>2026-04-11T16:39:56Z</time></trkpt><trkpt lat="36.99493115748728" lon="15.020921350090147"><ele>420.6666666666667</ele><time>2026-04-11T16:40:29.999Z</time></trkpt><trkpt lat="36.9948984709155" lon="15.021021944628135"><ele>421.0</ele><time>2026-04-11T16:40:37.999Z</time></trkpt><trkpt lat="36.994842348686525" lon="15.021091546977608"><ele>421.00000000000006</ele><time>2026-04-11T16:40:39.999Z</time></trkpt><trkpt lat="36.9947792159745" lon="15.021192208951202"><ele>421.0</ele><time>2026-04-11T16:40:42.999Z</time></trkpt><trkpt lat="36.99472063678522" lon="15.021283855178403"><ele>421.0</ele><time>2026-04-11T16:40:44.999Z</time></trkpt><trkpt lat="36.99470447872565" lon="15.021402490506992"><ele>421.0</ele><time>2026-04-11T16:40:46.999Z</time></trkpt><trkpt lat="36.99470164702579" lon="15.021509690844107"><ele>421.00000000000006</ele><time>2026-04-11T16:40:47.999Z</time></trkpt><trkpt lat="36.99468130728441" lon="15.021592734365543"><ele>421.0</ele><time>2026-04-11T16:40:48.999Z</time></trkpt><trkpt lat="36.99464593011862" lon="15.02170280609744"><ele>421.6</ele><time>2026-04-11T16:40:49.999Z</time></trkpt><trkpt lat="36.99460464573087" lon="15.021811374265711"><ele>422.20000000000005</ele><time>2026-04-11T16:40:50.999Z</time></trkpt><trkpt lat="36.994561154801616" lon="15.021890543870605"><ele>422.79999999999995</ele><time>2026-04-11T16:40:51.999Z</time></trkpt><trkpt lat="36.99452118511271" lon="15.021990255387857"><ele>423.4</ele><time>2026-04-11T16:40:52.999Z</time></trkpt><trkpt lat="36.994482628859906" lon="15.022105380760413"><ele>424.0</ele><time>2026-04-11T16:40:54.999Z</time></trkpt><trkpt lat="36.994435865218115" lon="15.022220497294711"><ele>424.00000000000006</ele><time>2026-04-11T16:40:56.999Z</time></trkpt><trkpt lat="36.994380842014756" lon="15.022282825530958"><ele>424.0</ele><time>2026-04-11T16:40:57.999Z</time></trkpt><trkpt lat="36.9943135337705" lon="15.022344688590092"><ele>424.0</ele><time>2026-04-11T16:40:58.999Z</time></trkpt><trkpt lat="36.9942419964307" lon="15.02241638594182"><ele>424.0</ele><time>2026-04-11T16:40:59.999Z</time></trkpt><trkpt lat="36.9941864744573" lon="15.022498974054482"><ele>424.00000000000006</ele><time>2026-04-11T16:41:01.999Z</time></trkpt><trkpt lat="36.99413308337421" lon="15.022441849034244"><ele>424.0</ele><time>2026-04-11T16:41:37Z</time></trkpt><trkpt lat="36.994088564786836" lon="15.022385578798149"><ele>423.50000000000006</ele><time>2026-04-11T16:41:40Z</time></trkpt><trkpt lat="36.994006508602666" lon="15.022335995901813"><ele>423.0</ele><time>2026-04-11T16:41:43Z</time></trkpt><trkpt lat="36.99394189268275" lon="15.022334920447449"><ele>422.5</ele><time>2026-04-11T16:42:45.999Z</time></trkpt><trkpt lat="36.9938965463762" lon="15.022233094702413"><ele>422.0</ele><time>2026-04-11T16:43:19.999Z</time></trkpt><trkpt lat="36.993876345806214" lon="15.022124047701242"><ele>421.50000000000006</ele><time>2026-04-11T16:43:21.999Z</time></trkpt><trkpt lat="36.99386274235797" lon="15.02200420327255"><ele>421.0</ele><time>2026-04-11T16:43:23.999Z</time></trkpt><trkpt lat="36.99391711320205" lon="15.021919726198195"><ele>421.00000000000006</ele><time>2026-04-11T16:43:25.999Z</time></trkpt><trkpt lat="36.99398663274923" lon="15.021814644048451"><ele>421.0</ele><time>2026-04-11T16:43:27.999Z</time></trkpt><trkpt lat="36.994055885129555" lon="15.021730003046732"><ele>421.0</ele><time>2026-04-11T16:43:29.999Z</time></trkpt><trkpt lat="36.99408880614646" lon="15.021658743754397"><ele>421.0</ele><time>2026-04-11T16:43:31.999Z</time></trkpt><trkpt lat="36.9941022649925" lon="15.021548704793608"><ele>421.00000000000006</ele><time>2026-04-11T16:43:34.999Z</time></trkpt><trkpt lat="36.994071234132974" lon="15.021463245780117"><ele>421.0</ele><time>2026-04-11T16:43:40Z</time></trkpt><trkpt lat="36.994094906809" lon="15.021368736404709"><ele>421.00000000000006</ele><time>2026-04-11T16:43:44Z</time></trkpt><trkpt lat="36.99414621276829" lon="15.021267127318476"><ele>421.0</ele><time>2026-04-11T16:43:46Z</time></trkpt><trkpt lat="36.99418354908959" lon="15.02119222515318"><ele>421.0</ele><time>2026-04-11T16:43:48Z</time></trkpt><trkpt lat="36.99420737150604" lon="15.021106476731838"><ele>421.0</ele><time>2026-04-11T16:43:50Z</time></trkpt><trkpt lat="36.99423263647462" lon="15.021021738043848"><ele>421.00000000000006</ele><time>2026-04-11T16:43:52Z</time></trkpt><trkpt lat="36.99426425167569" lon="15.020856721106519"><ele>421.0</ele><time>2026-04-11T16:43:54Z</time></trkpt><trkpt lat="36.99426584843183" lon="15.02077716574674"><ele>421.33333333333337</ele><time>2026-04-11T16:43:55Z</time></trkpt><trkpt lat="36.99428988171922" lon="15.020699111244472"><ele>421.6666666666667</ele><time>2026-04-11T16:43:57Z</time></trkpt><trkpt lat="36.99430000690737" lon="15.020595118293874"><ele>422.0</ele><time>2026-04-11T16:43:59Z</time></trkpt><trkpt lat="36.994354031841105" lon="15.020471486197874"><ele>422.33333333333337</ele><time>2026-04-11T16:44:01Z</time></trkpt><trkpt lat="36.99440536292035" lon="15.02038910352414"><ele>422.6666666666667</ele><time>2026-04-11T16:44:02Z</time></trkpt><trkpt lat="36.994454379654464" lon="15.020312809576577"><ele>423.0</ele><time>2026-04-11T16:44:03Z</time></trkpt><trkpt lat="36.994506749562596" lon="15.020230656928021"><ele>423.0</ele><time>2026-04-11T16:44:04Z</time></trkpt><trkpt lat="36.994549284406496" lon="15.020166504790282"><ele>423.0</ele><time>2026-04-11T16:44:05Z</time></trkpt><trkpt lat="36.99462592557156" lon="15.020131140152106"><ele>423.0</ele><time>2026-04-11T16:44:07Z</time></trkpt><trkpt lat="36.994697485085084" lon="15.020089634377534"><ele>423.0</ele><time>2026-04-11T16:44:09Z</time></trkpt><trkpt lat="36.99476127456543" lon="15.020040076193911"><ele>423.0</ele><time>2026-04-11T16:44:11Z</time></trkpt><trkpt lat="36.994780978901844" lon="15.019943752778028"><ele>423.0</ele><time>2026-04-11T16:44:13Z</time></trkpt><trkpt lat="36.99481024386255" lon="15.019821238713105"><ele>423.6666666666667</ele><time>2026-04-11T16:44:15Z</time></trkpt><trkpt lat="36.99486096071784" lon="15.01974075383796"><ele>424.33333333333337</ele><time>2026-04-11T16:44:17Z</time></trkpt><trkpt lat="36.994900629028336" lon="15.019653207420776"><ele>425.0</ele><time>2026-04-11T16:44:19Z</time></trkpt><trkpt lat="36.99497088085081" lon="15.019656052499421"><ele>425.6666666666667</ele><time>2026-04-11T16:44:22.999Z</time></trkpt><trkpt lat="36.99498322231245" lon="15.019764594216849"><ele>426.33333333333337</ele><time>2026-04-11T16:44:26.999Z</time></trkpt><trkpt lat="36.99496543135222" lon="15.019874300351793"><ele>427.0</ele><time>2026-04-11T16:44:29.999Z</time></trkpt><trkpt lat="36.9949886782935" lon="15.01995387769677"><ele>425.85714285714283</ele><time>2026-04-11T16:44:33.999Z</time></trkpt><trkpt lat="36.995039899493605" lon="15.020004270274224"><ele>424.7142857142857</ele><time>2026-04-11T16:44:35.999Z</time></trkpt><trkpt lat="36.99512027812127" lon="15.019983732251653"><ele>423.57142857142856</ele><time>2026-04-11T16:44:38.999Z</time></trkpt><trkpt lat="36.99517381010439" lon="15.020054699771396"><ele>422.42857142857144</ele><time>2026-04-11T16:44:41.999Z</time></trkpt><trkpt lat="36.99519952461058" lon="15.020140405789471"><ele>421.2857142857143</ele><time>2026-04-11T16:44:44.999Z</time></trkpt><trkpt lat="36.99526863937217" lon="15.02017332781417"><ele>420.1428571428571</ele><time>2026-04-11T16:44:47.999Z</time></trkpt><trkpt lat="36.99531715312359" lon="15.020224680659291"><ele>419.0</ele><time>2026-04-11T16:44:49.999Z</time></trkpt><trkpt lat="36.995398314345" lon="15.020215146059934"><ele>419.0</ele><time>2026-04-11T16:44:51.999Z</time></trkpt><trkpt lat="36.99549351708087" lon="15.0202312363604"><ele>419.0</ele><time>2026-04-11T16:44:52.999Z</time></trkpt><trkpt lat="36.99559195080077" lon="15.020168479163422"><ele>419.0</ele><time>2026-04-11T16:44:54.999Z</time></trkpt><trkpt lat="36.99569138762796" lon="15.020096815990993"><ele>419.0</ele><time>2026-04-11T16:44:56.999Z</time></trkpt><trkpt lat="36.99577204702706" lon="15.020024931349203"><ele>419.0</ele><time>2026-04-11T16:44:58.999Z</time></trkpt><trkpt lat="36.99584381339402" lon="15.019956794126285"><ele>419.8333333333333</ele><time>2026-04-11T16:45:00.999Z</time></trkpt><trkpt lat="36.99593214991842" lon="15.019893217637938"><ele>420.66666666666663</ele><time>2026-04-11T16:45:02.999Z</time></trkpt><trkpt lat="36.99603624912175" lon="15.019870776287563"><ele>421.5</ele><time>2026-04-11T16:45:04.999Z</time></trkpt><trkpt lat="36.99609914858781" lon="15.01985832949207"><ele>422.33333333333337</ele><time>2026-04-11T16:45:05.999Z</time></trkpt><trkpt lat="36.99616989558369" lon="15.019842176600934"><ele>423.1666666666667</ele><time>2026-04-11T16:45:06.999Z</time></trkpt><trkpt lat="36.99623770949841" lon="15.019822962553517"><ele>424.0</ele><time>2026-04-11T16:45:07.999Z</time></trkpt><trkpt lat="36.99630544434807" lon="15.01980774638365"><ele>424.0</ele><time>2026-04-11T16:45:08.999Z</time></trkpt><trkpt lat="36.996367098232504" lon="15.019768118884185"><ele>424.0</ele><time>2026-04-11T16:45:09.999Z</time></trkpt><trkpt lat="36.99642451544907" lon="15.019726851808489"><ele>424.0</ele><time>2026-04-11T16:45:10.999Z</time></trkpt><trkpt lat="36.99644254581008" lon="15.019650286987266"><ele>424.0</ele><time>2026-04-11T16:45:12.999Z</time></trkpt><trkpt lat="36.99662171774519" lon="15.019629367358487"><ele>424.0</ele><time>2026-04-11T16:45:18.999Z</time></trkpt><trkpt lat="36.99669845866835" lon="15.01956903260173"><ele>423.75</ele><time>2026-04-11T16:45:21.999Z</time></trkpt><trkpt lat="36.99678171887249" lon="15.019553890257438"><ele>423.5</ele><time>2026-04-11T16:45:23.999Z</time></trkpt><trkpt lat="36.99693679590882" lon="15.019503833578483"><ele>423.25</ele><time>2026-04-11T16:45:27.999Z</time></trkpt><trkpt lat="36.99707399540501" lon="15.01943426919729"><ele>423.0</ele><time>2026-04-11T16:45:28.999Z</time></trkpt><trkpt lat="36.997161430027056" lon="15.019367060426825"><ele>423.0</ele><time>2026-04-11T16:45:30.999Z</time></trkpt><trkpt lat="36.99723358964757" lon="15.01930459176333"><ele>423.0</ele><time>2026-04-11T16:45:32.999Z</time></trkpt><trkpt lat="36.9973032256477" lon="15.019258287145195"><ele>423.0</ele><time>2026-04-11T16:45:34.999Z</time></trkpt><trkpt lat="36.997381756043225" lon="15.01924910205017"><ele>423.0</ele><time>2026-04-11T16:45:37.999Z</time></trkpt><trkpt lat="36.99746169962517" lon="15.019263396586414"><ele>423.0</ele><time>2026-04-11T16:45:40.999Z</time></trkpt><trkpt lat="36.99753121425085" lon="15.01929356820793"><ele>423.0</ele><time>2026-04-11T16:45:44Z</time></trkpt><trkpt lat="36.9976426018048" lon="15.0193187668281"><ele>422.79999999999995</ele><time>2026-04-11T16:45:51Z</time></trkpt><trkpt lat="36.997727727626575" lon="15.019275728452385"><ele>422.6</ele><time>2026-04-11T16:45:53Z</time></trkpt><trkpt lat="36.99781389529954" lon="15.019205865843494"><ele>422.4</ele><time>2026-04-11T16:45:55Z</time></trkpt><trkpt lat="36.99789050314553" lon="15.01909205650189"><ele>422.20000000000005</ele><time>2026-04-11T16:45:57Z</time></trkpt><trkpt lat="36.99792710395143" lon="15.01897355521779"><ele>422.0</ele><time>2026-04-11T16:45:59Z</time></trkpt><trkpt lat="36.99800488182855" lon="15.01890833728243"><ele>422.0</ele><time>2026-04-11T16:46:15Z</time></trkpt><trkpt lat="36.9981216716754" lon="15.018900458504111"><ele>422.0</ele><time>2026-04-11T16:46:17Z</time></trkpt><trkpt lat="36.99822670103992" lon="15.018850744204093"><ele>422.0</ele><time>2026-04-11T16:46:19Z</time></trkpt><trkpt lat="36.99828851505422" lon="15.018826743333767"><ele>422.0</ele><time>2026-04-11T16:46:21Z</time></trkpt><trkpt lat="36.99838738927846" lon="15.018793381704803"><ele>422.0</ele><time>2026-04-11T16:47:09.999Z</time></trkpt><trkpt lat="36.99845418432139" lon="15.018805222425872"><ele>427.66666666666663</ele><time>2026-04-11T16:47:18.999Z</time></trkpt><trkpt lat="36.99849627177987" lon="15.018721493146595"><ele>433.33333333333337</ele><time>2026-04-11T16:47:27.999Z</time></trkpt><trkpt lat="36.99866562801933" lon="15.018731222778754"><ele>439.0</ele><time>2026-04-11T16:50:40.999Z</time></trkpt><trkpt lat="36.99863615217341" lon="15.019007594650974"><ele>439.0</ele><time>2026-04-11T16:50:47.999Z</time></trkpt><trkpt lat="36.9986307323901" lon="15.019148668842139"><ele>439.0</ele><time>2026-04-11T16:50:49.999Z</time></trkpt><trkpt lat="36.99864023277402" lon="15.019269695796247"><ele>439.0</ele><time>2026-04-11T16:50:51.999Z</time></trkpt><trkpt lat="36.99867463227338" lon="15.019341572517291"><ele>439.0</ele><time>2026-04-11T16:50:53.999Z</time></trkpt><trkpt lat="36.99874797329246" lon="15.019367024702829"><ele>439.0</ele><time>2026-04-11T16:50:55.999Z</time></trkpt><trkpt lat="36.99886308706667" lon="15.0194503878544"><ele>439.2</ele><time>2026-04-11T16:50:57.999Z</time></trkpt><trkpt lat="36.99892929709193" lon="15.01946701683554"><ele>439.4</ele><time>2026-04-11T16:50:58.999Z</time></trkpt><trkpt lat="36.99902512973642" lon="15.019455043545301"><ele>439.6</ele><time>2026-04-11T16:51:00.999Z</time></trkpt><trkpt lat="36.99915877936464" lon="15.01945089774027"><ele>439.8</ele><time>2026-04-11T16:51:02.999Z</time></trkpt><trkpt lat="36.99923655942706" lon="15.019444679028222"><ele>440.0</ele><time>2026-04-11T16:51:03.999Z</time></trkpt><trkpt lat="36.99931524311448" lon="15.019443789335897"><ele>440.57142857142856</ele><time>2026-04-11T16:51:04.999Z</time></trkpt><trkpt lat="36.9993921595616" lon="15.019442428943126"><ele>441.1428571428571</ele><time>2026-04-11T16:51:05.999Z</time></trkpt><trkpt lat="36.999462647815434" lon="15.019453345745465"><ele>441.71428571428567</ele><time>2026-04-11T16:51:06.999Z</time></trkpt><trkpt lat="36.99952649109946" lon="15.019489510478534"><ele>442.2857142857143</ele><time>2026-04-11T16:51:07.999Z</time></trkpt><trkpt lat="36.999587914670435" lon="15.019542258690759"><ele>442.8571428571429</ele><time>2026-04-11T16:51:08.999Z</time></trkpt><trkpt lat="36.999651019716566" lon="15.01959235798842"><ele>443.4285714285714</ele><time>2026-04-11T16:51:09.999Z</time></trkpt><trkpt lat="36.99971648786254" lon="15.019638028865852"><ele>444.0</ele><time>2026-04-11T16:51:10.999Z</time></trkpt><trkpt lat="36.999789195307905" lon="15.019667170808814"><ele>444.0</ele><time>2026-04-11T16:51:11.999Z</time></trkpt><trkpt lat="36.99985587656484" lon="15.019702065078436"><ele>444.0</ele><time>2026-04-11T16:51:12.999Z</time></trkpt><trkpt lat="36.999916263820964" lon="15.019765900538019"><ele>444.0</ele><time>2026-04-11T16:51:15.999Z</time></trkpt><trkpt lat="37.00001461479536" lon="15.01983199993695"><ele>444.0</ele><time>2026-04-11T16:51:17.999Z</time></trkpt><trkpt lat="37.00007717359613" lon="15.019868996157959"><ele>444.0</ele><time>2026-04-11T16:51:18.999Z</time></trkpt><trkpt lat="37.00013784959914" lon="15.019909451115216"><ele>444.0</ele><time>2026-04-11T16:51:19.999Z</time></trkpt><trkpt lat="37.00020364791209" lon="15.019957179439608"><ele>444.0</ele><time>2026-04-11T16:51:20.999Z</time></trkpt><trkpt lat="37.00026778598793" lon="15.020029779021888"><ele>444.0</ele><time>2026-04-11T16:51:21.999Z</time></trkpt><trkpt lat="37.00030860718393" lon="15.02009023614971"><ele>444.0</ele><time>2026-04-11T16:51:23.999Z</time></trkpt><trkpt lat="37.00020719378333" lon="15.020160018788761"><ele>444.0</ele><time>2026-04-11T16:51:42.999Z</time></trkpt><trkpt lat="37.000120743945594" lon="15.020201549856338"><ele>444.0</ele><time>2026-04-11T16:51:43.999Z</time></trkpt><trkpt lat="37.000023564103884" lon="15.020254008342391"><ele>444.0</ele><time>2026-04-11T16:51:44.999Z</time></trkpt><trkpt lat="36.99991612523751" lon="15.020313516338847"><ele>444.0</ele><time>2026-04-11T16:51:45.999Z</time></trkpt><trkpt lat="36.99980223260635" lon="15.020379164201398"><ele>444.0</ele><time>2026-04-11T16:51:46.999Z</time></trkpt><trkpt lat="36.99968631472341" lon="15.020464470251442"><ele>444.0</ele><time>2026-04-11T16:51:47.999Z</time></trkpt><trkpt lat="36.999574400226926" lon="15.020561891006382"><ele>444.0</ele><time>2026-04-11T16:51:48.999Z</time></trkpt><trkpt lat="36.99946196747563" lon="15.020667439394805"><ele>444.0</ele><time>2026-04-11T16:51:49.999Z</time></trkpt><trkpt lat="36.999350311904266" lon="15.020773499838418"><ele>444.0</ele><time>2026-04-11T16:51:50.999Z</time></trkpt><trkpt lat="36.99924029759245" lon="15.02088532742357"><ele>444.0</ele><time>2026-04-11T16:51:51.999Z</time></trkpt><trkpt lat="36.999124834486516" lon="15.021001933671352"><ele>444.0</ele><time>2026-04-11T16:51:52.999Z</time></trkpt><trkpt lat="36.99900108835539" lon="15.021122765550043"><ele>444.0</ele><time>2026-04-11T16:51:53.999Z</time></trkpt><trkpt lat="36.998874110314006" lon="15.021240799140966"><ele>444.0</ele><time>2026-04-11T16:51:54.999Z</time></trkpt><trkpt lat="36.99872912341586" lon="15.021375362621109"><ele>444.0</ele><time>2026-04-11T16:51:55.999Z</time></trkpt><trkpt lat="36.9985609255754" lon="15.021538718232788"><ele>444.0</ele><time>2026-04-11T16:51:56.998Z</time></trkpt><trkpt lat="36.998359469704674" lon="15.021677783246385"><ele>444.0</ele><time>2026-04-11T16:51:57.998Z</time></trkpt><trkpt lat="36.99816596877787" lon="15.021865506856225"><ele>443.5</ele><time>2026-04-11T16:51:59Z</time></trkpt><trkpt lat="36.99796174664898" lon="15.022064128398325"><ele>443.0</ele><time>2026-04-11T16:52:00Z</time></trkpt><trkpt lat="36.99774844207981" lon="15.022271652154867"><ele>443.0</ele><time>2026-04-11T16:52:01Z</time></trkpt><trkpt lat="36.997528707371245" lon="15.022485431732417"><ele>443.0</ele><time>2026-04-11T16:52:02Z</time></trkpt><trkpt lat="36.99730289693597" lon="15.022704814867069"><ele>443.0</ele><time>2026-04-11T16:52:03Z</time></trkpt><trkpt lat="36.99707108265146" lon="15.022929400643191"><ele>443.0</ele><time>2026-04-11T16:52:04Z</time></trkpt><trkpt lat="36.99683427267654" lon="15.023158826378015"><ele>442.0</ele><time>2026-04-11T16:52:05Z</time></trkpt><trkpt lat="36.99659381857133" lon="15.023391782651517"><ele>441.0</ele><time>2026-04-11T16:52:06Z</time></trkpt><trkpt lat="36.99635153862181" lon="15.023626424237523"><ele>441.0</ele><time>2026-04-11T16:52:07Z</time></trkpt><trkpt lat="36.996122427067064" lon="15.023846959133998"><ele>441.0</ele><time>2026-04-11T16:52:08Z</time></trkpt><trkpt lat="36.99592235982255" lon="15.024039537222883"><ele>441.33333333333337</ele><time>2026-04-11T16:52:09Z</time></trkpt><trkpt lat="36.99573941285326" lon="15.024215635764522"><ele>441.6666666666667</ele><time>2026-04-11T16:52:10Z</time></trkpt><trkpt lat="36.995575061249006" lon="15.024374171656726"><ele>442.0</ele><time>2026-04-11T16:52:11Z</time></trkpt><trkpt lat="36.995425896065136" lon="15.024518096819767"><ele>442.0</ele><time>2026-04-11T16:52:12Z</time></trkpt><trkpt lat="36.99528648640666" lon="15.024646603461907"><ele>442.0</ele><time>2026-04-11T16:52:13Z</time></trkpt><trkpt lat="36.995144214704666" lon="15.0247660953585"><ele>442.0</ele><time>2026-04-11T16:52:14Z</time></trkpt><trkpt lat="36.994996272223155" lon="15.024869852034973"><ele>442.0</ele><time>2026-04-11T16:52:15Z</time></trkpt><trkpt lat="36.99484119651137" lon="15.02495153410643"><ele>442.0</ele><time>2026-04-11T16:52:16Z</time></trkpt><trkpt lat="36.99467317526089" lon="15.025007376261474"><ele>442.0</ele><time>2026-04-11T16:52:17Z</time></trkpt><trkpt lat="36.9944973741563" lon="15.025058737598098"><ele>442.0</ele><time>2026-04-11T16:52:18Z</time></trkpt><trkpt lat="36.99430195489778" lon="15.02511444571749"><ele>442.0</ele><time>2026-04-11T16:52:19Z</time></trkpt><trkpt lat="36.99409584605036" lon="15.025173236117835"><ele>442.0</ele><time>2026-04-11T16:52:20Z</time></trkpt><trkpt lat="36.99387533159533" lon="15.025236134188264"><ele>441.5</ele><time>2026-04-11T16:52:21Z</time></trkpt><trkpt lat="36.99364561179109" lon="15.025304787708604"><ele>441.0</ele><time>2026-04-11T16:52:22Z</time></trkpt><trkpt lat="36.99340976556445" lon="15.025374626863067"><ele>439.5</ele><time>2026-04-11T16:52:23Z</time></trkpt><trkpt lat="36.99315741439075" lon="15.02544781206253"><ele>438.0</ele><time>2026-04-11T16:52:24Z</time></trkpt><trkpt lat="36.992886821496356" lon="15.025524568778037"><ele>438.0</ele><time>2026-04-11T16:52:25Z</time></trkpt><trkpt lat="36.99260436812259" lon="15.025605225160994"><ele>438.0</ele><time>2026-04-11T16:52:26Z</time></trkpt><trkpt lat="36.99231264932163" lon="15.02569175559086"><ele>438.0</ele><time>2026-04-11T16:52:27Z</time></trkpt><trkpt lat="36.99201187882742" lon="15.025778701684178"><ele>438.0</ele><time>2026-04-11T16:52:28Z</time></trkpt><trkpt lat="36.99170358255095" lon="15.025866455388138"><ele>437.0</ele><time>2026-04-11T16:52:29Z</time></trkpt><trkpt lat="36.991401091134655" lon="15.025952556735318"><ele>436.0</ele><time>2026-04-11T16:52:30Z</time></trkpt><trkpt lat="36.99113682758516" lon="15.026029871877437"><ele>436.0</ele><time>2026-04-11T16:52:31Z</time></trkpt><trkpt lat="36.99089782238933" lon="15.026099915041122"><ele>436.0</ele><time>2026-04-11T16:52:32Z</time></trkpt><trkpt lat="36.99069387662749" lon="15.026159069052078"><ele>434.25</ele><time>2026-04-11T16:52:33Z</time></trkpt><trkpt lat="36.99053290458601" lon="15.026205445458304"><ele>432.5</ele><time>2026-04-11T16:52:34Z</time></trkpt><trkpt lat="36.99039407111578" lon="15.026245443712611"><ele>430.75</ele><time>2026-04-11T16:52:35Z</time></trkpt><trkpt lat="36.99026257449734" lon="15.026269948148892"><ele>429.0</ele><time>2026-04-11T16:52:36Z</time></trkpt><trkpt lat="36.99012279765026" lon="15.026240535860959"><ele>428.0</ele><time>2026-04-11T16:52:37Z</time></trkpt><trkpt lat="36.99000666251894" lon="15.026335219547406"><ele>427.0</ele><time>2026-04-11T16:52:37.999Z</time></trkpt><trkpt lat="36.989935218014864" lon="15.026204447672132"><ele>426.0</ele><time>2026-04-11T16:52:38.999Z</time></trkpt><trkpt lat="36.989856724520095" lon="15.026098401615256"><ele>425.0</ele><time>2026-04-11T16:52:39.999Z</time></trkpt><trkpt lat="36.98976159465189" lon="15.025989540515223"><ele>425.0</ele><time>2026-04-11T16:52:40.999Z</time></trkpt><trkpt lat="36.98966719291955" lon="15.025868348041719"><ele>425.0</ele><time>2026-04-11T16:52:41.999Z</time></trkpt><trkpt lat="36.98962615508659" lon="15.025702034486237"><ele>425.0</ele><time>2026-04-11T16:52:42.999Z</time></trkpt><trkpt lat="36.98954903895479" lon="15.025568852001696"><ele>425.0</ele><time>2026-04-11T16:52:43.999Z</time></trkpt><trkpt lat="36.98948055761475" lon="15.025426823705196"><ele>422.75</ele><time>2026-04-11T16:52:44.999Z</time></trkpt><trkpt lat="36.98942832561771" lon="15.025275618239753"><ele>420.5</ele><time>2026-04-11T16:52:45.999Z</time></trkpt><trkpt lat="36.98941308819856" lon="15.025134661030418"><ele>418.25</ele><time>2026-04-11T16:52:46.999Z</time></trkpt><trkpt lat="36.989428340906414" lon="15.024999647358213"><ele>416.0</ele><time>2026-04-11T16:52:47.999Z</time></trkpt><trkpt lat="36.98944656292382" lon="15.024843447431342"><ele>415.0</ele><time>2026-04-11T16:52:48.999Z</time></trkpt><trkpt lat="36.98945790618401" lon="15.024692169339664"><ele>414.0</ele><time>2026-04-11T16:52:49.999Z</time></trkpt><trkpt lat="36.98945609345318" lon="15.024543043364483"><ele>413.0</ele><time>2026-04-11T16:52:50.999Z</time></trkpt><trkpt lat="36.98942405046672" lon="15.024416210057593"><ele>412.0</ele><time>2026-04-11T16:52:51.999Z</time></trkpt><trkpt lat="36.9893741152965" lon="15.024324247006776"><ele>411.0</ele><time>2026-04-11T16:52:52.999Z</time></trkpt><trkpt lat="36.98930718373784" lon="15.02427124089958"><ele>411.0</ele><time>2026-04-11T16:52:53.999Z</time></trkpt><trkpt lat="36.98922284646859" lon="15.024283131402743"><ele>411.0</ele><time>2026-04-11T16:52:54.999Z</time></trkpt><trkpt lat="36.98913433881254" lon="15.024311325241806"><ele>411.0</ele><time>2026-04-11T16:52:55.999Z</time></trkpt><trkpt lat="36.98905058573255" lon="15.024354129217802"><ele>411.0</ele><time>2026-04-11T16:52:56.999Z</time></trkpt><trkpt lat="36.98896299187262" lon="15.024402501737175"><ele>411.0</ele><time>2026-04-11T16:52:57.999Z</time></trkpt><trkpt lat="36.98883582239462" lon="15.02443662927939"><ele>411.8</ele><time>2026-04-11T16:52:58.999Z</time></trkpt><trkpt lat="36.988735558349255" lon="15.024483389545031"><ele>412.6</ele><time>2026-04-11T16:52:59.999Z</time></trkpt><trkpt lat="36.98863983805496" lon="15.024547644371555"><ele>413.4</ele><time>2026-04-11T16:53:00.999Z</time></trkpt><trkpt lat="36.98856136271765" lon="15.024645124070048"><ele>414.2</ele><time>2026-04-11T16:53:01.999Z</time></trkpt><trkpt lat="36.98852634792736" lon="15.024784282666479"><ele>415.0</ele><time>2026-04-11T16:53:02.999Z</time></trkpt><trkpt lat="36.98850105775887" lon="15.024923014914805"><ele>416.0</ele><time>2026-04-11T16:53:03.999Z</time></trkpt><trkpt lat="36.988487088352635" lon="15.025064165272575"><ele>417.0</ele><time>2026-04-11T16:53:04.999Z</time></trkpt><trkpt lat="36.98845445233942" lon="15.02520346836523"><ele>418.0</ele><time>2026-04-11T16:53:05.999Z</time></trkpt><trkpt lat="36.98843546087302" lon="15.025350350023565"><ele>419.0</ele><time>2026-04-11T16:53:06.999Z</time></trkpt><trkpt lat="36.98841833077802" lon="15.025499344293944"><ele>419.0</ele><time>2026-04-11T16:53:07.999Z</time></trkpt><trkpt lat="36.98839951702893" lon="15.025656135052408"><ele>419.0</ele><time>2026-04-11T16:53:08.999Z</time></trkpt><trkpt lat="36.98837138719221" lon="15.025816939632271"><ele>419.0</ele><time>2026-04-11T16:53:09.999Z</time></trkpt><trkpt lat="36.98832298328972" lon="15.02596500046541"><ele>419.0</ele><time>2026-04-11T16:53:10.999Z</time></trkpt><trkpt lat="36.98826728324212" lon="15.02611710279662"><ele>416.5</ele><time>2026-04-11T16:53:11.999Z</time></trkpt><trkpt lat="36.98820821899983" lon="15.026270624165743"><ele>414.0</ele><time>2026-04-11T16:53:12.999Z</time></trkpt><trkpt lat="36.98814793471941" lon="15.026425536655822"><ele>411.5</ele><time>2026-04-11T16:53:13.999Z</time></trkpt><trkpt lat="36.98808687527949" lon="15.026584065554736"><ele>409.0</ele><time>2026-04-11T16:53:14.999Z</time></trkpt><trkpt lat="36.98802471222102" lon="15.026743370046267"><ele>408.0</ele><time>2026-04-11T16:53:15.999Z</time></trkpt><trkpt lat="36.98796133536678" lon="15.026903512695455"><ele>407.0</ele><time>2026-04-11T16:53:16.999Z</time></trkpt><trkpt lat="36.987895914526824" lon="15.027064674413792"><ele>406.0</ele><time>2026-04-11T16:53:17.999Z</time></trkpt><trkpt lat="36.98782739112318" lon="15.02722988652517"><ele>405.0</ele><time>2026-04-11T16:53:18.999Z</time></trkpt><trkpt lat="36.9877558640081" lon="15.027386524543466"><ele>404.75</ele><time>2026-04-11T16:53:19.999Z</time></trkpt><trkpt lat="36.98766258553922" lon="15.027509141656719"><ele>404.5</ele><time>2026-04-11T16:53:20.999Z</time></trkpt><trkpt lat="36.98755202620692" lon="15.0275840722941"><ele>404.25</ele><time>2026-04-11T16:53:21.999Z</time></trkpt><trkpt lat="36.987443327089075" lon="15.027700409311198"><ele>404.0</ele><time>2026-04-11T16:53:22.999Z</time></trkpt><trkpt lat="36.98730921891315" lon="15.027736153402358"><ele>406.5</ele><time>2026-04-11T16:53:23.999Z</time></trkpt><trkpt lat="36.9871804811759" lon="15.027785607860427"><ele>409.0</ele><time>2026-04-11T16:53:24.999Z</time></trkpt><trkpt lat="36.9870532162777" lon="15.0278482152613"><ele>411.5</ele><time>2026-04-11T16:53:25.999Z</time></trkpt><trkpt lat="36.98691387315854" lon="15.027873503257064"><ele>414.0</ele><time>2026-04-11T16:53:26.999Z</time></trkpt><trkpt lat="36.986797902675356" lon="15.0279145477814"><ele>414.0</ele><time>2026-04-11T16:53:27.999Z</time></trkpt><trkpt lat="36.98669400741292" lon="15.027938053099717"><ele>414.0</ele><time>2026-04-11T16:53:28.999Z</time></trkpt><trkpt lat="36.98664617492376" lon="15.027875201494128"><ele>414.0</ele><time>2026-04-11T16:53:29.999Z</time></trkpt><trkpt lat="36.986678316301145" lon="15.027683931081851"><ele>414.0</ele><time>2026-04-11T16:53:31.999Z</time></trkpt><trkpt lat="36.986693638248305" lon="15.027571652847271"><ele>414.0</ele><time>2026-04-11T16:53:32.999Z</time></trkpt><trkpt lat="36.98671747827452" lon="15.027441474926347"><ele>412.75</ele><time>2026-04-11T16:53:33.999Z</time></trkpt><trkpt lat="36.986736570458596" lon="15.027315607015403"><ele>411.5</ele><time>2026-04-11T16:53:34.999Z</time></trkpt><trkpt lat="36.9867450390716" lon="15.027167497419994"><ele>410.25</ele><time>2026-04-11T16:53:35.999Z</time></trkpt><trkpt lat="36.98673491054371" lon="15.027015731542656"><ele>409.0</ele><time>2026-04-11T16:53:36.999Z</time></trkpt><trkpt lat="36.98670983594436" lon="15.026854665055271"><ele>411.25</ele><time>2026-04-11T16:53:37.999Z</time></trkpt><trkpt lat="36.98666277961617" lon="15.026708746769579"><ele>413.5</ele><time>2026-04-11T16:53:38.999Z</time></trkpt><trkpt lat="36.986601176404996" lon="15.026568963847804"><ele>415.75</ele><time>2026-04-11T16:53:39.999Z</time></trkpt><trkpt lat="36.986522688676295" lon="15.026448768757882"><ele>418.0</ele><time>2026-04-11T16:53:40.999Z</time></trkpt><trkpt lat="36.986444374391894" lon="15.026368162760699"><ele>418.0</ele><time>2026-04-11T16:53:41.999Z</time></trkpt><trkpt lat="36.98634586906901" lon="15.026406248146985"><ele>418.0</ele><time>2026-04-11T16:53:42.999Z</time></trkpt><trkpt lat="36.98625892424724" lon="15.02640707064486"><ele>418.0</ele><time>2026-04-11T16:53:43.999Z</time></trkpt><trkpt lat="36.98617794068333" lon="15.02649939464303"><ele>418.0</ele><time>2026-04-11T16:53:44.999Z</time></trkpt><trkpt lat="36.98612083067231" lon="15.026632322087362"><ele>418.0</ele><time>2026-04-11T16:53:45.999Z</time></trkpt><trkpt lat="36.98607402640441" lon="15.026765757623366"><ele>418.5</ele><time>2026-04-11T16:53:46.999Z</time></trkpt><trkpt lat="36.98602606281972" lon="15.026907821530717"><ele>419.0</ele><time>2026-04-11T16:53:47.999Z</time></trkpt><trkpt lat="36.98598113229839" lon="15.027041800461227"><ele>419.5</ele><time>2026-04-11T16:53:48.999Z</time></trkpt><trkpt lat="36.985933593868545" lon="15.02717230689179"><ele>420.0</ele><time>2026-04-11T16:53:49.999Z</time></trkpt><trkpt lat="36.98587953139593" lon="15.027303147457308"><ele>421.75</ele><time>2026-04-11T16:53:50.999Z</time></trkpt><trkpt lat="36.98581646349103" lon="15.027432561745744"><ele>423.5</ele><time>2026-04-11T16:53:51.999Z</time></trkpt><trkpt lat="36.985747109811676" lon="15.027559938856307"><ele>425.25</ele><time>2026-04-11T16:53:52.999Z</time></trkpt><trkpt lat="36.98566935126617" lon="15.027676381190556"><ele>427.0</ele><time>2026-04-11T16:53:53.999Z</time></trkpt><trkpt lat="36.985576936734866" lon="15.027777820119933"><ele>427.0</ele><time>2026-04-11T16:53:54.999Z</time></trkpt><trkpt lat="36.985468926244174" lon="15.02786281273039"><ele>427.0</ele><time>2026-04-11T16:53:55.999Z</time></trkpt><trkpt lat="36.985357719115655" lon="15.027919717524739"><ele>427.0</ele><time>2026-04-11T16:53:56.999Z</time></trkpt><trkpt lat="36.98524204078817" lon="15.027966870406976"><ele>427.0</ele><time>2026-04-11T16:53:57.999Z</time></trkpt><trkpt lat="36.98512102973976" lon="15.028010538179627"><ele>428.75</ele><time>2026-04-11T16:53:58.999Z</time></trkpt><trkpt lat="36.98500056037043" lon="15.028052902742667"><ele>430.5</ele><time>2026-04-11T16:53:59.999Z</time></trkpt><trkpt lat="36.98488062700513" lon="15.02809407284488"><ele>432.25</ele><time>2026-04-11T16:54:00.999Z</time></trkpt><trkpt lat="36.98476067891049" lon="15.028135287568755"><ele>434.0</ele><time>2026-04-11T16:54:01.999Z</time></trkpt><trkpt lat="36.98464131691483" lon="15.02817827956189"><ele>434.0</ele><time>2026-04-11T16:54:02.998Z</time></trkpt><trkpt lat="36.98452114934177" lon="15.02822156273365"><ele>434.0</ele><time>2026-04-11T16:54:03.998Z</time></trkpt><trkpt lat="36.9844040312405" lon="15.028281262281716"><ele>434.0</ele><time>2026-04-11T16:54:05Z</time></trkpt><trkpt lat="36.98430489379846" lon="15.028299453644879"><ele>434.0</ele><time>2026-04-11T16:54:06Z</time></trkpt><trkpt lat="36.984175106374856" lon="15.028345882189436"><ele>433.75</ele><time>2026-04-11T16:54:07Z</time></trkpt><trkpt lat="36.984046193923085" lon="15.028391100516204"><ele>433.5</ele><time>2026-04-11T16:54:08Z</time></trkpt><trkpt lat="36.983914840279446" lon="15.02843717517496"><ele>433.25</ele><time>2026-04-11T16:54:09Z</time></trkpt><trkpt lat="36.98378471982139" lon="15.028482857330108"><ele>433.0</ele><time>2026-04-11T16:54:10Z</time></trkpt><trkpt lat="36.98365863157811" lon="15.028527765832623"><ele>433.0</ele><time>2026-04-11T16:54:11Z</time></trkpt><trkpt lat="36.98353162957761" lon="15.028572999925645"><ele>433.0</ele><time>2026-04-11T16:54:12Z</time></trkpt><trkpt lat="36.98340821084194" lon="15.028616957690803"><ele>433.0</ele><time>2026-04-11T16:54:13Z</time></trkpt><trkpt lat="36.98328521228708" lon="15.02866153967989"><ele>433.0</ele><time>2026-04-11T16:54:14Z</time></trkpt><trkpt lat="36.983163930248786" lon="15.02870563914314"><ele>433.25</ele><time>2026-04-11T16:54:15Z</time></trkpt><trkpt lat="36.98304319815581" lon="15.028749538618781"><ele>433.5</ele><time>2026-04-11T16:54:16Z</time></trkpt><trkpt lat="36.98292374276281" lon="15.028796430969996"><ele>433.75</ele><time>2026-04-11T16:54:17Z</time></trkpt><trkpt lat="36.982807024599566" lon="15.028848632589872"><ele>434.0</ele><time>2026-04-11T16:54:18Z</time></trkpt><trkpt lat="36.98268925087184" lon="15.028910564330166"><ele>434.0</ele><time>2026-04-11T16:54:19Z</time></trkpt><trkpt lat="36.98257419834352" lon="15.028978815595833"><ele>434.0</ele><time>2026-04-11T16:54:20Z</time></trkpt><trkpt lat="36.98246213896169" lon="15.029050816639574"><ele>434.0</ele><time>2026-04-11T16:54:21Z</time></trkpt><trkpt lat="36.982351883379536" lon="15.029124350758469"><ele>434.0</ele><time>2026-04-11T16:54:22Z</time></trkpt><trkpt lat="36.982241299290834" lon="15.029198104022747"><ele>433.75</ele><time>2026-04-11T16:54:23Z</time></trkpt><trkpt lat="36.98213120805309" lon="15.029271528522715"><ele>433.5</ele><time>2026-04-11T16:54:24Z</time></trkpt><trkpt lat="36.98202183407276" lon="15.029344107502386"><ele>433.25</ele><time>2026-04-11T16:54:25Z</time></trkpt><trkpt lat="36.98191354073315" lon="15.029415930470584"><ele>433.0</ele><time>2026-04-11T16:54:26Z</time></trkpt><trkpt lat="36.98180455439678" lon="15.029487345549333"><ele>433.0</ele><time>2026-04-11T16:54:27Z</time></trkpt><trkpt lat="36.98169420220131" lon="15.029559389713564"><ele>433.0</ele><time>2026-04-11T16:54:28Z</time></trkpt><trkpt lat="36.98158441000523" lon="15.02963106828901"><ele>433.0</ele><time>2026-04-11T16:54:29Z</time></trkpt><trkpt lat="36.98147476350744" lon="15.02970265170734"><ele>433.0</ele><time>2026-04-11T16:54:30Z</time></trkpt><trkpt lat="36.98136519681006" lon="15.02977418326946"><ele>433.5</ele><time>2026-04-11T16:54:31Z</time></trkpt><trkpt lat="36.981255961860775" lon="15.02984549794129"><ele>434.0</ele><time>2026-04-11T16:54:32Z</time></trkpt><trkpt lat="36.98114159595236" lon="15.029921126538177"><ele>434.5</ele><time>2026-04-11T16:54:33Z</time></trkpt><trkpt lat="36.98102316624345" lon="15.029999002643995"><ele>435.0</ele><time>2026-04-11T16:54:34Z</time></trkpt><trkpt lat="36.980899067119395" lon="15.030080969549632"><ele>435.5</ele><time>2026-04-11T16:54:35Z</time></trkpt><trkpt lat="36.9807701906632" lon="15.030166923018625"><ele>436.0</ele><time>2026-04-11T16:54:36Z</time></trkpt><trkpt lat="36.98063716546625" lon="15.030255643471053"><ele>436.5</ele><time>2026-04-11T16:54:37Z</time></trkpt><trkpt lat="36.98050187050365" lon="15.030344139009317"><ele>437.0</ele><time>2026-04-11T16:54:38Z</time></trkpt><trkpt lat="36.980366472282704" lon="15.030431343387793"><ele>437.0</ele><time>2026-04-11T16:54:39Z</time></trkpt><trkpt lat="36.980233746607084" lon="15.030516826485028"><ele>437.0</ele><time>2026-04-11T16:54:40Z</time></trkpt><trkpt lat="36.980107586372746" lon="15.030602172198202"><ele>437.0</ele><time>2026-04-11T16:54:41Z</time></trkpt><trkpt lat="36.979982278261225" lon="15.03068792500329"><ele>437.0</ele><time>2026-04-11T16:54:41.999Z</time></trkpt><trkpt lat="36.97985237029777" lon="15.030775539707868"><ele>437.0</ele><time>2026-04-11T16:54:42.999Z</time></trkpt><trkpt lat="36.979724630696715" lon="15.030859086224561"><ele>437.0</ele><time>2026-04-11T16:54:43.999Z</time></trkpt><trkpt lat="36.979602488682076" lon="15.03093253770955"><ele>437.0</ele><time>2026-04-11T16:54:44.999Z</time></trkpt><trkpt lat="36.97948955696499" lon="15.030991550902272"><ele>437.0</ele><time>2026-04-11T16:54:45.999Z</time></trkpt><trkpt lat="36.97937998032877" lon="15.031024433137492"><ele>437.0</ele><time>2026-04-11T16:54:46.999Z</time></trkpt><trkpt lat="36.979258226657585" lon="15.031031845514619"><ele>437.0</ele><time>2026-04-11T16:54:47.999Z</time></trkpt><trkpt lat="36.97913888923399" lon="15.030996127499613"><ele>437.0</ele><time>2026-04-11T16:54:48.999Z</time></trkpt><trkpt lat="36.979018751527775" lon="15.030934662406494"><ele>437.0</ele><time>2026-04-11T16:54:49.999Z</time></trkpt><trkpt lat="36.978909432165736" lon="15.030861607301937"><ele>437.75</ele><time>2026-04-11T16:54:50.999Z</time></trkpt><trkpt lat="36.97879504425104" lon="15.030793164009612"><ele>438.5</ele><time>2026-04-11T16:54:51.999Z</time></trkpt><trkpt lat="36.978681166936475" lon="15.030743371942973"><ele>439.25</ele><time>2026-04-11T16:54:52.999Z</time></trkpt><trkpt lat="36.978564479002095" lon="15.030758182587334"><ele>440.0</ele><time>2026-04-11T16:54:53.999Z</time></trkpt><trkpt lat="36.97846757342456" lon="15.030861446733578"><ele>440.0</ele><time>2026-04-11T16:54:54.999Z</time></trkpt><trkpt lat="36.97840704573234" lon="15.031003566562262"><ele>440.0</ele><time>2026-04-11T16:54:55.999Z</time></trkpt><trkpt lat="36.97832328946361" lon="15.03115417502698"><ele>440.0</ele><time>2026-04-11T16:54:56.999Z</time></trkpt><trkpt lat="36.97823687850118" lon="15.03134656453776"><ele>440.3333333333333</ele><time>2026-04-11T16:54:57.999Z</time></trkpt><trkpt lat="36.978149556446105" lon="15.031545020467435"><ele>440.66666666666663</ele><time>2026-04-11T16:54:58.999Z</time></trkpt><trkpt lat="36.978073542800665" lon="15.03171204726764"><ele>441.0</ele><time>2026-04-11T16:54:59.999Z</time></trkpt><trkpt lat="36.97801216808682" lon="15.031844274571467"><ele>441.0</ele><time>2026-04-11T16:55:00.999Z</time></trkpt><trkpt lat="36.97795639163217" lon="15.031955544057281"><ele>441.0</ele><time>2026-04-11T16:55:01.999Z</time></trkpt><trkpt lat="36.977889381162754" lon="15.032063334392207"><ele>441.0</ele><time>2026-04-11T16:55:02.999Z</time></trkpt><trkpt lat="36.97781025785154" lon="15.032160022221843"><ele>441.0</ele><time>2026-04-11T16:55:03.999Z</time></trkpt><trkpt lat="36.977716324644796" lon="15.032250008549532"><ele>441.0</ele><time>2026-04-11T16:55:04.999Z</time></trkpt><trkpt lat="36.97761532526115" lon="15.032333936278548"><ele>442.75</ele><time>2026-04-11T16:55:05.999Z</time></trkpt><trkpt lat="36.977512861569515" lon="15.03240525642136"><ele>444.5</ele><time>2026-04-11T16:55:06.999Z</time></trkpt><trkpt lat="36.97740597404859" lon="15.032463811776985"><ele>446.25</ele><time>2026-04-11T16:55:07.999Z</time></trkpt><trkpt lat="36.977294868707524" lon="15.032513541988788"><ele>448.0</ele><time>2026-04-11T16:55:08.999Z</time></trkpt><trkpt lat="36.97718203378054" lon="15.032551498573888"><ele>448.0</ele><time>2026-04-11T16:55:09.999Z</time></trkpt><trkpt lat="36.97706275934837" lon="15.032575294664527"><ele>448.0</ele><time>2026-04-11T16:55:10.999Z</time></trkpt><trkpt lat="36.97694666933409" lon="15.032586615244782"><ele>448.0</ele><time>2026-04-11T16:55:11.999Z</time></trkpt><trkpt lat="36.97682402505777" lon="15.032590554457954"><ele>448.0</ele><time>2026-04-11T16:55:12.999Z</time></trkpt><trkpt lat="36.97670421012561" lon="15.032582907319432"><ele>448.75</ele><time>2026-04-11T16:55:13.999Z</time></trkpt><trkpt lat="36.97658874871807" lon="15.032551813527782"><ele>449.5</ele><time>2026-04-11T16:55:14.999Z</time></trkpt><trkpt lat="36.97648523001556" lon="15.032492358695967"><ele>450.25</ele><time>2026-04-11T16:55:15.999Z</time></trkpt><trkpt lat="36.97640115151695" lon="15.032400358436133"><ele>451.0</ele><time>2026-04-11T16:55:16.999Z</time></trkpt><trkpt lat="36.97632920273534" lon="15.032283367752513"><ele>452.25</ele><time>2026-04-11T16:55:17.999Z</time></trkpt><trkpt lat="36.9762475325504" lon="15.032162719794755"><ele>453.5</ele><time>2026-04-11T16:55:18.999Z</time></trkpt><trkpt lat="36.97617018097178" lon="15.032026536216405"><ele>454.75</ele><time>2026-04-11T16:55:19.999Z</time></trkpt><trkpt lat="36.976086522365485" lon="15.031892940004631"><ele>456.0</ele><time>2026-04-11T16:55:20.999Z</time></trkpt><trkpt lat="36.97599795046008" lon="15.031780294210668"><ele>456.0</ele><time>2026-04-11T16:55:21.999Z</time></trkpt><trkpt lat="36.975919635443944" lon="15.031691547434672"><ele>456.0</ele><time>2026-04-11T16:55:22.999Z</time></trkpt><trkpt lat="36.97582467980921" lon="15.031642243302947"><ele>456.0</ele><time>2026-04-11T16:55:23.999Z</time></trkpt><trkpt lat="36.97573400655609" lon="15.031612550940753"><ele>456.0</ele><time>2026-04-11T16:55:24.999Z</time></trkpt><trkpt lat="36.975638176553815" lon="15.03159501292888"><ele>456.0</ele><time>2026-04-11T16:55:25.999Z</time></trkpt><trkpt lat="36.97553441235857" lon="15.031593823288228"><ele>454.75</ele><time>2026-04-11T16:55:26.999Z</time></trkpt><trkpt lat="36.97542872092917" lon="15.031605960336732"><ele>453.5</ele><time>2026-04-11T16:55:27.999Z</time></trkpt><trkpt lat="36.975313687633225" lon="15.031643491007856"><ele>452.25</ele><time>2026-04-11T16:55:28.999Z</time></trkpt><trkpt lat="36.9751960402063" lon="15.031690622675178"><ele>451.0</ele><time>2026-04-11T16:55:29.999Z</time></trkpt><trkpt lat="36.97507816221261" lon="15.03173686714072"><ele>449.75</ele><time>2026-04-11T16:55:30.999Z</time></trkpt><trkpt lat="36.974961527011786" lon="15.031783847465954"><ele>448.5</ele><time>2026-04-11T16:55:31.999Z</time></trkpt><trkpt lat="36.97484471404665" lon="15.031831281195014"><ele>447.25</ele><time>2026-04-11T16:55:32.999Z</time></trkpt><trkpt lat="36.97472544850863" lon="15.031881148861153"><ele>446.0</ele><time>2026-04-11T16:55:33.999Z</time></trkpt><trkpt lat="36.97459977615501" lon="15.031934337366177"><ele>446.0</ele><time>2026-04-11T16:55:34.999Z</time></trkpt><trkpt lat="36.97447457830286" lon="15.031987325094743"><ele>446.0</ele><time>2026-04-11T16:55:35.999Z</time></trkpt><trkpt lat="36.97435129343015" lon="15.032039503004038"><ele>446.0</ele><time>2026-04-11T16:55:36.999Z</time></trkpt><trkpt lat="36.9742271010727" lon="15.032092451415966"><ele>446.0</ele><time>2026-04-11T16:55:37.999Z</time></trkpt><trkpt lat="36.974103240692244" lon="15.032145226722164"><ele>446.0</ele><time>2026-04-11T16:55:38.999Z</time></trkpt><trkpt lat="36.973985611249944" lon="15.032194659163416"><ele>446.0</ele><time>2026-04-11T16:55:39.999Z</time></trkpt><trkpt lat="36.97386957851239" lon="15.032243072466526"><ele>446.0</ele><time>2026-04-11T16:55:40.999Z</time></trkpt><trkpt lat="36.97375278264719" lon="15.032291804171798"><ele>446.0</ele><time>2026-04-11T16:55:41.999Z</time></trkpt><trkpt lat="36.973634735191766" lon="15.032341058087217"><ele>446.0</ele><time>2026-04-11T16:55:42.999Z</time></trkpt><trkpt lat="36.97351516962061" lon="15.032390945425627"><ele>446.0</ele><time>2026-04-11T16:55:43.999Z</time></trkpt><trkpt lat="36.97339456788637" lon="15.032441265093015"><ele>446.0</ele><time>2026-04-11T16:55:44.999Z</time></trkpt><trkpt lat="36.973273092481016" lon="15.032491949289282"><ele>446.0</ele><time>2026-04-11T16:55:45.999Z</time></trkpt><trkpt lat="36.97314654067046" lon="15.032544751564094"><ele>446.25</ele><time>2026-04-11T16:55:46.999Z</time></trkpt><trkpt lat="36.97302154244903" lon="15.03259690560884"><ele>446.5</ele><time>2026-04-11T16:55:47.999Z</time></trkpt><trkpt lat="36.97290732367614" lon="15.032644562069812"><ele>446.75</ele><time>2026-04-11T16:55:48.999Z</time></trkpt><trkpt lat="36.97280074725922" lon="15.03268902982922"><ele>447.0</ele><time>2026-04-11T16:55:49.999Z</time></trkpt><trkpt lat="36.97268742166282" lon="15.032736313616299"><ele>447.0</ele><time>2026-04-11T16:55:50.999Z</time></trkpt><trkpt lat="36.972571091997715" lon="15.032784666215418"><ele>447.0</ele><time>2026-04-11T16:55:51.999Z</time></trkpt><trkpt lat="36.97245204287758" lon="15.032833243006765"><ele>447.0</ele><time>2026-04-11T16:55:52.999Z</time></trkpt><trkpt lat="36.97232988693276" lon="15.032883087513616"><ele>447.0</ele><time>2026-04-11T16:55:53.999Z</time></trkpt><trkpt lat="36.97220794903424" lon="15.032932843064753"><ele>446.75</ele><time>2026-04-11T16:55:54.999Z</time></trkpt><trkpt lat="36.9720825475757" lon="15.03298317936601"><ele>446.5</ele><time>2026-04-11T16:55:55.999Z</time></trkpt><trkpt lat="36.971953858184875" lon="15.033031274965499"><ele>446.25</ele><time>2026-04-11T16:55:56.999Z</time></trkpt><trkpt lat="36.9718174850317" lon="15.033071474587882"><ele>446.0</ele><time>2026-04-11T16:55:57.999Z</time></trkpt><trkpt lat="36.971672427603664" lon="15.033087028264339"><ele>447.3333333333333</ele><time>2026-04-11T16:55:58.999Z</time></trkpt><trkpt lat="36.97152165093755" lon="15.033089958980046"><ele>448.66666666666663</ele><time>2026-04-11T16:55:59.999Z</time></trkpt><trkpt lat="36.97136943675339" lon="15.033091696582408"><ele>450.0</ele><time>2026-04-11T16:56:00.999Z</time></trkpt><trkpt lat="36.97121060772358" lon="15.033093509699729"><ele>450.0</ele><time>2026-04-11T16:56:01.999Z</time></trkpt><trkpt lat="36.97105603920289" lon="15.033095274178201"><ele>450.0</ele><time>2026-04-11T16:56:02.999Z</time></trkpt><trkpt lat="36.97089748974493" lon="15.033097084103606"><ele>450.0</ele><time>2026-04-11T16:56:03.999Z</time></trkpt><trkpt lat="36.970731933031615" lon="15.03309679938357"><ele>448.0</ele><time>2026-04-11T16:56:04.998Z</time></trkpt><trkpt lat="36.97054498907372" lon="15.033096120347034"><ele>446.0</ele><time>2026-04-11T16:56:05.998Z</time></trkpt><trkpt lat="36.9703466122342" lon="15.033097237400312"><ele>444.0</ele><time>2026-04-11T16:56:06.998Z</time></trkpt><trkpt lat="36.970142862401055" lon="15.033108130153407"><ele>442.0</ele><time>2026-04-11T16:56:07.998Z</time></trkpt><trkpt lat="36.96996300407124" lon="15.033137764784723"><ele>440.0</ele><time>2026-04-11T16:56:08.998Z</time></trkpt><trkpt lat="36.969790966941765" lon="15.033198722824858"><ele>438.0</ele><time>2026-04-11T16:56:09.998Z</time></trkpt><trkpt lat="36.9696189859157" lon="15.033261983951721"><ele>439.33333333333337</ele><time>2026-04-11T16:56:11Z</time></trkpt><trkpt lat="36.969447650521744" lon="15.033331051530526"><ele>440.6666666666667</ele><time>2026-04-11T16:56:12Z</time></trkpt><trkpt lat="36.969274822381294" lon="15.033398773401133"><ele>442.0</ele><time>2026-04-11T16:56:13Z</time></trkpt><trkpt lat="36.96910045507615" lon="15.033465342194662"><ele>442.0</ele><time>2026-04-11T16:56:14Z</time></trkpt><trkpt lat="36.96892531192305" lon="15.03353220719352"><ele>442.0</ele><time>2026-04-11T16:56:15Z</time></trkpt><trkpt lat="36.96874850791045" lon="15.033596841863426"><ele>442.0</ele><time>2026-04-11T16:56:16Z</time></trkpt><trkpt lat="36.96857150114754" lon="15.033657408590818"><ele>442.0</ele><time>2026-04-11T16:56:17Z</time></trkpt><trkpt lat="36.96839192480552" lon="15.033711969727424"><ele>442.0</ele><time>2026-04-11T16:56:18Z</time></trkpt><trkpt lat="36.96820926101541" lon="15.033763032704444"><ele>442.0</ele><time>2026-04-11T16:56:19Z</time></trkpt><trkpt lat="36.96802486930127" lon="15.03380863751301"><ele>441.6666666666667</ele><time>2026-04-11T16:56:20Z</time></trkpt><trkpt lat="36.96783929224743" lon="15.033854535501936"><ele>441.33333333333337</ele><time>2026-04-11T16:56:21Z</time></trkpt><trkpt lat="36.967654782287745" lon="15.033900199043504"><ele>441.0</ele><time>2026-04-11T16:56:22Z</time></trkpt><trkpt lat="36.96747103398955" lon="15.03394595324845"><ele>440.0</ele><time>2026-04-11T16:56:23Z</time></trkpt><trkpt lat="36.96728672661022" lon="15.033993149791893"><ele>439.0</ele><time>2026-04-11T16:56:24Z</time></trkpt><trkpt lat="36.967101854225696" lon="15.034037145697463"><ele>438.0</ele><time>2026-04-11T16:56:25Z</time></trkpt><trkpt lat="36.96691651326303" lon="15.03408345395027"><ele>438.0</ele><time>2026-04-11T16:56:26Z</time></trkpt><trkpt lat="36.96673390118963" lon="15.034130041383015"><ele>438.0</ele><time>2026-04-11T16:56:27Z</time></trkpt><trkpt lat="36.96655618521127" lon="15.03417494009143"><ele>438.0</ele><time>2026-04-11T16:56:28Z</time></trkpt><trkpt lat="36.966385549460746" lon="15.034217544861184"><ele>438.0</ele><time>2026-04-11T16:56:29Z</time></trkpt><trkpt lat="36.966235739246244" lon="15.034254949860156"><ele>438.0</ele><time>2026-04-11T16:56:30Z</time></trkpt><trkpt lat="36.9661031307369" lon="15.0342870232704"><ele>438.0</ele><time>2026-04-11T16:56:31Z</time></trkpt><trkpt lat="36.96597627282865" lon="15.034313188803411"><ele>438.0</ele><time>2026-04-11T16:56:32Z</time></trkpt><trkpt lat="36.9658444182785" lon="15.034323641755321"><ele>438.0</ele><time>2026-04-11T16:56:33Z</time></trkpt><trkpt lat="36.96571086275205" lon="15.034309824335903"><ele>438.0</ele><time>2026-04-11T16:56:34Z</time></trkpt><trkpt lat="36.96558901144268" lon="15.034252420082257"><ele>438.0</ele><time>2026-04-11T16:56:35Z</time></trkpt><trkpt lat="36.96543949849143" lon="15.034188075733873"><ele>438.0</ele><time>2026-04-11T16:56:36Z</time></trkpt><trkpt lat="36.96530475505225" lon="15.03413008753332"><ele>437.25</ele><time>2026-04-11T16:56:37Z</time></trkpt><trkpt lat="36.96518165183322" lon="15.034077108816064"><ele>436.5</ele><time>2026-04-11T16:56:38Z</time></trkpt><trkpt lat="36.965067500445095" lon="15.03402736359657"><ele>435.75</ele><time>2026-04-11T16:56:39Z</time></trkpt><trkpt lat="36.964957082812106" lon="15.033978280467316"><ele>435.0</ele><time>2026-04-11T16:56:40Z</time></trkpt><trkpt lat="36.96484444420853" lon="15.033934344705472"><ele>435.0</ele><time>2026-04-11T16:56:41Z</time></trkpt><trkpt lat="36.96472292359353" lon="15.033894351689833"><ele>435.0</ele><time>2026-04-11T16:56:42Z</time></trkpt><trkpt lat="36.96459419112092" lon="15.033884402223952"><ele>435.0</ele><time>2026-04-11T16:56:43Z</time></trkpt><trkpt lat="36.96446685910908" lon="15.033910352244654"><ele>435.0</ele><time>2026-04-11T16:56:44Z</time></trkpt><trkpt lat="36.96434487294264" lon="15.033962110149982"><ele>435.0</ele><time>2026-04-11T16:56:45Z</time></trkpt><trkpt lat="36.964234325515854" lon="15.034056501853945"><ele>435.0</ele><time>2026-04-11T16:56:45.999Z</time></trkpt><trkpt lat="36.964141170183225" lon="15.034168922440777"><ele>435.0</ele><time>2026-04-11T16:56:46.999Z</time></trkpt><trkpt lat="36.96405216462945" lon="15.034286961867428"><ele>435.0</ele><time>2026-04-11T16:56:47.999Z</time></trkpt><trkpt lat="36.96395760075227" lon="15.034424551684491"><ele>433.66666666666663</ele><time>2026-04-11T16:56:48.999Z</time></trkpt><trkpt lat="36.96385941730565" lon="15.034568093036583"><ele>432.3333333333333</ele><time>2026-04-11T16:56:49.999Z</time></trkpt><trkpt lat="36.9637607383117" lon="15.034718398835109"><ele>431.0</ele><time>2026-04-11T16:56:50.999Z</time></trkpt><trkpt lat="36.96366987017323" lon="15.034879062973003"><ele>431.0</ele><time>2026-04-11T16:56:51.999Z</time></trkpt><trkpt lat="36.963588316553555" lon="15.035048614715436"><ele>431.0</ele><time>2026-04-11T16:56:52.999Z</time></trkpt><trkpt lat="36.963508381930446" lon="15.035226917062369"><ele>431.0</ele><time>2026-04-11T16:56:53.999Z</time></trkpt><trkpt lat="36.96342906114768" lon="15.035406862580887"><ele>428.3333333333333</ele><time>2026-04-11T16:56:54.999Z</time></trkpt><trkpt lat="36.963328314509766" lon="15.035579507246037"><ele>425.66666666666663</ele><time>2026-04-11T16:56:55.999Z</time></trkpt><trkpt lat="36.96323972702506" lon="15.03575934373673"><ele>423.0</ele><time>2026-04-11T16:56:56.999Z</time></trkpt><trkpt lat="36.963140747943235" lon="15.035982004792926"><ele>422.66666666666663</ele><time>2026-04-11T16:56:57.999Z</time></trkpt><trkpt lat="36.963058480878374" lon="15.036163165204307"><ele>422.3333333333333</ele><time>2026-04-11T16:56:58.999Z</time></trkpt><trkpt lat="36.96297006461541" lon="15.036340624870178"><ele>422.0</ele><time>2026-04-11T16:56:59.999Z</time></trkpt><trkpt lat="36.96288456443824" lon="15.036516598577029"><ele>421.66666666666663</ele><time>2026-04-11T16:57:00.999Z</time></trkpt><trkpt lat="36.96278343297322" lon="15.036687529629909"><ele>421.33333333333337</ele><time>2026-04-11T16:57:01.999Z</time></trkpt><trkpt lat="36.962696492607186" lon="15.036865045185415"><ele>421.0</ele><time>2026-04-11T16:57:02.999Z</time></trkpt><trkpt lat="36.96259703378103" lon="15.03702464178404"><ele>418.33333333333337</ele><time>2026-04-11T16:57:03.999Z</time></trkpt><trkpt lat="36.96247483854012" lon="15.037141910412414"><ele>415.66666666666663</ele><time>2026-04-11T16:57:04.999Z</time></trkpt><trkpt lat="36.96233504706941" lon="15.037220222164303"><ele>413.0</ele><time>2026-04-11T16:57:05.999Z</time></trkpt><trkpt lat="36.962178497309296" lon="15.037287215884444"><ele>413.0</ele><time>2026-04-11T16:57:06.999Z</time></trkpt><trkpt lat="36.962014003506845" lon="15.037357021351117"><ele>413.0</ele><time>2026-04-11T16:57:07.999Z</time></trkpt><trkpt lat="36.961850728029766" lon="15.03742630974439"><ele>413.0</ele><time>2026-04-11T16:57:08.999Z</time></trkpt><trkpt lat="36.96170300386269" lon="15.037488998725133"><ele>412.0</ele><time>2026-04-11T16:57:09.999Z</time></trkpt><trkpt lat="36.961530320652535" lon="15.03756227948643"><ele>411.0</ele><time>2026-04-11T16:57:10.999Z</time></trkpt><trkpt lat="36.96136233019564" lon="15.037633568664567"><ele>410.0</ele><time>2026-04-11T16:57:11.999Z</time></trkpt><trkpt lat="36.9611991519847" lon="15.037702823662038"><ele>410.0</ele><time>2026-04-11T16:57:12.999Z</time></trkpt><trkpt lat="36.96103731113708" lon="15.037771512067252"><ele>410.0</ele><time>2026-04-11T16:57:13.999Z</time></trkpt><trkpt lat="36.9608705002236" lon="15.037842309812842"><ele>410.0</ele><time>2026-04-11T16:57:14.999Z</time></trkpt><trkpt lat="36.96070197881946" lon="15.03791383361516"><ele>408.0</ele><time>2026-04-11T16:57:15.999Z</time></trkpt><trkpt lat="36.9605353119548" lon="15.037982826502224"><ele>406.0</ele><time>2026-04-11T16:57:16.999Z</time></trkpt><trkpt lat="36.96037220734085" lon="15.038029552695235"><ele>404.0</ele><time>2026-04-11T16:57:17.999Z</time></trkpt><trkpt lat="36.960208546383456" lon="15.038040605206868"><ele>404.0</ele><time>2026-04-11T16:57:18.999Z</time></trkpt><trkpt lat="36.96004094243545" lon="15.0380183802323"><ele>404.0</ele><time>2026-04-11T16:57:19.999Z</time></trkpt><trkpt lat="36.95986166121332" lon="15.03799086382214"><ele>404.0</ele><time>2026-04-11T16:57:20.999Z</time></trkpt><trkpt lat="36.959688257945665" lon="15.037961943338267"><ele>401.66666666666663</ele><time>2026-04-11T16:57:21.999Z</time></trkpt><trkpt lat="36.95951683289385" lon="15.037932600688382"><ele>399.33333333333337</ele><time>2026-04-11T16:57:22.999Z</time></trkpt><trkpt lat="36.95934771856088" lon="15.037903653570831"><ele>397.0</ele><time>2026-04-11T16:57:23.999Z</time></trkpt><trkpt lat="36.95917590524104" lon="15.03787862956578"><ele>395.6666666666667</ele><time>2026-04-11T16:57:24.999Z</time></trkpt><trkpt lat="36.958994376480575" lon="15.037898035218793"><ele>394.33333333333337</ele><time>2026-04-11T16:57:25.999Z</time></trkpt><trkpt lat="36.95882211846701" lon="15.037940864438223"><ele>393.0</ele><time>2026-04-11T16:57:26.999Z</time></trkpt><trkpt lat="36.95865897312902" lon="15.03801227781197"><ele>393.0</ele><time>2026-04-11T16:57:27.999Z</time></trkpt><trkpt lat="36.958482179369796" lon="15.038072035727692"><ele>393.0</ele><time>2026-04-11T16:57:28.999Z</time></trkpt><trkpt lat="36.95832773277577" lon="15.038159655968087"><ele>393.0</ele><time>2026-04-11T16:57:29.999Z</time></trkpt><trkpt lat="36.95817215951178" lon="15.038265423504306"><ele>393.0</ele><time>2026-04-11T16:57:30.999Z</time></trkpt><trkpt lat="36.9580210229056" lon="15.038379711334587"><ele>393.0</ele><time>2026-04-11T16:57:31.999Z</time></trkpt><trkpt lat="36.95786616257325" lon="15.038501666914396"><ele>393.0</ele><time>2026-04-11T16:57:32.999Z</time></trkpt><trkpt lat="36.957709376873204" lon="15.038625426557513"><ele>393.0</ele><time>2026-04-11T16:57:33.999Z</time></trkpt><trkpt lat="36.95755748066114" lon="15.03874865924837"><ele>393.0</ele><time>2026-04-11T16:57:34.999Z</time></trkpt><trkpt lat="36.957398130172315" lon="15.038872800132827"><ele>393.0</ele><time>2026-04-11T16:57:35.999Z</time></trkpt><trkpt lat="36.9572376376018" lon="15.039002429197394"><ele>391.33333333333337</ele><time>2026-04-11T16:57:36.999Z</time></trkpt><trkpt lat="36.95708225693593" lon="15.039133568091366"><ele>389.6666666666667</ele><time>2026-04-11T16:57:37.999Z</time></trkpt><trkpt lat="36.95692626104029" lon="15.039266835150107"><ele>388.0</ele><time>2026-04-11T16:57:38.999Z</time></trkpt><trkpt lat="36.9567617698766" lon="15.039383338611206"><ele>384.33333333333337</ele><time>2026-04-11T16:57:39.999Z</time></trkpt><trkpt lat="36.95659807575944" lon="15.039517502101189"><ele>380.6666666666667</ele><time>2026-04-11T16:57:40.999Z</time></trkpt><trkpt lat="36.95642393494702" lon="15.039660006907853"><ele>377.0</ele><time>2026-04-11T16:57:41.999Z</time></trkpt><trkpt lat="36.95626787963502" lon="15.039789717682101"><ele>377.0</ele><time>2026-04-11T16:57:42.999Z</time></trkpt><trkpt lat="36.95611379701776" lon="15.039917560342245"><ele>377.0</ele><time>2026-04-11T16:57:43.999Z</time></trkpt><trkpt lat="36.955963204745906" lon="15.040041302972078"><ele>377.0</ele><time>2026-04-11T16:57:44.999Z</time></trkpt><trkpt lat="36.9558128238271" lon="15.04016487139382"><ele>375.33333333333337</ele><time>2026-04-11T16:57:45.999Z</time></trkpt><trkpt lat="36.955662797202876" lon="15.040288121786286"><ele>373.6666666666667</ele><time>2026-04-11T16:57:46.999Z</time></trkpt><trkpt lat="36.95551561034976" lon="15.040407680018246"><ele>372.0</ele><time>2026-04-11T16:57:47.999Z</time></trkpt><trkpt lat="36.95539646986538" lon="15.040543798563956"><ele>372.0</ele><time>2026-04-11T16:57:48.999Z</time></trkpt><trkpt lat="36.95529270445355" lon="15.040675039695403"><ele>372.0</ele><time>2026-04-11T16:57:49.999Z</time></trkpt><trkpt lat="36.955212306294186" lon="15.04082914853075"><ele>372.0</ele><time>2026-04-11T16:57:50.999Z</time></trkpt><trkpt lat="36.95515295772184" lon="15.041013542150575"><ele>369.6666666666667</ele><time>2026-04-11T16:57:51.999Z</time></trkpt><trkpt lat="36.955104923199904" lon="15.041204177724712"><ele>367.33333333333337</ele><time>2026-04-11T16:57:52.999Z</time></trkpt><trkpt lat="36.95505130849004" lon="15.041395042277077"><ele>365.0</ele><time>2026-04-11T16:57:53.999Z</time></trkpt><trkpt lat="36.9549482153603" lon="15.04154262444102"><ele>364.6666666666667</ele><time>2026-04-11T16:57:54.999Z</time></trkpt><trkpt lat="36.95482333701625" lon="15.041655871337861"><ele>364.3333333333333</ele><time>2026-04-11T16:57:55.999Z</time></trkpt><trkpt lat="36.95468840630184" lon="15.041772774285215"><ele>364.0</ele><time>2026-04-11T16:57:56.999Z</time></trkpt><trkpt lat="36.95455259651211" lon="15.041889905623906"><ele>364.0</ele><time>2026-04-11T16:57:57.999Z</time></trkpt><trkpt lat="36.95441934453648" lon="15.042020064594633"><ele>364.0</ele><time>2026-04-11T16:57:58.999Z</time></trkpt><trkpt lat="36.95427891691427" lon="15.042141583550306"><ele>364.0</ele><time>2026-04-11T16:57:59.999Z</time></trkpt><trkpt lat="36.95413951772258" lon="15.042264665952285"><ele>363.0</ele><time>2026-04-11T16:58:00.999Z</time></trkpt><trkpt lat="36.95400285397586" lon="15.042396810175886"><ele>362.0</ele><time>2026-04-11T16:58:01.999Z</time></trkpt><trkpt lat="36.9538748901374" lon="15.042542318872234"><ele>361.0</ele><time>2026-04-11T16:58:02.999Z</time></trkpt><trkpt lat="36.953760852675515" lon="15.04270416219055"><ele>361.0</ele><time>2026-04-11T16:58:03.999Z</time></trkpt><trkpt lat="36.95366005291985" lon="15.042883837936275"><ele>361.0</ele><time>2026-04-11T16:58:04.999Z</time></trkpt><trkpt lat="36.95354667594605" lon="15.04305082994027"><ele>361.0</ele><time>2026-04-11T16:58:05.999Z</time></trkpt><trkpt lat="36.953442061341285" lon="15.043220935857692"><ele>361.3333333333333</ele><time>2026-04-11T16:58:06.998Z</time></trkpt><trkpt lat="36.95333681177232" lon="15.043393090047903"><ele>361.6666666666667</ele><time>2026-04-11T16:58:07.998Z</time></trkpt><trkpt lat="36.95323168870036" lon="15.043565037335924"><ele>362.0</ele><time>2026-04-11T16:58:08.998Z</time></trkpt><trkpt lat="36.9531255063972" lon="15.043738812774272"><ele>362.0</ele><time>2026-04-11T16:58:09.998Z</time></trkpt><trkpt lat="36.95302135153959" lon="15.043909460624015"><ele>362.0</ele><time>2026-04-11T16:58:10.998Z</time></trkpt><trkpt lat="36.95291667194427" lon="15.044080968185375"><ele>362.0</ele><time>2026-04-11T16:58:11.998Z</time></trkpt><trkpt lat="36.95281356605702" lon="15.04424989738272"><ele>361.33333333333337</ele><time>2026-04-11T16:58:12.998Z</time></trkpt><trkpt lat="36.952711286531255" lon="15.044417472677852"><ele>360.6666666666667</ele><time>2026-04-11T16:58:13.998Z</time></trkpt><trkpt lat="36.952608140087634" lon="15.044586932676884"><ele>360.0</ele><time>2026-04-11T16:58:14.998Z</time></trkpt><trkpt lat="36.95250534248066" lon="15.044756691200096"><ele>361.3333333333333</ele><time>2026-04-11T16:58:15.998Z</time></trkpt><trkpt lat="36.95240076083961" lon="15.0449281771751"><ele>362.66666666666663</ele><time>2026-04-11T16:58:17Z</time></trkpt><trkpt lat="36.9522944597185" lon="15.045101389920301"><ele>364.0</ele><time>2026-04-11T16:58:18Z</time></trkpt><trkpt lat="36.95218821975442" lon="15.045274503031496"><ele>364.0</ele><time>2026-04-11T16:58:19Z</time></trkpt><trkpt lat="36.95208250617726" lon="15.045447890954259"><ele>364.0</ele><time>2026-04-11T16:58:20Z</time></trkpt><trkpt lat="36.95197750472265" lon="15.04562048877188"><ele>364.0</ele><time>2026-04-11T16:58:21Z</time></trkpt><trkpt lat="36.95187279485845" lon="15.04579260727676"><ele>363.3333333333333</ele><time>2026-04-11T16:58:22Z</time></trkpt><trkpt lat="36.951769130070424" lon="15.045963007926547"><ele>362.6666666666667</ele><time>2026-04-11T16:58:23Z</time></trkpt><trkpt lat="36.95166426157989" lon="15.046134165544412"><ele>362.0</ele><time>2026-04-11T16:58:24Z</time></trkpt><trkpt lat="36.9515591744598" lon="15.046301933091069"><ele>363.0</ele><time>2026-04-11T16:58:25Z</time></trkpt><trkpt lat="36.95144233958281" lon="15.046436861523395"><ele>364.0</ele><time>2026-04-11T16:58:26Z</time></trkpt><trkpt lat="36.951303569935384" lon="15.046546058936762"><ele>365.0</ele><time>2026-04-11T16:58:27Z</time></trkpt><trkpt lat="36.95115481389335" lon="15.046640951968483"><ele>365.0</ele><time>2026-04-11T16:58:28Z</time></trkpt><trkpt lat="36.951004046999884" lon="15.046736876918743"><ele>365.0</ele><time>2026-04-11T16:58:29Z</time></trkpt><trkpt lat="36.95085089614365" lon="15.046834153953743"><ele>365.0</ele><time>2026-04-11T16:58:30Z</time></trkpt><trkpt lat="36.95069246357452" lon="15.04693451478962"><ele>364.6666666666667</ele><time>2026-04-11T16:58:31Z</time></trkpt><trkpt lat="36.95053235684686" lon="15.04703593617072"><ele>364.3333333333333</ele><time>2026-04-11T16:58:32Z</time></trkpt><trkpt lat="36.950370854178786" lon="15.047138241691103"><ele>364.0</ele><time>2026-04-11T16:58:33Z</time></trkpt><trkpt lat="36.950208978359775" lon="15.047240784865116"><ele>364.0</ele><time>2026-04-11T16:58:34Z</time></trkpt><trkpt lat="36.950046608295835" lon="15.047343319143934"><ele>364.0</ele><time>2026-04-11T16:58:35Z</time></trkpt><trkpt lat="36.94988516084437" lon="15.047445308065202"><ele>364.0</ele><time>2026-04-11T16:58:36Z</time></trkpt><trkpt lat="36.94972504805837" lon="15.047547266054156"><ele>362.66666666666663</ele><time>2026-04-11T16:58:37Z</time></trkpt><trkpt lat="36.94956415404693" lon="15.047649150303572"><ele>361.3333333333333</ele><time>2026-04-11T16:58:38Z</time></trkpt><trkpt lat="36.949402490379825" lon="15.047750936664622"><ele>360.0</ele><time>2026-04-11T16:58:39Z</time></trkpt><trkpt lat="36.94924252460434" lon="15.047851920299994"><ele>358.3333333333333</ele><time>2026-04-11T16:58:40Z</time></trkpt><trkpt lat="36.94908275239702" lon="15.04795303310394"><ele>356.66666666666663</ele><time>2026-04-11T16:58:41Z</time></trkpt><trkpt lat="36.94892420974215" lon="15.048053367777042"><ele>355.0</ele><time>2026-04-11T16:58:42Z</time></trkpt><trkpt lat="36.9487670114891" lon="15.048152851647062"><ele>355.0</ele><time>2026-04-11T16:58:43Z</time></trkpt><trkpt lat="36.94860960057036" lon="15.048252700293812"><ele>355.0</ele><time>2026-04-11T16:58:44Z</time></trkpt><trkpt lat="36.948451146389104" lon="15.048353685470175"><ele>355.0</ele><time>2026-04-11T16:58:45Z</time></trkpt><trkpt lat="36.94829408048569" lon="15.048453785881097"><ele>353.66666666666663</ele><time>2026-04-11T16:58:46Z</time></trkpt><trkpt lat="36.94813594313786" lon="15.048554569139743"><ele>352.3333333333333</ele><time>2026-04-11T16:58:47Z</time></trkpt><trkpt lat="36.94797789229495" lon="15.048655297268835"><ele>351.0</ele><time>2026-04-11T16:58:47.999Z</time></trkpt><trkpt lat="36.94781857766264" lon="15.048755511656715"><ele>351.0</ele><time>2026-04-11T16:58:48.999Z</time></trkpt><trkpt lat="36.94765767240251" lon="15.048856684831973"><ele>351.0</ele><time>2026-04-11T16:58:49.999Z</time></trkpt><trkpt lat="36.94749746531973" lon="15.048958302095283"><ele>351.0</ele><time>2026-04-11T16:58:50.999Z</time></trkpt><trkpt lat="36.94733866663935" lon="15.049060204988677"><ele>348.3333333333333</ele><time>2026-04-11T16:58:51.999Z</time></trkpt><trkpt lat="36.947180476005194" lon="15.04916162493554"><ele>345.66666666666663</ele><time>2026-04-11T16:58:52.999Z</time></trkpt><trkpt lat="36.947023139665404" lon="15.049262289131956"><ele>343.0</ele><time>2026-04-11T16:58:53.999Z</time></trkpt><trkpt lat="36.946869235276736" lon="15.049360757574922"><ele>343.0</ele><time>2026-04-11T16:58:54.999Z</time></trkpt><trkpt lat="36.946717004899696" lon="15.049457183091915"><ele>343.0</ele><time>2026-04-11T16:58:55.999Z</time></trkpt><trkpt lat="36.946565647931834" lon="15.04955232165214"><ele>343.0</ele><time>2026-04-11T16:58:56.999Z</time></trkpt><trkpt lat="36.946415763197194" lon="15.049647435230675"><ele>341.0</ele><time>2026-04-11T16:58:57.999Z</time></trkpt><trkpt lat="36.946272921880386" lon="15.049738006212909"><ele>339.0</ele><time>2026-04-11T16:58:58.999Z</time></trkpt><trkpt lat="36.9461281312989" lon="15.049829813162722"><ele>337.0</ele><time>2026-04-11T16:58:59.999Z</time></trkpt><trkpt lat="36.94598098730225" lon="15.049923112351632"><ele>337.66666666666663</ele><time>2026-04-11T16:59:00.999Z</time></trkpt><trkpt lat="36.94583079364403" lon="15.050019901916327"><ele>338.3333333333333</ele><time>2026-04-11T16:59:01.999Z</time></trkpt><trkpt lat="36.945679866640255" lon="15.05012624677842"><ele>339.0</ele><time>2026-04-11T16:59:02.999Z</time></trkpt><trkpt lat="36.945544357939816" lon="15.050256576108039"><ele>339.0</ele><time>2026-04-11T16:59:03.999Z</time></trkpt><trkpt lat="36.94542844886317" lon="15.050420785756831"><ele>339.0</ele><time>2026-04-11T16:59:04.999Z</time></trkpt><trkpt lat="36.94529136668708" lon="15.050555145015002"><ele>339.0</ele><time>2026-04-11T16:59:05.999Z</time></trkpt><trkpt lat="36.94515546368498" lon="15.050700502919462"><ele>335.3333333333333</ele><time>2026-04-11T16:59:06.999Z</time></trkpt><trkpt lat="36.945014946587605" lon="15.050831258712604"><ele>331.66666666666663</ele><time>2026-04-11T16:59:07.999Z</time></trkpt><trkpt lat="36.94487944070602" lon="15.05094121760222"><ele>328.0</ele><time>2026-04-11T16:59:08.999Z</time></trkpt><trkpt lat="36.94474854287579" lon="15.051012164254976"><ele>328.0</ele><time>2026-04-11T16:59:09.999Z</time></trkpt><trkpt lat="36.94461751057127" lon="15.051036407798767"><ele>328.0</ele><time>2026-04-11T16:59:10.999Z</time></trkpt><trkpt lat="36.94447564407025" lon="15.051042807850166"><ele>328.0</ele><time>2026-04-11T16:59:11.999Z</time></trkpt><trkpt lat="36.94432116623538" lon="15.051043966812673"><ele>328.0</ele><time>2026-04-11T16:59:12.999Z</time></trkpt><trkpt lat="36.94415964938983" lon="15.051044932196088"><ele>327.66666666666663</ele><time>2026-04-11T16:59:13.999Z</time></trkpt><trkpt lat="36.94399441702703" lon="15.051044932192394"><ele>327.3333333333333</ele><time>2026-04-11T16:59:14.999Z</time></trkpt><trkpt lat="36.943829327770935" lon="15.051036732139828"><ele>327.0</ele><time>2026-04-11T16:59:15.999Z</time></trkpt><trkpt lat="36.94366701257634" lon="15.051024279340892"><ele>327.0</ele><time>2026-04-11T16:59:16.999Z</time></trkpt><trkpt lat="36.94353199291612" lon="15.051007826197976"><ele>327.0</ele><time>2026-04-11T16:59:17.999Z</time></trkpt><trkpt lat="36.94343932267555" lon="15.050982620457726"><ele>327.0</ele><time>2026-04-11T16:59:18.999Z</time></trkpt><trkpt lat="36.94338521776" lon="15.050941115498622"><ele>327.0</ele><time>2026-04-11T16:59:19.999Z</time></trkpt><trkpt lat="36.94334984706381" lon="15.050867582025285"><ele>327.0</ele><time>2026-04-11T16:59:20.999Z</time></trkpt><trkpt lat="36.94336503586842" lon="15.050740696909514"><ele>327.75</ele><time>2026-04-11T16:59:21.999Z</time></trkpt><trkpt lat="36.943410982838195" lon="15.050611061222565"><ele>328.5</ele><time>2026-04-11T16:59:22.999Z</time></trkpt><trkpt lat="36.94347173724304" lon="15.050481468608046"><ele>329.25</ele><time>2026-04-11T16:59:23.999Z</time></trkpt><trkpt lat="36.94353522064298" lon="15.050344874943763"><ele>330.0</ele><time>2026-04-11T16:59:24.999Z</time></trkpt><trkpt lat="36.9435901498562" lon="15.05020416089072"><ele>330.0</ele><time>2026-04-11T16:59:25.999Z</time></trkpt><trkpt lat="36.94362416500611" lon="15.050080799492525"><ele>330.0</ele><time>2026-04-11T16:59:26.999Z</time></trkpt><trkpt lat="36.943631946937025" lon="15.049969471884513"><ele>330.0</ele><time>2026-04-11T16:59:27.999Z</time></trkpt><trkpt lat="36.94359511942093" lon="15.049872240951862"><ele>330.0</ele><time>2026-04-11T16:59:28.999Z</time></trkpt><trkpt lat="36.94353506727266" lon="15.049793633607417"><ele>330.0</ele><time>2026-04-11T16:59:29.999Z</time></trkpt><trkpt lat="36.9434511808236" lon="15.049757295936866"><ele>325.5</ele><time>2026-04-11T16:59:30.999Z</time></trkpt><trkpt lat="36.94334983231895" lon="15.04980931967283"><ele>321.0</ele><time>2026-04-11T16:59:31.999Z</time></trkpt><trkpt lat="36.94330893419786" lon="15.049956127262364"><ele>316.5</ele><time>2026-04-11T16:59:32.999Z</time></trkpt><trkpt lat="36.94329051880502" lon="15.050089024325002"><ele>312.0</ele><time>2026-04-11T16:59:33.999Z</time></trkpt><trkpt lat="36.943254261508635" lon="15.050220236611382"><ele>311.8</ele><time>2026-04-11T16:59:34.999Z</time></trkpt><trkpt lat="36.94321497816652" lon="15.05036239986019"><ele>311.6</ele><time>2026-04-11T16:59:35.999Z</time></trkpt><trkpt lat="36.94317750588332" lon="15.050498009108107"><ele>311.40000000000003</ele><time>2026-04-11T16:59:36.999Z</time></trkpt><trkpt lat="36.943144073993885" lon="15.050620709385576"><ele>311.2</ele><time>2026-04-11T16:59:37.999Z</time></trkpt><trkpt lat="36.943110732736415" lon="15.050740064546202"><ele>311.0</ele><time>2026-04-11T16:59:38.999Z</time></trkpt><trkpt lat="36.94306113560842" lon="15.050852855163905"><ele>311.6</ele><time>2026-04-11T16:59:39.999Z</time></trkpt><trkpt lat="36.94299576518352" lon="15.050938956426448"><ele>312.20000000000005</ele><time>2026-04-11T16:59:40.999Z</time></trkpt><trkpt lat="36.942911139376264" lon="15.0509688479746"><ele>312.79999999999995</ele><time>2026-04-11T16:59:41.999Z</time></trkpt><trkpt lat="36.94280272300636" lon="15.051024543399334"><ele>313.4</ele><time>2026-04-11T16:59:42.999Z</time></trkpt><trkpt lat="36.94269047659581" lon="15.051083908973077"><ele>314.0</ele><time>2026-04-11T16:59:43.999Z</time></trkpt><trkpt lat="36.94258451113413" lon="15.051140452948975"><ele>310.59999999999997</ele><time>2026-04-11T16:59:44.999Z</time></trkpt><trkpt lat="36.94247830168453" lon="15.051197127119343"><ele>307.2</ele><time>2026-04-11T16:59:45.999Z</time></trkpt><trkpt lat="36.94237510715626" lon="15.051252763938896"><ele>303.79999999999995</ele><time>2026-04-11T16:59:46.999Z</time></trkpt><trkpt lat="36.94227095969244" lon="15.051309408899003"><ele>300.4</ele><time>2026-04-11T16:59:47.999Z</time></trkpt><trkpt lat="36.94217216465785" lon="15.051359211943502"><ele>297.0</ele><time>2026-04-11T16:59:48.999Z</time></trkpt><trkpt lat="36.94207785896899" lon="15.051399019318932"><ele>297.0</ele><time>2026-04-11T16:59:49.999Z</time></trkpt><trkpt lat="36.94200237840683" lon="15.0514129807232"><ele>297.0</ele><time>2026-04-11T16:59:50.999Z</time></trkpt><trkpt lat="36.94187295593217" lon="15.051354939158095"><ele>297.0</ele><time>2026-04-11T16:59:52.999Z</time></trkpt><trkpt lat="36.94185539403821" lon="15.05125053058287"><ele>297.0</ele><time>2026-04-11T16:59:53.999Z</time></trkpt><trkpt lat="36.94187812364831" lon="15.05113577500745"><ele>297.0</ele><time>2026-04-11T16:59:54.999Z</time></trkpt><trkpt lat="36.94193849589875" lon="15.050973540691247"><ele>297.0</ele><time>2026-04-11T16:59:55.999Z</time></trkpt><trkpt lat="36.941968748405536" lon="15.050820135748046"><ele>297.0</ele><time>2026-04-11T16:59:56.999Z</time></trkpt><trkpt lat="36.94198644792993" lon="15.050715006650819"><ele>297.0</ele><time>2026-04-11T16:59:57.999Z</time></trkpt><trkpt lat="36.94199523916827" lon="15.050631385863676"><ele>297.0</ele><time>2026-04-11T16:59:58.999Z</time></trkpt><trkpt lat="36.94198476777166" lon="15.050539118373925"><ele>297.0</ele><time>2026-04-11T16:59:59.999Z</time></trkpt><trkpt lat="36.941941056606204" lon="15.050422909020957"><ele>296.0</ele><time>2026-04-11T17:00:00.999Z</time></trkpt><trkpt lat="36.941842326140396" lon="15.05039336101286"><ele>295.0</ele><time>2026-04-11T17:00:01.999Z</time></trkpt><trkpt lat="36.94172300394479" lon="15.050375964450277"><ele>294.0</ele><time>2026-04-11T17:00:02.999Z</time></trkpt><trkpt lat="36.94157848604266" lon="15.050357144769213"><ele>293.0</ele><time>2026-04-11T17:00:03.999Z</time></trkpt><trkpt lat="36.94136880785662" lon="15.050329839713406"><ele>297.33333333333337</ele><time>2026-04-11T17:00:04.999Z</time></trkpt><trkpt lat="36.94117744513036" lon="15.050312120492393"><ele>301.6666666666667</ele><time>2026-04-11T17:00:05.999Z</time></trkpt><trkpt lat="36.940942874765746" lon="15.05027313535553"><ele>306.0</ele><time>2026-04-11T17:00:06.998Z</time></trkpt><trkpt lat="36.940746445705315" lon="15.050267442594226"><ele>308.75</ele><time>2026-04-11T17:00:07.998Z</time></trkpt><trkpt lat="36.94061296896654" lon="15.050247651441829"><ele>311.5</ele><time>2026-04-11T17:00:08.998Z</time></trkpt><trkpt lat="36.94046852325937" lon="15.050250667918876"><ele>314.25</ele><time>2026-04-11T17:00:09.998Z</time></trkpt><trkpt lat="36.94036653959156" lon="15.050320445204285"><ele>317.0</ele><time>2026-04-11T17:00:10.998Z</time></trkpt><trkpt lat="36.94028223579208" lon="15.050416194246228"><ele>317.0</ele><time>2026-04-11T17:00:11.998Z</time></trkpt><trkpt lat="36.94023664608982" lon="15.050564487074253"><ele>317.0</ele><time>2026-04-11T17:00:12.998Z</time></trkpt><trkpt lat="36.94024168342863" lon="15.050715146828816"><ele>317.0</ele><time>2026-04-11T17:00:13.998Z</time></trkpt><trkpt lat="36.940256931331525" lon="15.050878185519968"><ele>317.0</ele><time>2026-04-11T17:00:14.998Z</time></trkpt><trkpt lat="36.9402442417476" lon="15.051037459622549"><ele>319.5</ele><time>2026-04-11T17:00:15.998Z</time></trkpt><trkpt lat="36.94024556741815" lon="15.051209775976895"><ele>322.0</ele><time>2026-04-11T17:00:16.998Z</time></trkpt><trkpt lat="36.940262012798165" lon="15.051388825701347"><ele>324.5</ele><time>2026-04-11T17:00:17.998Z</time></trkpt><trkpt lat="36.94031002068604" lon="15.051569581078379"><ele>327.0</ele><time>2026-04-11T17:00:18.998Z</time></trkpt><trkpt lat="36.9403957530179" lon="15.05172529058137"><ele>328.0</ele><time>2026-04-11T17:00:19.998Z</time></trkpt><trkpt lat="36.94049345611466" lon="15.051855101049567"><ele>329.0</ele><time>2026-04-11T17:00:20.998Z</time></trkpt><trkpt lat="36.94052640424002" lon="15.052000066165528"><ele>330.0</ele><time>2026-04-11T17:00:21.998Z</time></trkpt><trkpt lat="36.94053084343322" lon="15.052112956324011"><ele>331.0</ele><time>2026-04-11T17:00:23Z</time></trkpt><trkpt lat="36.940477959963225" lon="15.05216685831563"><ele>332.0</ele><time>2026-04-11T17:00:24Z</time></trkpt><trkpt lat="36.94039642149592" lon="15.052216991209967"><ele>332.0</ele><time>2026-04-11T17:00:25Z</time></trkpt><trkpt lat="36.94031625412248" lon="15.05228654886731"><ele>332.0</ele><time>2026-04-11T17:00:26Z</time></trkpt><trkpt lat="36.94022405832839" lon="15.052372234837211"><ele>332.0</ele><time>2026-04-11T17:00:27Z</time></trkpt><trkpt lat="36.940120732374666" lon="15.052480051415886"><ele>332.0</ele><time>2026-04-11T17:00:28Z</time></trkpt><trkpt lat="36.9400190081966" lon="15.05259785441032"><ele>330.75</ele><time>2026-04-11T17:00:29Z</time></trkpt><trkpt lat="36.93992373959274" lon="15.052717308827244"><ele>329.5</ele><time>2026-04-11T17:00:30Z</time></trkpt><trkpt lat="36.93981867259151" lon="15.05285201750761"><ele>328.25</ele><time>2026-04-11T17:00:31Z</time></trkpt><trkpt lat="36.93970840468455" lon="15.05299442337991"><ele>327.0</ele><time>2026-04-11T17:00:32Z</time></trkpt><trkpt lat="36.93963127404396" lon="15.053097494934704"><ele>327.0</ele><time>2026-04-11T17:00:33Z</time></trkpt><trkpt lat="36.9395230708304" lon="15.053252114671407"><ele>327.0</ele><time>2026-04-11T17:00:34Z</time></trkpt><trkpt lat="36.93941696318413" lon="15.053407590531375"><ele>327.0</ele><time>2026-04-11T17:00:35Z</time></trkpt><trkpt lat="36.93930520618435" lon="15.053575321984555"><ele>326.3333333333333</ele><time>2026-04-11T17:00:36Z</time></trkpt><trkpt lat="36.93919386015704" lon="15.053742436634153"><ele>325.66666666666663</ele><time>2026-04-11T17:00:37Z</time></trkpt><trkpt lat="36.93908005801611" lon="15.053912572426636"><ele>325.0</ele><time>2026-04-11T17:00:38Z</time></trkpt><trkpt lat="36.93897020528858" lon="15.054069229490949"><ele>328.66666666666663</ele><time>2026-04-11T17:00:39Z</time></trkpt><trkpt lat="36.93885593283997" lon="15.054218962079673"><ele>332.3333333333333</ele><time>2026-04-11T17:00:40Z</time></trkpt><trkpt lat="36.93872979361385" lon="15.054352577229995"><ele>336.0</ele><time>2026-04-11T17:00:41Z</time></trkpt><trkpt lat="36.938595792818155" lon="15.054472375868686"><ele>336.0</ele><time>2026-04-11T17:00:42Z</time></trkpt><trkpt lat="36.93845282179833" lon="15.054593963702484"><ele>336.0</ele><time>2026-04-11T17:00:43Z</time></trkpt><trkpt lat="36.938306510683304" lon="15.05471839207203"><ele>336.0</ele><time>2026-04-11T17:00:44Z</time></trkpt><trkpt lat="36.93816697530422" lon="15.054837161483295"><ele>335.6666666666667</ele><time>2026-04-11T17:00:45Z</time></trkpt><trkpt lat="36.93802832519549" lon="15.05495863043235"><ele>335.33333333333337</ele><time>2026-04-11T17:00:46Z</time></trkpt><trkpt lat="36.937857122158285" lon="15.055120628291421"><ele>335.0</ele><time>2026-04-11T17:00:47Z</time></trkpt><trkpt lat="36.93772891481957" lon="15.055277719920879"><ele>335.0</ele><time>2026-04-11T17:00:48Z</time></trkpt><trkpt lat="36.93762032944905" lon="15.055460612960104"><ele>335.0</ele><time>2026-04-11T17:00:48.999Z</time></trkpt><trkpt lat="36.93751468668043" lon="15.055638302241336"><ele>335.0</ele><time>2026-04-11T17:00:49.999Z</time></trkpt><trkpt lat="36.93740827590278" lon="15.055818112048978"><ele>333.6666666666667</ele><time>2026-04-11T17:00:50.999Z</time></trkpt><trkpt lat="36.93730297710653" lon="15.055996042869523"><ele>332.3333333333333</ele><time>2026-04-11T17:00:51.999Z</time></trkpt><trkpt lat="36.93719740213471" lon="15.056174440358404"><ele>331.0</ele><time>2026-04-11T17:00:52.999Z</time></trkpt><trkpt lat="36.937093939811845" lon="15.056351671609782"><ele>331.0</ele><time>2026-04-11T17:00:53.999Z</time></trkpt><trkpt lat="36.93699246889042" lon="15.056526689693037"><ele>331.0</ele><time>2026-04-11T17:00:54.999Z</time></trkpt><trkpt lat="36.93688915809833" lon="15.056702378039349"><ele>331.0</ele><time>2026-04-11T17:00:55.999Z</time></trkpt><trkpt lat="36.936785480444904" lon="15.056879353047128"><ele>329.66666666666663</ele><time>2026-04-11T17:00:56.999Z</time></trkpt><trkpt lat="36.93668146905687" lon="15.057057297361965"><ele>328.3333333333333</ele><time>2026-04-11T17:00:57.999Z</time></trkpt><trkpt lat="36.93657822401134" lon="15.057233858064862"><ele>327.0</ele><time>2026-04-11T17:00:58.999Z</time></trkpt><trkpt lat="36.93647415032992" lon="15.057411835738613"><ele>327.0</ele><time>2026-04-11T17:00:59.999Z</time></trkpt><trkpt lat="36.93637077353969" lon="15.057588423477817"><ele>327.0</ele><time>2026-04-11T17:01:00.999Z</time></trkpt><trkpt lat="36.93626626908881" lon="15.057766741050477"><ele>327.0</ele><time>2026-04-11T17:01:01.999Z</time></trkpt><trkpt lat="36.93616338016315" lon="15.0579423952655"><ele>327.0</ele><time>2026-04-11T17:01:02.999Z</time></trkpt><trkpt lat="36.936056315435934" lon="15.058115807586713"><ele>327.0</ele><time>2026-04-11T17:01:03.999Z</time></trkpt><trkpt lat="36.93594222100527" lon="15.058284992137688"><ele>327.0</ele><time>2026-04-11T17:01:04.999Z</time></trkpt><trkpt lat="36.93582236912305" lon="15.05845140974026"><ele>325.6666666666667</ele><time>2026-04-11T17:01:05.999Z</time></trkpt><trkpt lat="36.93569971259474" lon="15.058618601656326"><ele>324.33333333333337</ele><time>2026-04-11T17:01:06.999Z</time></trkpt><trkpt lat="36.93557667178265" lon="15.058785794424988"><ele>323.0</ele><time>2026-04-11T17:01:07.999Z</time></trkpt><trkpt lat="36.9354519296793" lon="15.058955298107529"><ele>324.0</ele><time>2026-04-11T17:01:08.999Z</time></trkpt><trkpt lat="36.93532676060816" lon="15.059125381963401"><ele>325.0</ele><time>2026-04-11T17:01:09.999Z</time></trkpt><trkpt lat="36.93520151079379" lon="15.059298339489244"><ele>326.0</ele><time>2026-04-11T17:01:10.999Z</time></trkpt><trkpt lat="36.93507750781058" lon="15.059468824270471"><ele>324.33333333333337</ele><time>2026-04-11T17:01:11.999Z</time></trkpt><trkpt lat="36.93495316004058" lon="15.059639558119557"><ele>322.6666666666667</ele><time>2026-04-11T17:01:12.999Z</time></trkpt><trkpt lat="36.93482760624162" lon="15.059811123948004"><ele>321.0</ele><time>2026-04-11T17:01:13.999Z</time></trkpt><trkpt lat="36.93470385255968" lon="15.059979656463529"><ele>321.0</ele><time>2026-04-11T17:01:14.999Z</time></trkpt><trkpt lat="36.93457841983696" lon="15.060149060063242"><ele>321.0</ele><time>2026-04-11T17:01:15.999Z</time></trkpt><trkpt lat="36.93445765900818" lon="15.06031912141436"><ele>321.0</ele><time>2026-04-11T17:01:16.999Z</time></trkpt><trkpt lat="36.934345182043444" lon="15.060492086558346"><ele>321.0</ele><time>2026-04-11T17:01:17.999Z</time></trkpt><trkpt lat="36.93426056745947" lon="15.0606723727444"><ele>321.0</ele><time>2026-04-11T17:01:18.999Z</time></trkpt><trkpt lat="36.93422626213548" lon="15.060895055967496"><ele>321.0</ele><time>2026-04-11T17:01:19.999Z</time></trkpt><trkpt lat="36.934213125870585" lon="15.061108226779643"><ele>317.0</ele><time>2026-04-11T17:01:20.999Z</time></trkpt><trkpt lat="36.934202316434344" lon="15.061324309473493"><ele>313.0</ele><time>2026-04-11T17:01:21.999Z</time></trkpt><trkpt lat="36.93419018881413" lon="15.06154250385851"><ele>309.0</ele><time>2026-04-11T17:01:22.999Z</time></trkpt><trkpt lat="36.93415915143618" lon="15.06174968455546"><ele>309.0</ele><time>2026-04-11T17:01:23.999Z</time></trkpt><trkpt lat="36.93409878680501" lon="15.0619399546906"><ele>309.0</ele><time>2026-04-11T17:01:24.999Z</time></trkpt><trkpt lat="36.93404027971739" lon="15.062163601392617"><ele>309.0</ele><time>2026-04-11T17:01:25.999Z</time></trkpt><trkpt lat="36.934001873686235" lon="15.06237789935625"><ele>310.25</ele><time>2026-04-11T17:01:26.999Z</time></trkpt><trkpt lat="36.93396907922692" lon="15.062566826790773"><ele>311.5</ele><time>2026-04-11T17:01:27.999Z</time></trkpt><trkpt lat="36.93393080415303" lon="15.062734855882574"><ele>312.75</ele><time>2026-04-11T17:01:28.999Z</time></trkpt><trkpt lat="36.93387757638132" lon="15.062879445089607"><ele>314.0</ele><time>2026-04-11T17:01:29.999Z</time></trkpt><trkpt lat="36.933821114500475" lon="15.06299854124061"><ele>314.0</ele><time>2026-04-11T17:01:30.999Z</time></trkpt><trkpt lat="36.93376438854819" lon="15.063087286313056"><ele>314.0</ele><time>2026-04-11T17:01:31.999Z</time></trkpt><trkpt lat="36.933647805776424" lon="15.06315414777397"><ele>314.0</ele><time>2026-04-11T17:01:33.999Z</time></trkpt><trkpt lat="36.933583357848775" lon="15.063134238650699"><ele>314.0</ele><time>2026-04-11T17:01:34.999Z</time></trkpt><trkpt lat="36.933532052874895" lon="15.063046819240393"><ele>314.0</ele><time>2026-04-11T17:01:35.999Z</time></trkpt><trkpt lat="36.93350945988467" lon="15.06292687029675"><ele>314.0</ele><time>2026-04-11T17:01:36.999Z</time></trkpt><trkpt lat="36.933510773688994" lon="15.062791814779235"><ele>314.0</ele><time>2026-04-11T17:01:37.999Z</time></trkpt><trkpt lat="36.93353492952718" lon="15.06265758558907"><ele>314.0</ele><time>2026-04-11T17:01:38.999Z</time></trkpt><trkpt lat="36.93355306111439" lon="15.062515434702222"><ele>314.0</ele><time>2026-04-11T17:01:39.999Z</time></trkpt><trkpt lat="36.93355133602136" lon="15.06236806181814"><ele>312.75</ele><time>2026-04-11T17:01:40.999Z</time></trkpt><trkpt lat="36.93354196567873" lon="15.062216689271807"><ele>311.5</ele><time>2026-04-11T17:01:41.999Z</time></trkpt><trkpt lat="36.93353310489543" lon="15.0620599306886"><ele>310.25</ele><time>2026-04-11T17:01:42.999Z</time></trkpt><trkpt lat="36.933519761764956" lon="15.061903108284541"><ele>309.0</ele><time>2026-04-11T17:01:43.999Z</time></trkpt><trkpt lat="36.93349412599112" lon="15.06175243274586"><ele>309.0</ele><time>2026-04-11T17:01:44.999Z</time></trkpt><trkpt lat="36.93343791539481" lon="15.06162181019387"><ele>309.0</ele><time>2026-04-11T17:01:45.999Z</time></trkpt><trkpt lat="36.93335270033299" lon="15.061510228800493"><ele>309.0</ele><time>2026-04-11T17:01:46.999Z</time></trkpt><trkpt lat="36.933253862712874" lon="15.061415675057244"><ele>309.0</ele><time>2026-04-11T17:01:47.999Z</time></trkpt><trkpt lat="36.93315472531295" lon="15.061355283365804"><ele>306.8</ele><time>2026-04-11T17:01:48.999Z</time></trkpt><trkpt lat="36.93305410519573" lon="15.061343650953438"><ele>304.59999999999997</ele><time>2026-04-11T17:01:49.999Z</time></trkpt><trkpt lat="36.93295245717784" lon="15.06137636926481"><ele>302.4</ele><time>2026-04-11T17:01:50.999Z</time></trkpt><trkpt lat="36.93285504409395" lon="15.061447951583776"><ele>300.2</ele><time>2026-04-11T17:01:51.999Z</time></trkpt><trkpt lat="36.93275202731159" lon="15.061505271705741"><ele>298.0</ele><time>2026-04-11T17:01:52.999Z</time></trkpt><trkpt lat="36.93265854850172" lon="15.061583713288748"><ele>297.75</ele><time>2026-04-11T17:01:53.999Z</time></trkpt><trkpt lat="36.93254195924748" lon="15.061598705484075"><ele>297.5</ele><time>2026-04-11T17:01:54.999Z</time></trkpt><trkpt lat="36.93242970594177" lon="15.061644067752647"><ele>297.25</ele><time>2026-04-11T17:01:55.999Z</time></trkpt><trkpt lat="36.932317616651716" lon="15.0616632618463"><ele>297.0</ele><time>2026-04-11T17:01:56.999Z</time></trkpt><trkpt lat="36.932208417095644" lon="15.06169307769911"><ele>301.25</ele><time>2026-04-11T17:01:57.999Z</time></trkpt><trkpt lat="36.93209897266691" lon="15.061737110773064"><ele>305.5</ele><time>2026-04-11T17:01:58.999Z</time></trkpt><trkpt lat="36.93199024074705" lon="15.061780524382227"><ele>309.75</ele><time>2026-04-11T17:01:59.999Z</time></trkpt><trkpt lat="36.93188214564712" lon="15.061827885050919"><ele>314.0</ele><time>2026-04-11T17:02:00.999Z</time></trkpt><trkpt lat="36.93177456019244" lon="15.06187712403537"><ele>312.75</ele><time>2026-04-11T17:02:01.999Z</time></trkpt><trkpt lat="36.931662133186265" lon="15.061911781393187"><ele>311.5</ele><time>2026-04-11T17:02:02.999Z</time></trkpt><trkpt lat="36.931557606579936" lon="15.06197627032101"><ele>310.25</ele><time>2026-04-11T17:02:03.999Z</time></trkpt><trkpt lat="36.931458670501264" lon="15.062047779970303"><ele>309.0</ele><time>2026-04-11T17:02:04.999Z</time></trkpt><trkpt lat="36.93135883370609" lon="15.062121067678094"><ele>309.0</ele><time>2026-04-11T17:02:05.999Z</time></trkpt><trkpt lat="36.93125923413709" lon="15.062195405865477"><ele>309.0</ele><time>2026-04-11T17:02:06.999Z</time></trkpt><trkpt lat="36.93116007194129" lon="15.062279210294133"><ele>309.0</ele><time>2026-04-11T17:02:07.998Z</time></trkpt><trkpt lat="36.931066349923334" lon="15.0623757001813"><ele>309.0</ele><time>2026-04-11T17:02:08.998Z</time></trkpt><trkpt lat="36.930976002908466" lon="15.062476079147194"><ele>312.25</ele><time>2026-04-11T17:02:09.998Z</time></trkpt><trkpt lat="36.930885871903264" lon="15.062577053312117"><ele>315.5</ele><time>2026-04-11T17:02:10.998Z</time></trkpt><trkpt lat="36.93079624718923" lon="15.0626774595247"><ele>318.75</ele><time>2026-04-11T17:02:11.998Z</time></trkpt><trkpt lat="36.93070481938631" lon="15.062779887238486"><ele>322.0</ele><time>2026-04-11T17:02:12.998Z</time></trkpt><trkpt lat="36.93061386836303" lon="15.062881779727174"><ele>322.0</ele><time>2026-04-11T17:02:13.998Z</time></trkpt><trkpt lat="36.93052227123779" lon="15.062984396069512"><ele>322.0</ele><time>2026-04-11T17:02:14.998Z</time></trkpt><trkpt lat="36.930432854287844" lon="15.063084569659102"><ele>322.0</ele><time>2026-04-11T17:02:15.998Z</time></trkpt><trkpt lat="36.93034410965619" lon="15.06318335777938"><ele>322.0</ele><time>2026-04-11T17:02:16.998Z</time></trkpt><trkpt lat="36.93025831862262" lon="15.063279102352698"><ele>322.6</ele><time>2026-04-11T17:02:17.998Z</time></trkpt><trkpt lat="36.93017464066356" lon="15.06337248868398"><ele>323.20000000000005</ele><time>2026-04-11T17:02:18.998Z</time></trkpt><trkpt lat="36.93009244197734" lon="15.063464128220264"><ele>323.8</ele><time>2026-04-11T17:02:19.998Z</time></trkpt><trkpt lat="36.93001644465984" lon="15.063548362316666"><ele>324.4</ele><time>2026-04-11T17:02:20.998Z</time></trkpt><trkpt lat="36.92995220501389" lon="15.063619564409066"><ele>325.0</ele><time>2026-04-11T17:02:21.998Z</time></trkpt><trkpt lat="36.929891342933914" lon="15.06368702287304"><ele>325.0</ele><time>2026-04-11T17:02:22.998Z</time></trkpt><trkpt lat="36.92983320835397" lon="15.063751458231824"><ele>325.0</ele><time>2026-04-11T17:02:23.998Z</time></trkpt><trkpt lat="36.92978021980717" lon="15.063810189823123"><ele>325.0</ele><time>2026-04-11T17:02:24.998Z</time></trkpt><trkpt lat="36.92971185788127" lon="15.063909663252833"><ele>325.0</ele><time>2026-04-11T17:02:26.998Z</time></trkpt><trkpt lat="36.92964486474993" lon="15.06397090758066"><ele>325.0</ele><time>2026-04-11T17:03:50.999Z</time></trkpt><trkpt lat="36.9295511963071" lon="15.064059560780104"><ele>325.4</ele><time>2026-04-11T17:03:52.999Z</time></trkpt><trkpt lat="36.92948132774757" lon="15.064129391834696"><ele>325.8</ele><time>2026-04-11T17:03:53.999Z</time></trkpt><trkpt lat="36.92939110415297" lon="15.064184646629966"><ele>326.20000000000005</ele><time>2026-04-11T17:03:54.999Z</time></trkpt><trkpt lat="36.929294826560344" lon="15.064241044553196"><ele>326.6</ele><time>2026-04-11T17:03:55.999Z</time></trkpt><trkpt lat="36.9291848132757" lon="15.064247026151488"><ele>327.0</ele><time>2026-04-11T17:03:56.999Z</time></trkpt><trkpt lat="36.92907075695278" lon="15.064225497123937"><ele>327.20000000000005</ele><time>2026-04-11T17:03:57.999Z</time></trkpt><trkpt lat="36.92896010964797" lon="15.064204074120724"><ele>327.4</ele><time>2026-04-11T17:03:58.999Z</time></trkpt><trkpt lat="36.92886079963" lon="15.064198162605875"><ele>327.6</ele><time>2026-04-11T17:03:59.999Z</time></trkpt><trkpt lat="36.92875889066737" lon="15.064220509522306"><ele>327.79999999999995</ele><time>2026-04-11T17:04:00.999Z</time></trkpt><trkpt lat="36.92865888546131" lon="15.064252326866866"><ele>328.0</ele><time>2026-04-11T17:04:01.999Z</time></trkpt><trkpt lat="36.92856926956593" lon="15.064322479623218"><ele>328.0</ele><time>2026-04-11T17:04:02.999Z</time></trkpt><trkpt lat="36.92848614903161" lon="15.064407302784204"><ele>328.0</ele><time>2026-04-11T17:04:03.999Z</time></trkpt><trkpt lat="36.92840322935854" lon="15.06449469883051"><ele>328.0</ele><time>2026-04-11T17:04:04.999Z</time></trkpt><trkpt lat="36.92831702970909" lon="15.064585551933005"><ele>328.0</ele><time>2026-04-11T17:04:05.999Z</time></trkpt><trkpt lat="36.928228943246076" lon="15.06467798917779"><ele>328.0</ele><time>2026-04-11T17:04:06.999Z</time></trkpt><trkpt lat="36.92814064631335" lon="15.064768515204065"><ele>328.4</ele><time>2026-04-11T17:04:07.999Z</time></trkpt><trkpt lat="36.92805288417931" lon="15.06485811972286"><ele>328.79999999999995</ele><time>2026-04-11T17:04:08.999Z</time></trkpt><trkpt lat="36.927965308621516" lon="15.064942161642255"><ele>329.2</ele><time>2026-04-11T17:04:09.998Z</time></trkpt><trkpt lat="36.92787645769314" lon="15.065019215116477"><ele>329.6</ele><time>2026-04-11T17:04:10.998Z</time></trkpt><trkpt lat="36.92778882433663" lon="15.06508696124782"><ele>330.0</ele><time>2026-04-11T17:04:11.998Z</time></trkpt><trkpt lat="36.92770675665675" lon="15.065128613331371"><ele>329.8</ele><time>2026-04-11T17:04:12.998Z</time></trkpt><trkpt lat="36.92762569267399" lon="15.065136382918636"><ele>329.6</ele><time>2026-04-11T17:04:13.998Z</time></trkpt><trkpt lat="36.927553618295015" lon="15.06509492532601"><ele>329.4</ele><time>2026-04-11T17:04:14.998Z</time></trkpt><trkpt lat="36.927483520359" lon="15.065019869958189"><ele>329.2</ele><time>2026-04-11T17:04:15.998Z</time></trkpt><trkpt lat="36.92741112764276" lon="15.064933022913957"><ele>329.0</ele><time>2026-04-11T17:04:16.998Z</time></trkpt><trkpt lat="36.92733512345388" lon="15.06484118767706"><ele>327.5</ele><time>2026-04-11T17:04:17.998Z</time></trkpt><trkpt lat="36.92725599746404" lon="15.064743579488193"><ele>326.0</ele><time>2026-04-11T17:04:18.998Z</time></trkpt><trkpt lat="36.92717213411576" lon="15.06465442799266"><ele>324.5</ele><time>2026-04-11T17:04:19.998Z</time></trkpt><trkpt lat="36.927071668958384" lon="15.064585797464272"><ele>323.0</ele><time>2026-04-11T17:04:20.998Z</time></trkpt><trkpt lat="36.92695126847556" lon="15.064534279882311"><ele>323.0</ele><time>2026-04-11T17:04:21.998Z</time></trkpt><trkpt lat="36.92681545866656" lon="15.064510999931858"><ele>323.0</ele><time>2026-04-11T17:04:22.998Z</time></trkpt><trkpt lat="36.92667755083643" lon="15.064499103398868"><ele>323.0</ele><time>2026-04-11T17:04:23.998Z</time></trkpt><trkpt lat="36.92655169324301" lon="15.06449296942504"><ele>323.0</ele><time>2026-04-11T17:04:24.998Z</time></trkpt><trkpt lat="36.926429892252216" lon="15.064481637553595"><ele>321.0</ele><time>2026-04-11T17:04:25.998Z</time></trkpt><trkpt lat="36.92631710359303" lon="15.064555994734304"><ele>319.0</ele><time>2026-04-11T17:04:26.998Z</time></trkpt><trkpt lat="36.926195650785886" lon="15.064600773767959"><ele>317.0</ele><time>2026-04-11T17:04:27.998Z</time></trkpt><trkpt lat="36.92608041798052" lon="15.064661861848418"><ele>315.0</ele><time>2026-04-11T17:04:28.998Z</time></trkpt><trkpt lat="36.925969470136835" lon="15.064718269904862"><ele>313.0</ele><time>2026-04-11T17:04:29.998Z</time></trkpt><trkpt lat="36.92585929904114" lon="15.064767648737748"><ele>311.0</ele><time>2026-04-11T17:04:30.998Z</time></trkpt><trkpt lat="36.92574825398101" lon="15.064789414970903"><ele>309.0</ele><time>2026-04-11T17:04:31.998Z</time></trkpt><trkpt lat="36.92563833313892" lon="15.064762052938544"><ele>307.0</ele><time>2026-04-11T17:04:32.998Z</time></trkpt><trkpt lat="36.925527859049666" lon="15.064740801301202"><ele>307.0</ele><time>2026-04-11T17:04:33.998Z</time></trkpt><trkpt lat="36.92540423057732" lon="15.064718797691961"><ele>307.0</ele><time>2026-04-11T17:04:35Z</time></trkpt><trkpt lat="36.925279174367475" lon="15.06467930695768"><ele>307.0</ele><time>2026-04-11T17:04:36Z</time></trkpt><trkpt lat="36.92516184563319" lon="15.064618394030267"><ele>307.0</ele><time>2026-04-11T17:04:37Z</time></trkpt><trkpt lat="36.925048664966546" lon="15.064550776422506"><ele>306.0</ele><time>2026-04-11T17:04:38Z</time></trkpt><trkpt lat="36.9249320407679" lon="15.064486686137236"><ele>305.0</ele><time>2026-04-11T17:04:39Z</time></trkpt><trkpt lat="36.92480909032546" lon="15.064426755126433"><ele>304.0</ele><time>2026-04-11T17:04:40Z</time></trkpt><trkpt lat="36.924680688151426" lon="15.064367367978582"><ele>303.0</ele><time>2026-04-11T17:04:41Z</time></trkpt><trkpt lat="36.924548848131685" lon="15.064310086283628"><ele>303.0</ele><time>2026-04-11T17:04:42Z</time></trkpt><trkpt lat="36.92441685560779" lon="15.064256114747955"><ele>303.0</ele><time>2026-04-11T17:04:43Z</time></trkpt><trkpt lat="36.924285142815364" lon="15.064210908491589"><ele>303.0</ele><time>2026-04-11T17:04:44Z</time></trkpt><trkpt lat="36.92415591259123" lon="15.064180105085365"><ele>303.0</ele><time>2026-04-11T17:04:45Z</time></trkpt><trkpt lat="36.92402849681866" lon="15.06416423616483"><ele>302.75</ele><time>2026-04-11T17:04:46Z</time></trkpt><trkpt lat="36.92390331758916" lon="15.064159996531952"><ele>302.5</ele><time>2026-04-11T17:04:47Z</time></trkpt><trkpt lat="36.92377934647738" lon="15.064172119090298"><ele>302.25</ele><time>2026-04-11T17:04:48Z</time></trkpt><trkpt lat="36.9236605571684" lon="15.064208323250543"><ele>302.0</ele><time>2026-04-11T17:04:49Z</time></trkpt><trkpt lat="36.923542946362225" lon="15.064249010708497"><ele>302.0</ele><time>2026-04-11T17:04:50Z</time></trkpt><trkpt lat="36.92343505894472" lon="15.064324322477635"><ele>302.0</ele><time>2026-04-11T17:04:51Z</time></trkpt><trkpt lat="36.92332833100225" lon="15.064399702303405"><ele>302.0</ele><time>2026-04-11T17:04:52Z</time></trkpt><trkpt lat="36.923221049045964" lon="15.064479678909033"><ele>302.0</ele><time>2026-04-11T17:04:53Z</time></trkpt><trkpt lat="36.9231139946955" lon="15.064560909843534"><ele>298.75</ele><time>2026-04-11T17:04:53.999Z</time></trkpt><trkpt lat="36.923005295769165" lon="15.064642520359131"><ele>295.5</ele><time>2026-04-11T17:04:54.999Z</time></trkpt><trkpt lat="36.922891623477305" lon="15.064726275634342"><ele>292.25</ele><time>2026-04-11T17:04:55.999Z</time></trkpt><trkpt lat="36.92277182128861" lon="15.064814547483076"><ele>289.0</ele><time>2026-04-11T17:04:56.999Z</time></trkpt><trkpt lat="36.922650847365446" lon="15.064903756359355"><ele>289.25</ele><time>2026-04-11T17:04:57.999Z</time></trkpt><trkpt lat="36.922525651195805" lon="15.064996353799105"><ele>289.5</ele><time>2026-04-11T17:04:58.999Z</time></trkpt><trkpt lat="36.922397825127476" lon="15.065090896352656"><ele>289.75</ele><time>2026-04-11T17:04:59.999Z</time></trkpt><trkpt lat="36.92227860316152" lon="15.065184056440536"><ele>290.0</ele><time>2026-04-11T17:05:00.999Z</time></trkpt><trkpt lat="36.92217021459524" lon="15.065268362198797"><ele>290.0</ele><time>2026-04-11T17:05:01.999Z</time></trkpt><trkpt lat="36.922072980614516" lon="15.065343442913289"><ele>290.0</ele><time>2026-04-11T17:05:02.999Z</time></trkpt><trkpt lat="36.92199040520951" lon="15.065407204771754"><ele>290.0</ele><time>2026-04-11T17:05:03.999Z</time></trkpt><trkpt lat="36.92191513055749" lon="15.06546887862548"><ele>290.0</ele><time>2026-04-11T17:05:04.999Z</time></trkpt><trkpt lat="36.92185252824629" lon="15.065539228570463"><ele>290.0</ele><time>2026-04-11T17:05:06.999Z</time></trkpt><trkpt lat="36.92191793610468" lon="15.065435817229133"><ele>290.0</ele><time>2026-04-11T17:07:33Z</time></trkpt><trkpt lat="36.92197911528093" lon="15.065363884359742"><ele>290.0</ele><time>2026-04-11T17:07:34Z</time></trkpt><trkpt lat="36.92204504789366" lon="15.06527440509766"><ele>290.0</ele><time>2026-04-11T17:07:35Z</time></trkpt><trkpt lat="36.92212122651014" lon="15.06517756894794"><ele>290.0</ele><time>2026-04-11T17:07:36Z</time></trkpt><trkpt lat="36.9222035183983" lon="15.065065313090699"><ele>290.0</ele><time>2026-04-11T17:07:37Z</time></trkpt><trkpt lat="36.92229734603313" lon="15.064948830970497"><ele>289.75</ele><time>2026-04-11T17:07:38Z</time></trkpt><trkpt lat="36.922395257293786" lon="15.064828016918085"><ele>289.5</ele><time>2026-04-11T17:07:39Z</time></trkpt><trkpt lat="36.9224841902577" lon="15.06472259160601"><ele>289.25</ele><time>2026-04-11T17:07:40Z</time></trkpt><trkpt lat="36.922562781978115" lon="15.064625577572487"><ele>289.0</ele><time>2026-04-11T17:07:41Z</time></trkpt><trkpt lat="36.92263603717206" lon="15.064542254509108"><ele>289.0</ele><time>2026-04-11T17:07:42Z</time></trkpt><trkpt lat="36.92273542509934" lon="15.06448324372437"><ele>289.0</ele><time>2026-04-11T17:07:43Z</time></trkpt><trkpt lat="36.92283526246231" lon="15.06442139375754"><ele>289.0</ele><time>2026-04-11T17:07:44Z</time></trkpt><trkpt lat="36.922917818365114" lon="15.064363598717676"><ele>289.0</ele><time>2026-04-11T17:07:45Z</time></trkpt><trkpt lat="36.92299293085045" lon="15.064302014658061"><ele>289.0</ele><time>2026-04-11T17:07:46Z</time></trkpt><trkpt lat="36.92304229196356" lon="15.064237138993942"><ele>289.0</ele><time>2026-04-11T17:07:47Z</time></trkpt><trkpt lat="36.92309225895071" lon="15.064144303053693"><ele>289.0</ele><time>2026-04-11T17:07:49Z</time></trkpt><trkpt lat="36.92310521924034" lon="15.064057633186245"><ele>289.0</ele><time>2026-04-11T17:07:51Z</time></trkpt><trkpt lat="36.92305264817612" lon="15.063934530951657"><ele>289.0</ele><time>2026-04-11T17:07:53Z</time></trkpt><trkpt lat="36.92292790779127" lon="15.063897419933836"><ele>289.0</ele><time>2026-04-11T17:07:55Z</time></trkpt><trkpt lat="36.92285313509572" lon="15.063887523525686"><ele>289.25</ele><time>2026-04-11T17:07:56Z</time></trkpt><trkpt lat="36.92273619140561" lon="15.063945906368792"><ele>289.5</ele><time>2026-04-11T17:07:57Z</time></trkpt><trkpt lat="36.92262137066827" lon="15.06402382715228"><ele>289.75</ele><time>2026-04-11T17:07:58Z</time></trkpt><trkpt lat="36.922497778051834" lon="15.063995601165981"><ele>290.0</ele><time>2026-04-11T17:07:59Z</time></trkpt><trkpt lat="36.92238462868783" lon="15.063962250561643"><ele>290.0</ele><time>2026-04-11T17:08:00Z</time></trkpt><trkpt lat="36.92225018008405" lon="15.063947030697245"><ele>290.0</ele><time>2026-04-11T17:08:01Z</time></trkpt><trkpt lat="36.922105367895185" lon="15.06392553382959"><ele>290.0</ele><time>2026-04-11T17:08:02Z</time></trkpt><trkpt lat="36.92196795209306" lon="15.063948448843778"><ele>290.0</ele><time>2026-04-11T17:08:03Z</time></trkpt><trkpt lat="36.921832714355304" lon="15.063971014063132"><ele>290.0</ele><time>2026-04-11T17:08:04Z</time></trkpt><trkpt lat="36.921686311100224" lon="15.063993174742011"><ele>290.0</ele><time>2026-04-11T17:08:05Z</time></trkpt><trkpt lat="36.92161557100862" lon="15.063993537306043"><ele>290.0</ele><time>2026-04-11T17:08:06Z</time></trkpt><trkpt lat="36.92164144092173" lon="15.063891636547982"><ele>290.0</ele><time>2026-04-11T17:08:10Z</time></trkpt><trkpt lat="36.9217281423641" lon="15.063879592153684"><ele>290.0</ele><time>2026-04-11T17:08:11Z</time></trkpt><trkpt lat="36.92181695275692" lon="15.063838538563678"><ele>290.0</ele><time>2026-04-11T17:08:11.999Z</time></trkpt><trkpt lat="36.92191027801683" lon="15.06380873626685"><ele>290.0</ele><time>2026-04-11T17:08:12.999Z</time></trkpt><trkpt lat="36.921993947968105" lon="15.063789743165897"><ele>290.0</ele><time>2026-04-11T17:08:14.999Z</time></trkpt><trkpt lat="36.92200156861122" lon="15.063618375074219"><ele>290.0</ele><time>2026-04-11T17:08:16.999Z</time></trkpt><trkpt lat="36.921963777221606" lon="15.063552644107512"><ele>290.0</ele><time>2026-04-11T17:08:17.999Z</time></trkpt><trkpt lat="36.921845608876176" lon="15.063573028335677"><ele>289.8</ele><time>2026-04-11T17:08:18.999Z</time></trkpt><trkpt lat="36.92172580196272" lon="15.063567571582537"><ele>289.6</ele><time>2026-04-11T17:08:19.999Z</time></trkpt><trkpt lat="36.921616168532225" lon="15.063563132802809"><ele>289.4</ele><time>2026-04-11T17:08:20.999Z</time></trkpt><trkpt lat="36.92149325913445" lon="15.063554737256236"><ele>289.2</ele><time>2026-04-11T17:08:21.999Z</time></trkpt><trkpt lat="36.921412978732405" lon="15.063531697526354"><ele>289.0</ele><time>2026-04-11T17:08:22.999Z</time></trkpt><trkpt lat="36.92138939444755" lon="15.063384503319368"><ele>289.25</ele><time>2026-04-11T17:08:24.999Z</time></trkpt><trkpt lat="36.92139043741823" lon="15.063263260164112"><ele>289.5</ele><time>2026-04-11T17:08:25.999Z</time></trkpt><trkpt lat="36.921369827043954" lon="15.063108598239793"><ele>289.75</ele><time>2026-04-11T17:08:26.999Z</time></trkpt><trkpt lat="36.92129695123502" lon="15.062963926471587"><ele>290.0</ele><time>2026-04-11T17:08:27.999Z</time></trkpt><trkpt lat="36.92122785591356" lon="15.062789241557669"><ele>290.0</ele><time>2026-04-11T17:08:28.999Z</time></trkpt><trkpt lat="36.92112912671644" lon="15.06260185784606"><ele>290.0</ele><time>2026-04-11T17:08:29.999Z</time></trkpt><trkpt lat="36.92103568705664" lon="15.062404475125907"><ele>290.0</ele><time>2026-04-11T17:08:30.999Z</time></trkpt><trkpt lat="36.920936685142514" lon="15.062173530460784"><ele>291.25</ele><time>2026-04-11T17:08:31.999Z</time></trkpt><trkpt lat="36.92085387157596" lon="15.061990090199314"><ele>292.5</ele><time>2026-04-11T17:08:32.999Z</time></trkpt><trkpt lat="36.92079157432631" lon="15.06186824879629"><ele>293.75</ele><time>2026-04-11T17:08:33.999Z</time></trkpt><trkpt lat="36.92072317187627" lon="15.061746525256448"><ele>295.0</ele><time>2026-04-11T17:08:34.999Z</time></trkpt><trkpt lat="36.92061330023877" lon="15.061705067702706"><ele>295.0</ele><time>2026-04-11T17:08:36.999Z</time></trkpt><trkpt lat="36.920508366102666" lon="15.061748204447179"><ele>295.0</ele><time>2026-04-11T17:08:38.999Z</time></trkpt><trkpt lat="36.920554538550086" lon="15.06193603604428"><ele>295.0</ele><time>2026-04-11T17:08:39.999Z</time></trkpt><trkpt lat="36.92058546169332" lon="15.062033650893849"><ele>295.0</ele><time>2026-04-11T17:08:40.999Z</time></trkpt><trkpt lat="36.92062188585897" lon="15.062146713715215"><ele>295.0</ele><time>2026-04-11T17:08:41.999Z</time></trkpt><trkpt lat="36.92067526338187" lon="15.062341747079369"><ele>297.66666666666663</ele><time>2026-04-11T17:08:42.999Z</time></trkpt><trkpt lat="36.92070762110493" lon="15.062567420234569"><ele>300.3333333333333</ele><time>2026-04-11T17:08:43.999Z</time></trkpt><trkpt lat="36.92074543164152" lon="15.062775258981704"><ele>303.0</ele><time>2026-04-11T17:08:44.999Z</time></trkpt><trkpt lat="36.92077755649776" lon="15.062960426305764"><ele>303.0</ele><time>2026-04-11T17:08:46Z</time></trkpt><trkpt lat="36.92079067510598" lon="15.063123332097886"><ele>303.0</ele><time>2026-04-11T17:08:47Z</time></trkpt><trkpt lat="36.92076486773699" lon="15.06325126999058"><ele>303.0</ele><time>2026-04-11T17:08:49Z</time></trkpt><trkpt lat="36.92070821566591" lon="15.063203044811731"><ele>303.0</ele><time>2026-04-11T17:08:50Z</time></trkpt><trkpt lat="36.92071894728224" lon="15.063123502580824"><ele>303.0</ele><time>2026-04-11T17:08:52Z</time></trkpt><trkpt lat="36.92066899528728" lon="15.062937615306021"><ele>303.0</ele><time>2026-04-11T17:08:54Z</time></trkpt><trkpt lat="36.92062185232559" lon="15.062829996278051"><ele>303.0</ele><time>2026-04-11T17:08:55Z</time></trkpt><trkpt lat="36.92055433838735" lon="15.062711147588677"><ele>303.0</ele><time>2026-04-11T17:08:56Z</time></trkpt><trkpt lat="36.92049109656473" lon="15.06256895416984"><ele>303.0</ele><time>2026-04-11T17:08:57Z</time></trkpt><trkpt lat="36.92040134063617" lon="15.062451574716544"><ele>301.0</ele><time>2026-04-11T17:08:58Z</time></trkpt><trkpt lat="36.92031206387806" lon="15.06233881768325"><ele>299.0</ele><time>2026-04-11T17:08:59Z</time></trkpt><trkpt lat="36.92020341803647" lon="15.062227120107503"><ele>297.0</ele><time>2026-04-11T17:09:00Z</time></trkpt><trkpt lat="36.92010623528645" lon="15.06209628155307"><ele>295.0</ele><time>2026-04-11T17:09:01Z</time></trkpt><trkpt lat="36.92002058967942" lon="15.062001399738737"><ele>298.8333333333333</ele><time>2026-04-11T17:09:02Z</time></trkpt><trkpt lat="36.91996069824367" lon="15.06194761849022"><ele>302.66666666666663</ele><time>2026-04-11T17:09:03Z</time></trkpt><trkpt lat="36.91989547081918" lon="15.061916339983714"><ele>306.5</ele><time>2026-04-11T17:09:04Z</time></trkpt><trkpt lat="36.91981312038581" lon="15.06195047426681"><ele>310.3333333333333</ele><time>2026-04-11T17:09:06Z</time></trkpt><trkpt lat="36.91982312117243" lon="15.061857922026302"><ele>314.1666666666667</ele><time>2026-04-11T17:09:07Z</time></trkpt><trkpt lat="36.91974248825563" lon="15.061900645524268"><ele>318.0</ele><time>2026-04-11T17:09:10Z</time></trkpt><trkpt lat="36.91970791249982" lon="15.062027112798164"><ele>318.0</ele><time>2026-04-11T17:09:12Z</time></trkpt><trkpt lat="36.91953563183056" lon="15.062014157167512"><ele>318.0</ele><time>2026-04-11T17:09:13Z</time></trkpt><trkpt lat="36.919404147322254" lon="15.061826993593108"><ele>318.0</ele><time>2026-04-11T17:09:14Z</time></trkpt><trkpt lat="36.9192966797679" lon="15.061805854921115"><ele>317.8</ele><time>2026-04-11T17:09:15Z</time></trkpt><trkpt lat="36.91920336690913" lon="15.061781180115856"><ele>317.6</ele><time>2026-04-11T17:09:16Z</time></trkpt><trkpt lat="36.91912334176402" lon="15.06176955203683"><ele>317.4</ele><time>2026-04-11T17:09:17Z</time></trkpt><trkpt lat="36.91902768041438" lon="15.061765477323979"><ele>317.2</ele><time>2026-04-11T17:09:18Z</time></trkpt><trkpt lat="36.91892098655364" lon="15.061772450069057"><ele>317.0</ele><time>2026-04-11T17:09:19Z</time></trkpt><trkpt lat="36.91881392189998" lon="15.061775350188842"><ele>317.0</ele><time>2026-04-11T17:09:20Z</time></trkpt><trkpt lat="36.91871759128798" lon="15.061774461030488"><ele>317.0</ele><time>2026-04-11T17:09:21Z</time></trkpt><trkpt lat="36.91861280614564" lon="15.061780397774866"><ele>317.0</ele><time>2026-04-11T17:09:22Z</time></trkpt><trkpt lat="36.91849733915334" lon="15.0617943902979"><ele>317.0</ele><time>2026-04-11T17:09:23Z</time></trkpt><trkpt lat="36.91837416113247" lon="15.061805594730313"><ele>317.0</ele><time>2026-04-11T17:09:24Z</time></trkpt><trkpt lat="36.918247393488784" lon="15.061809931865746"><ele>315.25</ele><time>2026-04-11T17:09:25Z</time></trkpt><trkpt lat="36.918120653102264" lon="15.061812297642655"><ele>313.5</ele><time>2026-04-11T17:09:26Z</time></trkpt><trkpt lat="36.91799944988679" lon="15.061816262783445"><ele>311.75</ele><time>2026-04-11T17:09:27Z</time></trkpt><trkpt lat="36.9178843070245" lon="15.061821767825897"><ele>310.0</ele><time>2026-04-11T17:09:28Z</time></trkpt><trkpt lat="36.91776480988801" lon="15.061822931673548"><ele>310.0</ele><time>2026-04-11T17:09:29Z</time></trkpt><trkpt lat="36.91764756375239" lon="15.0618273085911"><ele>310.0</ele><time>2026-04-11T17:09:30Z</time></trkpt><trkpt lat="36.91752861029569" lon="15.061833933564273"><ele>310.0</ele><time>2026-04-11T17:09:31Z</time></trkpt><trkpt lat="36.917407828208574" lon="15.061842109820255"><ele>310.0</ele><time>2026-04-11T17:09:32Z</time></trkpt><trkpt lat="36.91729839911982" lon="15.061849115546604"><ele>309.6</ele><time>2026-04-11T17:09:33Z</time></trkpt><trkpt lat="36.91720288010275" lon="15.061859928552872"><ele>309.2</ele><time>2026-04-11T17:09:34Z</time></trkpt><trkpt lat="36.91710680305378" lon="15.061865182012099"><ele>308.8</ele><time>2026-04-11T17:09:35Z</time></trkpt><trkpt lat="36.917015907750006" lon="15.061860810462589"><ele>308.4</ele><time>2026-04-11T17:09:36Z</time></trkpt><trkpt lat="36.91692128805355" lon="15.061845142957585"><ele>308.0</ele><time>2026-04-11T17:09:37Z</time></trkpt><trkpt lat="36.91680601578507" lon="15.061812912240804"><ele>307.4</ele><time>2026-04-11T17:09:38Z</time></trkpt><trkpt lat="36.91669087568936" lon="15.06176349225833"><ele>306.8</ele><time>2026-04-11T17:09:39Z</time></trkpt><trkpt lat="36.916602095412344" lon="15.061724028135666"><ele>306.2</ele><time>2026-04-11T17:09:40Z</time></trkpt><trkpt lat="36.91652964310168" lon="15.061668189347698"><ele>305.6</ele><time>2026-04-11T17:09:41Z</time></trkpt><trkpt lat="36.91646178136243" lon="15.061583855141967"><ele>305.0</ele><time>2026-04-11T17:09:42Z</time></trkpt><trkpt lat="36.916390406824924" lon="15.061476024160811"><ele>306.8</ele><time>2026-04-11T17:09:43Z</time></trkpt><trkpt lat="36.91634968695088" lon="15.06133116360178"><ele>308.6</ele><time>2026-04-11T17:09:44Z</time></trkpt><trkpt lat="36.91627517878701" lon="15.06122470348004"><ele>310.4</ele><time>2026-04-11T17:09:45Z</time></trkpt><trkpt lat="36.916221623779656" lon="15.06113430017141"><ele>312.2</ele><time>2026-04-11T17:09:46Z</time></trkpt><trkpt lat="36.91617427707708" lon="15.061030127494414"><ele>314.0</ele><time>2026-04-11T17:09:47Z</time></trkpt><trkpt lat="36.91609890965136" lon="15.06092913521396"><ele>314.0</ele><time>2026-04-11T17:09:48Z</time></trkpt><trkpt lat="36.916022026909395" lon="15.060852104601187"><ele>314.0</ele><time>2026-04-11T17:09:49Z</time></trkpt><trkpt lat="36.91593369257325" lon="15.06078221718505"><ele>314.0</ele><time>2026-04-11T17:09:50Z</time></trkpt><trkpt lat="36.915832069736894" lon="15.060729865606346"><ele>314.0</ele><time>2026-04-11T17:09:51Z</time></trkpt><trkpt lat="36.915737865394895" lon="15.060705058951022"><ele>314.0</ele><time>2026-04-11T17:09:52Z</time></trkpt><trkpt lat="36.915626671850895" lon="15.060708740014004"><ele>313.59999999999997</ele><time>2026-04-11T17:09:53Z</time></trkpt><trkpt lat="36.915514461571725" lon="15.060726741754754"><ele>313.2</ele><time>2026-04-11T17:09:54Z</time></trkpt><trkpt lat="36.915399016253275" lon="15.060747171938027"><ele>312.79999999999995</ele><time>2026-04-11T17:09:55Z</time></trkpt><trkpt lat="36.91529923985935" lon="15.060761098400155"><ele>312.4</ele><time>2026-04-11T17:09:56Z</time></trkpt><trkpt lat="36.915208673585525" lon="15.060772427962515"><ele>312.0</ele><time>2026-04-11T17:09:57Z</time></trkpt><trkpt lat="36.9151047210818" lon="15.06078543212561"><ele>310.6</ele><time>2026-04-11T17:09:58Z</time></trkpt><trkpt lat="36.915006622101416" lon="15.060790540010565"><ele>309.2</ele><time>2026-04-11T17:09:59Z</time></trkpt><trkpt lat="36.91491928051201" lon="15.06077183714817"><ele>307.8</ele><time>2026-04-11T17:10:00Z</time></trkpt><trkpt lat="36.91482807587831" lon="15.060736912507688"><ele>306.4</ele><time>2026-04-11T17:10:01Z</time></trkpt><trkpt lat="36.91473439334334" lon="15.06067668635041"><ele>305.0</ele><time>2026-04-11T17:10:02Z</time></trkpt><trkpt lat="36.914635597159645" lon="15.060618138305358"><ele>305.0</ele><time>2026-04-11T17:10:03Z</time></trkpt><trkpt lat="36.914540214386726" lon="15.06056402336793"><ele>305.0</ele><time>2026-04-11T17:10:04Z</time></trkpt><trkpt lat="36.9144370424665" lon="15.06053513483849"><ele>305.0</ele><time>2026-04-11T17:10:05Z</time></trkpt><trkpt lat="36.91434002530215" lon="15.06050101595086"><ele>305.0</ele><time>2026-04-11T17:10:06Z</time></trkpt><trkpt lat="36.914245317626886" lon="15.060451548133836"><ele>305.0</ele><time>2026-04-11T17:10:07Z</time></trkpt><trkpt lat="36.91414672650681" lon="15.060399392932327"><ele>301.2</ele><time>2026-04-11T17:10:08Z</time></trkpt><trkpt lat="36.914050257201126" lon="15.060345744059054"><ele>297.4</ele><time>2026-04-11T17:10:09Z</time></trkpt><trkpt lat="36.91397595932824" lon="15.060266059851648"><ele>293.6</ele><time>2026-04-11T17:10:10Z</time></trkpt><trkpt lat="36.9138893965118" lon="15.060185504932832"><ele>289.8</ele><time>2026-04-11T17:10:11Z</time></trkpt><trkpt lat="36.9138031871443" lon="15.060097711332208"><ele>286.0</ele><time>2026-04-11T17:10:12Z</time></trkpt><trkpt lat="36.91370614841441" lon="15.059997618994833"><ele>284.75</ele><time>2026-04-11T17:10:13Z</time></trkpt><trkpt lat="36.91361237506694" lon="15.0599035613537"><ele>283.5</ele><time>2026-04-11T17:10:14Z</time></trkpt><trkpt lat="36.91351839072775" lon="15.059823451097191"><ele>282.25</ele><time>2026-04-11T17:10:15Z</time></trkpt><trkpt lat="36.91342701502507" lon="15.059746182127189"><ele>281.0</ele><time>2026-04-11T17:10:15.999Z</time></trkpt><trkpt lat="36.91333480063815" lon="15.05965199537188"><ele>277.0</ele><time>2026-04-11T17:10:16.999Z</time></trkpt><trkpt lat="36.91322741033217" lon="15.059568386478277"><ele>273.0</ele><time>2026-04-11T17:10:17.999Z</time></trkpt><trkpt lat="36.91311730983294" lon="15.059480126096538"><ele>269.0</ele><time>2026-04-11T17:10:18.999Z</time></trkpt><trkpt lat="36.913006914204644" lon="15.059398255878751"><ele>265.0</ele><time>2026-04-11T17:10:19.999Z</time></trkpt><trkpt lat="36.91289724961625" lon="15.059326797550378"><ele>265.0</ele><time>2026-04-11T17:10:20.999Z</time></trkpt><trkpt lat="36.91279418364506" lon="15.059266986204978"><ele>265.0</ele><time>2026-04-11T17:10:21.999Z</time></trkpt><trkpt lat="36.91269921043211" lon="15.05922628305539"><ele>265.0</ele><time>2026-04-11T17:10:22.999Z</time></trkpt><trkpt lat="36.91262065589794" lon="15.059179105654158"><ele>265.0</ele><time>2026-04-11T17:10:23.999Z</time></trkpt><trkpt lat="36.91255006716479" lon="15.059149761499997"><ele>265.0</ele><time>2026-04-11T17:10:24.999Z</time></trkpt><trkpt lat="36.912499000784145" lon="15.059081551490491"><ele>260.5</ele><time>2026-04-11T17:10:25.999Z</time></trkpt><trkpt lat="36.912416592363925" lon="15.058992853905059"><ele>256.0</ele><time>2026-04-11T17:10:26.999Z</time></trkpt><trkpt lat="36.912324420741854" lon="15.058906414179523"><ele>251.5</ele><time>2026-04-11T17:10:27.999Z</time></trkpt><trkpt lat="36.91222832043695" lon="15.058827356170648"><ele>247.0</ele><time>2026-04-11T17:10:28.999Z</time></trkpt><trkpt lat="36.912135991612246" lon="15.058744340237897"><ele>247.0</ele><time>2026-04-11T17:10:29.999Z</time></trkpt><trkpt lat="36.91204095601639" lon="15.058655587571662"><ele>247.0</ele><time>2026-04-11T17:10:30.999Z</time></trkpt><trkpt lat="36.91194193869313" lon="15.058568084063168"><ele>247.0</ele><time>2026-04-11T17:10:31.999Z</time></trkpt><trkpt lat="36.91184269946036" lon="15.058486222515054"><ele>247.0</ele><time>2026-04-11T17:10:32.999Z</time></trkpt><trkpt lat="36.911742614909514" lon="15.05841349723202"><ele>247.25</ele><time>2026-04-11T17:10:33.999Z</time></trkpt><trkpt lat="36.91164574027342" lon="15.058337669448683"><ele>247.5</ele><time>2026-04-11T17:10:34.999Z</time></trkpt><trkpt lat="36.911556717753896" lon="15.058241525863668"><ele>247.75</ele><time>2026-04-11T17:10:35.999Z</time></trkpt><trkpt lat="36.91147934157425" lon="15.058119879630572"><ele>248.0</ele><time>2026-04-11T17:10:36.999Z</time></trkpt><trkpt lat="36.91141012515295" lon="15.057992250239733"><ele>246.8</ele><time>2026-04-11T17:10:37.999Z</time></trkpt><trkpt lat="36.911337754737524" lon="15.057880216484458"><ele>245.60000000000002</ele><time>2026-04-11T17:10:38.999Z</time></trkpt><trkpt lat="36.91126068144395" lon="15.057790823882584"><ele>244.39999999999998</ele><time>2026-04-11T17:10:39.999Z</time></trkpt><trkpt lat="36.91118201620284" lon="15.05775806127075"><ele>243.2</ele><time>2026-04-11T17:10:40.999Z</time></trkpt><trkpt lat="36.91109724115318" lon="15.057758301727615"><ele>242.0</ele><time>2026-04-11T17:10:41.999Z</time></trkpt><trkpt lat="36.91100115641009" lon="15.05772819376254"><ele>239.25</ele><time>2026-04-11T17:10:43.999Z</time></trkpt><trkpt lat="36.91081183020864" lon="15.05774770422764"><ele>236.5</ele><time>2026-04-11T17:15:01.999Z</time></trkpt><trkpt lat="36.91072437140537" lon="15.057713886963972"><ele>233.75</ele><time>2026-04-11T17:15:02.999Z</time></trkpt><trkpt lat="36.91061497219107" lon="15.057670697951172"><ele>231.0</ele><time>2026-04-11T17:15:04Z</time></trkpt><trkpt lat="36.91051498551502" lon="15.057514768698724"><ele>231.0</ele><time>2026-04-11T17:15:05Z</time></trkpt><trkpt lat="36.91038389975724" lon="15.057475148489969"><ele>231.0</ele><time>2026-04-11T17:15:06Z</time></trkpt><trkpt lat="36.91027058825343" lon="15.057430406441828"><ele>231.0</ele><time>2026-04-11T17:15:07Z</time></trkpt><trkpt lat="36.910185831072475" lon="15.057367870584187"><ele>231.0</ele><time>2026-04-11T17:15:08Z</time></trkpt><trkpt lat="36.91009463503922" lon="15.05730407113092"><ele>226.60000000000002</ele><time>2026-04-11T17:15:09Z</time></trkpt><trkpt lat="36.91000665562503" lon="15.057245074609995"><ele>222.20000000000002</ele><time>2026-04-11T17:15:10Z</time></trkpt><trkpt lat="36.90992762036965" lon="15.057194773290522"><ele>217.8</ele><time>2026-04-11T17:15:11Z</time></trkpt><trkpt lat="36.90983940514773" lon="15.05715031310358"><ele>213.39999999999998</ele><time>2026-04-11T17:15:12Z</time></trkpt><trkpt lat="36.909751736556444" lon="15.05711361551096"><ele>209.0</ele><time>2026-04-11T17:15:13Z</time></trkpt><trkpt lat="36.90965032308788" lon="15.05709141631803"><ele>209.00000000000003</ele><time>2026-04-11T17:15:14Z</time></trkpt><trkpt lat="36.909561456952" lon="15.057084279259195"><ele>209.0</ele><time>2026-04-11T17:15:15Z</time></trkpt><trkpt lat="36.90948173711313" lon="15.057083241069929"><ele>209.0</ele><time>2026-04-11T17:15:16Z</time></trkpt><trkpt lat="36.90949837499336" lon="15.056998127984812"><ele>209.0</ele><time>2026-04-11T17:16:14Z</time></trkpt><trkpt lat="36.90953505628808" lon="15.05692756397533"><ele>209.00000000000003</ele><time>2026-04-11T17:16:22Z</time></trkpt><trkpt lat="36.909518300723455" lon="15.05682657800937"><ele>209.0</ele><time>2026-04-11T17:17:06.999Z</time></trkpt><trkpt lat="36.90949283348566" lon="15.056903833207905"><ele>209.00000000000003</ele><time>2026-04-11T17:17:14Z</time></trkpt><trkpt lat="36.90945310060776" lon="15.056975302441028"><ele>209.0</ele><time>2026-04-11T17:17:21Z</time></trkpt><trkpt lat="36.909442271380996" lon="15.057068604296708"><ele>209.0</ele><time>2026-04-11T17:18:21.999Z</time></trkpt><trkpt lat="36.90937823805611" lon="15.057110804169213"><ele>209.0</ele><time>2026-04-11T17:18:28.999Z</time></trkpt><trkpt lat="36.90930744556694" lon="15.057104216560482"><ele>209.00000000000003</ele><time>2026-04-11T17:18:32.999Z</time></trkpt><trkpt lat="36.90923845361289" lon="15.057100797504855"><ele>209.0</ele><time>2026-04-11T17:18:35.999Z</time></trkpt><trkpt lat="36.90914114650197" lon="15.057118649674596"><ele>209.0</ele><time>2026-04-11T17:18:38.999Z</time></trkpt><trkpt lat="36.90906816541264" lon="15.05713646632655"><ele>209.0</ele><time>2026-04-11T17:18:40.999Z</time></trkpt><trkpt lat="36.908976178623845" lon="15.057143880821124"><ele>209.0</ele><time>2026-04-11T17:18:42.999Z</time></trkpt><trkpt lat="36.90888809762554" lon="15.057169652619487"><ele>209.0</ele><time>2026-04-11T17:18:44.999Z</time></trkpt><trkpt lat="36.90878773130733" lon="15.057208729375288"><ele>209.0</ele><time>2026-04-11T17:18:46.999Z</time></trkpt><trkpt lat="36.90868699042269" lon="15.057241950178739"><ele>209.0</ele><time>2026-04-11T17:18:48.999Z</time></trkpt><trkpt lat="36.90858802912585" lon="15.05729678295937"><ele>209.0</ele><time>2026-04-11T17:18:50.999Z</time></trkpt><trkpt lat="36.90852515419271" lon="15.057324067848992"><ele>209.0</ele><time>2026-04-11T17:18:51.999Z</time></trkpt><trkpt lat="36.90846376785484" lon="15.057352161828904"><ele>209.0</ele><time>2026-04-11T17:18:52.999Z</time></trkpt><trkpt lat="36.90840424775031" lon="15.057383470360314"><ele>209.0</ele><time>2026-04-11T17:18:53.999Z</time></trkpt><trkpt lat="36.908344926286304" lon="15.057412986817843"><ele>209.0</ele><time>2026-04-11T17:18:54.999Z</time></trkpt><trkpt lat="36.908284735543994" lon="15.057445686363256"><ele>209.0</ele><time>2026-04-11T17:18:55.999Z</time></trkpt><trkpt lat="36.908224839854896" lon="15.05747611258375"><ele>209.14285714285714</ele><time>2026-04-11T17:18:56.999Z</time></trkpt><trkpt lat="36.90816369754852" lon="15.057506531408539"><ele>209.28571428571428</ele><time>2026-04-11T17:18:57.999Z</time></trkpt><trkpt lat="36.90810200784201" lon="15.057535370225098"><ele>209.42857142857144</ele><time>2026-04-11T17:18:58.999Z</time></trkpt><trkpt lat="36.90804066845586" lon="15.057564599157097"><ele>209.57142857142856</ele><time>2026-04-11T17:18:59.999Z</time></trkpt><trkpt lat="36.90797731053301" lon="15.057597238538754"><ele>209.71428571428572</ele><time>2026-04-11T17:19:00.999Z</time></trkpt><trkpt lat="36.90790759922575" lon="15.05762886904506"><ele>209.85714285714286</ele><time>2026-04-11T17:19:01.999Z</time></trkpt><trkpt lat="36.90783809424961" lon="15.057662993474603"><ele>210.0</ele><time>2026-04-11T17:19:02.999Z</time></trkpt><trkpt lat="36.907760134273964" lon="15.057697593830467"><ele>210.0</ele><time>2026-04-11T17:19:03.999Z</time></trkpt><trkpt lat="36.90768532938685" lon="15.057737594375915"><ele>210.0</ele><time>2026-04-11T17:19:04.999Z</time></trkpt><trkpt lat="36.90760645163061" lon="15.057775317607911"><ele>210.0</ele><time>2026-04-11T17:19:05.999Z</time></trkpt><trkpt lat="36.90752597367396" lon="15.057820851685719"><ele>210.0</ele><time>2026-04-11T17:19:06.999Z</time></trkpt><trkpt lat="36.907445840019726" lon="15.057865594986744"><ele>210.0</ele><time>2026-04-11T17:19:07.999Z</time></trkpt><trkpt lat="36.90736700002844" lon="15.057901487651721"><ele>210.0</ele><time>2026-04-11T17:19:08.999Z</time></trkpt><trkpt lat="36.90728902303412" lon="15.05794209023907"><ele>208.4</ele><time>2026-04-11T17:19:09.999Z</time></trkpt><trkpt lat="36.90720767496202" lon="15.057985708470557"><ele>206.8</ele><time>2026-04-11T17:19:10.999Z</time></trkpt><trkpt lat="36.90712081320292" lon="15.058029150168892"><ele>205.2</ele><time>2026-04-11T17:19:11.999Z</time></trkpt><trkpt lat="36.90703030957008" lon="15.058059846363603"><ele>203.6</ele><time>2026-04-11T17:19:12.999Z</time></trkpt><trkpt lat="36.90693445383851" lon="15.058083594066813"><ele>202.0</ele><time>2026-04-11T17:19:13.999Z</time></trkpt><trkpt lat="36.906839963843986" lon="15.058096941380306"><ele>198.6</ele><time>2026-04-11T17:19:15Z</time></trkpt><trkpt lat="36.90674055064926" lon="15.058123142014429"><ele>195.2</ele><time>2026-04-11T17:19:16Z</time></trkpt><trkpt lat="36.906641909906334" lon="15.058160599064605"><ele>191.8</ele><time>2026-04-11T17:19:17Z</time></trkpt><trkpt lat="36.90654146047833" lon="15.05819301069826"><ele>188.4</ele><time>2026-04-11T17:19:18Z</time></trkpt><trkpt lat="36.90644551873112" lon="15.05822937446339"><ele>185.0</ele><time>2026-04-11T17:19:19Z</time></trkpt><trkpt lat="36.9063465129992" lon="15.058258827866606"><ele>184.0</ele><time>2026-04-11T17:19:20Z</time></trkpt><trkpt lat="36.90625434744078" lon="15.05830016931014"><ele>183.0</ele><time>2026-04-11T17:19:21Z</time></trkpt><trkpt lat="36.9061717913724" lon="15.05833540055521"><ele>182.0</ele><time>2026-04-11T17:19:22Z</time></trkpt><trkpt lat="36.90609961261912" lon="15.058362490885411"><ele>181.0</ele><time>2026-04-11T17:19:23Z</time></trkpt><trkpt lat="36.90602056247519" lon="15.058384749887798"><ele>180.0</ele><time>2026-04-11T17:19:24Z</time></trkpt><trkpt lat="36.90594295002851" lon="15.05841375071852"><ele>179.0</ele><time>2026-04-11T17:19:25Z</time></trkpt><trkpt lat="36.905870366541144" lon="15.058442408630674"><ele>179.0</ele><time>2026-04-11T17:19:26Z</time></trkpt><trkpt lat="36.905799101835235" lon="15.058485459081218"><ele>179.0</ele><time>2026-04-11T17:19:27Z</time></trkpt><trkpt lat="36.905740431699066" lon="15.058526191118622"><ele>179.0</ele><time>2026-04-11T17:19:28Z</time></trkpt><trkpt lat="36.905680497999676" lon="15.058572523083056"><ele>179.0</ele><time>2026-04-11T17:19:29Z</time></trkpt><trkpt lat="36.905624381698" lon="15.05861995297907"><ele>179.0</ele><time>2026-04-11T17:19:30Z</time></trkpt><trkpt lat="36.90551864809638" lon="15.058708757214777"><ele>179.0</ele><time>2026-04-11T17:19:32Z</time></trkpt><trkpt lat="36.90542829265804" lon="15.0587863478391"><ele>179.0</ele><time>2026-04-11T17:19:34Z</time></trkpt><trkpt lat="36.905334147234974" lon="15.058840735278837"><ele>179.0</ele><time>2026-04-11T17:19:36Z</time></trkpt><trkpt lat="36.90526591557915" lon="15.058912786019823"><ele>179.0</ele><time>2026-04-11T17:19:38Z</time></trkpt><trkpt lat="36.905158188328166" lon="15.05900110187993"><ele>179.0</ele><time>2026-04-11T17:19:40Z</time></trkpt><trkpt lat="36.90509745951053" lon="15.059089949247715"><ele>179.0</ele><time>2026-04-11T17:19:41Z</time></trkpt><trkpt lat="36.905013850423906" lon="15.059164231480358"><ele>178.6</ele><time>2026-04-11T17:19:42Z</time></trkpt><trkpt lat="36.904936741961095" lon="15.05924872845936"><ele>178.2</ele><time>2026-04-11T17:19:43Z</time></trkpt><trkpt lat="36.904868304958576" lon="15.059315255682614"><ele>177.79999999999998</ele><time>2026-04-11T17:19:44Z</time></trkpt><trkpt lat="36.90479707219594" lon="15.059385158940847"><ele>177.39999999999998</ele><time>2026-04-11T17:19:45Z</time></trkpt><trkpt lat="36.90472130354584" lon="15.059425837648778"><ele>177.0</ele><time>2026-04-11T17:19:46Z</time></trkpt><trkpt lat="36.90464737346463" lon="15.059484199851937"><ele>177.0</ele><time>2026-04-11T17:19:47Z</time></trkpt><trkpt lat="36.90456785607441" lon="15.059536993635602"><ele>177.0</ele><time>2026-04-11T17:19:48Z</time></trkpt><trkpt lat="36.90448246912187" lon="15.05959596411321"><ele>177.0</ele><time>2026-04-11T17:19:49Z</time></trkpt><trkpt lat="36.90439086811203" lon="15.059661238056052"><ele>177.0</ele><time>2026-04-11T17:19:50Z</time></trkpt><trkpt lat="36.904302009076545" lon="15.059745501583599"><ele>177.0</ele><time>2026-04-11T17:19:51Z</time></trkpt><trkpt lat="36.90419812216152" lon="15.059814814121268"><ele>176.75</ele><time>2026-04-11T17:19:52Z</time></trkpt><trkpt lat="36.90409124617691" lon="15.059882983970688"><ele>176.5</ele><time>2026-04-11T17:19:53Z</time></trkpt><trkpt lat="36.90398172236704" lon="15.05994034930692"><ele>176.25</ele><time>2026-04-11T17:19:54Z</time></trkpt><trkpt lat="36.90387331025076" lon="15.059998874682364"><ele>176.0</ele><time>2026-04-11T17:19:55Z</time></trkpt><trkpt lat="36.90376889514409" lon="15.060059425210893"><ele>176.0</ele><time>2026-04-11T17:19:56Z</time></trkpt><trkpt lat="36.90366510091896" lon="15.06011866643684"><ele>176.0</ele><time>2026-04-11T17:19:57Z</time></trkpt><trkpt lat="36.90355520329488" lon="15.060162702650175"><ele>176.0</ele><time>2026-04-11T17:19:58Z</time></trkpt><trkpt lat="36.903445302365384" lon="15.060156470486321"><ele>176.0</ele><time>2026-04-11T17:19:59Z</time></trkpt><trkpt lat="36.90333678785621" lon="15.060172294545888"><ele>176.0</ele><time>2026-04-11T17:20:00Z</time></trkpt><trkpt lat="36.90322959058522" lon="15.060164345353426"><ele>174.0</ele><time>2026-04-11T17:20:01Z</time></trkpt><trkpt lat="36.90313447502521" lon="15.060177640003424"><ele>172.0</ele><time>2026-04-11T17:20:02Z</time></trkpt><trkpt lat="36.90305284173531" lon="15.060223240779225"><ele>170.0</ele><time>2026-04-11T17:20:03Z</time></trkpt><trkpt lat="36.902979843136606" lon="15.060278604531733"><ele>168.0</ele><time>2026-04-11T17:20:04Z</time></trkpt><trkpt lat="36.902907611000046" lon="15.06033583395288"><ele>166.0</ele><time>2026-04-11T17:20:05Z</time></trkpt><trkpt lat="36.90283144140945" lon="15.060389628388291"><ele>164.0</ele><time>2026-04-11T17:20:06Z</time></trkpt><trkpt lat="36.90275218346903" lon="15.060451163424391"><ele>164.0</ele><time>2026-04-11T17:20:07Z</time></trkpt><trkpt lat="36.902665566669285" lon="15.06050148121908"><ele>164.0</ele><time>2026-04-11T17:20:08Z</time></trkpt><trkpt lat="36.902567702612984" lon="15.060489170000604"><ele>164.0</ele><time>2026-04-11T17:20:09Z</time></trkpt><trkpt lat="36.90246991853721" lon="15.060466324739888"><ele>164.0</ele><time>2026-04-11T17:20:10Z</time></trkpt><trkpt lat="36.902372639190354" lon="15.060473578444116"><ele>164.0</ele><time>2026-04-11T17:20:11Z</time></trkpt><trkpt lat="36.902272859315" lon="15.060486428830067"><ele>161.2</ele><time>2026-04-11T17:20:12Z</time></trkpt><trkpt lat="36.90217562975818" lon="15.060517163675"><ele>158.39999999999998</ele><time>2026-04-11T17:20:13Z</time></trkpt><trkpt lat="36.90207748417011" lon="15.060559758223315"><ele>155.6</ele><time>2026-04-11T17:20:14Z</time></trkpt><trkpt lat="36.90198208201582" lon="15.060618304186738"><ele>152.8</ele><time>2026-04-11T17:20:15Z</time></trkpt><trkpt lat="36.90188407883244" lon="15.060693616986338"><ele>150.0</ele><time>2026-04-11T17:20:16Z</time></trkpt><trkpt lat="36.90178477329729" lon="15.060733565034349"><ele>151.8</ele><time>2026-04-11T17:20:17Z</time></trkpt><trkpt lat="36.90169162263025" lon="15.060793354238465"><ele>153.6</ele><time>2026-04-11T17:20:18Z</time></trkpt><trkpt lat="36.9015875275637" lon="15.060824747096738"><ele>155.4</ele><time>2026-04-11T17:20:19Z</time></trkpt><trkpt lat="36.901476893721075" lon="15.060844998525052"><ele>157.2</ele><time>2026-04-11T17:20:19.999Z</time></trkpt><trkpt lat="36.90136538727241" lon="15.060857975027925"><ele>159.0</ele><time>2026-04-11T17:20:20.999Z</time></trkpt><trkpt lat="36.901262392099866" lon="15.06086909205696"><ele>159.0</ele><time>2026-04-11T17:20:21.999Z</time></trkpt><trkpt lat="36.901162458662284" lon="15.060886615799713"><ele>159.0</ele><time>2026-04-11T17:20:22.999Z</time></trkpt><trkpt lat="36.90106176995398" lon="15.060910810736212"><ele>159.0</ele><time>2026-04-11T17:20:23.999Z</time></trkpt><trkpt lat="36.90095004568019" lon="15.060927831182061"><ele>159.0</ele><time>2026-04-11T17:20:24.999Z</time></trkpt><trkpt lat="36.900836238428674" lon="15.060931617084012"><ele>159.0</ele><time>2026-04-11T17:20:25.999Z</time></trkpt><trkpt lat="36.9007267637748" lon="15.060927433353234"><ele>157.0</ele><time>2026-04-11T17:20:26.999Z</time></trkpt><trkpt lat="36.90062064046667" lon="15.060929992193651"><ele>155.0</ele><time>2026-04-11T17:20:27.999Z</time></trkpt><trkpt lat="36.900516964444456" lon="15.060909896269312"><ele>153.0</ele><time>2026-04-11T17:20:28.999Z</time></trkpt><trkpt lat="36.900424934486956" lon="15.060921628687758"><ele>151.0</ele><time>2026-04-11T17:20:29.999Z</time></trkpt><trkpt lat="36.90035957778963" lon="15.060907224503692"><ele>149.0</ele><time>2026-04-11T17:20:30.999Z</time></trkpt><trkpt lat="36.90029553387461" lon="15.060872402711208"><ele>147.0</ele><time>2026-04-11T17:20:32.999Z</time></trkpt><trkpt lat="36.9002299211438" lon="15.060907613034566"><ele>147.0</ele><time>2026-04-11T17:20:33.999Z</time></trkpt><trkpt lat="36.90017204414815" lon="15.060970054401443"><ele>147.0</ele><time>2026-04-11T17:20:34.999Z</time></trkpt><trkpt lat="36.90008961187232" lon="15.061009766982167"><ele>147.0</ele><time>2026-04-11T17:20:35.999Z</time></trkpt><trkpt lat="36.89999945515507" lon="15.061079136111037"><ele>147.0</ele><time>2026-04-11T17:20:36.999Z</time></trkpt><trkpt lat="36.899912911857776" lon="15.061164840429557"><ele>147.0</ele><time>2026-04-11T17:20:37.999Z</time></trkpt><trkpt lat="36.89982720689112" lon="15.061263017560162"><ele>144.75</ele><time>2026-04-11T17:20:38.999Z</time></trkpt><trkpt lat="36.89973745820684" lon="15.061373211694772"><ele>142.5</ele><time>2026-04-11T17:20:39.999Z</time></trkpt><trkpt lat="36.89964854224227" lon="15.06148491662227"><ele>140.25</ele><time>2026-04-11T17:20:40.999Z</time></trkpt><trkpt lat="36.899559225784884" lon="15.061596186465312"><ele>138.0</ele><time>2026-04-11T17:20:41.999Z</time></trkpt><trkpt lat="36.899461924877954" lon="15.061701372807928"><ele>137.33333333333334</ele><time>2026-04-11T17:20:42.999Z</time></trkpt><trkpt lat="36.899343743239335" lon="15.061791514958408"><ele>136.66666666666669</ele><time>2026-04-11T17:20:43.999Z</time></trkpt><trkpt lat="36.899197166704106" lon="15.061866411454124"><ele>136.0</ele><time>2026-04-11T17:20:44.999Z</time></trkpt><trkpt lat="36.899028306776316" lon="15.06193173594883"><ele>135.0</ele><time>2026-04-11T17:20:45.999Z</time></trkpt><trkpt lat="36.89885359341349" lon="15.061947411859181"><ele>134.0</ele><time>2026-04-11T17:20:46.999Z</time></trkpt><trkpt lat="36.89868166126876" lon="15.061953067340356"><ele>133.0</ele><time>2026-04-11T17:20:47.999Z</time></trkpt><trkpt lat="36.89850901745809" lon="15.06196845879474"><ele>131.66666666666669</ele><time>2026-04-11T17:20:48.999Z</time></trkpt><trkpt lat="36.898331982514534" lon="15.061939908908183"><ele>130.33333333333334</ele><time>2026-04-11T17:20:49.999Z</time></trkpt><trkpt lat="36.8981608955764" lon="15.061886512734795"><ele>129.0</ele><time>2026-04-11T17:20:50.999Z</time></trkpt><trkpt lat="36.89798691390781" lon="15.06187460629269"><ele>129.0</ele><time>2026-04-11T17:20:51.999Z</time></trkpt><trkpt lat="36.897812361992024" lon="15.061892164784947"><ele>129.0</ele><time>2026-04-11T17:20:52.999Z</time></trkpt><trkpt lat="36.89763916153544" lon="15.06189242966933"><ele>129.0</ele><time>2026-04-11T17:20:53.999Z</time></trkpt><trkpt lat="36.89746711190009" lon="15.061884113966126"><ele>125.66666666666666</ele><time>2026-04-11T17:20:54.999Z</time></trkpt><trkpt lat="36.897293788344996" lon="15.061844408732302"><ele>122.33333333333333</ele><time>2026-04-11T17:20:55.999Z</time></trkpt><trkpt lat="36.89711997320069" lon="15.061839155584465"><ele>119.0</ele><time>2026-04-11T17:20:56.999Z</time></trkpt><trkpt lat="36.89694821261604" lon="15.061812353099398"><ele>119.0</ele><time>2026-04-11T17:20:57.999Z</time></trkpt><trkpt lat="36.89677961820098" lon="15.061795268990078"><ele>119.0</ele><time>2026-04-11T17:20:58.999Z</time></trkpt><trkpt lat="36.89661667036158" lon="15.061782982824102"><ele>119.0</ele><time>2026-04-11T17:20:59.999Z</time></trkpt><trkpt lat="36.8964656384101" lon="15.061764306510469"><ele>115.33333333333333</ele><time>2026-04-11T17:21:00.999Z</time></trkpt><trkpt lat="36.89630694223336" lon="15.061748983698063"><ele>111.66666666666666</ele><time>2026-04-11T17:21:01.999Z</time></trkpt><trkpt lat="36.89614841908897" lon="15.061730906951484"><ele>108.0</ele><time>2026-04-11T17:21:02.999Z</time></trkpt><trkpt lat="36.89599295928885" lon="15.061713697440233"><ele>108.5</ele><time>2026-04-11T17:21:03.999Z</time></trkpt><trkpt lat="36.89584042593036" lon="15.061714225163813"><ele>109.0</ele><time>2026-04-11T17:21:04.999Z</time></trkpt><trkpt lat="36.895695892889066" lon="15.061744143818292"><ele>109.5</ele><time>2026-04-11T17:21:05.999Z</time></trkpt><trkpt lat="36.89555305675681" lon="15.061789616682697"><ele>110.0</ele><time>2026-04-11T17:21:06.999Z</time></trkpt><trkpt lat="36.89541563399682" lon="15.06183254102022"><ele>110.0</ele><time>2026-04-11T17:21:07.999Z</time></trkpt><trkpt lat="36.895276754577885" lon="15.061858856465582"><ele>110.0</ele><time>2026-04-11T17:21:08.999Z</time></trkpt><trkpt lat="36.89513658078631" lon="15.061857582328097"><ele>110.0</ele><time>2026-04-11T17:21:09.999Z</time></trkpt><trkpt lat="36.89499495832117" lon="15.061863394945062"><ele>110.0</ele><time>2026-04-11T17:21:10.999Z</time></trkpt><trkpt lat="36.894852619255424" lon="15.06187921420635"><ele>110.0</ele><time>2026-04-11T17:21:11.999Z</time></trkpt><trkpt lat="36.89472086889076" lon="15.061916618487214"><ele>110.0</ele><time>2026-04-11T17:21:12.999Z</time></trkpt><trkpt lat="36.89460050452718" lon="15.06191747764534"><ele>110.0</ele><time>2026-04-11T17:21:13.999Z</time></trkpt><trkpt lat="36.89449184106792" lon="15.061941584598562"><ele>110.0</ele><time>2026-04-11T17:21:14.999Z</time></trkpt><trkpt lat="36.894388506520606" lon="15.061940485954844"><ele>110.0</ele><time>2026-04-11T17:21:15.999Z</time></trkpt><trkpt lat="36.89427727973198" lon="15.061931985594823"><ele>110.0</ele><time>2026-04-11T17:21:16.999Z</time></trkpt><trkpt lat="36.89416043387722" lon="15.06191967970648"><ele>110.0</ele><time>2026-04-11T17:21:17.999Z</time></trkpt><trkpt lat="36.89404520410504" lon="15.061907432863194"><ele>110.0</ele><time>2026-04-11T17:21:18.999Z</time></trkpt><trkpt lat="36.8939276894275" lon="15.061893261045679"><ele>110.25</ele><time>2026-04-11T17:21:20Z</time></trkpt><trkpt lat="36.8938087792479" lon="15.061872699374986"><ele>110.5</ele><time>2026-04-11T17:21:21Z</time></trkpt><trkpt lat="36.89369249140894" lon="15.061840706434776"><ele>110.75</ele><time>2026-04-11T17:21:22Z</time></trkpt><trkpt lat="36.893571393645054" lon="15.061791240175259"><ele>111.0</ele><time>2026-04-11T17:21:23Z</time></trkpt><trkpt lat="36.89345485076741" lon="15.061732886408585"><ele>111.5</ele><time>2026-04-11T17:21:24Z</time></trkpt><trkpt lat="36.89333866104453" lon="15.06167942373391"><ele>112.0</ele><time>2026-04-11T17:21:25Z</time></trkpt><trkpt lat="36.89322494941192" lon="15.061629042405634"><ele>112.5</ele><time>2026-04-11T17:21:26Z</time></trkpt><trkpt lat="36.89311440251983" lon="15.061583085378098"><ele>113.0</ele><time>2026-04-11T17:21:27Z</time></trkpt><trkpt lat="36.893007755318806" lon="15.061538611783362"><ele>110.4</ele><time>2026-04-11T17:21:28Z</time></trkpt><trkpt lat="36.89290824866875" lon="15.061494009163251"><ele>107.80000000000001</ele><time>2026-04-11T17:21:29Z</time></trkpt><trkpt lat="36.89280310793234" lon="15.061461746776772"><ele>105.2</ele><time>2026-04-11T17:21:30Z</time></trkpt><trkpt lat="36.89269755797328" lon="15.06144884595262"><ele>102.6</ele><time>2026-04-11T17:21:31Z</time></trkpt><trkpt lat="36.89259102808254" lon="15.061455658272301"><ele>100.0</ele><time>2026-04-11T17:21:32Z</time></trkpt><trkpt lat="36.89248865032931" lon="15.06147499562678"><ele>99.2</ele><time>2026-04-11T17:21:33Z</time></trkpt><trkpt lat="36.8923873015687" lon="15.06150441414979"><ele>98.4</ele><time>2026-04-11T17:21:34Z</time></trkpt><trkpt lat="36.89229044275575" lon="15.0615440585379"><ele>97.6</ele><time>2026-04-11T17:21:35Z</time></trkpt><trkpt lat="36.89219975492413" lon="15.06158993796434"><ele>96.8</ele><time>2026-04-11T17:21:36Z</time></trkpt><trkpt lat="36.89211386996463" lon="15.06163936286602"><ele>96.0</ele><time>2026-04-11T17:21:37Z</time></trkpt><trkpt lat="36.89204580531588" lon="15.061684506757487"><ele>96.0</ele><time>2026-04-11T17:21:38Z</time></trkpt><trkpt lat="36.891979828502336" lon="15.061732599915707"><ele>96.0</ele><time>2026-04-11T17:21:39Z</time></trkpt><trkpt lat="36.89190521770139" lon="15.061780988739915"><ele>96.0</ele><time>2026-04-11T17:21:40Z</time></trkpt><trkpt lat="36.891823078922656" lon="15.061838614932379"><ele>96.0</ele><time>2026-04-11T17:21:41Z</time></trkpt><trkpt lat="36.891737987689055" lon="15.061896651851395"><ele>96.0</ele><time>2026-04-11T17:21:42Z</time></trkpt><trkpt lat="36.891651470003374" lon="15.061950086139266"><ele>96.0</ele><time>2026-04-11T17:21:43Z</time></trkpt><trkpt lat="36.89156707241943" lon="15.062000759190193"><ele>96.0</ele><time>2026-04-11T17:21:44Z</time></trkpt><trkpt lat="36.891482560138996" lon="15.062055929911953"><ele>96.0</ele><time>2026-04-11T17:21:45Z</time></trkpt><trkpt lat="36.89139942493216" lon="15.062106530611345"><ele>96.0</ele><time>2026-04-11T17:21:46Z</time></trkpt><trkpt lat="36.89131837555968" lon="15.062157496676395"><ele>96.0</ele><time>2026-04-11T17:21:47Z</time></trkpt><trkpt lat="36.89124179047493" lon="15.06221007219175"><ele>96.0</ele><time>2026-04-11T17:21:48Z</time></trkpt><trkpt lat="36.89116700906436" lon="15.062260717205062"><ele>96.0</ele><time>2026-04-11T17:21:49Z</time></trkpt><trkpt lat="36.89109389202809" lon="15.062311635071625"><ele>96.0</ele><time>2026-04-11T17:21:50Z</time></trkpt><trkpt lat="36.89102389426666" lon="15.062361046031741"><ele>96.0</ele><time>2026-04-11T17:21:51Z</time></trkpt><trkpt lat="36.89095760984828" lon="15.062408873443134"><ele>96.0</ele><time>2026-04-11T17:21:52Z</time></trkpt><trkpt lat="36.89089617855736" lon="15.062450555923581"><ele>96.0</ele><time>2026-04-11T17:21:53Z</time></trkpt><trkpt lat="36.89083901388607" lon="15.06248924097249"><ele>96.0</ele><time>2026-04-11T17:21:54Z</time></trkpt><trkpt lat="36.89073347073622" lon="15.062585870775553"><ele>95.4</ele><time>2026-04-11T17:21:56Z</time></trkpt><trkpt lat="36.89067036622621" lon="15.062630883939512"><ele>94.8</ele><time>2026-04-11T17:21:57Z</time></trkpt><trkpt lat="36.89057419149236" lon="15.062674867709557"><ele>94.2</ele><time>2026-04-11T17:21:59Z</time></trkpt><trkpt lat="36.89050486263951" lon="15.062737599601363"><ele>93.60000000000001</ele><time>2026-04-11T17:22:01Z</time></trkpt><trkpt lat="36.8904977778457" lon="15.062884302375316"><ele>93.0</ele><time>2026-04-11T17:22:03Z</time></trkpt><trkpt lat="36.89048556524333" lon="15.062990698310278"><ele>93.0</ele><time>2026-04-11T17:22:04Z</time></trkpt><trkpt lat="36.89045205617681" lon="15.063109392358259"><ele>93.0</ele><time>2026-04-11T17:22:05Z</time></trkpt><trkpt lat="36.8904180236994" lon="15.06323885100711"><ele>93.0</ele><time>2026-04-11T17:22:06Z</time></trkpt><trkpt lat="36.89038651845469" lon="15.063365819952708"><ele>93.0</ele><time>2026-04-11T17:22:07Z</time></trkpt><trkpt lat="36.890361155301036" lon="15.063501064506935"><ele>93.0</ele><time>2026-04-11T17:22:08Z</time></trkpt><trkpt lat="36.89033524715782" lon="15.063635417830392"><ele>94.2</ele><time>2026-04-11T17:22:09Z</time></trkpt><trkpt lat="36.89030713894143" lon="15.063772567807767"><ele>95.4</ele><time>2026-04-11T17:22:10Z</time></trkpt><trkpt lat="36.89028005850017" lon="15.063908214047752"><ele>96.60000000000001</ele><time>2026-04-11T17:22:11Z</time></trkpt><trkpt lat="36.890252186350104" lon="15.064038006527921"><ele>97.80000000000001</ele><time>2026-04-11T17:22:12Z</time></trkpt><trkpt lat="36.89022724811687" lon="15.064170607074757"><ele>99.0</ele><time>2026-04-11T17:22:13Z</time></trkpt><trkpt lat="36.89020078315928" lon="15.064301801808226"><ele>99.6</ele><time>2026-04-11T17:22:14Z</time></trkpt><trkpt lat="36.890175488691256" lon="15.064422428661999"><ele>100.2</ele><time>2026-04-11T17:22:15Z</time></trkpt><trkpt lat="36.890151161030076" lon="15.06454255876857"><ele>100.8</ele><time>2026-04-11T17:22:16Z</time></trkpt><trkpt lat="36.890129202511744" lon="15.06465853363257"><ele>101.39999999999999</ele><time>2026-04-11T17:22:17Z</time></trkpt><trkpt lat="36.890107349927" lon="15.06477764779532"><ele>102.0</ele><time>2026-04-11T17:22:18Z</time></trkpt><trkpt lat="36.89008412437711" lon="15.064901187133387"><ele>102.39999999999999</ele><time>2026-04-11T17:22:19Z</time></trkpt><trkpt lat="36.89005827520686" lon="15.06501744626464"><ele>102.8</ele><time>2026-04-11T17:22:20Z</time></trkpt><trkpt lat="36.890033641206244" lon="15.065134641190921"><ele>103.2</ele><time>2026-04-11T17:22:21Z</time></trkpt><trkpt lat="36.89000903894268" lon="15.065243722044917"><ele>103.6</ele><time>2026-04-11T17:22:22Z</time></trkpt><trkpt lat="36.88998527802592" lon="15.065350232665986"><ele>104.0</ele><time>2026-04-11T17:22:23Z</time></trkpt><trkpt lat="36.88996059802838" lon="15.065452232894668"><ele>104.0</ele><time>2026-04-11T17:22:24Z</time></trkpt><trkpt lat="36.88994171121628" lon="15.065553938169963"><ele>104.0</ele><time>2026-04-11T17:22:25Z</time></trkpt><trkpt lat="36.889919810350484" lon="15.065659942083117"><ele>104.0</ele><time>2026-04-11T17:22:26Z</time></trkpt><trkpt lat="36.88990156307447" lon="15.065739977429724"><ele>104.0</ele><time>2026-04-11T17:22:27Z</time></trkpt><trkpt lat="36.889741773908895" lon="15.065743886024592"><ele>104.0</ele><time>2026-04-11T17:22:29.999Z</time></trkpt><trkpt lat="36.88965795859236" lon="15.065706182542609"><ele>104.0</ele><time>2026-04-11T17:22:30.999Z</time></trkpt><trkpt lat="36.8895601708876" lon="15.06566567198778"><ele>104.0</ele><time>2026-04-11T17:22:31.999Z</time></trkpt><trkpt lat="36.88945417975457" lon="15.06562017915592"><ele>104.0</ele><time>2026-04-11T17:22:32.999Z</time></trkpt><trkpt lat="36.88936765705179" lon="15.065582591082727"><ele>104.0</ele><time>2026-04-11T17:22:33.999Z</time></trkpt><trkpt lat="36.88927492989721" lon="15.065548639719141"><ele>104.0</ele><time>2026-04-11T17:22:35.999Z</time></trkpt><trkpt lat="36.88917059064467" lon="15.065663922214828"><ele>103.75</ele><time>2026-04-11T17:22:37.999Z</time></trkpt><trkpt lat="36.88906051832655" lon="15.065766903487804"><ele>103.5</ele><time>2026-04-11T17:22:38.999Z</time></trkpt><trkpt lat="36.888924257055585" lon="15.065880524664644"><ele>103.25</ele><time>2026-04-11T17:22:39.999Z</time></trkpt><trkpt lat="36.888797893825284" lon="15.0659427749422"><ele>103.0</ele><time>2026-04-11T17:22:40.999Z</time></trkpt><trkpt lat="36.88872296564547" lon="15.066029697429983"><ele>103.0</ele><time>2026-04-11T17:22:41.999Z</time></trkpt><trkpt lat="36.888564306689425" lon="15.065945325917669"><ele>103.0</ele><time>2026-04-11T17:22:42.999Z</time></trkpt><trkpt lat="36.888676727934616" lon="15.066089567733355"><ele>103.0</ele><time>2026-04-11T17:22:43.999Z</time></trkpt><trkpt lat="36.88873711897731" lon="15.066185226471248"><ele>103.0</ele><time>2026-04-11T17:22:45.999Z</time></trkpt><trkpt lat="36.88877846120947" lon="15.066272575949242"><ele>103.00000000000001</ele><time>2026-04-11T17:22:46.999Z</time></trkpt><trkpt lat="36.88874748286973" lon="15.06638910683875"><ele>103.0</ele><time>2026-04-11T17:22:48.999Z</time></trkpt><trkpt lat="36.888687704990176" lon="15.066429988802106"><ele>103.0</ele><time>2026-04-11T17:22:49.999Z</time></trkpt><trkpt lat="36.88861160404744" lon="15.066448479142041"><ele>103.0</ele><time>2026-04-11T17:22:50.999Z</time></trkpt><trkpt lat="36.888520472965915" lon="15.066476961665462"><ele>103.00000000000001</ele><time>2026-04-11T17:22:52.999Z</time></trkpt><trkpt lat="36.88849049670345" lon="15.066547340014615"><ele>103.0</ele><time>2026-04-11T17:22:53.999Z</time></trkpt><trkpt lat="36.88815998918593" lon="15.066592912967737"><ele>103.0</ele><time>2026-04-11T17:22:55.999Z</time></trkpt><trkpt lat="36.888585248453936" lon="15.066788795979097"><ele>103.00000000000001</ele><time>2026-04-11T17:22:57.999Z</time></trkpt><trkpt lat="36.88865305647105" lon="15.06679564236072"><ele>103.0</ele><time>2026-04-11T17:22:58.999Z</time></trkpt><trkpt lat="36.888730487351815" lon="15.066820394626761"><ele>103.0</ele><time>2026-04-11T17:22:59.999Z</time></trkpt><trkpt lat="36.888821745778166" lon="15.066852597649763"><ele>103.0</ele><time>2026-04-11T17:23:00.999Z</time></trkpt><trkpt lat="36.888912020692565" lon="15.066891122558188"><ele>103.00000000000001</ele><time>2026-04-11T17:23:01.999Z</time></trkpt><trkpt lat="36.88901210561637" lon="15.066922181370442"><ele>103.0</ele><time>2026-04-11T17:23:02.999Z</time></trkpt><trkpt lat="36.88910749665617" lon="15.066959323958816"><ele>103.0</ele><time>2026-04-11T17:23:03.999Z</time></trkpt><trkpt lat="36.889196291193464" lon="15.067020983691874"><ele>103.0</ele><time>2026-04-11T17:23:04.999Z</time></trkpt><trkpt lat="36.88926358029854" lon="15.06704881002652"><ele>103.0</ele><time>2026-04-11T17:23:05.999Z</time></trkpt><trkpt lat="36.88921733093519" lon="15.067204249215601"><ele>103.0</ele><time>2026-04-11T17:25:07.869Z</time></trkpt><trkpt lat="36.88910663984226" lon="15.067319485791351"><ele>103.0</ele><time>2026-04-11T17:25:19.009Z</time></trkpt><trkpt lat="36.88914145103407" lon="15.067251341638418"><ele>103.0</ele><time>2026-04-11T17:25:56.012Z</time></trkpt><trkpt lat="36.88930548711486" lon="15.067136004765425"><ele>106.0</ele><time>2026-04-11T17:26:02.695Z</time></trkpt><trkpt lat="36.88928053052273" lon="15.066983424244293"><ele>106.0</ele><time>2026-04-11T17:26:04.35Z</time></trkpt><trkpt lat="36.88930835493556" lon="15.067115553658766"><ele>106.0</ele><time>2026-04-11T17:26:12.228Z</time></trkpt><trkpt lat="36.88930835493556" lon="15.067115553658766"><ele>106.0</ele><time>2026-04-11T17:26:12.228Z</time></trkpt><trkpt lat="36.88930835493556" lon="15.067115553658766"><ele>106.0</ele><time>2026-04-11T17:26:12.228Z</time></trkpt><trkpt lat="36.88930835493556" lon="15.067115553658766"><ele>106.0</ele><time>2026-04-11T17:26:12.228Z</time></trkpt><trkpt lat="36.88930835493556" lon="15.067115553658766"><ele>106.0</ele><time>2026-04-11T17:26:12.228Z</time></trkpt><trkpt lat="36.88930835493556" lon="15.067115553658766"><ele>106.0</ele><time>2026-04-11T17:26:12.228Z</time></trkpt><trkpt lat="36.88930835493556" lon="15.067115553658766"><ele>106.0</ele><time>2026-04-11T17:26:12.228Z</time></trkpt></trkseg></trk></gpx>